Wetterdaten: Freitag, 22.12.2017
Datum Zeit Temp. A. Temp. A. max Feuchte A. Luftdruck Regen Wind Richtung Richtung Sonnenschein ET UV Solar Taupunkt Windchill Windböen
22.12.2017 00:00 1,9 °C 1,9 °C 93 % 1037,2 hPa 0,0 mm 0,9 km/h (0 Bft) S-SW 205 ° 0 min 0,000 mm 0,0 UV-I 0 W/m² 0,9 °C 1,9 °C 3,2 km/h (1 Bft)
22.12.2017 00:01 1,8 °C 1,9 °C 93 % 1037,1 hPa 0,0 mm 1,6 km/h (1 Bft) SW 232 ° 0 min 0,000 mm 0,0 UV-I 0 W/m² 0,8 °C 1,8 °C 4,8 km/h (1 Bft)
22.12.2017 00:02 1,8 °C 1,8 °C 93 % 1037,1 hPa 0,0 mm 0,9 km/h (0 Bft) SW 232 ° 0 min 0,000 mm 0,0 UV-I 0 W/m² 0,8 °C 1,8 °C 3,2 km/h (1 Bft)
22.12.2017 00:03 1,8 °C 1,8 °C 93 % 1037,2 hPa 0,0 mm 0,0 km/h (0 Bft) SW 232 ° 0 min 0,000 mm 0,0 UV-I 0 W/m² 0,8 °C 1,8 °C 0,0 km/h (0 Bft)
22.12.2017 00:04 1,8 °C 1,8 °C 93 % 1037,2 hPa 0,0 mm 0,7 km/h (0 Bft) SW 232 ° 0 min 0,000 mm 0,0 UV-I 0 W/m² 0,8 °C 1,8 °C 1,6 km/h (1 Bft)
22.12.2017 00:05 1,8 °C 1,8 °C 93 % 1037,2 hPa 0,0 mm 2,2 km/h (1 Bft) SW 232 ° 0 min 0,000 mm 0,0 UV-I 0 W/m² 0,8 °C 1,8 °C 3,2 km/h (1 Bft)
22.12.2017 00:06 1,8 °C 1,8 °C 93 % 1037,2 hPa 0,0 mm 1,5 km/h (1 Bft) SW 232 ° 0 min 0,000 mm 0,0 UV-I 0 W/m² 0,8 °C 1,8 °C 3,2 km/h (1 Bft)
22.12.2017 00:07 1,8 °C 1,8 °C 93 % 1037,2 hPa 0,0 mm 0,6 km/h (0 Bft) SW 232 ° 0 min 0,000 mm 0,0 UV-I 0 W/m² 0,8 °C 1,8 °C 1,6 km/h (1 Bft)
22.12.2017 00:08 1,8 °C 1,8 °C 93 % 1037,2 hPa 0,0 mm 0,0 km/h (0 Bft) SW 232 ° 0 min 0,000 mm 0,0 UV-I 0 W/m² 0,8 °C 1,8 °C 0,0 km/h (0 Bft)
22.12.2017 00:09 1,8 °C 1,8 °C 93 % 1037,1 hPa 0,0 mm 1,3 km/h (1 Bft) SW 232 ° 0 min 0,000 mm 0,0 UV-I 0 W/m² 0,8 °C 1,8 °C 3,2 km/h (1 Bft)
22.12.2017 00:10 1,8 °C 1,8 °C 93 % 1037,1 hPa 0,0 mm 1,6 km/h (1 Bft) SW 232 ° 0 min 0,000 mm 0,0 UV-I 0 W/m² 0,8 °C 1,8 °C 3,2 km/h (1 Bft)
22.12.2017 00:11 1,8 °C 1,8 °C 93 % 1037,1 hPa 0,0 mm 2,1 km/h (1 Bft) SW 232 ° 0 min 0,000 mm 0,0 UV-I 0 W/m² 0,8 °C 1,8 °C 3,2 km/h (1 Bft)
22.12.2017 00:12 1,8 °C 1,8 °C 93 % 1037,1 hPa 0,0 mm 5,4 km/h (1 Bft) S-SW 198 ° 0 min 0,000 mm 0,0 UV-I 0 W/m² 0,8 °C 0,3 °C 8,0 km/h (2 Bft)
22.12.2017 00:13 1,8 °C 1,8 °C 93 % 1037,1 hPa 0,2 mm 3,8 km/h (1 Bft) S-SW 198 ° 0 min 0,000 mm 0,0 UV-I 0 W/m² 0,8 °C 1,8 °C 4,8 km/h (1 Bft)
22.12.2017 00:14 1,8 °C 1,8 °C 93 % 1037,1 hPa 0,0 mm 1,9 km/h (1 Bft) S-SW 198 ° 0 min 0,000 mm 0,0 UV-I 0 W/m² 0,8 °C 1,8 °C 3,2 km/h (1 Bft)
22.12.2017 00:15 1,8 °C 1,8 °C 93 % 1037,1 hPa 0,0 mm 2,0 km/h (1 Bft) S-SW 198 ° 0 min 0,000 mm 0,0 UV-I 0 W/m² 0,8 °C 1,8 °C 3,2 km/h (1 Bft)
22.12.2017 00:16 1,8 °C 1,8 °C 93 % 1037,2 hPa 0,0 mm 4,1 km/h (1 Bft) S-SW 198 ° 0 min 0,000 mm 0,0 UV-I 0 W/m² 0,8 °C 1,8 °C 6,4 km/h (2 Bft)
22.12.2017 00:17 1,8 °C 1,8 °C 93 % 1037,1 hPa 0,0 mm 4,8 km/h (1 Bft) S-SW 205 ° 0 min 0,000 mm 0,0 UV-I 0 W/m² 0,8 °C 0,5 °C 6,4 km/h (2 Bft)
22.12.2017 00:18 1,8 °C 1,8 °C 93 % 1037,1 hPa 0,0 mm 4,2 km/h (1 Bft) S-SW 207 ° 0 min 0,000 mm 0,0 UV-I 0 W/m² 0,8 °C 1,8 °C 4,8 km/h (1 Bft)
22.12.2017 00:19 1,8 °C 1,8 °C 93 % 1037,1 hPa 0,0 mm 4,9 km/h (1 Bft) S-SW 207 ° 0 min 0,000 mm 0,0 UV-I 0 W/m² 0,8 °C 0,5 °C 9,7 km/h (2 Bft)
22.12.2017 00:20 1,8 °C 1,8 °C 93 % 1037,1 hPa 0,0 mm 5,6 km/h (1 Bft) S-SW 207 ° 0 min 0,000 mm 0,0 UV-I 0 W/m² 0,8 °C 0,2 °C 8,0 km/h (2 Bft)
22.12.2017 00:21 1,8 °C 1,8 °C 94 % 1037,1 hPa 0,0 mm 4,9 km/h (1 Bft) S-SW 211 ° 0 min 0,000 mm 0,0 UV-I 0 W/m² 0,9 °C 0,5 °C 8,0 km/h (2 Bft)
22.12.2017 00:22 1,8 °C 1,8 °C 94 % 1037,0 hPa 0,0 mm 5,4 km/h (1 Bft) S-SW 206 ° 0 min 0,000 mm 0,0 UV-I 0 W/m² 0,9 °C 0,3 °C 9,7 km/h (2 Bft)
22.12.2017 00:23 1,8 °C 1,8 °C 94 % 1037,0 hPa 0,0 mm 5,8 km/h (2 Bft) S-SW 210 ° 0 min 0,000 mm 0,0 UV-I 0 W/m² 0,9 °C 0,1 °C 8,0 km/h (2 Bft)
22.12.2017 00:24 1,8 °C 1,8 °C 94 % 1037,0 hPa 0,0 mm 4,7 km/h (1 Bft) S-SW 209 ° 0 min 0,000 mm 0,0 UV-I 0 W/m² 0,9 °C 0,6 °C 8,0 km/h (2 Bft)
22.12.2017 00:25 1,8 °C 1,8 °C 94 % 1037,0 hPa 0,0 mm 6,4 km/h (2 Bft) S-SW 194 ° 0 min 0,000 mm 0,0 UV-I 0 W/m² 0,9 °C -0,1 °C 11,3 km/h (2 Bft)
22.12.2017 00:26 1,8 °C 1,8 °C 94 % 1037,0 hPa 0,0 mm 6,5 km/h (2 Bft) S-SO 167 ° 0 min 0,000 mm 0,0 UV-I 0 W/m² 0,9 °C -0,1 °C 9,7 km/h (2 Bft)
22.12.2017 00:27 1,8 °C 1,8 °C 94 % 1036,9 hPa 0,0 mm 5,2 km/h (1 Bft) SW 234 ° 0 min 0,000 mm 0,0 UV-I 0 W/m² 0,9 °C 0,4 °C 8,0 km/h (2 Bft)
22.12.2017 00:28 1,8 °C 1,8 °C 94 % 1036,8 hPa 0,0 mm 4,1 km/h (1 Bft) S-SW 213 ° 0 min 0,000 mm 0,0 UV-I 0 W/m² 0,9 °C 1,8 °C 6,4 km/h (2 Bft)
22.12.2017 00:29 1,8 °C 1,8 °C 94 % 1036,8 hPa 0,0 mm 3,4 km/h (1 Bft) S 182 ° 0 min 0,000 mm 0,0 UV-I 0 W/m² 0,9 °C 1,8 °C 4,8 km/h (1 Bft)
22.12.2017 00:30 1,8 °C 1,8 °C 94 % 1036,8 hPa 0,0 mm 1,9 km/h (1 Bft) S-SW 202 ° 0 min 0,000 mm 0,0 UV-I 0 W/m² 0,9 °C 1,8 °C 3,2 km/h (1 Bft)
22.12.2017 00:31 1,8 °C 1,8 °C 94 % 1036,8 hPa 0,0 mm 3,4 km/h (1 Bft) SW 216 ° 0 min 0,000 mm 0,0 UV-I 0 W/m² 0,9 °C 1,8 °C 4,8 km/h (1 Bft)
22.12.2017 00:32 1,8 °C 1,8 °C 94 % 1036,7 hPa 0,0 mm 5,6 km/h (1 Bft) S-SW 198 ° 0 min 0,000 mm 0,0 UV-I 0 W/m² 0,9 °C 0,2 °C 11,3 km/h (2 Bft)
22.12.2017 00:33 1,8 °C 1,8 °C 94 % 1036,6 hPa 0,0 mm 6,1 km/h (2 Bft) W-SW 257 ° 0 min 0,000 mm 0,0 UV-I 0 W/m² 0,9 °C 0,0 °C 11,3 km/h (2 Bft)
22.12.2017 00:34 1,8 °C 1,8 °C 94 % 1036,6 hPa 0,2 mm 3,0 km/h (1 Bft) SW 231 ° 0 min 0,000 mm 0,0 UV-I 0 W/m² 0,9 °C 1,8 °C 4,8 km/h (1 Bft)
22.12.2017 00:35 1,9 °C 1,9 °C 94 % 1036,6 hPa 0,0 mm 1,8 km/h (1 Bft) SW 231 ° 0 min 0,000 mm 0,0 UV-I 0 W/m² 1,0 °C 1,9 °C 3,2 km/h (1 Bft)
22.12.2017 00:36 1,8 °C 1,9 °C 94 % 1036,5 hPa 0,0 mm 0,0 km/h (0 Bft) SW 231 ° 0 min 0,000 mm 0,0 UV-I 0 W/m² 0,9 °C 1,8 °C 0,0 km/h (0 Bft)
22.12.2017 00:37 1,8 °C 1,8 °C 94 % 1036,6 hPa 0,0 mm 0,0 km/h (0 Bft) SW 231 ° 0 min 0,000 mm 0,0 UV-I 0 W/m² 0,9 °C 1,8 °C 0,0 km/h (0 Bft)
22.12.2017 00:38 1,9 °C 1,9 °C 94 % 1036,6 hPa 0,0 mm 0,0 km/h (0 Bft) SW 231 ° 0 min 0,000 mm 0,0 UV-I 0 W/m² 1,0 °C 1,9 °C 0,0 km/h (0 Bft)
22.12.2017 00:39 1,8 °C 1,9 °C 94 % 1036,6 hPa 0,0 mm 0,0 km/h (0 Bft) SW 223 ° 0 min 0,000 mm 0,0 UV-I 0 W/m² 0,9 °C 1,8 °C 0,0 km/h (0 Bft)
22.12.2017 00:40 1,8 °C 1,8 °C 94 % 1036,6 hPa 0,0 mm 0,9 km/h (0 Bft) SW 223 ° 0 min 0,000 mm 0,0 UV-I 0 W/m² 0,9 °C 1,8 °C 1,6 km/h (1 Bft)
22.12.2017 00:41 1,8 °C 1,8 °C 94 % 1036,6 hPa 0,0 mm 0,0 km/h (0 Bft) SW 220 ° 0 min 0,000 mm 0,0 UV-I 0 W/m² 0,9 °C 1,8 °C 0,0 km/h (0 Bft)
22.12.2017 00:42 1,8 °C 1,8 °C 94 % 1036,6 hPa 0,0 mm 0,0 km/h (0 Bft) SW 220 ° 0 min 0,000 mm 0,0 UV-I 0 W/m² 0,9 °C 1,8 °C 0,0 km/h (0 Bft)
22.12.2017 00:43 1,8 °C 1,8 °C 94 % 1036,6 hPa 0,0 mm 0,0 km/h (0 Bft) SW 220 ° 0 min 0,000 mm 0,0 UV-I 0 W/m² 0,9 °C 1,8 °C 0,0 km/h (0 Bft)
22.12.2017 00:44 1,8 °C 1,8 °C 94 % 1036,7 hPa 0,0 mm 0,0 km/h (0 Bft) SW 220 ° 0 min 0,000 mm 0,0 UV-I 0 W/m² 0,9 °C 1,8 °C 0,0 km/h (0 Bft)
22.12.2017 00:45 1,8 °C 1,8 °C 94 % 1036,7 hPa 0,0 mm 1,3 km/h (1 Bft) SW 220 ° 0 min 0,000 mm 0,0 UV-I 0 W/m² 0,9 °C 1,8 °C 3,2 km/h (1 Bft)
22.12.2017 00:46 1,8 °C 1,8 °C 94 % 1036,7 hPa 0,0 mm 1,4 km/h (1 Bft) SW 220 ° 0 min 0,000 mm 0,0 UV-I 0 W/m² 0,9 °C 1,8 °C 1,6 km/h (1 Bft)
22.12.2017 00:47 1,8 °C 1,8 °C 94 % 1036,7 hPa 0,0 mm 0,0 km/h (0 Bft) SW 220 ° 0 min 0,000 mm 0,0 UV-I 0 W/m² 0,9 °C 1,8 °C 0,0 km/h (0 Bft)
22.12.2017 00:48 1,8 °C 1,8 °C 94 % 1036,7 hPa 0,0 mm 0,0 km/h (0 Bft) SW 220 ° 0 min 0,000 mm 0,0 UV-I 0 W/m² 0,9 °C 1,8 °C 0,0 km/h (0 Bft)
22.12.2017 00:49 1,8 °C 1,8 °C 94 % 1036,6 hPa 0,0 mm 0,0 km/h (0 Bft) SW 220 ° 0 min 0,000 mm 0,0 UV-I 0 W/m² 0,9 °C 1,8 °C 0,0 km/h (0 Bft)
22.12.2017 00:50 1,8 °C 1,8 °C 94 % 1036,6 hPa 0,0 mm 0,0 km/h (0 Bft) SW 220 ° 0 min 0,000 mm 0,0 UV-I 0 W/m² 0,9 °C 1,8 °C 0,0 km/h (0 Bft)
22.12.2017 00:51 1,8 °C 1,8 °C 94 % 1036,6 hPa 0,0 mm 0,0 km/h (0 Bft) SW 220 ° 0 min 0,000 mm 0,0 UV-I 0 W/m² 0,9 °C 1,8 °C 0,0 km/h (0 Bft)
22.12.2017 00:52 1,8 °C 1,8 °C 94 % 1036,7 hPa 0,0 mm 0,0 km/h (0 Bft) SW 220 ° 0 min 0,000 mm 0,0 UV-I 0 W/m² 0,9 °C 1,8 °C 0,0 km/h (0 Bft)
22.12.2017 00:53 1,8 °C 1,8 °C 94 % 1036,7 hPa 0,0 mm 0,0 km/h (0 Bft) SW 220 ° 0 min 0,000 mm 0,0 UV-I 0 W/m² 0,9 °C 1,8 °C 0,0 km/h (0 Bft)
22.12.2017 00:54 1,8 °C 1,8 °C 94 % 1036,7 hPa 0,0 mm 0,0 km/h (0 Bft) SW 220 ° 0 min 0,000 mm 0,0 UV-I 0 W/m² 0,9 °C 1,8 °C 0,0 km/h (0 Bft)
22.12.2017 00:55 1,8 °C 1,8 °C 94 % 1036,7 hPa 0,0 mm 0,0 km/h (0 Bft) SW 220 ° 0 min 0,000 mm 0,0 UV-I 0 W/m² 0,9 °C 1,8 °C 0,0 km/h (0 Bft)
22.12.2017 00:56 1,8 °C 1,8 °C 94 % 1036,7 hPa 0,0 mm 0,2 km/h (0 Bft) SW 220 ° 0 min 0,000 mm 0,0 UV-I 0 W/m² 0,9 °C 1,8 °C 1,6 km/h (1 Bft)
22.12.2017 00:57 1,8 °C 1,8 °C 94 % 1036,6 hPa 0,0 mm 0,0 km/h (0 Bft) SW 220 ° 0 min 0,000 mm 0,0 UV-I 0 W/m² 0,9 °C 1,8 °C 0,0 km/h (0 Bft)
22.12.2017 00:58 1,8 °C 1,8 °C 94 % 1036,6 hPa 0,0 mm 0,0 km/h (0 Bft) SW 220 ° 0 min 0,000 mm 0,0 UV-I 0 W/m² 0,9 °C 1,8 °C 0,0 km/h (0 Bft)
22.12.2017 00:59 1,8 °C 1,8 °C 94 % 1036,7 hPa 0,0 mm 0,1 km/h (0 Bft) SW 220 ° 0 min 0,000 mm 0,0 UV-I 0 W/m² 0,9 °C 1,8 °C 1,6 km/h (1 Bft)
22.12.2017 01:00 1,8 °C 1,8 °C 94 % 1036,7 hPa 0,0 mm 0,2 km/h (0 Bft) SW 220 ° 0 min 0,000 mm 0,0 UV-I 0 W/m² 0,9 °C 1,8 °C 1,6 km/h (1 Bft)
22.12.2017 01:01 1,8 °C 1,8 °C 94 % 1036,6 hPa 0,0 mm 0,1 km/h (0 Bft) SW 220 ° 0 min 0,000 mm 0,0 UV-I 0 W/m² 0,9 °C 1,8 °C 1,6 km/h (1 Bft)
22.12.2017 01:02 1,8 °C 1,8 °C 94 % 1036,6 hPa 0,0 mm 0,2 km/h (0 Bft) SW 220 ° 0 min 0,000 mm 0,0 UV-I 0 W/m² 0,9 °C 1,8 °C 1,6 km/h (1 Bft)
22.12.2017 01:03 1,8 °C 1,8 °C 94 % 1036,6 hPa 0,0 mm 0,2 km/h (0 Bft) SW 220 ° 0 min 0,000 mm 0,0 UV-I 0 W/m² 0,9 °C 1,8 °C 1,6 km/h (1 Bft)
22.12.2017 01:04 1,8 °C 1,8 °C 94 % 1036,6 hPa 0,0 mm 0,4 km/h (0 Bft) SW 220 ° 0 min 0,000 mm 0,0 UV-I 0 W/m² 0,9 °C 1,8 °C 1,6 km/h (1 Bft)
22.12.2017 01:05 1,8 °C 1,8 °C 94 % 1036,6 hPa 0,0 mm 1,1 km/h (1 Bft) SW 220 ° 0 min 0,000 mm 0,0 UV-I 0 W/m² 0,9 °C 1,8 °C 3,2 km/h (1 Bft)
22.12.2017 01:06 1,8 °C 1,8 °C 94 % 1036,6 hPa 0,0 mm 2,7 km/h (1 Bft) S-SW 198 ° 0 min 0,000 mm 0,0 UV-I 0 W/m² 0,9 °C 1,8 °C 6,4 km/h (2 Bft)
22.12.2017 01:07 1,8 °C 1,8 °C 94 % 1036,6 hPa 0,0 mm 4,7 km/h (1 Bft) S-SW 197 ° 0 min 0,000 mm 0,0 UV-I 0 W/m² 0,9 °C 0,6 °C 6,4 km/h (2 Bft)
22.12.2017 01:08 1,8 °C 1,8 °C 94 % 1036,6 hPa 0,0 mm 2,4 km/h (1 Bft) S-SW 197 ° 0 min 0,000 mm 0,0 UV-I 0 W/m² 0,9 °C 1,8 °C 3,2 km/h (1 Bft)
22.12.2017 01:09 1,8 °C 1,8 °C 94 % 1036,6 hPa 0,0 mm 1,2 km/h (1 Bft) S-SW 197 ° 0 min 0,000 mm 0,0 UV-I 0 W/m² 0,9 °C 1,8 °C 3,2 km/h (1 Bft)
22.12.2017 01:10 1,8 °C 1,8 °C 94 % 1036,6 hPa 0,0 mm 2,2 km/h (1 Bft) S-SW 197 ° 0 min 0,000 mm 0,0 UV-I 0 W/m² 0,9 °C 1,8 °C 3,2 km/h (1 Bft)
22.12.2017 01:11 1,8 °C 1,8 °C 94 % 1036,6 hPa 0,0 mm 3,2 km/h (1 Bft) S-SW 207 ° 0 min 0,000 mm 0,0 UV-I 0 W/m² 0,9 °C 1,8 °C 4,8 km/h (1 Bft)
22.12.2017 01:12 1,8 °C 1,8 °C 94 % 1036,5 hPa 0,0 mm 2,3 km/h (1 Bft) S-SW 207 ° 0 min 0,000 mm 0,0 UV-I 0 W/m² 0,9 °C 1,8 °C 3,2 km/h (1 Bft)
22.12.2017 01:13 1,8 °C 1,8 °C 94 % 1036,5 hPa 0,0 mm 0,5 km/h (0 Bft) S-SW 207 ° 0 min 0,000 mm 0,0 UV-I 0 W/m² 0,9 °C 1,8 °C 1,6 km/h (1 Bft)
22.12.2017 01:14 1,8 °C 1,8 °C 94 % 1036,5 hPa 0,0 mm 1,5 km/h (1 Bft) S-SW 207 ° 0 min 0,000 mm 0,0 UV-I 0 W/m² 0,9 °C 1,8 °C 3,2 km/h (1 Bft)
22.12.2017 01:15 1,8 °C 1,8 °C 94 % 1036,6 hPa 0,0 mm 2,2 km/h (1 Bft) S-SW 196 ° 0 min 0,000 mm 0,0 UV-I 0 W/m² 0,9 °C 1,8 °C 3,2 km/h (1 Bft)
22.12.2017 01:16 1,8 °C 1,8 °C 94 % 1036,6 hPa 0,0 mm 2,1 km/h (1 Bft) S-SW 196 ° 0 min 0,000 mm 0,0 UV-I 0 W/m² 0,9 °C 1,8 °C 3,2 km/h (1 Bft)
22.12.2017 01:17 1,8 °C 1,8 °C 94 % 1036,5 hPa 0,0 mm 2,4 km/h (1 Bft) S-SW 196 ° 0 min 0,000 mm 0,0 UV-I 0 W/m² 0,9 °C 1,8 °C 3,2 km/h (1 Bft)
22.12.2017 01:18 1,8 °C 1,9 °C 94 % 1036,5 hPa 0,0 mm 0,9 km/h (0 Bft) S-SW 196 ° 0 min 0,000 mm 0,0 UV-I 0 W/m² 0,9 °C 1,8 °C 3,2 km/h (1 Bft)
22.12.2017 01:19 1,8 °C 1,9 °C 94 % 1036,5 hPa 0,0 mm 3,0 km/h (1 Bft) S-SW 196 ° 0 min 0,000 mm 0,0 UV-I 0 W/m² 0,9 °C 1,8 °C 3,2 km/h (1 Bft)
22.12.2017 01:20 1,9 °C 1,9 °C 94 % 1036,5 hPa 0,2 mm 0,2 km/h (0 Bft) S-SW 196 ° 0 min 0,000 mm 0,0 UV-I 0 W/m² 1,0 °C 1,9 °C 1,6 km/h (1 Bft)
22.12.2017 01:21 1,9 °C 1,9 °C 94 % 1036,5 hPa 0,0 mm 3,0 km/h (1 Bft) S-SW 196 ° 0 min 0,000 mm 0,0 UV-I 0 W/m² 1,0 °C 1,9 °C 4,8 km/h (1 Bft)
22.12.2017 01:22 1,9 °C 1,9 °C 94 % 1036,5 hPa 0,0 mm 2,5 km/h (1 Bft) S-SW 196 ° 0 min 0,000 mm 0,0 UV-I 0 W/m² 1,0 °C 1,9 °C 4,8 km/h (1 Bft)
22.12.2017 01:23 1,9 °C 1,9 °C 94 % 1036,4 hPa 0,0 mm 0,3 km/h (0 Bft) S-SW 196 ° 0 min 0,000 mm 0,0 UV-I 0 W/m² 1,0 °C 1,9 °C 1,6 km/h (1 Bft)
22.12.2017 01:24 1,9 °C 1,9 °C 94 % 1036,4 hPa 0,0 mm 0,1 km/h (0 Bft) S-SW 196 ° 0 min 0,000 mm 0,0 UV-I 0 W/m² 1,0 °C 1,9 °C 1,6 km/h (1 Bft)
22.12.2017 01:25 1,9 °C 1,9 °C 94 % 1036,4 hPa 0,0 mm 0,0 km/h (0 Bft) S-SW 196 ° 0 min 0,000 mm 0,0 UV-I 0 W/m² 1,0 °C 1,9 °C 0,0 km/h (0 Bft)
22.12.2017 01:26 1,9 °C 1,9 °C 94 % 1036,3 hPa 0,0 mm 0,0 km/h (0 Bft) S-SW 196 ° 0 min 0,000 mm 0,0 UV-I 0 W/m² 1,0 °C 1,9 °C 0,0 km/h (0 Bft)
22.12.2017 01:27 1,9 °C 1,9 °C 94 % 1036,3 hPa 0,0 mm 0,0 km/h (0 Bft) S-SW 196 ° 0 min 0,000 mm 0,0 UV-I 0 W/m² 1,0 °C 1,9 °C 0,0 km/h (0 Bft)
22.12.2017 01:28 1,9 °C 1,9 °C 94 % 1036,4 hPa 0,0 mm 0,0 km/h (0 Bft) S-SW 196 ° 0 min 0,000 mm 0,0 UV-I 0 W/m² 1,0 °C 1,9 °C 0,0 km/h (0 Bft)
22.12.2017 01:29 1,9 °C 1,9 °C 94 % 1036,4 hPa 0,0 mm 0,1 km/h (0 Bft) S-SW 196 ° 0 min 0,000 mm 0,0 UV-I 0 W/m² 1,0 °C 1,9 °C 1,6 km/h (1 Bft)
22.12.2017 01:30 1,9 °C 1,9 °C 94 % 1036,3 hPa 0,0 mm 0,0 km/h (0 Bft) S-SW 196 ° 0 min 0,000 mm 0,0 UV-I 0 W/m² 1,0 °C 1,9 °C 0,0 km/h (0 Bft)
22.12.2017 01:31 1,9 °C 1,9 °C 94 % 1036,3 hPa 0,0 mm 0,1 km/h (0 Bft) S-SW 196 ° 0 min 0,000 mm 0,0 UV-I 0 W/m² 1,0 °C 1,9 °C 1,6 km/h (1 Bft)
22.12.2017 01:32 1,9 °C 1,9 °C 94 % 1036,3 hPa 0,0 mm 2,1 km/h (1 Bft) S-SW 196 ° 0 min 0,000 mm 0,0 UV-I 0 W/m² 1,0 °C 1,9 °C 3,2 km/h (1 Bft)
22.12.2017 01:33 1,9 °C 1,9 °C 94 % 1036,3 hPa 0,0 mm 4,4 km/h (1 Bft) S-SW 196 ° 0 min 0,000 mm 0,0 UV-I 0 W/m² 1,0 °C 1,9 °C 6,4 km/h (2 Bft)
22.12.2017 01:34 1,9 °C 1,9 °C 94 % 1036,3 hPa 0,0 mm 1,3 km/h (1 Bft) S-SW 196 ° 0 min 0,000 mm 0,0 UV-I 0 W/m² 1,0 °C 1,9 °C 3,2 km/h (1 Bft)
22.12.2017 01:35 1,9 °C 1,9 °C 94 % 1036,3 hPa 0,0 mm 4,2 km/h (1 Bft) S-SW 206 ° 0 min 0,000 mm 0,0 UV-I 0 W/m² 1,0 °C 1,9 °C 6,4 km/h (2 Bft)
22.12.2017 01:36 1,9 °C 1,9 °C 94 % 1036,3 hPa 0,0 mm 1,6 km/h (1 Bft) S-SW 206 ° 0 min 0,000 mm 0,0 UV-I 0 W/m² 1,0 °C 1,9 °C 3,2 km/h (1 Bft)
22.12.2017 01:37 1,9 °C 2,0 °C 94 % 1036,3 hPa 0,0 mm 2,3 km/h (1 Bft) S-SW 206 ° 0 min 0,000 mm 0,0 UV-I 0 W/m² 1,0 °C 1,9 °C 3,2 km/h (1 Bft)
22.12.2017 01:38 1,9 °C 2,0 °C 94 % 1036,3 hPa 0,0 mm 0,0 km/h (0 Bft) S-SW 206 ° 0 min 0,000 mm 0,0 UV-I 0 W/m² 1,0 °C 1,9 °C 0,0 km/h (0 Bft)
22.12.2017 01:39 1,9 °C 2,0 °C 94 % 1036,3 hPa 0,0 mm 1,1 km/h (1 Bft) S-SW 206 ° 0 min 0,000 mm 0,0 UV-I 0 W/m² 1,0 °C 1,9 °C 3,2 km/h (1 Bft)
22.12.2017 01:40 2,0 °C 2,0 °C 94 % 1036,3 hPa 0,0 mm 2,5 km/h (1 Bft) S-SW 206 ° 0 min 0,000 mm 0,0 UV-I 0 W/m² 1,1 °C 2,0 °C 4,8 km/h (1 Bft)
22.12.2017 01:41 2,0 °C 2,0 °C 94 % 1036,3 hPa 0,0 mm 3,0 km/h (1 Bft) S-SW 206 ° 0 min 0,000 mm 0,0 UV-I 0 W/m² 1,1 °C 2,0 °C 4,8 km/h (1 Bft)
22.12.2017 01:42 2,0 °C 2,0 °C 94 % 1036,3 hPa 0,0 mm 2,9 km/h (1 Bft) S-SW 206 ° 0 min 0,000 mm 0,0 UV-I 0 W/m² 1,1 °C 2,0 °C 4,8 km/h (1 Bft)
22.12.2017 01:43 2,0 °C 2,0 °C 94 % 1036,3 hPa 0,0 mm 3,5 km/h (1 Bft) S-SW 206 ° 0 min 0,000 mm 0,0 UV-I 0 W/m² 1,1 °C 2,0 °C 4,8 km/h (1 Bft)
22.12.2017 01:44 2,0 °C 2,0 °C 94 % 1036,3 hPa 0,0 mm 2,4 km/h (1 Bft) S-SW 206 ° 0 min 0,000 mm 0,0 UV-I 0 W/m² 1,1 °C 2,0 °C 3,2 km/h (1 Bft)
22.12.2017 01:45 2,0 °C 2,0 °C 94 % 1036,3 hPa 0,0 mm 3,1 km/h (1 Bft) W-SW 252 ° 0 min 0,000 mm 0,0 UV-I 0 W/m² 1,1 °C 2,0 °C 4,8 km/h (1 Bft)
22.12.2017 01:46 2,0 °C 2,1 °C 94 % 1036,3 hPa 0,0 mm 3,6 km/h (1 Bft) S-SW 207 ° 0 min 0,000 mm 0,0 UV-I 0 W/m² 1,1 °C 2,0 °C 6,4 km/h (2 Bft)
22.12.2017 01:47 2,0 °C 2,0 °C 94 % 1036,2 hPa 0,0 mm 4,3 km/h (1 Bft) SW 217 ° 0 min 0,000 mm 0,0 UV-I 0 W/m² 1,1 °C 2,0 °C 6,4 km/h (2 Bft)
22.12.2017 01:48 2,1 °C 2,1 °C 94 % 1036,2 hPa 0,0 mm 3,0 km/h (1 Bft) SW 219 ° 0 min 0,000 mm 0,0 UV-I 0 W/m² 1,2 °C 2,1 °C 4,8 km/h (1 Bft)
22.12.2017 01:49 2,1 °C 2,1 °C 94 % 1036,2 hPa 0,0 mm 3,2 km/h (1 Bft) SW 219 ° 0 min 0,000 mm 0,0 UV-I 0 W/m² 1,2 °C 2,1 °C 4,8 km/h (1 Bft)
22.12.2017 01:50 2,1 °C 2,1 °C 94 % 1036,2 hPa 0,0 mm 2,1 km/h (1 Bft) SW 223 ° 0 min 0,000 mm 0,0 UV-I 0 W/m² 1,2 °C 2,1 °C 4,8 km/h (1 Bft)
22.12.2017 01:51 2,1 °C 2,1 °C 94 % 1036,2 hPa 0,0 mm 2,0 km/h (1 Bft) SW 236 ° 0 min 0,000 mm 0,0 UV-I 0 W/m² 1,2 °C 2,1 °C 6,4 km/h (2 Bft)
22.12.2017 01:52 2,1 °C 2,1 °C 94 % 1036,2 hPa 0,0 mm 0,3 km/h (0 Bft) SW 236 ° 0 min 0,000 mm 0,0 UV-I 0 W/m² 1,2 °C 2,1 °C 3,2 km/h (1 Bft)
22.12.2017 01:53 2,1 °C 2,1 °C 94 % 1036,2 hPa 0,2 mm 3,0 km/h (1 Bft) SW 229 ° 0 min 0,000 mm 0,0 UV-I 0 W/m² 1,2 °C 2,1 °C 3,2 km/h (1 Bft)
22.12.2017 01:54 2,1 °C 2,1 °C 94 % 1036,2 hPa 0,0 mm 2,7 km/h (1 Bft) SW 225 ° 0 min 0,000 mm 0,0 UV-I 0 W/m² 1,2 °C 2,1 °C 4,8 km/h (1 Bft)
22.12.2017 01:55 2,1 °C 2,1 °C 94 % 1036,2 hPa 0,0 mm 2,9 km/h (1 Bft) SW 223 ° 0 min 0,000 mm 0,0 UV-I 0 W/m² 1,2 °C 2,1 °C 4,8 km/h (1 Bft)
22.12.2017 01:56 2,1 °C 2,1 °C 94 % 1036,2 hPa 0,0 mm 4,4 km/h (1 Bft) S-SW 195 ° 0 min 0,000 mm 0,0 UV-I 0 W/m² 1,2 °C 2,1 °C 6,4 km/h (2 Bft)
22.12.2017 01:57 2,1 °C 2,1 °C 94 % 1036,2 hPa 0,0 mm 4,5 km/h (1 Bft) S-SW 202 ° 0 min 0,000 mm 0,0 UV-I 0 W/m² 1,2 °C 2,1 °C 6,4 km/h (2 Bft)
22.12.2017 01:58 2,1 °C 2,1 °C 94 % 1036,2 hPa 0,0 mm 4,0 km/h (1 Bft) SW 226 ° 0 min 0,000 mm 0,0 UV-I 0 W/m² 1,2 °C 2,1 °C 6,4 km/h (2 Bft)
22.12.2017 01:59 2,1 °C 2,1 °C 94 % 1036,2 hPa 0,0 mm 3,6 km/h (1 Bft) S-SW 209 ° 0 min 0,000 mm 0,0 UV-I 0 W/m² 1,2 °C 2,1 °C 6,4 km/h (2 Bft)
22.12.2017 02:00 2,1 °C 2,1 °C 94 % 1036,2 hPa 0,0 mm 3,2 km/h (1 Bft) S-SW 205 ° 0 min 0,000 mm 0,0 UV-I 0 W/m² 1,2 °C 2,1 °C 4,8 km/h (1 Bft)
22.12.2017 02:01 2,1 °C 2,1 °C 94 % 1036,2 hPa 0,0 mm 3,8 km/h (1 Bft) W 260 ° 0 min 0,000 mm 0,0 UV-I 0 W/m² 1,2 °C 2,1 °C 4,8 km/h (1 Bft)
22.12.2017 02:02 2,1 °C 2,1 °C 94 % 1036,2 hPa 0,0 mm 4,0 km/h (1 Bft) SW 219 ° 0 min 0,000 mm 0,0 UV-I 0 W/m² 1,2 °C 2,1 °C 6,4 km/h (2 Bft)
22.12.2017 02:03 2,1 °C 2,1 °C 94 % 1036,1 hPa 0,0 mm 2,9 km/h (1 Bft) SW 218 ° 0 min 0,000 mm 0,0 UV-I 0 W/m² 1,2 °C 2,1 °C 4,8 km/h (1 Bft)
22.12.2017 02:04 2,1 °C 2,1 °C 94 % 1036,1 hPa 0,0 mm 7,2 km/h (2 Bft) S-SW 192 ° 0 min 0,000 mm 0,0 UV-I 0 W/m² 1,2 °C -0,0 °C 9,7 km/h (2 Bft)
22.12.2017 02:05 2,1 °C 2,1 °C 94 % 1036,2 hPa 0,0 mm 5,2 km/h (1 Bft) S-SW 209 ° 0 min 0,000 mm 0,0 UV-I 0 W/m² 1,2 °C 0,7 °C 8,0 km/h (2 Bft)
22.12.2017 02:06 2,1 °C 2,1 °C 94 % 1036,1 hPa 0,0 mm 4,8 km/h (1 Bft) S-SW 193 ° 0 min 0,000 mm 0,0 UV-I 0 W/m² 1,2 °C 0,9 °C 9,7 km/h (2 Bft)
22.12.2017 02:07 2,1 °C 2,1 °C 94 % 1036,1 hPa 0,0 mm 3,7 km/h (1 Bft) S-SW 201 ° 0 min 0,000 mm 0,0 UV-I 0 W/m² 1,2 °C 2,1 °C 6,4 km/h (2 Bft)
22.12.2017 02:08 2,1 °C 2,1 °C 94 % 1036,1 hPa 0,0 mm 5,8 km/h (2 Bft) S-SW 209 ° 0 min 0,000 mm 0,0 UV-I 0 W/m² 1,2 °C 0,5 °C 8,0 km/h (2 Bft)
22.12.2017 02:09 2,1 °C 2,1 °C 94 % 1036,1 hPa 0,0 mm 7,9 km/h (2 Bft) S-SW 193 ° 0 min 0,000 mm 0,0 UV-I 0 W/m² 1,2 °C -0,2 °C 9,7 km/h (2 Bft)
22.12.2017 02:10 2,1 °C 2,2 °C 94 % 1036,2 hPa 0,0 mm 5,4 km/h (1 Bft) S-SW 204 ° 0 min 0,000 mm 0,0 UV-I 0 W/m² 1,2 °C 0,6 °C 9,7 km/h (2 Bft)
22.12.2017 02:11 2,1 °C 2,2 °C 94 % 1036,1 hPa 0,0 mm 4,8 km/h (1 Bft) S-SW 202 ° 0 min 0,000 mm 0,0 UV-I 0 W/m² 1,2 °C 0,9 °C 6,4 km/h (2 Bft)
22.12.2017 02:12 2,2 °C 2,2 °C 94 % 1036,1 hPa 0,0 mm 6,2 km/h (2 Bft) S-SW 198 ° 0 min 0,000 mm 0,0 UV-I 0 W/m² 1,3 °C 0,4 °C 9,7 km/h (2 Bft)
22.12.2017 02:13 2,1 °C 2,2 °C 94 % 1036,2 hPa 0,0 mm 6,4 km/h (2 Bft) S-SW 198 ° 0 min 0,000 mm 0,0 UV-I 0 W/m² 1,2 °C 0,2 °C 9,7 km/h (2 Bft)
22.12.2017 02:14 2,2 °C 2,2 °C 94 % 1036,1 hPa 0,0 mm 6,4 km/h (2 Bft) S-SW 211 ° 0 min 0,000 mm 0,0 UV-I 0 W/m² 1,3 °C 0,4 °C 14,5 km/h (3 Bft)
22.12.2017 02:15 2,2 °C 2,2 °C 94 % 1036,1 hPa 0,0 mm 7,6 km/h (2 Bft) S-SW 202 ° 0 min 0,000 mm 0,0 UV-I 0 W/m² 1,3 °C -0,0 °C 11,3 km/h (2 Bft)
22.12.2017 02:16 2,2 °C 2,2 °C 94 % 1036,1 hPa 0,2 mm 5,8 km/h (2 Bft) SW 219 ° 0 min 0,000 mm 0,0 UV-I 0 W/m² 1,3 °C 0,6 °C 8,0 km/h (2 Bft)
22.12.2017 02:17 2,2 °C 2,2 °C 94 % 1036,1 hPa 0,0 mm 8,6 km/h (2 Bft) SW 214 ° 0 min 0,000 mm 0,0 UV-I 0 W/m² 1,3 °C -0,3 °C 11,3 km/h (2 Bft)
22.12.2017 02:18 2,2 °C 2,2 °C 94 % 1036,1 hPa 0,0 mm 8,6 km/h (2 Bft) S-SW 195 ° 0 min 0,000 mm 0,0 UV-I 0 W/m² 1,3 °C -0,3 °C 11,3 km/h (2 Bft)
22.12.2017 02:19 2,2 °C 2,2 °C 94 % 1036,0 hPa 0,0 mm 5,2 km/h (1 Bft) SW 221 ° 0 min 0,000 mm 0,0 UV-I 0 W/m² 1,3 °C 0,8 °C 9,7 km/h (2 Bft)
22.12.2017 02:20 2,2 °C 2,2 °C 94 % 1036,1 hPa 0,0 mm 7,2 km/h (2 Bft) S-SW 198 ° 0 min 0,000 mm 0,0 UV-I 0 W/m² 1,3 °C 0,1 °C 9,7 km/h (2 Bft)
22.12.2017 02:21 2,2 °C 2,2 °C 94 % 1036,1 hPa 0,0 mm 8,8 km/h (2 Bft) S-SW 196 ° 0 min 0,000 mm 0,0 UV-I 0 W/m² 1,3 °C -0,4 °C 12,9 km/h (3 Bft)
22.12.2017 02:22 2,2 °C 2,2 °C 94 % 1036,0 hPa 0,0 mm 10,6 km/h (2 Bft) S-SW 203 ° 0 min 0,000 mm 0,0 UV-I 0 W/m² 1,3 °C -0,8 °C 12,9 km/h (3 Bft)
22.12.2017 02:23 2,2 °C 2,2 °C 94 % 1036,0 hPa 0,0 mm 8,7 km/h (2 Bft) S-SW 206 ° 0 min 0,000 mm 0,0 UV-I 0 W/m² 1,3 °C -0,4 °C 12,9 km/h (3 Bft)
22.12.2017 02:24 2,2 °C 2,2 °C 94 % 1036,0 hPa 0,0 mm 8,8 km/h (2 Bft) S-SW 196 ° 0 min 0,000 mm 0,0 UV-I 0 W/m² 1,3 °C -0,4 °C 11,3 km/h (2 Bft)
22.12.2017 02:25 2,2 °C 2,2 °C 94 % 1036,0 hPa 0,0 mm 10,3 km/h (2 Bft) S 184 ° 0 min 0,000 mm 0,0 UV-I 0 W/m² 1,3 °C -0,8 °C 12,9 km/h (3 Bft)
22.12.2017 02:26 2,2 °C 2,2 °C 94 % 1036,0 hPa 0,0 mm 9,0 km/h (2 Bft) SW 218 ° 0 min 0,000 mm 0,0 UV-I 0 W/m² 1,3 °C -0,4 °C 11,3 km/h (2 Bft)
22.12.2017 02:27 2,3 °C 2,3 °C 94 % 1036,0 hPa 0,0 mm 7,6 km/h (2 Bft) S-SW 199 ° 0 min 0,000 mm 0,0 UV-I 0 W/m² 1,4 °C 0,1 °C 12,9 km/h (3 Bft)
22.12.2017 02:28 2,2 °C 2,3 °C 94 % 1036,0 hPa 0,0 mm 10,7 km/h (2 Bft) S-SW 208 ° 0 min 0,000 mm 0,0 UV-I 0 W/m² 1,3 °C -0,9 °C 12,9 km/h (3 Bft)
22.12.2017 02:29 2,3 °C 2,3 °C 94 % 1036,0 hPa 0,0 mm 7,2 km/h (2 Bft) SW 215 ° 0 min 0,000 mm 0,0 UV-I 0 W/m² 1,4 °C 0,2 °C 9,7 km/h (2 Bft)
22.12.2017 02:30 2,2 °C 2,3 °C 94 % 1036,0 hPa 0,0 mm 5,8 km/h (2 Bft) S-SW 204 ° 0 min 0,000 mm 0,0 UV-I 0 W/m² 1,3 °C 0,6 °C 8,0 km/h (2 Bft)
22.12.2017 02:31 2,3 °C 2,3 °C 94 % 1036,0 hPa 0,0 mm 5,6 km/h (1 Bft) SW 221 ° 0 min 0,000 mm 0,0 UV-I 0 W/m² 1,4 °C 0,8 °C 8,0 km/h (2 Bft)
22.12.2017 02:32 2,3 °C 2,3 °C 94 % 1036,0 hPa 0,0 mm 7,8 km/h (2 Bft) SW 221 ° 0 min 0,000 mm 0,0 UV-I 0 W/m² 1,4 °C 0,0 °C 11,3 km/h (2 Bft)
22.12.2017 02:33 2,3 °C 2,3 °C 94 % 1036,0 hPa 0,0 mm 6,6 km/h (2 Bft) S-SW 200 ° 0 min 0,000 mm 0,0 UV-I 0 W/m² 1,4 °C 0,4 °C 8,0 km/h (2 Bft)
22.12.2017 02:34 2,3 °C 2,3 °C 94 % 1036,0 hPa 0,0 mm 6,7 km/h (2 Bft) S-SW 192 ° 0 min 0,000 mm 0,0 UV-I 0 W/m² 1,4 °C 0,4 °C 11,3 km/h (2 Bft)
22.12.2017 02:35 2,3 °C 2,3 °C 94 % 1036,0 hPa 0,0 mm 5,2 km/h (1 Bft) SW 219 ° 0 min 0,000 mm 0,0 UV-I 0 W/m² 1,4 °C 0,9 °C 8,0 km/h (2 Bft)
22.12.2017 02:36 2,3 °C 2,3 °C 94 % 1036,0 hPa 0,0 mm 4,7 km/h (1 Bft) S-SW 210 ° 0 min 0,000 mm 0,0 UV-I 0 W/m² 1,4 °C 1,2 °C 9,7 km/h (2 Bft)
22.12.2017 02:37 2,3 °C 2,3 °C 94 % 1036,0 hPa 0,0 mm 4,7 km/h (1 Bft) S-SW 207 ° 0 min 0,000 mm 0,0 UV-I 0 W/m² 1,4 °C 1,2 °C 8,0 km/h (2 Bft)
22.12.2017 02:38 2,3 °C 2,3 °C 94 % 1036,0 hPa 0,0 mm 6,4 km/h (2 Bft) SW 221 ° 0 min 0,000 mm 0,0 UV-I 0 W/m² 1,4 °C 0,5 °C 9,7 km/h (2 Bft)
22.12.2017 02:39 2,3 °C 2,3 °C 94 % 1036,0 hPa 0,0 mm 3,7 km/h (1 Bft) S-SW 207 ° 0 min 0,000 mm 0,0 UV-I 0 W/m² 1,4 °C 2,3 °C 4,8 km/h (1 Bft)
22.12.2017 02:40 2,3 °C 2,3 °C 94 % 1036,0 hPa 0,2 mm 4,2 km/h (1 Bft) S-SW 203 ° 0 min 0,000 mm 0,0 UV-I 0 W/m² 1,4 °C 2,3 °C 6,4 km/h (2 Bft)
22.12.2017 02:41 2,3 °C 2,3 °C 94 % 1036,0 hPa 0,0 mm 5,6 km/h (1 Bft) SW 230 ° 0 min 0,000 mm 0,0 UV-I 0 W/m² 1,4 °C 0,8 °C 8,0 km/h (2 Bft)
22.12.2017 02:42 2,3 °C 2,3 °C 94 % 1036,0 hPa 0,0 mm 4,5 km/h (1 Bft) S-SW 205 ° 0 min 0,000 mm 0,0 UV-I 0 W/m² 1,4 °C 2,3 °C 6,4 km/h (2 Bft)
22.12.2017 02:43 2,3 °C 2,3 °C 94 % 1036,0 hPa 0,0 mm 3,5 km/h (1 Bft) S-SW 202 ° 0 min 0,000 mm 0,0 UV-I 0 W/m² 1,4 °C 2,3 °C 4,8 km/h (1 Bft)
22.12.2017 02:44 2,3 °C 2,3 °C 94 % 1035,9 hPa 0,0 mm 4,6 km/h (1 Bft) W-SW 248 ° 0 min 0,000 mm 0,0 UV-I 0 W/m² 1,4 °C 1,2 °C 6,4 km/h (2 Bft)
22.12.2017 02:45 2,3 °C 2,3 °C 94 % 1036,0 hPa 0,0 mm 7,1 km/h (2 Bft) S-SW 198 ° 0 min 0,000 mm 0,0 UV-I 0 W/m² 1,4 °C 0,2 °C 9,7 km/h (2 Bft)
22.12.2017 02:46 2,3 °C 2,3 °C 94 % 1036,0 hPa 0,0 mm 5,9 km/h (2 Bft) SW 216 ° 0 min 0,000 mm 0,0 UV-I 0 W/m² 1,4 °C 0,7 °C 9,7 km/h (2 Bft)
22.12.2017 02:47 2,3 °C 2,3 °C 94 % 1035,9 hPa 0,0 mm 7,3 km/h (2 Bft) SW 220 ° 0 min 0,000 mm 0,0 UV-I 0 W/m² 1,4 °C 0,2 °C 9,7 km/h (2 Bft)
22.12.2017 02:48 2,3 °C 2,3 °C 94 % 1035,9 hPa 0,0 mm 4,8 km/h (1 Bft) S-SW 202 ° 0 min 0,000 mm 0,0 UV-I 0 W/m² 1,4 °C 1,1 °C 9,7 km/h (2 Bft)
22.12.2017 02:49 2,3 °C 2,3 °C 93 % 1035,9 hPa 0,0 mm 6,3 km/h (2 Bft) S-SW 207 ° 0 min 0,000 mm 0,0 UV-I 0 W/m² 1,3 °C 0,5 °C 9,7 km/h (2 Bft)
22.12.2017 02:50 2,3 °C 2,3 °C 93 % 1035,9 hPa 0,0 mm 7,2 km/h (2 Bft) S-SW 198 ° 0 min 0,000 mm 0,0 UV-I 0 W/m² 1,3 °C 0,2 °C 11,3 km/h (2 Bft)
22.12.2017 02:51 2,3 °C 2,3 °C 93 % 1035,9 hPa 0,0 mm 6,3 km/h (2 Bft) SW 219 ° 0 min 0,000 mm 0,0 UV-I 0 W/m² 1,3 °C 0,5 °C 9,7 km/h (2 Bft)
22.12.2017 02:52 2,3 °C 2,3 °C 93 % 1035,9 hPa 0,0 mm 2,3 km/h (1 Bft) SW 219 ° 0 min 0,000 mm 0,0 UV-I 0 W/m² 1,3 °C 2,3 °C 4,8 km/h (1 Bft)
22.12.2017 02:53 2,3 °C 2,3 °C 93 % 1035,9 hPa 0,0 mm 4,2 km/h (1 Bft) S-SW 209 ° 0 min 0,000 mm 0,0 UV-I 0 W/m² 1,3 °C 2,3 °C 6,4 km/h (2 Bft)
22.12.2017 02:54 2,3 °C 2,3 °C 93 % 1035,9 hPa 0,0 mm 4,1 km/h (1 Bft) S-SW 200 ° 0 min 0,000 mm 0,0 UV-I 0 W/m² 1,3 °C 2,3 °C 8,0 km/h (2 Bft)
22.12.2017 02:55 2,3 °C 2,3 °C 93 % 1035,8 hPa 0,2 mm 5,2 km/h (1 Bft) S 180 ° 0 min 0,000 mm 0,0 UV-I 0 W/m² 1,3 °C 0,9 °C 8,0 km/h (2 Bft)
22.12.2017 02:56 2,3 °C 2,3 °C 93 % 1035,8 hPa 0,0 mm 6,4 km/h (2 Bft) S-SW 198 ° 0 min 0,000 mm 0,0 UV-I 0 W/m² 1,3 °C 0,5 °C 9,7 km/h (2 Bft)
22.12.2017 02:57 2,3 °C 2,3 °C 93 % 1035,8 hPa 0,0 mm 5,5 km/h (1 Bft) SW 225 ° 0 min 0,000 mm 0,0 UV-I 0 W/m² 1,3 °C 0,8 °C 8,0 km/h (2 Bft)
22.12.2017 02:58 2,3 °C 2,3 °C 93 % 1035,9 hPa 0,0 mm 5,0 km/h (1 Bft) S-SW 200 ° 0 min 0,000 mm 0,0 UV-I 0 W/m² 1,3 °C 1,0 °C 9,7 km/h (2 Bft)
22.12.2017 02:59 2,3 °C 2,3 °C 93 % 1035,9 hPa 0,0 mm 6,0 km/h (2 Bft) S-SW 202 ° 0 min 0,000 mm 0,0 UV-I 0 W/m² 1,3 °C 0,6 °C 9,7 km/h (2 Bft)
22.12.2017 03:00 2,3 °C 2,3 °C 93 % 1035,9 hPa 0,0 mm 5,2 km/h (1 Bft) S-SW 207 ° 0 min 0,000 mm 0,0 UV-I 0 W/m² 1,3 °C 0,9 °C 6,4 km/h (2 Bft)
22.12.2017 03:01 2,3 °C 2,3 °C 93 % 1035,9 hPa 0,0 mm 3,5 km/h (1 Bft) S-SW 195 ° 0 min 0,000 mm 0,0 UV-I 0 W/m² 1,3 °C 2,3 °C 6,4 km/h (2 Bft)
22.12.2017 03:02 2,3 °C 2,3 °C 93 % 1035,9 hPa 0,0 mm 4,3 km/h (1 Bft) SW 232 ° 0 min 0,000 mm 0,0 UV-I 0 W/m² 1,3 °C 2,3 °C 6,4 km/h (2 Bft)
22.12.2017 03:03 2,3 °C 2,3 °C 93 % 1035,9 hPa 0,0 mm 3,8 km/h (1 Bft) S-SW 213 ° 0 min 0,000 mm 0,0 UV-I 0 W/m² 1,3 °C 2,3 °C 6,4 km/h (2 Bft)
22.12.2017 03:04 2,3 °C 2,3 °C 93 % 1035,9 hPa 0,0 mm 5,4 km/h (1 Bft) W-SW 238 ° 0 min 0,000 mm 0,0 UV-I 0 W/m² 1,3 °C 0,9 °C 8,0 km/h (2 Bft)
22.12.2017 03:05 2,3 °C 2,3 °C 93 % 1036,0 hPa 0,0 mm 6,0 km/h (2 Bft) S-SW 206 ° 0 min 0,000 mm 0,0 UV-I 0 W/m² 1,3 °C 0,6 °C 9,7 km/h (2 Bft)
22.12.2017 03:06 2,3 °C 2,3 °C 93 % 1036,0 hPa 0,0 mm 4,8 km/h (1 Bft) S-SW 205 ° 0 min 0,000 mm 0,0 UV-I 0 W/m² 1,3 °C 1,1 °C 9,7 km/h (2 Bft)
22.12.2017 03:07 2,3 °C 2,3 °C 93 % 1035,9 hPa 0,0 mm 3,6 km/h (1 Bft) S-SW 199 ° 0 min 0,000 mm 0,0 UV-I 0 W/m² 1,3 °C 2,3 °C 6,4 km/h (2 Bft)
22.12.2017 03:08 2,3 °C 2,3 °C 93 % 1035,9 hPa 0,0 mm 3,8 km/h (1 Bft) S-SW 194 ° 0 min 0,000 mm 0,0 UV-I 0 W/m² 1,3 °C 2,3 °C 8,0 km/h (2 Bft)
22.12.2017 03:09 2,3 °C 2,3 °C 93 % 1035,9 hPa 0,0 mm 2,5 km/h (1 Bft) S-SW 195 ° 0 min 0,000 mm 0,0 UV-I 0 W/m² 1,3 °C 2,3 °C 3,2 km/h (1 Bft)
22.12.2017 03:10 2,3 °C 2,3 °C 93 % 1035,9 hPa 0,0 mm 3,2 km/h (1 Bft) S-SW 196 ° 0 min 0,000 mm 0,0 UV-I 0 W/m² 1,3 °C 2,3 °C 6,4 km/h (2 Bft)
22.12.2017 03:11 2,3 °C 2,3 °C 93 % 1035,9 hPa 0,0 mm 5,8 km/h (2 Bft) S-SW 192 ° 0 min 0,000 mm 0,0 UV-I 0 W/m² 1,3 °C 0,7 °C 8,0 km/h (2 Bft)
22.12.2017 03:12 2,3 °C 2,3 °C 93 % 1035,9 hPa 0,0 mm 3,7 km/h (1 Bft) S-SW 199 ° 0 min 0,000 mm 0,0 UV-I 0 W/m² 1,3 °C 2,3 °C 6,4 km/h (2 Bft)
22.12.2017 03:13 2,3 °C 2,3 °C 93 % 1035,9 hPa 0,2 mm 6,3 km/h (2 Bft) S 179 ° 0 min 0,000 mm 0,0 UV-I 0 W/m² 1,3 °C 0,5 °C 12,9 km/h (3 Bft)
22.12.2017 03:14 2,3 °C 2,3 °C 93 % 1035,9 hPa 0,0 mm 7,0 km/h (2 Bft) S-SW 202 ° 0 min 0,000 mm 0,0 UV-I 0 W/m² 1,3 °C 0,3 °C 11,3 km/h (2 Bft)
22.12.2017 03:15 2,3 °C 2,3 °C 93 % 1035,8 hPa 0,0 mm 6,4 km/h (2 Bft) S 185 ° 0 min 0,000 mm 0,0 UV-I 0 W/m² 1,3 °C 0,5 °C 11,3 km/h (2 Bft)
22.12.2017 03:16 2,3 °C 2,3 °C 93 % 1035,8 hPa 0,0 mm 8,4 km/h (2 Bft) W-SW 241 ° 0 min 0,000 mm 0,0 UV-I 0 W/m² 1,3 °C -0,2 °C 12,9 km/h (3 Bft)
22.12.2017 03:17 2,3 °C 2,3 °C 93 % 1035,8 hPa 0,0 mm 6,0 km/h (2 Bft) S 183 ° 0 min 0,000 mm 0,0 UV-I 0 W/m² 1,3 °C 0,6 °C 6,4 km/h (2 Bft)
22.12.2017 03:18 2,3 °C 2,3 °C 93 % 1035,8 hPa 0,0 mm 6,1 km/h (2 Bft) SW 217 ° 0 min 0,000 mm 0,0 UV-I 0 W/m² 1,3 °C 0,6 °C 8,0 km/h (2 Bft)
22.12.2017 03:19 2,3 °C 2,3 °C 93 % 1035,8 hPa 0,0 mm 5,3 km/h (1 Bft) S-SW 205 ° 0 min 0,000 mm 0,0 UV-I 0 W/m² 1,3 °C 0,9 °C 6,4 km/h (2 Bft)
22.12.2017 03:20 2,3 °C 2,3 °C 93 % 1035,8 hPa 0,0 mm 3,6 km/h (1 Bft) S-SW 192 ° 0 min 0,000 mm 0,0 UV-I 0 W/m² 1,3 °C 2,3 °C 6,4 km/h (2 Bft)
22.12.2017 03:21 2,3 °C 2,3 °C 93 % 1035,7 hPa 0,0 mm 5,0 km/h (1 Bft) W-SW 238 ° 0 min 0,000 mm 0,0 UV-I 0 W/m² 1,3 °C 1,0 °C 6,4 km/h (2 Bft)
22.12.2017 03:22 2,3 °C 2,3 °C 93 % 1035,7 hPa 0,0 mm 7,0 km/h (2 Bft) S-SW 196 ° 0 min 0,000 mm 0,0 UV-I 0 W/m² 1,3 °C 0,3 °C 9,7 km/h (2 Bft)
22.12.2017 03:23 2,3 °C 2,3 °C 93 % 1035,8 hPa 0,0 mm 6,8 km/h (2 Bft) S 184 ° 0 min 0,000 mm 0,0 UV-I 0 W/m² 1,3 °C 0,3 °C 11,3 km/h (2 Bft)
22.12.2017 03:24 2,3 °C 2,3 °C 93 % 1035,8 hPa 0,0 mm 7,0 km/h (2 Bft) S-SW 200 ° 0 min 0,000 mm 0,0 UV-I 0 W/m² 1,3 °C 0,3 °C 9,7 km/h (2 Bft)
22.12.2017 03:25 2,3 °C 2,3 °C 93 % 1035,7 hPa 0,0 mm 5,0 km/h (1 Bft) SW 217 ° 0 min 0,000 mm 0,0 UV-I 0 W/m² 1,3 °C 1,0 °C 9,7 km/h (2 Bft)
22.12.2017 03:26 2,3 °C 2,3 °C 93 % 1035,7 hPa 0,0 mm 5,6 km/h (1 Bft) S-SW 202 ° 0 min 0,000 mm 0,0 UV-I 0 W/m² 1,3 °C 0,8 °C 8,0 km/h (2 Bft)
22.12.2017 03:27 2,3 °C 2,3 °C 93 % 1035,7 hPa 0,0 mm 7,1 km/h (2 Bft) S-SW 210 ° 0 min 0,000 mm 0,0 UV-I 0 W/m² 1,3 °C 0,2 °C 11,3 km/h (2 Bft)
22.12.2017 03:28 2,3 °C 2,3 °C 93 % 1035,7 hPa 0,2 mm 5,6 km/h (1 Bft) S-SW 204 ° 0 min 0,000 mm 0,0 UV-I 0 W/m² 1,3 °C 0,8 °C 6,4 km/h (2 Bft)
22.12.2017 03:29 2,3 °C 2,3 °C 93 % 1035,7 hPa 0,0 mm 6,9 km/h (2 Bft) S-SW 199 ° 0 min 0,000 mm 0,0 UV-I 0 W/m² 1,3 °C 0,3 °C 11,3 km/h (2 Bft)
22.12.2017 03:30 2,3 °C 2,3 °C 93 % 1035,7 hPa 0,0 mm 6,0 km/h (2 Bft) S-SW 213 ° 0 min 0,000 mm 0,0 UV-I 0 W/m² 1,3 °C 0,6 °C 8,0 km/h (2 Bft)
22.12.2017 03:31 2,3 °C 2,3 °C 93 % 1035,7 hPa 0,0 mm 4,9 km/h (1 Bft) S-SW 211 ° 0 min 0,000 mm 0,0 UV-I 0 W/m² 1,3 °C 1,1 °C 6,4 km/h (2 Bft)
22.12.2017 03:32 2,3 °C 2,3 °C 93 % 1035,6 hPa 0,0 mm 5,1 km/h (1 Bft) W-SW 248 ° 0 min 0,000 mm 0,0 UV-I 0 W/m² 1,3 °C 1,0 °C 6,4 km/h (2 Bft)
22.12.2017 03:33 2,3 °C 2,3 °C 93 % 1035,6 hPa 0,0 mm 4,4 km/h (1 Bft) SW 231 ° 0 min 0,000 mm 0,0 UV-I 0 W/m² 1,3 °C 2,3 °C 6,4 km/h (2 Bft)
22.12.2017 03:34 2,3 °C 2,3 °C 93 % 1035,6 hPa 0,0 mm 6,0 km/h (2 Bft) SW 217 ° 0 min 0,000 mm 0,0 UV-I 0 W/m² 1,3 °C 0,6 °C 9,7 km/h (2 Bft)
22.12.2017 03:35 2,3 °C 2,3 °C 93 % 1035,6 hPa 0,0 mm 4,3 km/h (1 Bft) S-SW 213 ° 0 min 0,000 mm 0,0 UV-I 0 W/m² 1,3 °C 2,3 °C 6,4 km/h (2 Bft)
22.12.2017 03:36 2,3 °C 2,3 °C 93 % 1035,6 hPa 0,0 mm 3,5 km/h (1 Bft) SW 214 ° 0 min 0,000 mm 0,0 UV-I 0 W/m² 1,3 °C 2,3 °C 4,8 km/h (1 Bft)
22.12.2017 03:37 2,3 °C 2,3 °C 93 % 1035,6 hPa 0,0 mm 3,8 km/h (1 Bft) S-SW 211 ° 0 min 0,000 mm 0,0 UV-I 0 W/m² 1,3 °C 2,3 °C 6,4 km/h (2 Bft)
22.12.2017 03:38 2,3 °C 2,3 °C 93 % 1035,6 hPa 0,0 mm 4,1 km/h (1 Bft) S-SW 211 ° 0 min 0,000 mm 0,0 UV-I 0 W/m² 1,3 °C 2,3 °C 6,4 km/h (2 Bft)
22.12.2017 03:39 2,3 °C 2,3 °C 93 % 1035,6 hPa 0,0 mm 5,0 km/h (1 Bft) SW 217 ° 0 min 0,000 mm 0,0 UV-I 0 W/m² 1,3 °C 1,0 °C 8,0 km/h (2 Bft)
22.12.2017 03:40 2,3 °C 2,3 °C 93 % 1035,6 hPa 0,0 mm 4,6 km/h (1 Bft) W-SW 253 ° 0 min 0,000 mm 0,0 UV-I 0 W/m² 1,3 °C 1,2 °C 6,4 km/h (2 Bft)
22.12.2017 03:41 2,3 °C 2,3 °C 93 % 1035,6 hPa 0,2 mm 3,7 km/h (1 Bft) W-SW 246 ° 0 min 0,000 mm 0,0 UV-I 0 W/m² 1,3 °C 2,3 °C 12,9 km/h (3 Bft)
22.12.2017 03:42 2,3 °C 2,3 °C 93 % 1035,6 hPa 0,0 mm 5,2 km/h (1 Bft) W-SW 244 ° 0 min 0,000 mm 0,0 UV-I 0 W/m² 1,3 °C 0,9 °C 8,0 km/h (2 Bft)
22.12.2017 03:43 2,3 °C 2,3 °C 93 % 1035,6 hPa 0,0 mm 5,1 km/h (1 Bft) W-SW 248 ° 0 min 0,000 mm 0,0 UV-I 0 W/m² 1,3 °C 1,0 °C 8,0 km/h (2 Bft)
22.12.2017 03:44 2,3 °C 2,3 °C 93 % 1035,6 hPa 0,0 mm 4,1 km/h (1 Bft) W-SW 239 ° 0 min 0,000 mm 0,0 UV-I 0 W/m² 1,3 °C 2,3 °C 4,8 km/h (1 Bft)
22.12.2017 03:45 2,3 °C 2,3 °C 93 % 1035,6 hPa 0,0 mm 3,7 km/h (1 Bft) SW 215 ° 0 min 0,000 mm 0,0 UV-I 0 W/m² 1,3 °C 2,3 °C 6,4 km/h (2 Bft)
22.12.2017 03:46 2,2 °C 2,3 °C 93 % 1035,6 hPa 0,0 mm 3,5 km/h (1 Bft) SW 233 ° 0 min 0,000 mm 0,0 UV-I 0 W/m² 1,2 °C 2,2 °C 4,8 km/h (1 Bft)
22.12.2017 03:47 2,3 °C 2,3 °C 93 % 1035,6 hPa 0,0 mm 6,0 km/h (2 Bft) SW 220 ° 0 min 0,000 mm 0,0 UV-I 0 W/m² 1,3 °C 0,6 °C 8,0 km/h (2 Bft)
22.12.2017 03:48 2,2 °C 2,3 °C 93 % 1035,6 hPa 0,0 mm 3,8 km/h (1 Bft) SW 226 ° 0 min 0,000 mm 0,0 UV-I 0 W/m² 1,2 °C 2,2 °C 6,4 km/h (2 Bft)
22.12.2017 03:49 2,2 °C 2,3 °C 93 % 1035,6 hPa 0,0 mm 4,3 km/h (1 Bft) SW 216 ° 0 min 0,000 mm 0,0 UV-I 0 W/m² 1,2 °C 2,2 °C 6,4 km/h (2 Bft)
22.12.2017 03:50 2,2 °C 2,3 °C 93 % 1035,6 hPa 0,0 mm 5,2 km/h (1 Bft) SW 229 ° 0 min 0,000 mm 0,0 UV-I 0 W/m² 1,2 °C 0,8 °C 8,0 km/h (2 Bft)
22.12.2017 03:51 2,2 °C 2,2 °C 93 % 1035,6 hPa 0,0 mm 3,8 km/h (1 Bft) SW 233 ° 0 min 0,000 mm 0,0 UV-I 0 W/m² 1,2 °C 2,2 °C 6,4 km/h (2 Bft)
22.12.2017 03:52 2,2 °C 2,2 °C 93 % 1035,6 hPa 0,0 mm 3,2 km/h (1 Bft) SW 214 ° 0 min 0,000 mm 0,0 UV-I 0 W/m² 1,2 °C 2,2 °C 4,8 km/h (1 Bft)
22.12.2017 03:53 2,2 °C 2,3 °C 93 % 1035,6 hPa 0,0 mm 4,9 km/h (1 Bft) SW 225 ° 0 min 0,000 mm 0,0 UV-I 0 W/m² 1,2 °C 1,0 °C 6,4 km/h (2 Bft)
22.12.2017 03:54 2,2 °C 2,3 °C 93 % 1035,5 hPa 0,2 mm 5,4 km/h (1 Bft) S-SW 212 ° 0 min 0,000 mm 0,0 UV-I 0 W/m² 1,2 °C 0,7 °C 8,0 km/h (2 Bft)
22.12.2017 03:55 2,3 °C 2,3 °C 93 % 1035,5 hPa 0,0 mm 5,0 km/h (1 Bft) W-SW 246 ° 0 min 0,000 mm 0,0 UV-I 0 W/m² 1,3 °C 1,0 °C 8,0 km/h (2 Bft)
22.12.2017 03:56 2,2 °C 2,3 °C 93 % 1035,5 hPa 0,0 mm 3,4 km/h (1 Bft) W-SW 242 ° 0 min 0,000 mm 0,0 UV-I 0 W/m² 1,2 °C 2,2 °C 4,8 km/h (1 Bft)
22.12.2017 03:57 2,3 °C 2,3 °C 93 % 1035,5 hPa 0,0 mm 5,8 km/h (2 Bft) W-SW 244 ° 0 min 0,000 mm 0,0 UV-I 0 W/m² 1,3 °C 0,7 °C 9,7 km/h (2 Bft)
22.12.2017 03:58 2,3 °C 2,3 °C 93 % 1035,5 hPa 0,0 mm 3,7 km/h (1 Bft) S-SW 202 ° 0 min 0,000 mm 0,0 UV-I 0 W/m² 1,3 °C 2,3 °C 8,0 km/h (2 Bft)
22.12.2017 03:59 2,3 °C 2,3 °C 93 % 1035,5 hPa 0,0 mm 4,8 km/h (1 Bft) S-SW 208 ° 0 min 0,000 mm 0,0 UV-I 0 W/m² 1,3 °C 1,1 °C 6,4 km/h (2 Bft)
22.12.2017 04:00 2,3 °C 2,3 °C 93 % 1035,4 hPa 0,0 mm 4,4 km/h (1 Bft) SW 218 ° 0 min 0,000 mm 0,0 UV-I 0 W/m² 1,3 °C 2,3 °C 4,8 km/h (1 Bft)
22.12.2017 04:01 2,3 °C 2,3 °C 93 % 1035,4 hPa 0,0 mm 6,6 km/h (2 Bft) SW 219 ° 0 min 0,000 mm 0,0 UV-I 0 W/m² 1,3 °C 0,4 °C 9,7 km/h (2 Bft)
22.12.2017 04:02 2,3 °C 2,3 °C 93 % 1035,4 hPa 0,0 mm 6,1 km/h (2 Bft) S-SW 207 ° 0 min 0,000 mm 0,0 UV-I 0 W/m² 1,3 °C 0,6 °C 11,3 km/h (2 Bft)
22.12.2017 04:03 2,3 °C 2,3 °C 93 % 1035,4 hPa 0,0 mm 2,7 km/h (1 Bft) SW 227 ° 0 min 0,000 mm 0,0 UV-I 0 W/m² 1,3 °C 2,3 °C 4,8 km/h (1 Bft)
22.12.2017 04:04 2,3 °C 2,3 °C 93 % 1035,4 hPa 0,0 mm 3,2 km/h (1 Bft) SW 228 ° 0 min 0,000 mm 0,0 UV-I 0 W/m² 1,3 °C 2,3 °C 4,8 km/h (1 Bft)
22.12.2017 04:05 2,3 °C 2,3 °C 93 % 1035,5 hPa 0,0 mm 3,4 km/h (1 Bft) S-SW 208 ° 0 min 0,000 mm 0,0 UV-I 0 W/m² 1,3 °C 2,3 °C 4,8 km/h (1 Bft)
22.12.2017 04:06 2,3 °C 2,3 °C 93 % 1035,5 hPa 0,0 mm 4,3 km/h (1 Bft) S-SW 205 ° 0 min 0,000 mm 0,0 UV-I 0 W/m² 1,3 °C 2,3 °C 9,7 km/h (2 Bft)
22.12.2017 04:07 2,3 °C 2,3 °C 93 % 1035,5 hPa 0,0 mm 3,1 km/h (1 Bft) SW 236 ° 0 min 0,000 mm 0,0 UV-I 0 W/m² 1,3 °C 2,3 °C 4,8 km/h (1 Bft)
22.12.2017 04:08 2,3 °C 2,3 °C 93 % 1035,4 hPa 0,2 mm 2,4 km/h (1 Bft) SW 236 ° 0 min 0,000 mm 0,0 UV-I 0 W/m² 1,3 °C 2,3 °C 4,8 km/h (1 Bft)
22.12.2017 04:09 2,3 °C 2,3 °C 93 % 1035,4 hPa 0,0 mm 4,3 km/h (1 Bft) SW 232 ° 0 min 0,000 mm 0,0 UV-I 0 W/m² 1,3 °C 2,3 °C 9,7 km/h (2 Bft)
22.12.2017 04:10 2,3 °C 2,3 °C 93 % 1035,5 hPa 0,0 mm 3,4 km/h (1 Bft) W-SW 253 ° 0 min 0,000 mm 0,0 UV-I 0 W/m² 1,3 °C 2,3 °C 4,8 km/h (1 Bft)
22.12.2017 04:11 2,3 °C 2,3 °C 93 % 1035,5 hPa 0,0 mm 4,0 km/h (1 Bft) W-SW 252 ° 0 min 0,000 mm 0,0 UV-I 0 W/m² 1,3 °C 2,3 °C 4,8 km/h (1 Bft)
22.12.2017 04:12 2,3 °C 2,3 °C 93 % 1035,5 hPa 0,0 mm 5,0 km/h (1 Bft) W 259 ° 0 min 0,000 mm 0,0 UV-I 0 W/m² 1,3 °C 1,0 °C 6,4 km/h (2 Bft)
22.12.2017 04:13 2,3 °C 2,3 °C 93 % 1035,5 hPa 0,0 mm 6,3 km/h (2 Bft) W 271 ° 0 min 0,000 mm 0,0 UV-I 0 W/m² 1,3 °C 0,5 °C 9,7 km/h (2 Bft)
22.12.2017 04:14 2,3 °C 2,3 °C 93 % 1035,5 hPa 0,0 mm 6,6 km/h (2 Bft) W 265 ° 0 min 0,000 mm 0,0 UV-I 0 W/m² 1,3 °C 0,4 °C 11,3 km/h (2 Bft)
22.12.2017 04:15 2,2 °C 2,3 °C 93 % 1035,5 hPa 0,0 mm 6,6 km/h (2 Bft) W 263 ° 0 min 0,000 mm 0,0 UV-I 0 W/m² 1,2 °C 0,3 °C 11,3 km/h (2 Bft)
22.12.2017 04:16 2,2 °C 2,2 °C 93 % 1035,5 hPa 0,0 mm 6,9 km/h (2 Bft) W 265 ° 0 min 0,000 mm 0,0 UV-I 0 W/m² 1,2 °C 0,2 °C 11,3 km/h (2 Bft)
22.12.2017 04:17 2,2 °C 2,2 °C 93 % 1035,5 hPa 0,0 mm 8,0 km/h (2 Bft) W-SW 257 ° 0 min 0,000 mm 0,0 UV-I 0 W/m² 1,2 °C -0,2 °C 12,9 km/h (3 Bft)
22.12.2017 04:18 2,2 °C 2,2 °C 93 % 1035,5 hPa 0,0 mm 5,1 km/h (1 Bft) W 260 ° 0 min 0,000 mm 0,0 UV-I 0 W/m² 1,2 °C 0,9 °C 9,7 km/h (2 Bft)
22.12.2017 04:19 2,2 °C 2,2 °C 93 % 1035,5 hPa 0,0 mm 5,7 km/h (1 Bft) W-SW 257 ° 0 min 0,000 mm 0,0 UV-I 0 W/m² 1,2 °C 0,6 °C 9,7 km/h (2 Bft)
22.12.2017 04:20 2,2 °C 2,2 °C 93 % 1035,5 hPa 0,0 mm 5,2 km/h (1 Bft) W 265 ° 0 min 0,000 mm 0,0 UV-I 0 W/m² 1,2 °C 0,8 °C 9,7 km/h (2 Bft)
22.12.2017 04:21 2,2 °C 2,2 °C 93 % 1035,5 hPa 0,0 mm 5,9 km/h (2 Bft) W 261 ° 0 min 0,000 mm 0,0 UV-I 0 W/m² 1,2 °C 0,5 °C 9,7 km/h (2 Bft)
22.12.2017 04:22 2,2 °C 2,2 °C 93 % 1035,5 hPa 0,0 mm 7,5 km/h (2 Bft) W 265 ° 0 min 0,000 mm 0,0 UV-I 0 W/m² 1,2 °C -0,0 °C 11,3 km/h (2 Bft)
22.12.2017 04:23 2,2 °C 2,2 °C 93 % 1035,5 hPa 0,0 mm 5,1 km/h (1 Bft) W 263 ° 0 min 0,000 mm 0,0 UV-I 0 W/m² 1,2 °C 0,9 °C 6,4 km/h (2 Bft)
22.12.2017 04:24 2,2 °C 2,2 °C 93 % 1035,5 hPa 0,0 mm 4,3 km/h (1 Bft) W-SW 238 ° 0 min 0,000 mm 0,0 UV-I 0 W/m² 1,2 °C 2,2 °C 6,4 km/h (2 Bft)
22.12.2017 04:25 2,2 °C 2,2 °C 93 % 1035,5 hPa 0,0 mm 6,1 km/h (2 Bft) SW 222 ° 0 min 0,000 mm 0,0 UV-I 0 W/m² 1,2 °C 0,5 °C 8,0 km/h (2 Bft)
22.12.2017 04:26 2,2 °C 2,2 °C 93 % 1035,5 hPa 0,0 mm 4,1 km/h (1 Bft) S-SW 212 ° 0 min 0,000 mm 0,0 UV-I 0 W/m² 1,2 °C 2,2 °C 6,4 km/h (2 Bft)
22.12.2017 04:27 2,2 °C 2,2 °C 93 % 1035,5 hPa 0,0 mm 6,2 km/h (2 Bft) S-SW 213 ° 0 min 0,000 mm 0,0 UV-I 0 W/m² 1,2 °C 0,4 °C 9,7 km/h (2 Bft)
22.12.2017 04:28 2,2 °C 2,2 °C 93 % 1035,5 hPa 0,2 mm 5,7 km/h (1 Bft) W-SW 245 ° 0 min 0,000 mm 0,0 UV-I 0 W/m² 1,2 °C 0,6 °C 11,3 km/h (2 Bft)
22.12.2017 04:29 2,2 °C 2,2 °C 93 % 1035,4 hPa 0,0 mm 6,6 km/h (2 Bft) SW 231 ° 0 min 0,000 mm 0,0 UV-I 0 W/m² 1,2 °C 0,3 °C 9,7 km/h (2 Bft)
22.12.2017 04:30 2,2 °C 2,2 °C 93 % 1035,4 hPa 0,0 mm 5,3 km/h (1 Bft) S-SW 192 ° 0 min 0,000 mm 0,0 UV-I 0 W/m² 1,2 °C 0,8 °C 8,0 km/h (2 Bft)
22.12.2017 04:31 2,2 °C 2,2 °C 93 % 1035,4 hPa 0,0 mm 3,4 km/h (1 Bft) W 261 ° 0 min 0,000 mm 0,0 UV-I 0 W/m² 1,2 °C 2,2 °C 6,4 km/h (2 Bft)
22.12.2017 04:32 2,2 °C 2,2 °C 93 % 1035,4 hPa 0,0 mm 4,2 km/h (1 Bft) W-SW 250 ° 0 min 0,000 mm 0,0 UV-I 0 W/m² 1,2 °C 2,2 °C 4,8 km/h (1 Bft)
22.12.2017 04:33 2,2 °C 2,2 °C 93 % 1035,4 hPa 0,0 mm 4,4 km/h (1 Bft) W-SW 256 ° 0 min 0,000 mm 0,0 UV-I 0 W/m² 1,2 °C 2,2 °C 8,0 km/h (2 Bft)
22.12.2017 04:34 2,2 °C 2,2 °C 93 % 1035,4 hPa 0,0 mm 5,5 km/h (1 Bft) W 259 ° 0 min 0,000 mm 0,0 UV-I 0 W/m² 1,2 °C 0,7 °C 8,0 km/h (2 Bft)
22.12.2017 04:35 2,2 °C 2,2 °C 93 % 1035,3 hPa 0,0 mm 4,7 km/h (1 Bft) W-SW 240 ° 0 min 0,000 mm 0,0 UV-I 0 W/m² 1,2 °C 1,0 °C 8,0 km/h (2 Bft)
22.12.2017 04:36 2,2 °C 2,2 °C 93 % 1035,3 hPa 0,0 mm 5,2 km/h (1 Bft) SW 216 ° 0 min 0,000 mm 0,0 UV-I 0 W/m² 1,2 °C 0,8 °C 6,4 km/h (2 Bft)
22.12.2017 04:37 2,2 °C 2,2 °C 93 % 1035,3 hPa 0,0 mm 5,1 km/h (1 Bft) SW 215 ° 0 min 0,000 mm 0,0 UV-I 0 W/m² 1,2 °C 0,9 °C 6,4 km/h (2 Bft)
22.12.2017 04:38 2,2 °C 2,2 °C 93 % 1035,3 hPa 0,0 mm 2,7 km/h (1 Bft) W-SW 249 ° 0 min 0,000 mm 0,0 UV-I 0 W/m² 1,2 °C 2,2 °C 4,8 km/h (1 Bft)
22.12.2017 04:39 2,2 °C 2,2 °C 93 % 1035,3 hPa 0,0 mm 2,7 km/h (1 Bft) W-SW 244 ° 0 min 0,000 mm 0,0 UV-I 0 W/m² 1,2 °C 2,2 °C 4,8 km/h (1 Bft)
22.12.2017 04:40 2,2 °C 2,2 °C 93 % 1035,3 hPa 0,0 mm 5,6 km/h (1 Bft) W 274 ° 0 min 0,000 mm 0,0 UV-I 0 W/m² 1,2 °C 0,7 °C 9,7 km/h (2 Bft)
22.12.2017 04:41 2,2 °C 2,2 °C 93 % 1035,3 hPa 0,0 mm 5,9 km/h (2 Bft) W-SW 253 ° 0 min 0,000 mm 0,0 UV-I 0 W/m² 1,2 °C 0,5 °C 9,7 km/h (2 Bft)
22.12.2017 04:42 2,2 °C 2,2 °C 93 % 1035,4 hPa 0,0 mm 5,6 km/h (1 Bft) W-SW 248 ° 0 min 0,000 mm 0,0 UV-I 0 W/m² 1,2 °C 0,7 °C 8,0 km/h (2 Bft)
22.12.2017 04:43 2,2 °C 2,2 °C 93 % 1035,3 hPa 0,0 mm 6,2 km/h (2 Bft) W 261 ° 0 min 0,000 mm 0,0 UV-I 0 W/m² 1,2 °C 0,4 °C 9,7 km/h (2 Bft)
22.12.2017 04:44 2,2 °C 2,2 °C 93 % 1035,3 hPa 0,0 mm 6,5 km/h (2 Bft) W-SW 254 ° 0 min 0,000 mm 0,0 UV-I 0 W/m² 1,2 °C 0,3 °C 11,3 km/h (2 Bft)
22.12.2017 04:45 2,2 °C 2,2 °C 93 % 1035,3 hPa 0,0 mm 5,7 km/h (1 Bft) W-SW 242 ° 0 min 0,000 mm 0,0 UV-I 0 W/m² 1,2 °C 0,6 °C 12,9 km/h (3 Bft)
22.12.2017 04:46 2,2 °C 2,2 °C 93 % 1035,3 hPa 0,0 mm 7,1 km/h (2 Bft) SW 229 ° 0 min 0,000 mm 0,0 UV-I 0 W/m² 1,2 °C 0,1 °C 11,3 km/h (2 Bft)
22.12.2017 04:47 2,2 °C 2,2 °C 93 % 1035,3 hPa 0,0 mm 7,3 km/h (2 Bft) W 278 ° 0 min 0,000 mm 0,0 UV-I 0 W/m² 1,2 °C 0,1 °C 11,3 km/h (2 Bft)
22.12.2017 04:48 2,2 °C 2,2 °C 93 % 1035,4 hPa 0,0 mm 6,3 km/h (2 Bft) W-SW 244 ° 0 min 0,000 mm 0,0 UV-I 0 W/m² 1,2 °C 0,4 °C 9,7 km/h (2 Bft)
22.12.2017 04:49 2,2 °C 2,2 °C 93 % 1035,4 hPa 0,0 mm 6,4 km/h (2 Bft) W-SW 248 ° 0 min 0,000 mm 0,0 UV-I 0 W/m² 1,2 °C 0,4 °C 11,3 km/h (2 Bft)
22.12.2017 04:50 2,2 °C 2,2 °C 93 % 1035,4 hPa 0,0 mm 7,4 km/h (2 Bft) S-SW 203 ° 0 min 0,000 mm 0,0 UV-I 0 W/m² 1,2 °C 0,0 °C 12,9 km/h (3 Bft)
22.12.2017 04:51 2,2 °C 2,2 °C 93 % 1035,4 hPa 0,0 mm 4,1 km/h (1 Bft) W-SW 250 ° 0 min 0,000 mm 0,0 UV-I 0 W/m² 1,2 °C 2,2 °C 6,4 km/h (2 Bft)
22.12.2017 04:52 2,2 °C 2,2 °C 93 % 1035,4 hPa 0,0 mm 6,7 km/h (2 Bft) W-SW 251 ° 0 min 0,000 mm 0,0 UV-I 0 W/m² 1,2 °C 0,3 °C 11,3 km/h (2 Bft)
22.12.2017 04:53 2,2 °C 2,2 °C 93 % 1035,4 hPa 0,0 mm 4,8 km/h (1 Bft) S-SW 210 ° 0 min 0,000 mm 0,0 UV-I 0 W/m² 1,2 °C 1,0 °C 9,7 km/h (2 Bft)
22.12.2017 04:54 2,2 °C 2,2 °C 93 % 1035,4 hPa 0,0 mm 5,1 km/h (1 Bft) S-SW 213 ° 0 min 0,000 mm 0,0 UV-I 0 W/m² 1,2 °C 0,9 °C 8,0 km/h (2 Bft)
22.12.2017 04:55 2,2 °C 2,2 °C 93 % 1035,4 hPa 0,0 mm 3,6 km/h (1 Bft) W-SW 238 ° 0 min 0,000 mm 0,0 UV-I 0 W/m² 1,2 °C 2,2 °C 4,8 km/h (1 Bft)
22.12.2017 04:56 2,2 °C 2,2 °C 93 % 1035,4 hPa 0,0 mm 4,9 km/h (1 Bft) W-SW 240 ° 0 min 0,000 mm 0,0 UV-I 0 W/m² 1,2 °C 1,0 °C 6,4 km/h (2 Bft)
22.12.2017 04:57 2,2 °C 2,2 °C 93 % 1035,4 hPa 0,0 mm 4,3 km/h (1 Bft) SW 217 ° 0 min 0,000 mm 0,0 UV-I 0 W/m² 1,2 °C 2,2 °C 6,4 km/h (2 Bft)
22.12.2017 04:58 2,1 °C 2,2 °C 93 % 1035,4 hPa 0,2 mm 3,5 km/h (1 Bft) SW 217 ° 0 min 0,000 mm 0,0 UV-I 0 W/m² 1,1 °C 2,1 °C 6,4 km/h (2 Bft)
22.12.2017 04:59 2,2 °C 2,2 °C 93 % 1035,4 hPa 0,0 mm 2,3 km/h (1 Bft) SW 217 ° 0 min 0,000 mm 0,0 UV-I 0 W/m² 1,2 °C 2,2 °C 4,8 km/h (1 Bft)
22.12.2017 05:00 2,2 °C 2,2 °C 93 % 1035,4 hPa 0,0 mm 2,1 km/h (1 Bft) SW 217 ° 0 min 0,000 mm 0,0 UV-I 0 W/m² 1,2 °C 2,2 °C 3,2 km/h (1 Bft)
22.12.2017 05:01 2,2 °C 2,2 °C 93 % 1035,3 hPa 0,0 mm 1,4 km/h (1 Bft) SW 217 ° 0 min 0,000 mm 0,0 UV-I 0 W/m² 1,2 °C 2,2 °C 3,2 km/h (1 Bft)
22.12.2017 05:02 2,2 °C 2,2 °C 93 % 1035,3 hPa 0,0 mm 0,1 km/h (0 Bft) SW 217 ° 0 min 0,000 mm 0,0 UV-I 0 W/m² 1,2 °C 2,2 °C 1,6 km/h (1 Bft)
22.12.2017 05:03 2,2 °C 2,2 °C 93 % 1035,4 hPa 0,0 mm 1,3 km/h (1 Bft) SW 217 ° 0 min 0,000 mm 0,0 UV-I 0 W/m² 1,2 °C 2,2 °C 3,2 km/h (1 Bft)
22.12.2017 05:04 2,1 °C 2,2 °C 93 % 1035,3 hPa 0,0 mm 4,1 km/h (1 Bft) S-SW 206 ° 0 min 0,000 mm 0,0 UV-I 0 W/m² 1,1 °C 2,1 °C 8,0 km/h (2 Bft)
22.12.2017 05:05 2,2 °C 2,2 °C 93 % 1035,3 hPa 0,0 mm 3,0 km/h (1 Bft) S-SW 206 ° 0 min 0,000 mm 0,0 UV-I 0 W/m² 1,2 °C 2,2 °C 6,4 km/h (2 Bft)
22.12.2017 05:06 2,1 °C 2,2 °C 93 % 1035,3 hPa 0,0 mm 5,9 km/h (2 Bft) S-SW 213 ° 0 min 0,000 mm 0,0 UV-I 0 W/m² 1,1 °C 0,4 °C 9,7 km/h (2 Bft)
22.12.2017 05:07 2,1 °C 2,2 °C 93 % 1035,3 hPa 0,0 mm 3,3 km/h (1 Bft) W-SW 242 ° 0 min 0,000 mm 0,0 UV-I 0 W/m² 1,1 °C 2,1 °C 4,8 km/h (1 Bft)
22.12.2017 05:08 2,1 °C 2,2 °C 93 % 1035,3 hPa 0,0 mm 4,7 km/h (1 Bft) W-SW 247 ° 0 min 0,000 mm 0,0 UV-I 0 W/m² 1,1 °C 0,9 °C 8,0 km/h (2 Bft)
22.12.2017 05:09 2,2 °C 2,2 °C 93 % 1035,3 hPa 0,0 mm 7,1 km/h (2 Bft) S-SW 203 ° 0 min 0,000 mm 0,0 UV-I 0 W/m² 1,2 °C 0,1 °C 9,7 km/h (2 Bft)
22.12.2017 05:10 2,2 °C 2,2 °C 93 % 1035,3 hPa 0,0 mm 6,8 km/h (2 Bft) S-SW 205 ° 0 min 0,000 mm 0,0 UV-I 0 W/m² 1,2 °C 0,2 °C 11,3 km/h (2 Bft)
22.12.2017 05:11 2,1 °C 2,2 °C 93 % 1035,2 hPa 0,0 mm 8,4 km/h (2 Bft) S-SW 196 ° 0 min 0,000 mm 0,0 UV-I 0 W/m² 1,1 °C -0,4 °C 12,9 km/h (3 Bft)
22.12.2017 05:12 2,2 °C 2,2 °C 93 % 1035,2 hPa 0,0 mm 6,3 km/h (2 Bft) SW 219 ° 0 min 0,000 mm 0,0 UV-I 0 W/m² 1,2 °C 0,4 °C 9,7 km/h (2 Bft)
22.12.2017 05:13 2,2 °C 2,2 °C 93 % 1035,2 hPa 0,0 mm 4,9 km/h (1 Bft) SW 234 ° 0 min 0,000 mm 0,0 UV-I 0 W/m² 1,2 °C 1,0 °C 6,4 km/h (2 Bft)
22.12.2017 05:14 2,2 °C 2,2 °C 93 % 1035,3 hPa 0,0 mm 3,4 km/h (1 Bft) W-SW 246 ° 0 min 0,000 mm 0,0 UV-I 0 W/m² 1,2 °C 2,2 °C 4,8 km/h (1 Bft)
22.12.2017 05:15 2,2 °C 2,2 °C 93 % 1035,3 hPa 0,0 mm 5,5 km/h (1 Bft) W-SW 242 ° 0 min 0,000 mm 0,0 UV-I 0 W/m² 1,2 °C 0,7 °C 6,4 km/h (2 Bft)
22.12.2017 05:16 2,2 °C 2,2 °C 93 % 1035,3 hPa 0,0 mm 3,2 km/h (1 Bft) W-SW 242 ° 0 min 0,000 mm 0,0 UV-I 0 W/m² 1,2 °C 2,2 °C 4,8 km/h (1 Bft)
22.12.2017 05:17 2,2 °C 2,2 °C 93 % 1035,3 hPa 0,0 mm 2,1 km/h (1 Bft) W-SW 242 ° 0 min 0,000 mm 0,0 UV-I 0 W/m² 1,2 °C 2,2 °C 3,2 km/h (1 Bft)
22.12.2017 05:18 2,1 °C 2,2 °C 93 % 1035,3 hPa 0,0 mm 1,4 km/h (1 Bft) W-SW 242 ° 0 min 0,000 mm 0,0 UV-I 0 W/m² 1,1 °C 2,1 °C 1,6 km/h (1 Bft)
22.12.2017 05:19 2,1 °C 2,2 °C 93 % 1035,3 hPa 0,0 mm 1,9 km/h (1 Bft) W-SW 256 ° 0 min 0,000 mm 0,0 UV-I 0 W/m² 1,1 °C 2,1 °C 4,8 km/h (1 Bft)
22.12.2017 05:20 2,2 °C 2,2 °C 93 % 1035,3 hPa 0,0 mm 3,4 km/h (1 Bft) W 271 ° 0 min 0,000 mm 0,0 UV-I 0 W/m² 1,2 °C 2,2 °C 4,8 km/h (1 Bft)
22.12.2017 05:21 2,1 °C 2,2 °C 93 % 1035,3 hPa 0,0 mm 2,6 km/h (1 Bft) W 271 ° 0 min 0,000 mm 0,0 UV-I 0 W/m² 1,1 °C 2,1 °C 3,2 km/h (1 Bft)
22.12.2017 05:22 2,1 °C 2,2 °C 93 % 1035,4 hPa 0,0 mm 1,5 km/h (1 Bft) W 271 ° 0 min 0,000 mm 0,0 UV-I 0 W/m² 1,1 °C 2,1 °C 3,2 km/h (1 Bft)
22.12.2017 05:23 2,1 °C 2,1 °C 93 % 1035,4 hPa 0,0 mm 0,3 km/h (0 Bft) W 271 ° 0 min 0,000 mm 0,0 UV-I 0 W/m² 1,1 °C 2,1 °C 1,6 km/h (1 Bft)
22.12.2017 05:24 2,1 °C 2,1 °C 93 % 1035,3 hPa 0,2 mm 2,1 km/h (1 Bft) W 271 ° 0 min 0,000 mm 0,0 UV-I 0 W/m² 1,1 °C 2,1 °C 3,2 km/h (1 Bft)
22.12.2017 05:25 2,1 °C 2,1 °C 93 % 1035,3 hPa 0,0 mm 2,5 km/h (1 Bft) S-SW 205 ° 0 min 0,000 mm 0,0 UV-I 0 W/m² 1,1 °C 2,1 °C 3,2 km/h (1 Bft)
22.12.2017 05:26 2,1 °C 2,1 °C 93 % 1035,3 hPa 0,0 mm 1,1 km/h (1 Bft) S-SW 205 ° 0 min 0,000 mm 0,0 UV-I 0 W/m² 1,1 °C 2,1 °C 3,2 km/h (1 Bft)
22.12.2017 05:27 2,1 °C 2,1 °C 93 % 1035,3 hPa 0,0 mm 1,5 km/h (1 Bft) W-SW 241 ° 0 min 0,000 mm 0,0 UV-I 0 W/m² 1,1 °C 2,1 °C 4,8 km/h (1 Bft)
22.12.2017 05:28 2,1 °C 2,1 °C 93 % 1035,3 hPa 0,0 mm 1,5 km/h (1 Bft) W-SW 241 ° 0 min 0,000 mm 0,0 UV-I 0 W/m² 1,1 °C 2,1 °C 4,8 km/h (1 Bft)
22.12.2017 05:29 2,1 °C 2,1 °C 93 % 1035,3 hPa 0,0 mm 1,2 km/h (1 Bft) W-SW 241 ° 0 min 0,000 mm 0,0 UV-I 0 W/m² 1,1 °C 2,1 °C 3,2 km/h (1 Bft)
22.12.2017 05:30 2,1 °C 2,1 °C 93 % 1035,3 hPa 0,0 mm 2,0 km/h (1 Bft) W-SW 241 ° 0 min 0,000 mm 0,0 UV-I 0 W/m² 1,1 °C 2,1 °C 3,2 km/h (1 Bft)
22.12.2017 05:31 2,1 °C 2,1 °C 93 % 1035,3 hPa 0,0 mm 1,5 km/h (1 Bft) W-SW 241 ° 0 min 0,000 mm 0,0 UV-I 0 W/m² 1,1 °C 2,1 °C 3,2 km/h (1 Bft)
22.12.2017 05:32 2,1 °C 2,1 °C 93 % 1035,3 hPa 0,0 mm 0,6 km/h (0 Bft) W-SW 241 ° 0 min 0,000 mm 0,0 UV-I 0 W/m² 1,1 °C 2,1 °C 1,6 km/h (1 Bft)
22.12.2017 05:33 2,1 °C 2,1 °C 93 % 1035,4 hPa 0,0 mm 0,6 km/h (0 Bft) W-SW 241 ° 0 min 0,000 mm 0,0 UV-I 0 W/m² 1,1 °C 2,1 °C 1,6 km/h (1 Bft)
22.12.2017 05:34 2,0 °C 2,1 °C 93 % 1035,4 hPa 0,2 mm 1,5 km/h (1 Bft) W-SW 241 ° 0 min 0,000 mm 0,0 UV-I 0 W/m² 1,0 °C 2,0 °C 3,2 km/h (1 Bft)
22.12.2017 05:35 2,0 °C 2,1 °C 93 % 1035,4 hPa 0,0 mm 0,7 km/h (0 Bft) W-SW 241 ° 0 min 0,000 mm 0,0 UV-I 0 W/m² 1,0 °C 2,0 °C 1,6 km/h (1 Bft)
22.12.2017 05:36 2,0 °C 2,0 °C 93 % 1035,4 hPa 0,0 mm 0,0 km/h (0 Bft) W-SW 241 ° 0 min 0,000 mm 0,0 UV-I 0 W/m² 1,0 °C 2,0 °C 0,0 km/h (0 Bft)
22.12.2017 05:37 2,1 °C 2,1 °C 93 % 1035,4 hPa 0,0 mm 0,7 km/h (0 Bft) W-SW 241 ° 0 min 0,000 mm 0,0 UV-I 0 W/m² 1,1 °C 2,1 °C 1,6 km/h (1 Bft)
22.12.2017 05:38 2,0 °C 2,1 °C 93 % 1035,4 hPa 0,0 mm 0,5 km/h (0 Bft) W-SW 241 ° 0 min 0,000 mm 0,0 UV-I 0 W/m² 1,0 °C 2,0 °C 1,6 km/h (1 Bft)
22.12.2017 05:39 2,0 °C 2,0 °C 93 % 1035,4 hPa 0,0 mm 0,8 km/h (0 Bft) W-SW 241 ° 0 min 0,000 mm 0,0 UV-I 0 W/m² 1,0 °C 2,0 °C 3,2 km/h (1 Bft)
22.12.2017 05:40 2,0 °C 2,0 °C 93 % 1035,4 hPa 0,0 mm 0,0 km/h (0 Bft) W-SW 241 ° 0 min 0,000 mm 0,0 UV-I 0 W/m² 1,0 °C 2,0 °C 0,0 km/h (0 Bft)
22.12.2017 05:41 2,0 °C 2,0 °C 93 % 1035,4 hPa 0,0 mm 0,0 km/h (0 Bft) W-SW 241 ° 0 min 0,000 mm 0,0 UV-I 0 W/m² 1,0 °C 2,0 °C 0,0 km/h (0 Bft)
22.12.2017 05:42 2,0 °C 2,0 °C 93 % 1035,4 hPa 0,0 mm 0,0 km/h (0 Bft) W-SW 241 ° 0 min 0,000 mm 0,0 UV-I 0 W/m² 1,0 °C 2,0 °C 0,0 km/h (0 Bft)
22.12.2017 05:43 2,0 °C 2,0 °C 93 % 1035,4 hPa 0,0 mm 1,0 km/h (0 Bft) W-SW 241 ° 0 min 0,000 mm 0,0 UV-I 0 W/m² 1,0 °C 2,0 °C 1,6 km/h (1 Bft)
22.12.2017 05:44 1,9 °C 2,0 °C 93 % 1035,4 hPa 0,0 mm 0,8 km/h (0 Bft) W-SW 241 ° 0 min 0,000 mm 0,0 UV-I 0 W/m² 0,9 °C 1,9 °C 1,6 km/h (1 Bft)
22.12.2017 05:45 1,9 °C 2,0 °C 93 % 1035,4 hPa 0,0 mm 1,4 km/h (1 Bft) W-SW 237 ° 0 min 0,000 mm 0,0 UV-I 0 W/m² 0,9 °C 1,9 °C 3,2 km/h (1 Bft)
22.12.2017 05:46 1,9 °C 1,9 °C 93 % 1035,4 hPa 0,0 mm 0,3 km/h (0 Bft) W-SW 237 ° 0 min 0,000 mm 0,0 UV-I 0 W/m² 0,9 °C 1,9 °C 1,6 km/h (1 Bft)
22.12.2017 05:47 1,9 °C 2,0 °C 93 % 1035,4 hPa 0,0 mm 0,2 km/h (0 Bft) W-SW 237 ° 0 min 0,000 mm 0,0 UV-I 0 W/m² 0,9 °C 1,9 °C 1,6 km/h (1 Bft)
22.12.2017 05:48 1,9 °C 1,9 °C 93 % 1035,4 hPa 0,0 mm 0,1 km/h (0 Bft) W-SW 237 ° 0 min 0,000 mm 0,0 UV-I 0 W/m² 0,9 °C 1,9 °C 1,6 km/h (1 Bft)
22.12.2017 05:49 1,9 °C 1,9 °C 93 % 1035,4 hPa 0,0 mm 0,0 km/h (0 Bft) W-SW 237 ° 0 min 0,000 mm 0,0 UV-I 0 W/m² 0,9 °C 1,9 °C 0,0 km/h (0 Bft)
22.12.2017 05:50 1,9 °C 1,9 °C 93 % 1035,4 hPa 0,0 mm 0,0 km/h (0 Bft) W-SW 237 ° 0 min 0,000 mm 0,0 UV-I 0 W/m² 0,9 °C 1,9 °C 0,0 km/h (0 Bft)
22.12.2017 05:51 1,9 °C 1,9 °C 93 % 1035,4 hPa 0,0 mm 0,0 km/h (0 Bft) W-SW 237 ° 0 min 0,000 mm 0,0 UV-I 0 W/m² 0,9 °C 1,9 °C 0,0 km/h (0 Bft)
22.12.2017 05:52 1,9 °C 1,9 °C 93 % 1035,4 hPa 0,0 mm 0,0 km/h (0 Bft) W-SW 237 ° 0 min 0,000 mm 0,0 UV-I 0 W/m² 0,9 °C 1,9 °C 0,0 km/h (0 Bft)
22.12.2017 05:53 1,9 °C 1,9 °C 93 % 1035,4 hPa 0,0 mm 0,0 km/h (0 Bft) W-SW 237 ° 0 min 0,000 mm 0,0 UV-I 0 W/m² 0,9 °C 1,9 °C 0,0 km/h (0 Bft)
22.12.2017 05:54 1,9 °C 1,9 °C 93 % 1035,4 hPa 0,0 mm 0,0 km/h (0 Bft) W-SW 237 ° 0 min 0,000 mm 0,0 UV-I 0 W/m² 0,9 °C 1,9 °C 0,0 km/h (0 Bft)
22.12.2017 05:55 1,9 °C 1,9 °C 93 % 1035,4 hPa 0,2 mm 0,0 km/h (0 Bft) W-SW 237 ° 0 min 0,000 mm 0,0 UV-I 0 W/m² 0,9 °C 1,9 °C 0,0 km/h (0 Bft)
22.12.2017 05:56 1,9 °C 1,9 °C 93 % 1035,3 hPa 0,0 mm 0,0 km/h (0 Bft) W-SW 237 ° 0 min 0,000 mm 0,0 UV-I 0 W/m² 0,9 °C 1,9 °C 0,0 km/h (0 Bft)
22.12.2017 05:57 1,9 °C 1,9 °C 93 % 1035,3 hPa 0,0 mm 0,0 km/h (0 Bft) W-SW 237 ° 0 min 0,000 mm 0,0 UV-I 0 W/m² 0,9 °C 1,9 °C 0,0 km/h (0 Bft)
22.12.2017 05:58 1,9 °C 1,9 °C 93 % 1035,2 hPa 0,0 mm 0,7 km/h (0 Bft) W-SW 237 ° 0 min 0,000 mm 0,0 UV-I 0 W/m² 0,9 °C 1,9 °C 3,2 km/h (1 Bft)
22.12.2017 05:59 1,9 °C 1,9 °C 93 % 1035,2 hPa 0,0 mm 1,1 km/h (1 Bft) W-SW 237 ° 0 min 0,000 mm 0,0 UV-I 0 W/m² 0,9 °C 1,9 °C 1,6 km/h (1 Bft)
22.12.2017 06:00 1,9 °C 1,9 °C 93 % 1035,3 hPa 0,0 mm 2,2 km/h (1 Bft) W-SW 237 ° 0 min 0,000 mm 0,0 UV-I 0 W/m² 0,9 °C 1,9 °C 3,2 km/h (1 Bft)
22.12.2017 06:01 1,9 °C 1,9 °C 93 % 1035,3 hPa 0,0 mm 2,9 km/h (1 Bft) S-SW 203 ° 0 min 0,000 mm 0,0 UV-I 0 W/m² 0,9 °C 1,9 °C 4,8 km/h (1 Bft)
22.12.2017 06:02 1,9 °C 1,9 °C 93 % 1035,3 hPa 0,0 mm 4,6 km/h (1 Bft) S-SW 203 ° 0 min 0,000 mm 0,0 UV-I 0 W/m² 0,9 °C 0,7 °C 4,8 km/h (1 Bft)
22.12.2017 06:03 1,9 °C 1,9 °C 93 % 1035,3 hPa 0,0 mm 4,0 km/h (1 Bft) S-SW 203 ° 0 min 0,000 mm 0,0 UV-I 0 W/m² 0,9 °C 1,9 °C 4,8 km/h (1 Bft)
22.12.2017 06:04 1,9 °C 1,9 °C 93 % 1035,3 hPa 0,0 mm 3,2 km/h (1 Bft) S-SW 203 ° 0 min 0,000 mm 0,0 UV-I 0 W/m² 0,9 °C 1,9 °C 3,2 km/h (1 Bft)
22.12.2017 06:05 1,9 °C 1,9 °C 93 % 1035,3 hPa 0,0 mm 4,0 km/h (1 Bft) S-SW 203 ° 0 min 0,000 mm 0,0 UV-I 0 W/m² 0,9 °C 1,9 °C 4,8 km/h (1 Bft)
22.12.2017 06:06 1,9 °C 1,9 °C 93 % 1035,3 hPa 0,0 mm 3,0 km/h (1 Bft) S-SW 203 ° 0 min 0,000 mm 0,0 UV-I 0 W/m² 0,9 °C 1,9 °C 4,8 km/h (1 Bft)
22.12.2017 06:07 1,9 °C 1,9 °C 93 % 1035,3 hPa 0,0 mm 1,5 km/h (1 Bft) S-SW 203 ° 0 min 0,000 mm 0,0 UV-I 0 W/m² 0,9 °C 1,9 °C 3,2 km/h (1 Bft)
22.12.2017 06:08 1,8 °C 1,9 °C 93 % 1035,3 hPa 0,0 mm 0,7 km/h (0 Bft) SW 220 ° 0 min 0,000 mm 0,0 UV-I 0 W/m² 0,8 °C 1,8 °C 3,2 km/h (1 Bft)
22.12.2017 06:09 1,8 °C 1,9 °C 93 % 1035,3 hPa 0,0 mm 0,0 km/h (0 Bft) SW 220 ° 0 min 0,000 mm 0,0 UV-I 0 W/m² 0,8 °C 1,8 °C 0,0 km/h (0 Bft)
22.12.2017 06:10 1,8 °C 1,9 °C 93 % 1035,3 hPa 0,0 mm 0,0 km/h (0 Bft) SW 220 ° 0 min 0,000 mm 0,0 UV-I 0 W/m² 0,8 °C 1,8 °C 0,0 km/h (0 Bft)
22.12.2017 06:11 1,8 °C 1,9 °C 93 % 1035,3 hPa 0,0 mm 0,0 km/h (0 Bft) SW 220 ° 0 min 0,000 mm 0,0 UV-I 0 W/m² 0,8 °C 1,8 °C 0,0 km/h (0 Bft)
22.12.2017 06:12 1,8 °C 1,9 °C 93 % 1035,3 hPa 0,0 mm 0,0 km/h (0 Bft) SW 220 ° 0 min 0,000 mm 0,0 UV-I 0 W/m² 0,8 °C 1,8 °C 0,0 km/h (0 Bft)
22.12.2017 06:13 1,8 °C 1,8 °C 93 % 1035,3 hPa 0,0 mm 0,0 km/h (0 Bft) SW 220 ° 0 min 0,000 mm 0,0 UV-I 0 W/m² 0,8 °C 1,8 °C 0,0 km/h (0 Bft)
22.12.2017 06:14 1,8 °C 1,8 °C 93 % 1035,3 hPa 0,0 mm 0,0 km/h (0 Bft) SW 220 ° 0 min 0,000 mm 0,0 UV-I 0 W/m² 0,8 °C 1,8 °C 0,0 km/h (0 Bft)
22.12.2017 06:15 1,8 °C 1,8 °C 93 % 1035,3 hPa 0,0 mm 0,0 km/h (0 Bft) SW 220 ° 0 min 0,000 mm 0,0 UV-I 0 W/m² 0,8 °C 1,8 °C 0,0 km/h (0 Bft)
22.12.2017 06:16 1,8 °C 1,8 °C 93 % 1035,2 hPa 0,0 mm 0,3 km/h (0 Bft) SW 220 ° 0 min 0,000 mm 0,0 UV-I 0 W/m² 0,8 °C 1,8 °C 1,6 km/h (1 Bft)
22.12.2017 06:17 1,8 °C 1,8 °C 93 % 1035,2 hPa 0,0 mm 0,0 km/h (0 Bft) SW 220 ° 0 min 0,000 mm 0,0 UV-I 0 W/m² 0,8 °C 1,8 °C 0,0 km/h (0 Bft)
22.12.2017 06:18 1,8 °C 1,8 °C 93 % 1035,2 hPa 0,0 mm 0,0 km/h (0 Bft) SW 220 ° 0 min 0,000 mm 0,0 UV-I 0 W/m² 0,8 °C 1,8 °C 0,0 km/h (0 Bft)
22.12.2017 06:19 1,8 °C 1,8 °C 93 % 1035,2 hPa 0,0 mm 0,0 km/h (0 Bft) SW 220 ° 0 min 0,000 mm 0,0 UV-I 0 W/m² 0,8 °C 1,8 °C 0,0 km/h (0 Bft)
22.12.2017 06:20 1,8 °C 1,8 °C 93 % 1035,2 hPa 0,0 mm 0,0 km/h (0 Bft) SW 220 ° 0 min 0,000 mm 0,0 UV-I 0 W/m² 0,8 °C 1,8 °C 0,0 km/h (0 Bft)
22.12.2017 06:21 1,8 °C 1,8 °C 93 % 1035,2 hPa 0,0 mm 0,0 km/h (0 Bft) SW 220 ° 0 min 0,000 mm 0,0 UV-I 0 W/m² 0,8 °C 1,8 °C 0,0 km/h (0 Bft)
22.12.2017 06:22 1,8 °C 1,8 °C 93 % 1035,2 hPa 0,0 mm 0,0 km/h (0 Bft) SW 220 ° 0 min 0,000 mm 0,0 UV-I 0 W/m² 0,8 °C 1,8 °C 0,0 km/h (0 Bft)
22.12.2017 06:23 1,8 °C 1,8 °C 93 % 1035,2 hPa 0,0 mm 1,1 km/h (1 Bft) SW 220 ° 0 min 0,000 mm 0,0 UV-I 0 W/m² 0,8 °C 1,8 °C 3,2 km/h (1 Bft)
22.12.2017 06:24 1,8 °C 1,8 °C 93 % 1035,2 hPa 0,0 mm 1,7 km/h (1 Bft) SW 220 ° 0 min 0,000 mm 0,0 UV-I 0 W/m² 0,8 °C 1,8 °C 3,2 km/h (1 Bft)
22.12.2017 06:25 1,8 °C 1,8 °C 93 % 1035,2 hPa 0,0 mm 1,8 km/h (1 Bft) SW 220 ° 0 min 0,000 mm 0,0 UV-I 0 W/m² 0,8 °C 1,8 °C 3,2 km/h (1 Bft)
22.12.2017 06:26 1,8 °C 1,8 °C 93 % 1035,2 hPa 0,0 mm 0,1 km/h (0 Bft) SW 220 ° 0 min 0,000 mm 0,0 UV-I 0 W/m² 0,8 °C 1,8 °C 1,6 km/h (1 Bft)
22.12.2017 06:27 1,7 °C 1,8 °C 93 % 1035,2 hPa 0,0 mm 0,0 km/h (0 Bft) SW 220 ° 0 min 0,000 mm 0,0 UV-I 0 W/m² 0,7 °C 1,7 °C 0,0 km/h (0 Bft)
22.12.2017 06:28 1,7 °C 1,8 °C 93 % 1035,1 hPa 0,0 mm 0,0 km/h (0 Bft) SW 220 ° 0 min 0,000 mm 0,0 UV-I 0 W/m² 0,7 °C 1,7 °C 0,0 km/h (0 Bft)
22.12.2017 06:29 1,7 °C 1,7 °C 93 % 1035,1 hPa 0,0 mm 0,0 km/h (0 Bft) SW 220 ° 0 min 0,000 mm 0,0 UV-I 0 W/m² 0,7 °C 1,7 °C 0,0 km/h (0 Bft)
22.12.2017 06:30 1,7 °C 1,7 °C 93 % 1035,1 hPa 0,0 mm 0,0 km/h (0 Bft) SW 220 ° 0 min 0,000 mm 0,0 UV-I 0 W/m² 0,7 °C 1,7 °C 0,0 km/h (0 Bft)
22.12.2017 06:31 1,7 °C 1,7 °C 93 % 1035,0 hPa 0,0 mm 0,0 km/h (0 Bft) SW 220 ° 0 min 0,000 mm 0,0 UV-I 0 W/m² 0,7 °C 1,7 °C 0,0 km/h (0 Bft)
22.12.2017 06:32 1,7 °C 1,7 °C 93 % 1035,1 hPa 0,0 mm 0,0 km/h (0 Bft) SW 220 ° 0 min 0,000 mm 0,0 UV-I 0 W/m² 0,7 °C 1,7 °C 0,0 km/h (0 Bft)
22.12.2017 06:33 1,7 °C 1,7 °C 93 % 1035,0 hPa 0,0 mm 0,9 km/h (0 Bft) SW 220 ° 0 min 0,000 mm 0,0 UV-I 0 W/m² 0,7 °C 1,7 °C 1,6 km/h (1 Bft)
22.12.2017 06:34 1,7 °C 1,7 °C 93 % 1035,0 hPa 0,0 mm 0,0 km/h (0 Bft) SW 220 ° 0 min 0,000 mm 0,0 UV-I 0 W/m² 0,7 °C 1,7 °C 0,0 km/h (0 Bft)
22.12.2017 06:35 1,7 °C 1,7 °C 93 % 1035,0 hPa 0,0 mm 0,0 km/h (0 Bft) SW 220 ° 0 min 0,000 mm 0,0 UV-I 0 W/m² 0,7 °C 1,7 °C 0,0 km/h (0 Bft)
22.12.2017 06:36 1,7 °C 1,7 °C 93 % 1035,1 hPa 0,0 mm 0,0 km/h (0 Bft) SW 220 ° 0 min 0,000 mm 0,0 UV-I 0 W/m² 0,7 °C 1,7 °C 0,0 km/h (0 Bft)
22.12.2017 06:37 1,7 °C 1,7 °C 94 % 1035,1 hPa 0,0 mm 0,0 km/h (0 Bft) SW 220 ° 0 min 0,000 mm 0,0 UV-I 0 W/m² 0,8 °C 1,7 °C 0,0 km/h (0 Bft)
22.12.2017 06:38 1,7 °C 1,7 °C 93 % 1035,0 hPa 0,0 mm 0,0 km/h (0 Bft) SW 220 ° 0 min 0,000 mm 0,0 UV-I 0 W/m² 0,7 °C 1,7 °C 0,0 km/h (0 Bft)
22.12.2017 06:39 1,6 °C 1,7 °C 93 % 1035,0 hPa 0,0 mm 0,0 km/h (0 Bft) SW 220 ° 0 min 0,000 mm 0,0 UV-I 0 W/m² 0,6 °C 1,6 °C 0,0 km/h (0 Bft)
22.12.2017 06:40 1,6 °C 1,7 °C 93 % 1035,0 hPa 0,0 mm 0,0 km/h (0 Bft) SW 220 ° 0 min 0,000 mm 0,0 UV-I 0 W/m² 0,6 °C 1,6 °C 0,0 km/h (0 Bft)
22.12.2017 06:41 1,6 °C 1,7 °C 93 % 1034,9 hPa 0,0 mm 0,0 km/h (0 Bft) SW 220 ° 0 min 0,000 mm 0,0 UV-I 0 W/m² 0,6 °C 1,6 °C 0,0 km/h (0 Bft)
22.12.2017 06:42 1,7 °C 1,7 °C 93 % 1034,9 hPa 0,0 mm 0,0 km/h (0 Bft) SW 220 ° 0 min 0,000 mm 0,0 UV-I 0 W/m² 0,7 °C 1,7 °C 0,0 km/h (0 Bft)
22.12.2017 06:43 1,6 °C 1,7 °C 93 % 1034,9 hPa 0,0 mm 0,0 km/h (0 Bft) SW 220 ° 0 min 0,000 mm 0,0 UV-I 0 W/m² 0,6 °C 1,6 °C 0,0 km/h (0 Bft)
22.12.2017 06:44 1,6 °C 1,6 °C 93 % 1035,0 hPa 0,0 mm 0,0 km/h (0 Bft) SW 220 ° 0 min 0,000 mm 0,0 UV-I 0 W/m² 0,6 °C 1,6 °C 0,0 km/h (0 Bft)
22.12.2017 06:45 1,6 °C 1,6 °C 94 % 1035,0 hPa 0,0 mm 0,0 km/h (0 Bft) SW 220 ° 0 min 0,000 mm 0,0 UV-I 0 W/m² 0,7 °C 1,6 °C 0,0 km/h (0 Bft)
22.12.2017 06:46 1,6 °C 1,6 °C 94 % 1035,0 hPa 0,0 mm 0,1 km/h (0 Bft) SW 220 ° 0 min 0,000 mm 0,0 UV-I 0 W/m² 0,7 °C 1,6 °C 1,6 km/h (1 Bft)
22.12.2017 06:47 1,6 °C 1,6 °C 94 % 1035,0 hPa 0,0 mm 1,2 km/h (1 Bft) SW 220 ° 0 min 0,000 mm 0,0 UV-I 0 W/m² 0,7 °C 1,6 °C 3,2 km/h (1 Bft)
22.12.2017 06:48 1,6 °C 1,6 °C 94 % 1035,0 hPa 0,0 mm 0,7 km/h (0 Bft) SW 219 ° 0 min 0,000 mm 0,0 UV-I 0 W/m² 0,7 °C 1,6 °C 1,6 km/h (1 Bft)
22.12.2017 06:49 1,6 °C 1,6 °C 94 % 1035,0 hPa 0,0 mm 2,1 km/h (1 Bft) SW 220 ° 0 min 0,000 mm 0,0 UV-I 0 W/m² 0,7 °C 1,6 °C 3,2 km/h (1 Bft)
22.12.2017 06:50 1,6 °C 1,6 °C 94 % 1035,0 hPa 0,0 mm 1,5 km/h (1 Bft) SW 220 ° 0 min 0,000 mm 0,0 UV-I 0 W/m² 0,7 °C 1,6 °C 3,2 km/h (1 Bft)
22.12.2017 06:51 1,6 °C 1,6 °C 94 % 1035,0 hPa 0,0 mm 0,3 km/h (0 Bft) SW 220 ° 0 min 0,000 mm 0,0 UV-I 0 W/m² 0,7 °C 1,6 °C 1,6 km/h (1 Bft)
22.12.2017 06:52 1,6 °C 1,6 °C 94 % 1035,0 hPa 0,0 mm 0,0 km/h (0 Bft) SW 220 ° 0 min 0,000 mm 0,0 UV-I 0 W/m² 0,7 °C 1,6 °C 0,0 km/h (0 Bft)
22.12.2017 06:53 1,6 °C 1,6 °C 94 % 1035,0 hPa 0,0 mm 0,1 km/h (0 Bft) SW 220 ° 0 min 0,000 mm 0,0 UV-I 0 W/m² 0,7 °C 1,6 °C 1,6 km/h (1 Bft)
22.12.2017 06:54 1,6 °C 1,6 °C 94 % 1035,0 hPa 0,0 mm 0,2 km/h (0 Bft) SW 220 ° 0 min 0,000 mm 0,0 UV-I 0 W/m² 0,7 °C 1,6 °C 1,6 km/h (1 Bft)
22.12.2017 06:55 1,6 °C 1,6 °C 94 % 1035,0 hPa 0,0 mm 0,0 km/h (0 Bft) SW 220 ° 0 min 0,000 mm 0,0 UV-I 0 W/m² 0,7 °C 1,6 °C 0,0 km/h (0 Bft)
22.12.2017 06:56 1,6 °C 1,6 °C 94 % 1035,0 hPa 0,0 mm 0,0 km/h (0 Bft) SW 220 ° 0 min 0,000 mm 0,0 UV-I 0 W/m² 0,7 °C 1,6 °C 0,0 km/h (0 Bft)
22.12.2017 06:57 1,5 °C 1,6 °C 93 % 1035,1 hPa 0,0 mm 0,0 km/h (0 Bft) SW 220 ° 0 min 0,000 mm 0,0 UV-I 0 W/m² 0,5 °C 1,5 °C 0,0 km/h (0 Bft)
22.12.2017 06:58 1,5 °C 1,5 °C 93 % 1034,9 hPa 0,0 mm 0,0 km/h (0 Bft) SW 220 ° 0 min 0,000 mm 0,0 UV-I 0 W/m² 0,5 °C 1,5 °C 0,0 km/h (0 Bft)
22.12.2017 06:59 1,6 °C 1,6 °C 93 % 1034,9 hPa 0,0 mm 1,9 km/h (1 Bft) SW 219 ° 0 min 0,000 mm 0,0 UV-I 0 W/m² 0,6 °C 1,6 °C 3,2 km/h (1 Bft)
22.12.2017 07:00 1,5 °C 1,6 °C 93 % 1034,9 hPa 0,0 mm 2,3 km/h (1 Bft) SW 219 ° 0 min 0,000 mm 0,0 UV-I 0 W/m² 0,5 °C 1,5 °C 3,2 km/h (1 Bft)
22.12.2017 07:01 1,6 °C 1,6 °C 93 % 1034,9 hPa 0,0 mm 0,4 km/h (0 Bft) SW 219 ° 0 min 0,000 mm 0,0 UV-I 0 W/m² 0,6 °C 1,6 °C 1,6 km/h (1 Bft)
22.12.2017 07:02 1,5 °C 1,6 °C 93 % 1034,9 hPa 0,0 mm 0,0 km/h (0 Bft) SW 219 ° 0 min 0,000 mm 0,0 UV-I 0 W/m² 0,5 °C 1,5 °C 0,0 km/h (0 Bft)
22.12.2017 07:03 1,5 °C 1,5 °C 94 % 1034,9 hPa 0,0 mm 0,1 km/h (0 Bft) SW 219 ° 0 min 0,000 mm 0,0 UV-I 0 W/m² 0,6 °C 1,5 °C 1,6 km/h (1 Bft)
22.12.2017 07:04 1,5 °C 1,6 °C 93 % 1034,9 hPa 0,0 mm 0,0 km/h (0 Bft) SW 219 ° 0 min 0,000 mm 0,0 UV-I 0 W/m² 0,5 °C 1,5 °C 0,0 km/h (0 Bft)
22.12.2017 07:05 1,5 °C 1,6 °C 94 % 1034,9 hPa 0,0 mm 0,0 km/h (0 Bft) SW 219 ° 0 min 0,000 mm 0,0 UV-I 0 W/m² 0,6 °C 1,5 °C 0,0 km/h (0 Bft)
22.12.2017 07:06 1,5 °C 1,5 °C 94 % 1034,9 hPa 0,0 mm 0,0 km/h (0 Bft) SW 219 ° 0 min 0,000 mm 0,0 UV-I 0 W/m² 0,6 °C 1,5 °C 0,0 km/h (0 Bft)
22.12.2017 07:07 1,5 °C 1,5 °C 94 % 1034,9 hPa 0,0 mm 0,0 km/h (0 Bft) SW 219 ° 0 min 0,000 mm 0,0 UV-I 0 W/m² 0,6 °C 1,5 °C 0,0 km/h (0 Bft)
22.12.2017 07:08 1,5 °C 1,5 °C 94 % 1034,9 hPa 0,2 mm 0,0 km/h (0 Bft) SW 219 ° 0 min 0,000 mm 0,0 UV-I 0 W/m² 0,6 °C 1,5 °C 0,0 km/h (0 Bft)
22.12.2017 07:09 1,5 °C 1,5 °C 94 % 1034,9 hPa 0,0 mm 0,0 km/h (0 Bft) SW 219 ° 0 min 0,000 mm 0,0 UV-I 0 W/m² 0,6 °C 1,5 °C 0,0 km/h (0 Bft)
22.12.2017 07:10 1,5 °C 1,5 °C 94 % 1034,9 hPa 0,0 mm 0,0 km/h (0 Bft) SW 219 ° 0 min 0,000 mm 0,0 UV-I 0 W/m² 0,6 °C 1,5 °C 0,0 km/h (0 Bft)
22.12.2017 07:11 1,5 °C 1,5 °C 94 % 1034,9 hPa 0,0 mm 0,0 km/h (0 Bft) SW 219 ° 0 min 0,000 mm 0,0 UV-I 0 W/m² 0,6 °C 1,5 °C 0,0 km/h (0 Bft)
22.12.2017 07:12 1,5 °C 1,5 °C 94 % 1034,9 hPa 0,0 mm 0,9 km/h (0 Bft) SW 220 ° 0 min 0,000 mm 0,0 UV-I 0 W/m² 0,6 °C 1,5 °C 3,2 km/h (1 Bft)
22.12.2017 07:13 1,5 °C 1,5 °C 94 % 1034,9 hPa 0,0 mm 1,2 km/h (1 Bft) SW 220 ° 0 min 0,000 mm 0,0 UV-I 0 W/m² 0,6 °C 1,5 °C 1,6 km/h (1 Bft)
22.12.2017 07:14 1,5 °C 1,5 °C 94 % 1034,9 hPa 0,0 mm 0,4 km/h (0 Bft) SW 220 ° 0 min 0,000 mm 0,0 UV-I 0 W/m² 0,6 °C 1,5 °C 1,6 km/h (1 Bft)
22.12.2017 07:15 1,5 °C 1,5 °C 94 % 1034,9 hPa 0,0 mm 0,3 km/h (0 Bft) SW 220 ° 0 min 0,000 mm 0,0 UV-I 0 W/m² 0,6 °C 1,5 °C 1,6 km/h (1 Bft)
22.12.2017 07:16 1,5 °C 1,5 °C 94 % 1034,9 hPa 0,0 mm 0,1 km/h (0 Bft) SW 220 ° 0 min 0,000 mm 0,0 UV-I 0 W/m² 0,6 °C 1,5 °C 1,6 km/h (1 Bft)
22.12.2017 07:17 1,5 °C 1,5 °C 94 % 1034,9 hPa 0,0 mm 0,0 km/h (0 Bft) SW 220 ° 0 min 0,000 mm 0,0 UV-I 0 W/m² 0,6 °C 1,5 °C 0,0 km/h (0 Bft)
22.12.2017 07:18 1,4 °C 1,5 °C 94 % 1034,9 hPa 0,0 mm 0,0 km/h (0 Bft) SW 220 ° 0 min 0,000 mm 0,0 UV-I 0 W/m² 0,5 °C 1,4 °C 0,0 km/h (0 Bft)
22.12.2017 07:19 1,5 °C 1,5 °C 94 % 1034,9 hPa 0,0 mm 0,0 km/h (0 Bft) SW 220 ° 0 min 0,000 mm 0,0 UV-I 0 W/m² 0,6 °C 1,5 °C 0,0 km/h (0 Bft)
22.12.2017 07:20 1,5 °C 1,5 °C 94 % 1034,9 hPa 0,0 mm 0,0 km/h (0 Bft) SW 220 ° 0 min 0,000 mm 0,0 UV-I 0 W/m² 0,6 °C 1,5 °C 0,0 km/h (0 Bft)
22.12.2017 07:21 1,4 °C 1,5 °C 94 % 1034,9 hPa 0,0 mm 0,0 km/h (0 Bft) SW 220 ° 0 min 0,000 mm 0,0 UV-I 0 W/m² 0,5 °C 1,4 °C 0,0 km/h (0 Bft)
22.12.2017 07:22 1,5 °C 1,5 °C 94 % 1034,9 hPa 0,0 mm 0,0 km/h (0 Bft) SW 220 ° 0 min 0,000 mm 0,0 UV-I 0 W/m² 0,6 °C 1,5 °C 0,0 km/h (0 Bft)
22.12.2017 07:23 1,5 °C 1,5 °C 94 % 1034,9 hPa 0,0 mm 0,0 km/h (0 Bft) SW 219 ° 0 min 0,000 mm 0,0 UV-I 0 W/m² 0,6 °C 1,5 °C 0,0 km/h (0 Bft)
22.12.2017 07:24 1,4 °C 1,5 °C 94 % 1034,8 hPa 0,0 mm 0,0 km/h (0 Bft) SW 219 ° 0 min 0,000 mm 0,0 UV-I 0 W/m² 0,5 °C 1,4 °C 0,0 km/h (0 Bft)
22.12.2017 07:25 1,5 °C 1,5 °C 94 % 1034,9 hPa 0,0 mm 0,0 km/h (0 Bft) SW 220 ° 0 min 0,000 mm 0,0 UV-I 0 W/m² 0,6 °C 1,5 °C 0,0 km/h (0 Bft)
22.12.2017 07:26 1,4 °C 1,5 °C 94 % 1034,9 hPa 0,0 mm 0,0 km/h (0 Bft) SW 220 ° 0 min 0,000 mm 0,0 UV-I 0 W/m² 0,5 °C 1,4 °C 0,0 km/h (0 Bft)
22.12.2017 07:27 1,4 °C 1,5 °C 94 % 1034,9 hPa 0,0 mm 0,0 km/h (0 Bft) SW 220 ° 0 min 0,000 mm 0,0 UV-I 0 W/m² 0,5 °C 1,4 °C 0,0 km/h (0 Bft)
22.12.2017 07:28 1,4 °C 1,4 °C 94 % 1034,9 hPa 0,0 mm 0,3 km/h (0 Bft) SW 220 ° 0 min 0,000 mm 0,0 UV-I 0 W/m² 0,5 °C 1,4 °C 1,6 km/h (1 Bft)
22.12.2017 07:29 1,4 °C 1,5 °C 94 % 1034,9 hPa 0,0 mm 0,0 km/h (0 Bft) SW 220 ° 0 min 0,000 mm 0,0 UV-I 0 W/m² 0,5 °C 1,4 °C 0,0 km/h (0 Bft)
22.12.2017 07:30 1,4 °C 1,4 °C 94 % 1034,8 hPa 0,0 mm 0,0 km/h (0 Bft) SW 220 ° 0 min 0,000 mm 0,0 UV-I 0 W/m² 0,5 °C 1,4 °C 0,0 km/h (0 Bft)
22.12.2017 07:31 1,4 °C 1,4 °C 94 % 1034,8 hPa 0,0 mm 0,0 km/h (0 Bft) SW 220 ° 0 min 0,000 mm 0,0 UV-I 0 W/m² 0,5 °C 1,4 °C 0,0 km/h (0 Bft)
22.12.2017 07:32 1,4 °C 1,4 °C 94 % 1034,9 hPa 0,0 mm 0,0 km/h (0 Bft) SW 219 ° 0 min 0,000 mm 0,0 UV-I 0 W/m² 0,5 °C 1,4 °C 0,0 km/h (0 Bft)
22.12.2017 07:33 1,4 °C 1,4 °C 94 % 1034,8 hPa 0,0 mm 0,0 km/h (0 Bft) SW 220 ° 0 min 0,000 mm 0,0 UV-I 0 W/m² 0,5 °C 1,4 °C 0,0 km/h (0 Bft)
22.12.2017 07:34 1,4 °C 1,4 °C 94 % 1034,8 hPa 0,0 mm 0,0 km/h (0 Bft) SW 220 ° 0 min 0,000 mm 0,0 UV-I 0 W/m² 0,5 °C 1,4 °C 0,0 km/h (0 Bft)
22.12.2017 07:35 1,4 °C 1,4 °C 94 % 1034,8 hPa 0,0 mm 0,0 km/h (0 Bft) SW 220 ° 0 min 0,000 mm 0,0 UV-I 0 W/m² 0,5 °C 1,4 °C 0,0 km/h (0 Bft)
22.12.2017 07:36 1,4 °C 1,4 °C 94 % 1034,8 hPa 0,0 mm 0,0 km/h (0 Bft) SW 220 ° 0 min 0,000 mm 0,0 UV-I 0 W/m² 0,5 °C 1,4 °C 0,0 km/h (0 Bft)
22.12.2017 07:37 1,4 °C 1,4 °C 94 % 1034,8 hPa 0,0 mm 0,0 km/h (0 Bft) SW 220 ° 0 min 0,000 mm 0,0 UV-I 0 W/m² 0,5 °C 1,4 °C 0,0 km/h (0 Bft)
22.12.2017 07:38 1,4 °C 1,4 °C 94 % 1034,8 hPa 0,0 mm 0,0 km/h (0 Bft) SW 219 ° 0 min 0,000 mm 0,0 UV-I 0 W/m² 0,5 °C 1,4 °C 0,0 km/h (0 Bft)
22.12.2017 07:39 1,4 °C 1,4 °C 94 % 1034,8 hPa 0,0 mm 0,0 km/h (0 Bft) SW 220 ° 0 min 0,000 mm 0,0 UV-I 0 W/m² 0,5 °C 1,4 °C 0,0 km/h (0 Bft)
22.12.2017 07:40 1,4 °C 1,4 °C 94 % 1034,8 hPa 0,0 mm 0,0 km/h (0 Bft) SW 220 ° 0 min 0,000 mm 0,0 UV-I 0 W/m² 0,5 °C 1,4 °C 0,0 km/h (0 Bft)
22.12.2017 07:41 1,4 °C 1,4 °C 94 % 1034,8 hPa 0,0 mm 0,0 km/h (0 Bft) SW 220 ° 0 min 0,000 mm 0,0 UV-I 0 W/m² 0,5 °C 1,4 °C 0,0 km/h (0 Bft)
22.12.2017 07:42 1,4 °C 1,4 °C 94 % 1034,8 hPa 0,0 mm 0,0 km/h (0 Bft) SW 220 ° 0 min 0,000 mm 0,0 UV-I 0 W/m² 0,5 °C 1,4 °C 0,0 km/h (0 Bft)
22.12.2017 07:43 1,4 °C 1,4 °C 94 % 1034,8 hPa 0,0 mm 0,0 km/h (0 Bft) SW 220 ° 0 min 0,000 mm 0,0 UV-I 0 W/m² 0,5 °C 1,4 °C 0,0 km/h (0 Bft)
22.12.2017 07:44 1,3 °C 1,4 °C 94 % 1034,8 hPa 0,0 mm 0,0 km/h (0 Bft) SW 220 ° 0 min 0,000 mm 0,0 UV-I 0 W/m² 0,4 °C 1,3 °C 0,0 km/h (0 Bft)
22.12.2017 07:45 1,3 °C 1,4 °C 94 % 1034,8 hPa 0,0 mm 0,0 km/h (0 Bft) SW 220 ° 0 min 0,000 mm 0,0 UV-I 0 W/m² 0,4 °C 1,3 °C 0,0 km/h (0 Bft)
22.12.2017 07:46 1,3 °C 1,4 °C 94 % 1034,8 hPa 0,0 mm 0,0 km/h (0 Bft) SW 220 ° 0 min 0,000 mm 0,0 UV-I 0 W/m² 0,4 °C 1,3 °C 0,0 km/h (0 Bft)
22.12.2017 07:47 1,3 °C 1,3 °C 94 % 1034,8 hPa 0,0 mm 0,0 km/h (0 Bft) SW 219 ° 0 min 0,000 mm 0,0 UV-I 0 W/m² 0,4 °C 1,3 °C 0,0 km/h (0 Bft)
22.12.2017 07:48 1,3 °C 1,4 °C 94 % 1034,8 hPa 0,0 mm 0,0 km/h (0 Bft) SW 220 ° 0 min 0,000 mm 0,0 UV-I 0 W/m² 0,4 °C 1,3 °C 0,0 km/h (0 Bft)
22.12.2017 07:49 1,3 °C 1,3 °C 94 % 1034,8 hPa 0,0 mm 0,0 km/h (0 Bft) SW 220 ° 0 min 0,000 mm 0,0 UV-I 0 W/m² 0,4 °C 1,3 °C 0,0 km/h (0 Bft)
22.12.2017 07:50 1,3 °C 1,3 °C 94 % 1034,8 hPa 0,0 mm 0,0 km/h (0 Bft) SW 220 ° 0 min 0,000 mm 0,0 UV-I 0 W/m² 0,4 °C 1,3 °C 0,0 km/h (0 Bft)
22.12.2017 07:51 1,3 °C 1,3 °C 94 % 1034,8 hPa 0,0 mm 0,0 km/h (0 Bft) SW 220 ° 0 min 0,000 mm 0,0 UV-I 0 W/m² 0,4 °C 1,3 °C 0,0 km/h (0 Bft)
22.12.2017 07:52 1,3 °C 1,3 °C 94 % 1034,8 hPa 0,0 mm 0,4 km/h (0 Bft) SW 220 ° 0 min 0,000 mm 0,0 UV-I 0 W/m² 0,4 °C 1,3 °C 1,6 km/h (1 Bft)
22.12.2017 07:53 1,3 °C 1,3 °C 94 % 1034,7 hPa 0,0 mm 1,1 km/h (1 Bft) SW 220 ° 0 min 0,000 mm 0,0 UV-I 0 W/m² 0,4 °C 1,3 °C 1,6 km/h (1 Bft)
22.12.2017 07:54 1,3 °C 1,3 °C 94 % 1034,7 hPa 0,0 mm 0,2 km/h (0 Bft) SW 220 ° 0 min 0,000 mm 0,0 UV-I 0 W/m² 0,4 °C 1,3 °C 1,6 km/h (1 Bft)
22.12.2017 07:55 1,3 °C 1,3 °C 94 % 1034,7 hPa 0,0 mm 0,0 km/h (0 Bft) SW 220 ° 0 min 0,000 mm 0,0 UV-I 0 W/m² 0,4 °C 1,3 °C 0,0 km/h (0 Bft)
22.12.2017 07:56 1,3 °C 1,3 °C 94 % 1034,7 hPa 0,0 mm 0,0 km/h (0 Bft) SW 219 ° 0 min 0,000 mm 0,0 UV-I 0 W/m² 0,4 °C 1,3 °C 0,0 km/h (0 Bft)
22.12.2017 07:57 1,3 °C 1,3 °C 94 % 1034,7 hPa 0,0 mm 0,0 km/h (0 Bft) SW 220 ° 0 min 0,000 mm 0,0 UV-I 0 W/m² 0,4 °C 1,3 °C 0,0 km/h (0 Bft)
22.12.2017 07:58 1,3 °C 1,3 °C 94 % 1034,6 hPa 0,0 mm 1,2 km/h (1 Bft) SW 219 ° 0 min 0,000 mm 0,0 UV-I 0 W/m² 0,4 °C 1,3 °C 4,8 km/h (1 Bft)
22.12.2017 07:59 1,3 °C 1,3 °C 94 % 1034,7 hPa 0,0 mm 2,7 km/h (1 Bft) SW 215 ° 0 min 0,000 mm 0,0 UV-I 0 W/m² 0,4 °C 1,3 °C 4,8 km/h (1 Bft)
22.12.2017 08:00 1,3 °C 1,3 °C 94 % 1034,6 hPa 0,0 mm 2,0 km/h (1 Bft) SW 215 ° 0 min 0,000 mm 0,0 UV-I 5 W/m² 0,4 °C 1,3 °C 3,2 km/h (1 Bft)
22.12.2017 08:01 1,3 °C 1,3 °C 94 % 1034,6 hPa 0,0 mm 2,1 km/h (1 Bft) SW 215 ° 0 min 0,000 mm 0,0 UV-I 5 W/m² 0,4 °C 1,3 °C 3,2 km/h (1 Bft)
22.12.2017 08:02 1,3 °C 1,3 °C 94 % 1034,6 hPa 0,0 mm 1,5 km/h (1 Bft) SW 215 ° 0 min 0,000 mm 0,0 UV-I 5 W/m² 0,4 °C 1,3 °C 3,2 km/h (1 Bft)
22.12.2017 08:03 1,3 °C 1,3 °C 94 % 1034,6 hPa 0,0 mm 1,3 km/h (1 Bft) SW 215 ° 0 min 0,000 mm 0,0 UV-I 5 W/m² 0,4 °C 1,3 °C 3,2 km/h (1 Bft)
22.12.2017 08:04 1,3 °C 1,3 °C 94 % 1034,6 hPa 0,0 mm 0,0 km/h (0 Bft) SW 215 ° 0 min 0,000 mm 0,0 UV-I 5 W/m² 0,4 °C 1,3 °C 0,0 km/h (0 Bft)
22.12.2017 08:05 1,3 °C 1,3 °C 94 % 1034,6 hPa 0,0 mm 0,0 km/h (0 Bft) SW 215 ° 0 min 0,000 mm 0,0 UV-I 5 W/m² 0,4 °C 1,3 °C 0,0 km/h (0 Bft)
22.12.2017 08:06 1,3 °C 1,3 °C 94 % 1034,5 hPa 0,0 mm 0,7 km/h (0 Bft) SW 215 ° 0 min 0,000 mm 0,0 UV-I 7 W/m² 0,4 °C 1,3 °C 1,6 km/h (1 Bft)
22.12.2017 08:07 1,3 °C 1,3 °C 94 % 1034,5 hPa 0,0 mm 1,4 km/h (1 Bft) SW 215 ° 0 min 0,000 mm 0,0 UV-I 7 W/m² 0,4 °C 1,3 °C 3,2 km/h (1 Bft)
22.12.2017 08:08 1,3 °C 1,3 °C 94 % 1034,6 hPa 0,0 mm 1,1 km/h (1 Bft) SW 215 ° 0 min 0,000 mm 0,0 UV-I 7 W/m² 0,4 °C 1,3 °C 1,6 km/h (1 Bft)
22.12.2017 08:09 1,3 °C 1,4 °C 94 % 1034,6 hPa 0,0 mm 0,4 km/h (0 Bft) SW 215 ° 0 min 0,000 mm 0,0 UV-I 7 W/m² 0,4 °C 1,3 °C 3,2 km/h (1 Bft)
22.12.2017 08:10 1,4 °C 1,4 °C 94 % 1034,6 hPa 0,0 mm 0,0 km/h (0 Bft) SW 215 ° 0 min 0,000 mm 0,0 UV-I 9 W/m² 0,5 °C 1,4 °C 0,0 km/h (0 Bft)
22.12.2017 08:11 1,3 °C 1,4 °C 94 % 1034,6 hPa 0,0 mm 0,0 km/h (0 Bft) SW 215 ° 0 min 0,000 mm 0,0 UV-I 9 W/m² 0,4 °C 1,3 °C 0,0 km/h (0 Bft)
22.12.2017 08:12 1,4 °C 1,4 °C 94 % 1034,6 hPa 0,0 mm 0,0 km/h (0 Bft) SW 215 ° 0 min 0,000 mm 0,0 UV-I 9 W/m² 0,5 °C 1,4 °C 0,0 km/h (0 Bft)
22.12.2017 08:13 1,4 °C 1,4 °C 94 % 1034,6 hPa 0,0 mm 0,0 km/h (0 Bft) SW 215 ° 0 min 0,000 mm 0,0 UV-I 11 W/m² 0,5 °C 1,4 °C 0,0 km/h (0 Bft)
22.12.2017 08:14 1,4 °C 1,4 °C 94 % 1034,6 hPa 0,2 mm 0,4 km/h (0 Bft) SW 215 ° 0 min 0,000 mm 0,0 UV-I 11 W/m² 0,5 °C 1,4 °C 1,6 km/h (1 Bft)
22.12.2017 08:15 1,4 °C 1,4 °C 94 % 1034,6 hPa 0,0 mm 0,0 km/h (0 Bft) SW 215 ° 0 min 0,000 mm 0,0 UV-I 11 W/m² 0,5 °C 1,4 °C 0,0 km/h (0 Bft)
22.12.2017 08:16 1,4 °C 1,4 °C 94 % 1034,6 hPa 0,0 mm 0,5 km/h (0 Bft) SW 215 ° 0 min 0,000 mm 0,0 UV-I 12 W/m² 0,5 °C 1,4 °C 1,6 km/h (1 Bft)
22.12.2017 08:17 1,4 °C 1,4 °C 94 % 1034,6 hPa 0,0 mm 2,5 km/h (1 Bft) SW 215 ° 0 min 0,000 mm 0,0 UV-I 12 W/m² 0,5 °C 1,4 °C 3,2 km/h (1 Bft)
22.12.2017 08:18 1,4 °C 1,4 °C 94 % 1034,6 hPa 0,0 mm 1,3 km/h (1 Bft) SW 215 ° 0 min 0,000 mm 0,0 UV-I 14 W/m² 0,5 °C 1,4 °C 3,2 km/h (1 Bft)
22.12.2017 08:19 1,4 °C 1,5 °C 94 % 1034,6 hPa 0,0 mm 0,0 km/h (0 Bft) SW 215 ° 0 min 0,000 mm 0,0 UV-I 14 W/m² 0,5 °C 1,4 °C 0,0 km/h (0 Bft)
22.12.2017 08:20 1,5 °C 1,5 °C 94 % 1034,6 hPa 0,0 mm 0,0 km/h (0 Bft) SW 215 ° 0 min 0,000 mm 0,0 UV-I 14 W/m² 0,6 °C 1,5 °C 0,0 km/h (0 Bft)
22.12.2017 08:21 1,5 °C 1,5 °C 94 % 1034,6 hPa 0,0 mm 1,4 km/h (1 Bft) SW 215 ° 0 min 0,000 mm 0,0 UV-I 16 W/m² 0,6 °C 1,5 °C 3,2 km/h (1 Bft)
22.12.2017 08:22 1,5 °C 1,6 °C 94 % 1034,6 hPa 0,0 mm 2,0 km/h (1 Bft) SW 215 ° 0 min 0,000 mm 0,0 UV-I 16 W/m² 0,6 °C 1,5 °C 3,2 km/h (1 Bft)
22.12.2017 08:23 1,5 °C 1,5 °C 94 % 1034,6 hPa 0,0 mm 0,0 km/h (0 Bft) SW 215 ° 0 min 0,000 mm 0,0 UV-I 18 W/m² 0,6 °C 1,5 °C 0,0 km/h (0 Bft)
22.12.2017 08:24 1,6 °C 1,6 °C 94 % 1034,6 hPa 0,0 mm 0,0 km/h (0 Bft) SW 215 ° 0 min 0,000 mm 0,0 UV-I 19 W/m² 0,7 °C 1,6 °C 0,0 km/h (0 Bft)
22.12.2017 08:25 1,6 °C 1,6 °C 94 % 1034,6 hPa 0,0 mm 0,0 km/h (0 Bft) SW 215 ° 0 min 0,000 mm 0,0 UV-I 19 W/m² 0,7 °C 1,6 °C 0,0 km/h (0 Bft)
22.12.2017 08:26 1,6 °C 1,6 °C 94 % 1034,6 hPa 0,0 mm 0,0 km/h (0 Bft) SW 215 ° 0 min 0,000 mm 0,0 UV-I 21 W/m² 0,7 °C 1,6 °C 0,0 km/h (0 Bft)
22.12.2017 08:27 1,6 °C 1,6 °C 94 % 1034,7 hPa 0,0 mm 0,0 km/h (0 Bft) SW 215 ° 0 min 0,000 mm 0,0 UV-I 21 W/m² 0,7 °C 1,6 °C 0,0 km/h (0 Bft)
22.12.2017 08:28 1,6 °C 1,6 °C 94 % 1034,6 hPa 0,0 mm 0,0 km/h (0 Bft) SW 215 ° 0 min 0,000 mm 0,0 UV-I 21 W/m² 0,7 °C 1,6 °C 0,0 km/h (0 Bft)
22.12.2017 08:29 1,6 °C 1,6 °C 94 % 1034,6 hPa 0,0 mm 0,0 km/h (0 Bft) SW 215 ° 0 min 0,000 mm 0,0 UV-I 23 W/m² 0,7 °C 1,6 °C 0,0 km/h (0 Bft)
22.12.2017 08:30 1,6 °C 1,6 °C 94 % 1034,6 hPa 0,0 mm 0,0 km/h (0 Bft) SW 215 ° 0 min 0,000 mm 0,0 UV-I 21 W/m² 0,7 °C 1,6 °C 0,0 km/h (0 Bft)
22.12.2017 08:31 1,6 °C 1,6 °C 94 % 1034,6 hPa 0,0 mm 0,0 km/h (0 Bft) SW 215 ° 0 min 0,000 mm 0,0 UV-I 21 W/m² 0,7 °C 1,6 °C 0,0 km/h (0 Bft)
22.12.2017 08:32 1,6 °C 1,6 °C 94 % 1034,7 hPa 0,0 mm 0,0 km/h (0 Bft) SW 215 ° 0 min 0,000 mm 0,0 UV-I 21 W/m² 0,7 °C 1,6 °C 0,0 km/h (0 Bft)
22.12.2017 08:33 1,6 °C 1,6 °C 94 % 1034,7 hPa 0,0 mm 0,0 km/h (0 Bft) SW 215 ° 0 min 0,000 mm 0,0 UV-I 23 W/m² 0,7 °C 1,6 °C 0,0 km/h (0 Bft)
22.12.2017 08:34 1,6 °C 1,7 °C 94 % 1034,7 hPa 0,0 mm 0,0 km/h (0 Bft) SW 215 ° 0 min 0,000 mm 0,0 UV-I 23 W/m² 0,7 °C 1,6 °C 0,0 km/h (0 Bft)
22.12.2017 08:35 1,6 °C 1,6 °C 94 % 1034,7 hPa 0,0 mm 0,0 km/h (0 Bft) SW 215 ° 0 min 0,000 mm 0,0 UV-I 25 W/m² 0,7 °C 1,6 °C 0,0 km/h (0 Bft)
22.12.2017 08:36 1,6 °C 1,7 °C 94 % 1034,7 hPa 0,0 mm 0,0 km/h (0 Bft) SW 215 ° 0 min 0,000 mm 0,0 UV-I 25 W/m² 0,7 °C 1,6 °C 0,0 km/h (0 Bft)
22.12.2017 08:37 1,7 °C 1,7 °C 94 % 1034,7 hPa 0,0 mm 0,0 km/h (0 Bft) SW 215 ° 0 min 0,000 mm 0,0 UV-I 25 W/m² 0,8 °C 1,7 °C 0,0 km/h (0 Bft)
22.12.2017 08:38 1,7 °C 1,7 °C 94 % 1034,7 hPa 0,0 mm 0,0 km/h (0 Bft) SW 215 ° 0 min 0,000 mm 0,0 UV-I 25 W/m² 0,8 °C 1,7 °C 0,0 km/h (0 Bft)
22.12.2017 08:39 1,7 °C 1,7 °C 94 % 1034,7 hPa 0,0 mm 0,0 km/h (0 Bft) SW 215 ° 0 min 0,000 mm 0,0 UV-I 25 W/m² 0,8 °C 1,7 °C 0,0 km/h (0 Bft)
22.12.2017 08:40 1,6 °C 1,7 °C 94 % 1034,7 hPa 0,0 mm 0,0 km/h (0 Bft) SW 215 ° 0 min 0,000 mm 0,0 UV-I 25 W/m² 0,7 °C 1,6 °C 0,0 km/h (0 Bft)
22.12.2017 08:41 1,7 °C 1,7 °C 94 % 1034,7 hPa 0,0 mm 0,0 km/h (0 Bft) SW 215 ° 0 min 0,000 mm 0,0 UV-I 25 W/m² 0,8 °C 1,7 °C 0,0 km/h (0 Bft)
22.12.2017 08:42 1,7 °C 1,7 °C 94 % 1034,7 hPa 0,0 mm 0,0 km/h (0 Bft) SW 215 ° 0 min 0,000 mm 0,0 UV-I 25 W/m² 0,8 °C 1,7 °C 0,0 km/h (0 Bft)
22.12.2017 08:43 1,7 °C 1,7 °C 94 % 1034,7 hPa 0,0 mm 0,0 km/h (0 Bft) SW 215 ° 0 min 0,000 mm 0,0 UV-I 25 W/m² 0,8 °C 1,7 °C 0,0 km/h (0 Bft)
22.12.2017 08:44 1,7 °C 1,7 °C 94 % 1034,8 hPa 0,0 mm 1,9 km/h (1 Bft) SW 215 ° 0 min 0,000 mm 0,0 UV-I 25 W/m² 0,8 °C 1,7 °C 3,2 km/h (1 Bft)
22.12.2017 08:45 1,7 °C 1,7 °C 94 % 1034,8 hPa 0,0 mm 1,6 km/h (1 Bft) SW 215 ° 0 min 0,000 mm 0,0 UV-I 25 W/m² 0,8 °C 1,7 °C 3,2 km/h (1 Bft)
22.12.2017 08:46 1,7 °C 1,7 °C 94 % 1034,7 hPa 0,0 mm 3,4 km/h (1 Bft) SW 215 ° 0 min 0,000 mm 0,0 UV-I 25 W/m² 0,8 °C 1,7 °C 4,8 km/h (1 Bft)
22.12.2017 08:47 1,7 °C 1,7 °C 94 % 1034,8 hPa 0,0 mm 2,8 km/h (1 Bft) S-SW 206 ° 0 min 0,000 mm 0,0 UV-I 25 W/m² 0,8 °C 1,7 °C 4,8 km/h (1 Bft)
22.12.2017 08:48 1,7 °C 1,7 °C 94 % 1034,7 hPa 0,0 mm 1,8 km/h (1 Bft) S-SW 206 ° 0 min 0,000 mm 0,0 UV-I 25 W/m² 0,8 °C 1,7 °C 3,2 km/h (1 Bft)
22.12.2017 08:49 1,7 °C 1,7 °C 94 % 1034,7 hPa 0,0 mm 0,5 km/h (0 Bft) S-SW 206 ° 0 min 0,000 mm 0,0 UV-I 25 W/m² 0,8 °C 1,7 °C 1,6 km/h (1 Bft)
22.12.2017 08:50 1,7 °C 1,7 °C 94 % 1034,7 hPa 0,0 mm 0,2 km/h (0 Bft) S-SW 206 ° 0 min 0,000 mm 0,0 UV-I 25 W/m² 0,8 °C 1,7 °C 1,6 km/h (1 Bft)
22.12.2017 08:51 1,7 °C 1,7 °C 94 % 1034,7 hPa 0,0 mm 0,0 km/h (0 Bft) S-SW 206 ° 0 min 0,000 mm 0,0 UV-I 25 W/m² 0,8 °C 1,7 °C 0,0 km/h (0 Bft)
22.12.2017 08:52 1,7 °C 1,7 °C 94 % 1034,7 hPa 0,0 mm 0,5 km/h (0 Bft) S-SW 206 ° 0 min 0,000 mm 0,0 UV-I 26 W/m² 0,8 °C 1,7 °C 1,6 km/h (1 Bft)
22.12.2017 08:53 1,7 °C 1,7 °C 94 % 1034,7 hPa 0,0 mm 0,0 km/h (0 Bft) S-SW 206 ° 0 min 0,000 mm 0,0 UV-I 26 W/m² 0,8 °C 1,7 °C 0,0 km/h (0 Bft)
22.12.2017 08:54 1,7 °C 1,7 °C 94 % 1034,7 hPa 0,0 mm 0,0 km/h (0 Bft) S-SW 206 ° 0 min 0,000 mm 0,0 UV-I 28 W/m² 0,8 °C 1,7 °C 0,0 km/h (0 Bft)
22.12.2017 08:55 1,7 °C 1,7 °C 94 % 1034,7 hPa 0,0 mm 0,0 km/h (0 Bft) S-SW 206 ° 0 min 0,000 mm 0,0 UV-I 28 W/m² 0,8 °C 1,7 °C 0,0 km/h (0 Bft)
22.12.2017 08:56 1,7 °C 1,7 °C 94 % 1034,6 hPa 0,0 mm 0,0 km/h (0 Bft) S-SW 206 ° 0 min 0,000 mm 0,0 UV-I 28 W/m² 0,8 °C 1,7 °C 0,0 km/h (0 Bft)
22.12.2017 08:57 1,7 °C 1,7 °C 94 % 1034,7 hPa 0,0 mm 0,0 km/h (0 Bft) S-SW 206 ° 0 min 0,000 mm 0,0 UV-I 30 W/m² 0,8 °C 1,7 °C 0,0 km/h (0 Bft)
22.12.2017 08:58 1,7 °C 1,7 °C 94 % 1034,6 hPa 0,0 mm 0,0 km/h (0 Bft) S-SW 206 ° 0 min 0,000 mm 0,0 UV-I 32 W/m² 0,8 °C 1,7 °C 0,0 km/h (0 Bft)
22.12.2017 08:59 1,7 °C 1,7 °C 94 % 1034,7 hPa 0,0 mm 0,1 km/h (0 Bft) S-SW 206 ° 0 min 0,000 mm 0,0 UV-I 32 W/m² 0,8 °C 1,7 °C 1,6 km/h (1 Bft)
22.12.2017 09:00 1,7 °C 1,8 °C 94 % 1034,7 hPa 0,0 mm 1,4 km/h (1 Bft) S-SW 206 ° 0 min 0,000 mm 0,0 UV-I 32 W/m² 0,8 °C 1,7 °C 3,2 km/h (1 Bft)
22.12.2017 09:01 1,7 °C 1,8 °C 94 % 1034,7 hPa 0,0 mm 1,0 km/h (0 Bft) S-SW 206 ° 0 min 0,000 mm 0,0 UV-I 32 W/m² 0,8 °C 1,7 °C 3,2 km/h (1 Bft)
22.12.2017 09:02 1,7 °C 1,8 °C 94 % 1034,7 hPa 0,0 mm 3,0 km/h (1 Bft) S-SW 206 ° 0 min 0,000 mm 0,0 UV-I 32 W/m² 0,8 °C 1,7 °C 4,8 km/h (1 Bft)
22.12.2017 09:03 1,8 °C 1,8 °C 94 % 1034,7 hPa 0,0 mm 4,2 km/h (1 Bft) S 179 ° 0 min 0,000 mm 0,0 UV-I 32 W/m² 0,9 °C 1,8 °C 6,4 km/h (2 Bft)
22.12.2017 09:04 1,8 °C 1,8 °C 94 % 1034,7 hPa 0,0 mm 2,3 km/h (1 Bft) S 179 ° 0 min 0,000 mm 0,0 UV-I 33 W/m² 0,9 °C 1,8 °C 3,2 km/h (1 Bft)
22.12.2017 09:05 1,8 °C 1,8 °C 94 % 1034,7 hPa 0,0 mm 3,2 km/h (1 Bft) S 191 ° 0 min 0,000 mm 0,0 UV-I 33 W/m² 0,9 °C 1,8 °C 4,8 km/h (1 Bft)
22.12.2017 09:06 1,8 °C 1,8 °C 94 % 1034,6 hPa 0,0 mm 5,0 km/h (1 Bft) S-SW 203 ° 0 min 0,000 mm 0,0 UV-I 33 W/m² 0,9 °C 0,5 °C 6,4 km/h (2 Bft)
22.12.2017 09:07 1,9 °C 1,9 °C 94 % 1034,6 hPa 0,0 mm 5,6 km/h (1 Bft) S-SW 204 ° 0 min 0,000 mm 0,0 UV-I 33 W/m² 1,0 °C 0,3 °C 8,0 km/h (2 Bft)
22.12.2017 09:08 1,9 °C 1,9 °C 94 % 1034,6 hPa 0,0 mm 4,0 km/h (1 Bft) S-SW 204 ° 0 min 0,000 mm 0,0 UV-I 33 W/m² 1,0 °C 1,9 °C 4,8 km/h (1 Bft)
22.12.2017 09:09 1,9 °C 1,9 °C 94 % 1034,6 hPa 0,0 mm 1,9 km/h (1 Bft) S-SW 196 ° 0 min 0,000 mm 0,0 UV-I 35 W/m² 1,0 °C 1,9 °C 3,2 km/h (1 Bft)
22.12.2017 09:10 1,9 °C 1,9 °C 94 % 1034,6 hPa 0,0 mm 1,7 km/h (1 Bft) S-SW 196 ° 0 min 0,000 mm 0,0 UV-I 37 W/m² 1,0 °C 1,9 °C 3,2 km/h (1 Bft)
22.12.2017 09:11 1,9 °C 1,9 °C 95 % 1034,6 hPa 0,0 mm 2,4 km/h (1 Bft) S-SW 196 ° 0 min 0,000 mm 0,0 UV-I 37 W/m² 1,2 °C 1,9 °C 3,2 km/h (1 Bft)
22.12.2017 09:12 1,9 °C 1,9 °C 95 % 1034,6 hPa 0,2 mm 4,5 km/h (1 Bft) S-SW 205 ° 0 min 0,000 mm 0,0 UV-I 37 W/m² 1,2 °C 1,9 °C 6,4 km/h (2 Bft)
22.12.2017 09:13 1,9 °C 1,9 °C 95 % 1034,6 hPa 0,0 mm 2,1 km/h (1 Bft) S-SW 205 ° 0 min 0,000 mm 0,0 UV-I 37 W/m² 1,2 °C 1,9 °C 4,8 km/h (1 Bft)
22.12.2017 09:14 1,9 °C 1,9 °C 95 % 1034,6 hPa 0,0 mm 2,3 km/h (1 Bft) S-SW 205 ° 0 min 0,000 mm 0,0 UV-I 37 W/m² 1,2 °C 1,9 °C 4,8 km/h (1 Bft)
22.12.2017 09:15 2,0 °C 2,0 °C 95 % 1034,6 hPa 0,0 mm 2,7 km/h (1 Bft) S-SW 205 ° 0 min 0,000 mm 0,0 UV-I 39 W/m² 1,3 °C 2,0 °C 4,8 km/h (1 Bft)
22.12.2017 09:16 2,0 °C 2,0 °C 95 % 1034,6 hPa 0,0 mm 0,8 km/h (0 Bft) S-SW 205 ° 0 min 0,000 mm 0,0 UV-I 47 W/m² 1,3 °C 2,0 °C 3,2 km/h (1 Bft)
22.12.2017 09:17 2,0 °C 2,0 °C 95 % 1034,6 hPa 0,0 mm 1,3 km/h (1 Bft) S-SW 205 ° 0 min 0,000 mm 0,0 UV-I 51 W/m² 1,3 °C 2,0 °C 3,2 km/h (1 Bft)
22.12.2017 09:18 2,1 °C 2,1 °C 95 % 1034,6 hPa 0,0 mm 2,6 km/h (1 Bft) S-SW 205 ° 0 min 0,000 mm 0,0 UV-I 54 W/m² 1,4 °C 2,1 °C 4,8 km/h (1 Bft)
22.12.2017 09:19 2,1 °C 2,1 °C 95 % 1034,7 hPa 0,0 mm 3,4 km/h (1 Bft) S-SW 205 ° 0 min 0,000 mm 0,0 UV-I 56 W/m² 1,4 °C 2,1 °C 4,8 km/h (1 Bft)
22.12.2017 09:20 2,1 °C 2,1 °C 95 % 1034,6 hPa 0,0 mm 2,5 km/h (1 Bft) S-SW 205 ° 0 min 0,000 mm 0,0 UV-I 58 W/m² 1,4 °C 2,1 °C 6,4 km/h (2 Bft)
22.12.2017 09:21 2,2 °C 2,2 °C 95 % 1034,6 hPa 0,0 mm 4,6 km/h (1 Bft) S-SW 204 ° 0 min 0,000 mm 0,0 UV-I 58 W/m² 1,5 °C 1,1 °C 6,4 km/h (2 Bft)
22.12.2017 09:22 2,2 °C 2,2 °C 95 % 1034,6 hPa 0,0 mm 3,4 km/h (1 Bft) S-SW 200 ° 0 min 0,000 mm 0,0 UV-I 58 W/m² 1,5 °C 2,2 °C 4,8 km/h (1 Bft)
22.12.2017 09:23 2,2 °C 2,2 °C 95 % 1034,6 hPa 0,0 mm 3,1 km/h (1 Bft) S-SW 196 ° 0 min 0,000 mm 0,0 UV-I 58 W/m² 1,5 °C 2,2 °C 4,8 km/h (1 Bft)
22.12.2017 09:24 2,2 °C 2,2 °C 95 % 1034,6 hPa 0,0 mm 2,9 km/h (1 Bft) S-SW 196 ° 0 min 0,000 mm 0,0 UV-I 60 W/m² 1,5 °C 2,2 °C 4,8 km/h (1 Bft)
22.12.2017 09:25 2,2 °C 2,2 °C 95 % 1034,6 hPa 0,0 mm 2,7 km/h (1 Bft) S 191 ° 0 min 0,000 mm 0,0 UV-I 60 W/m² 1,5 °C 2,2 °C 3,2 km/h (1 Bft)
22.12.2017 09:26 2,2 °C 2,2 °C 95 % 1034,6 hPa 0,0 mm 2,2 km/h (1 Bft) S 191 ° 0 min 0,000 mm 0,0 UV-I 62 W/m² 1,5 °C 2,2 °C 3,2 km/h (1 Bft)
22.12.2017 09:27 2,2 °C 2,3 °C 95 % 1034,6 hPa 0,0 mm 1,7 km/h (1 Bft) S 191 ° 0 min 0,000 mm 0,0 UV-I 62 W/m² 1,5 °C 2,2 °C 3,2 km/h (1 Bft)
22.12.2017 09:28 2,3 °C 2,3 °C 95 % 1034,6 hPa 0,0 mm 2,1 km/h (1 Bft) S 191 ° 0 min 0,000 mm 0,0 UV-I 60 W/m² 1,6 °C 2,3 °C 4,8 km/h (1 Bft)
22.12.2017 09:29 2,3 °C 2,3 °C 95 % 1034,6 hPa 0,0 mm 1,3 km/h (1 Bft) S 191 ° 0 min 0,000 mm 0,0 UV-I 56 W/m² 1,6 °C 2,3 °C 3,2 km/h (1 Bft)
22.12.2017 09:30 2,3 °C 2,3 °C 95 % 1034,5 hPa 0,0 mm 2,1 km/h (1 Bft) S 191 ° 0 min 0,000 mm 0,0 UV-I 53 W/m² 1,6 °C 2,3 °C 3,2 km/h (1 Bft)
22.12.2017 09:31 2,3 °C 2,3 °C 95 % 1034,5 hPa 0,0 mm 2,2 km/h (1 Bft) S 191 ° 0 min 0,000 mm 0,0 UV-I 51 W/m² 1,6 °C 2,3 °C 3,2 km/h (1 Bft)
22.12.2017 09:32 2,3 °C 2,3 °C 95 % 1034,5 hPa 0,0 mm 1,5 km/h (1 Bft) S 191 ° 0 min 0,000 mm 0,0 UV-I 49 W/m² 1,6 °C 2,3 °C 3,2 km/h (1 Bft)
22.12.2017 09:33 2,3 °C 2,3 °C 95 % 1034,5 hPa 0,0 mm 1,0 km/h (0 Bft) S 191 ° 0 min 0,000 mm 0,0 UV-I 49 W/m² 1,6 °C 2,3 °C 1,6 km/h (1 Bft)
22.12.2017 09:34 2,4 °C 2,4 °C 95 % 1034,5 hPa 0,0 mm 0,5 km/h (0 Bft) S 191 ° 0 min 0,000 mm 0,0 UV-I 49 W/m² 1,7 °C 2,4 °C 1,6 km/h (1 Bft)
22.12.2017 09:35 2,4 °C 2,4 °C 95 % 1034,5 hPa 0,0 mm 0,9 km/h (0 Bft) S-SW 206 ° 0 min 0,000 mm 0,0 UV-I 49 W/m² 1,7 °C 2,4 °C 3,2 km/h (1 Bft)
22.12.2017 09:36 2,4 °C 2,4 °C 95 % 1034,4 hPa 0,0 mm 1,7 km/h (1 Bft) S 174 ° 0 min 0,000 mm 0,0 UV-I 49 W/m² 1,7 °C 2,4 °C 3,2 km/h (1 Bft)
22.12.2017 09:37 2,4 °C 2,4 °C 95 % 1034,5 hPa 0,0 mm 2,5 km/h (1 Bft) S 174 ° 0 min 0,000 mm 0,0 UV-I 51 W/m² 1,7 °C 2,4 °C 4,8 km/h (1 Bft)
22.12.2017 09:38 2,4 °C 2,4 °C 95 % 1034,4 hPa 0,0 mm 0,3 km/h (0 Bft) S 174 ° 0 min 0,000 mm 0,0 UV-I 51 W/m² 1,7 °C 2,4 °C 1,6 km/h (1 Bft)
22.12.2017 09:39 2,4 °C 2,4 °C 95 % 1034,5 hPa 0,0 mm 0,0 km/h (0 Bft) S 174 ° 0 min 0,000 mm 0,0 UV-I 47 W/m² 1,7 °C 2,4 °C 0,0 km/h (0 Bft)
22.12.2017 09:40 2,4 °C 2,4 °C 95 % 1034,4 hPa 0,0 mm 0,9 km/h (0 Bft) S 175 ° 0 min 0,000 mm 0,0 UV-I 46 W/m² 1,7 °C 2,4 °C 3,2 km/h (1 Bft)
22.12.2017 09:41 2,4 °C 2,4 °C 95 % 1034,5 hPa 0,0 mm 0,0 km/h (0 Bft) S 175 ° 0 min 0,000 mm 0,0 UV-I 44 W/m² 1,7 °C 2,4 °C 0,0 km/h (0 Bft)
22.12.2017 09:42 2,4 °C 2,5 °C 95 % 1034,5 hPa 0,0 mm 0,0 km/h (0 Bft) S 175 ° 0 min 0,000 mm 0,0 UV-I 44 W/m² 1,7 °C 2,4 °C 0,0 km/h (0 Bft)
22.12.2017 09:43 2,5 °C 2,5 °C 95 % 1034,5 hPa 0,0 mm 0,0 km/h (0 Bft) S 175 ° 0 min 0,000 mm 0,0 UV-I 44 W/m² 1,8 °C 2,5 °C 0,0 km/h (0 Bft)
22.12.2017 09:44 2,5 °C 2,5 °C 95 % 1034,5 hPa 0,0 mm 0,0 km/h (0 Bft) S 175 ° 0 min 0,000 mm 0,0 UV-I 47 W/m² 1,8 °C 2,5 °C 0,0 km/h (0 Bft)
22.12.2017 09:45 2,5 °C 2,6 °C 95 % 1034,5 hPa 0,2 mm 0,0 km/h (0 Bft) S 175 ° 0 min 0,000 mm 0,0 UV-I 53 W/m² 1,8 °C 2,5 °C 0,0 km/h (0 Bft)
22.12.2017 09:46 2,6 °C 2,6 °C 95 % 1034,5 hPa 0,0 mm 0,0 km/h (0 Bft) S 175 ° 0 min 0,000 mm 0,0 UV-I 54 W/m² 1,9 °C 2,6 °C 0,0 km/h (0 Bft)
22.12.2017 09:47 2,5 °C 2,6 °C 95 % 1034,5 hPa 0,0 mm 0,0 km/h (0 Bft) S 175 ° 0 min 0,000 mm 0,0 UV-I 56 W/m² 1,8 °C 2,5 °C 0,0 km/h (0 Bft)
22.12.2017 09:48 2,6 °C 2,6 °C 95 % 1034,4 hPa 0,0 mm 0,0 km/h (0 Bft) S 175 ° 0 min 0,000 mm 0,0 UV-I 58 W/m² 1,9 °C 2,6 °C 0,0 km/h (0 Bft)
22.12.2017 09:49 2,6 °C 2,6 °C 95 % 1034,4 hPa 0,0 mm 0,0 km/h (0 Bft) S 175 ° 0 min 0,000 mm 0,0 UV-I 60 W/m² 1,9 °C 2,6 °C 0,0 km/h (0 Bft)
22.12.2017 09:50 2,6 °C 2,6 °C 95 % 1034,4 hPa 0,0 mm 0,0 km/h (0 Bft) S 175 ° 0 min 0,000 mm 0,5 UV-I 62 W/m² 1,9 °C 2,6 °C 0,0 km/h (0 Bft)
22.12.2017 09:51 2,6 °C 2,6 °C 95 % 1034,4 hPa 0,0 mm 0,1 km/h (0 Bft) S 175 ° 0 min 0,000 mm 0,5 UV-I 63 W/m² 1,9 °C 2,6 °C 1,6 km/h (1 Bft)
22.12.2017 09:52 2,6 °C 2,6 °C 95 % 1034,4 hPa 0,0 mm 0,0 km/h (0 Bft) S 175 ° 0 min 0,000 mm 0,5 UV-I 65 W/m² 1,9 °C 2,6 °C 0,0 km/h (0 Bft)
22.12.2017 09:53 2,6 °C 2,6 °C 95 % 1034,4 hPa 0,0 mm 1,6 km/h (1 Bft) S 175 ° 0 min 0,000 mm 0,5 UV-I 65 W/m² 1,9 °C 2,6 °C 3,2 km/h (1 Bft)
22.12.2017 09:54 2,6 °C 2,6 °C 95 % 1034,4 hPa 0,0 mm 0,0 km/h (0 Bft) S 175 ° 0 min 0,000 mm 0,5 UV-I 65 W/m² 1,9 °C 2,6 °C 0,0 km/h (0 Bft)
22.12.2017 09:55 2,6 °C 2,6 °C 95 % 1034,5 hPa 0,0 mm 0,1 km/h (0 Bft) S 175 ° 0 min 0,000 mm 0,5 UV-I 67 W/m² 1,9 °C 2,6 °C 1,6 km/h (1 Bft)
22.12.2017 09:56 2,6 °C 2,6 °C 95 % 1034,4 hPa 0,0 mm 0,4 km/h (0 Bft) S 175 ° 0 min 0,000 mm 0,5 UV-I 67 W/m² 1,9 °C 2,6 °C 1,6 km/h (1 Bft)
22.12.2017 09:57 2,6 °C 2,6 °C 95 % 1034,4 hPa 0,0 mm 0,0 km/h (0 Bft) S 175 ° 0 min 0,000 mm 0,5 UV-I 70 W/m² 1,9 °C 2,6 °C 0,0 km/h (0 Bft)
22.12.2017 09:58 2,6 °C 2,6 °C 95 % 1034,4 hPa 0,0 mm 0,5 km/h (0 Bft) S 175 ° 0 min 0,000 mm 0,5 UV-I 72 W/m² 1,9 °C 2,6 °C 1,6 km/h (1 Bft)
22.12.2017 09:59 2,6 °C 2,6 °C 95 % 1034,4 hPa 0,0 mm 1,4 km/h (1 Bft) S 175 ° 0 min 0,000 mm 0,5 UV-I 74 W/m² 1,9 °C 2,6 °C 1,6 km/h (1 Bft)
22.12.2017 10:00 2,6 °C 2,6 °C 95 % 1034,4 hPa 0,0 mm 1,7 km/h (1 Bft) S 175 ° 0 min 0,025 mm 0,5 UV-I 76 W/m² 1,9 °C 2,6 °C 3,2 km/h (1 Bft)
22.12.2017 10:01 2,6 °C 2,6 °C 95 % 1034,4 hPa 0,0 mm 0,1 km/h (0 Bft) S 175 ° 0 min 0,000 mm 0,5 UV-I 77 W/m² 1,9 °C 2,6 °C 1,6 km/h (1 Bft)
22.12.2017 10:02 2,6 °C 2,6 °C 95 % 1034,4 hPa 0,0 mm 0,0 km/h (0 Bft) S 175 ° 0 min 0,000 mm 0,6 UV-I 79 W/m² 1,9 °C 2,6 °C 0,0 km/h (0 Bft)
22.12.2017 10:03 2,6 °C 2,6 °C 95 % 1034,4 hPa 0,0 mm 0,0 km/h (0 Bft) S 175 ° 0 min 0,000 mm 0,6 UV-I 86 W/m² 1,9 °C 2,6 °C 0,0 km/h (0 Bft)
22.12.2017 10:04 2,7 °C 2,7 °C 95 % 1034,4 hPa 0,0 mm 0,0 km/h (0 Bft) S 175 ° 0 min 0,000 mm 0,6 UV-I 90 W/m² 2,0 °C 2,7 °C 0,0 km/h (0 Bft)
22.12.2017 10:05 2,7 °C 2,7 °C 95 % 1034,4 hPa 0,0 mm 0,1 km/h (0 Bft) S 175 ° 0 min 0,000 mm 0,6 UV-I 93 W/m² 2,0 °C 2,7 °C 1,6 km/h (1 Bft)
22.12.2017 10:06 2,7 °C 2,7 °C 95 % 1034,3 hPa 0,0 mm 0,0 km/h (0 Bft) S 175 ° 0 min 0,000 mm 0,7 UV-I 95 W/m² 2,0 °C 2,7 °C 0,0 km/h (0 Bft)
22.12.2017 10:07 2,6 °C 2,7 °C 94 % 1034,3 hPa 0,0 mm 0,0 km/h (0 Bft) S 175 ° 0 min 0,000 mm 0,7 UV-I 98 W/m² 1,7 °C 2,6 °C 0,0 km/h (0 Bft)
22.12.2017 10:08 2,6 °C 2,6 °C 94 % 1034,4 hPa 0,0 mm 0,0 km/h (0 Bft) S 175 ° 0 min 0,000 mm 0,7 UV-I 104 W/m² 1,7 °C 2,6 °C 0,0 km/h (0 Bft)
22.12.2017 10:09 2,6 °C 2,6 °C 94 % 1034,4 hPa 0,0 mm 0,0 km/h (0 Bft) S 175 ° 0 min 0,000 mm 0,7 UV-I 120 W/m² 1,7 °C 2,6 °C 0,0 km/h (0 Bft)
22.12.2017 10:10 2,6 °C 2,6 °C 94 % 1034,3 hPa 0,0 mm 0,0 km/h (0 Bft) S 175 ° 0 min 0,000 mm 0,8 UV-I 125 W/m² 1,7 °C 2,6 °C 0,0 km/h (0 Bft)
22.12.2017 10:11 2,5 °C 2,6 °C 94 % 1034,3 hPa 0,0 mm 0,0 km/h (0 Bft) S 175 ° 0 min 0,000 mm 0,8 UV-I 130 W/m² 1,6 °C 2,5 °C 0,0 km/h (0 Bft)
22.12.2017 10:12 2,5 °C 2,5 °C 94 % 1034,4 hPa 0,0 mm 0,0 km/h (0 Bft) S 175 ° 0 min 0,000 mm 0,8 UV-I 134 W/m² 1,6 °C 2,5 °C 0,0 km/h (0 Bft)
22.12.2017 10:13 2,5 °C 2,5 °C 94 % 1034,3 hPa 0,0 mm 0,0 km/h (0 Bft) S 175 ° 0 min 0,000 mm 0,8 UV-I 134 W/m² 1,6 °C 2,5 °C 0,0 km/h (0 Bft)
22.12.2017 10:14 2,5 °C 2,5 °C 94 % 1034,3 hPa 0,0 mm 0,0 km/h (0 Bft) S 175 ° 0 min 0,000 mm 0,7 UV-I 132 W/m² 1,6 °C 2,5 °C 0,0 km/h (0 Bft)
22.12.2017 10:15 2,4 °C 2,5 °C 94 % 1034,4 hPa 0,0 mm 0,0 km/h (0 Bft) S 175 ° 0 min 0,000 mm 0,7 UV-I 120 W/m² 1,5 °C 2,4 °C 0,0 km/h (0 Bft)
22.12.2017 10:16 2,4 °C 2,4 °C 94 % 1034,4 hPa 0,0 mm 0,0 km/h (0 Bft) S 175 ° 0 min 0,000 mm 0,7 UV-I 111 W/m² 1,5 °C 2,4 °C 0,0 km/h (0 Bft)
22.12.2017 10:17 2,4 °C 2,4 °C 94 % 1034,3 hPa 0,0 mm 0,0 km/h (0 Bft) S 175 ° 0 min 0,000 mm 0,7 UV-I 102 W/m² 1,5 °C 2,4 °C 0,0 km/h (0 Bft)
22.12.2017 10:18 2,4 °C 2,4 °C 94 % 1034,4 hPa 0,0 mm 0,0 km/h (0 Bft) S 175 ° 0 min 0,000 mm 0,7 UV-I 95 W/m² 1,5 °C 2,4 °C 0,0 km/h (0 Bft)
22.12.2017 10:19 2,4 °C 2,4 °C 94 % 1034,4 hPa 0,0 mm 0,0 km/h (0 Bft) S 175 ° 0 min 0,000 mm 0,6 UV-I 88 W/m² 1,5 °C 2,4 °C 0,0 km/h (0 Bft)
22.12.2017 10:20 2,4 °C 2,4 °C 94 % 1034,3 hPa 0,0 mm 0,0 km/h (0 Bft) S 175 ° 0 min 0,000 mm 0,6 UV-I 77 W/m² 1,5 °C 2,4 °C 0,0 km/h (0 Bft)
22.12.2017 10:21 2,4 °C 2,4 °C 94 % 1034,3 hPa 0,0 mm 0,0 km/h (0 Bft) S 175 ° 0 min 0,000 mm 0,6 UV-I 76 W/m² 1,5 °C 2,4 °C 0,0 km/h (0 Bft)
22.12.2017 10:22 2,4 °C 2,4 °C 94 % 1034,4 hPa 0,0 mm 0,0 km/h (0 Bft) S 175 ° 0 min 0,000 mm 0,6 UV-I 74 W/m² 1,5 °C 2,4 °C 0,0 km/h (0 Bft)
22.12.2017 10:23 2,4 °C 2,4 °C 94 % 1034,3 hPa 0,0 mm 0,0 km/h (0 Bft) S 175 ° 0 min 0,000 mm 0,6 UV-I 74 W/m² 1,5 °C 2,4 °C 0,0 km/h (0 Bft)
22.12.2017 10:24 2,4 °C 2,4 °C 94 % 1034,3 hPa 0,0 mm 0,0 km/h (0 Bft) S 175 ° 0 min 0,000 mm 0,6 UV-I 76 W/m² 1,5 °C 2,4 °C 0,0 km/h (0 Bft)
22.12.2017 10:25 2,4 °C 2,4 °C 94 % 1034,3 hPa 0,0 mm 0,0 km/h (0 Bft) S 175 ° 0 min 0,000 mm 0,6 UV-I 77 W/m² 1,5 °C 2,4 °C 0,0 km/h (0 Bft)
22.12.2017 10:26 2,4 °C 2,4 °C 94 % 1034,3 hPa 0,0 mm 0,0 km/h (0 Bft) S 175 ° 0 min 0,000 mm 0,6 UV-I 81 W/m² 1,5 °C 2,4 °C 0,0 km/h (0 Bft)
22.12.2017 10:27 2,4 °C 2,5 °C 94 % 1034,3 hPa 0,0 mm 0,0 km/h (0 Bft) S 175 ° 0 min 0,000 mm 0,7 UV-I 83 W/m² 1,5 °C 2,4 °C 0,0 km/h (0 Bft)
22.12.2017 10:28 2,4 °C 2,5 °C 94 % 1034,3 hPa 0,0 mm 0,0 km/h (0 Bft) S 175 ° 0 min 0,000 mm 0,7 UV-I 84 W/m² 1,5 °C 2,4 °C 0,0 km/h (0 Bft)
22.12.2017 10:29 2,4 °C 2,5 °C 94 % 1034,3 hPa 0,0 mm 0,0 km/h (0 Bft) S 175 ° 0 min 0,000 mm 0,7 UV-I 86 W/m² 1,5 °C 2,4 °C 0,0 km/h (0 Bft)
22.12.2017 10:30 2,4 °C 2,5 °C 94 % 1034,3 hPa 0,0 mm 0,0 km/h (0 Bft) S 175 ° 0 min 0,000 mm 0,7 UV-I 88 W/m² 1,5 °C 2,4 °C 0,0 km/h (0 Bft)
22.12.2017 10:31 2,5 °C 2,5 °C 94 % 1034,3 hPa 0,0 mm 0,0 km/h (0 Bft) S 175 ° 0 min 0,000 mm 0,7 UV-I 91 W/m² 1,6 °C 2,5 °C 0,0 km/h (0 Bft)
22.12.2017 10:32 2,5 °C 2,5 °C 95 % 1034,3 hPa 0,2 mm 0,0 km/h (0 Bft) S 175 ° 0 min 0,000 mm 0,7 UV-I 93 W/m² 1,8 °C 2,5 °C 0,0 km/h (0 Bft)
22.12.2017 10:33 2,5 °C 2,5 °C 94 % 1034,3 hPa 0,0 mm 0,0 km/h (0 Bft) S 175 ° 0 min 0,000 mm 0,7 UV-I 91 W/m² 1,6 °C 2,5 °C 0,0 km/h (0 Bft)
22.12.2017 10:34 2,6 °C 2,6 °C 94 % 1034,3 hPa 0,0 mm 0,0 km/h (0 Bft) S 175 ° 0 min 0,000 mm 0,6 UV-I 90 W/m² 1,7 °C 2,6 °C 0,0 km/h (0 Bft)
22.12.2017 10:35 2,6 °C 2,6 °C 95 % 1034,3 hPa 0,0 mm 0,0 km/h (0 Bft) S 175 ° 0 min 0,000 mm 0,6 UV-I 86 W/m² 1,9 °C 2,6 °C 0,0 km/h (0 Bft)
22.12.2017 10:36 2,6 °C 2,6 °C 95 % 1034,3 hPa 0,0 mm 0,0 km/h (0 Bft) S 175 ° 0 min 0,000 mm 0,6 UV-I 84 W/m² 1,9 °C 2,6 °C 0,0 km/h (0 Bft)
22.12.2017 10:37 2,6 °C 2,6 °C 95 % 1034,3 hPa 0,0 mm 0,0 km/h (0 Bft) S 175 ° 0 min 0,000 mm 0,6 UV-I 84 W/m² 1,9 °C 2,6 °C 0,0 km/h (0 Bft)
22.12.2017 10:38 2,7 °C 2,7 °C 95 % 1034,3 hPa 0,0 mm 0,0 km/h (0 Bft) S 175 ° 0 min 0,000 mm 0,6 UV-I 84 W/m² 2,0 °C 2,7 °C 0,0 km/h (0 Bft)
22.12.2017 10:39 2,7 °C 2,7 °C 95 % 1034,3 hPa 0,0 mm 0,0 km/h (0 Bft) S 175 ° 0 min 0,000 mm 0,6 UV-I 83 W/m² 2,0 °C 2,7 °C 0,0 km/h (0 Bft)
22.12.2017 10:40 2,7 °C 2,7 °C 95 % 1034,3 hPa 0,0 mm 0,0 km/h (0 Bft) S 175 ° 0 min 0,000 mm 0,6 UV-I 81 W/m² 2,0 °C 2,7 °C 0,0 km/h (0 Bft)
22.12.2017 10:41 2,7 °C 2,7 °C 95 % 1034,3 hPa 0,0 mm 0,0 km/h (0 Bft) S 175 ° 0 min 0,000 mm 0,6 UV-I 79 W/m² 2,0 °C 2,7 °C 0,0 km/h (0 Bft)
22.12.2017 10:42 2,7 °C 2,7 °C 95 % 1034,3 hPa 0,0 mm 0,0 km/h (0 Bft) S 175 ° 0 min 0,000 mm 0,6 UV-I 79 W/m² 2,0 °C 2,7 °C 0,0 km/h (0 Bft)
22.12.2017 10:43 2,6 °C 2,7 °C 95 % 1034,2 hPa 0,0 mm 0,0 km/h (0 Bft) S 175 ° 0 min 0,000 mm 0,6 UV-I 81 W/m² 1,9 °C 2,6 °C 0,0 km/h (0 Bft)
22.12.2017 10:44 2,6 °C 2,6 °C 95 % 1034,2 hPa 0,0 mm 0,0 km/h (0 Bft) S 175 ° 0 min 0,000 mm 0,6 UV-I 83 W/m² 1,9 °C 2,6 °C 0,0 km/h (0 Bft)
22.12.2017 10:45 2,6 °C 2,6 °C 95 % 1034,3 hPa 0,0 mm 0,0 km/h (0 Bft) S 175 ° 0 min 0,000 mm 0,6 UV-I 83 W/m² 1,9 °C 2,6 °C 0,0 km/h (0 Bft)
22.12.2017 10:46 2,6 °C 2,6 °C 95 % 1034,3 hPa 0,0 mm 0,0 km/h (0 Bft) S 175 ° 0 min 0,000 mm 0,6 UV-I 83 W/m² 1,9 °C 2,6 °C 0,0 km/h (0 Bft)
22.12.2017 10:47 2,6 °C 2,6 °C 95 % 1034,3 hPa 0,0 mm 0,0 km/h (0 Bft) S 175 ° 0 min 0,000 mm 0,6 UV-I 84 W/m² 1,9 °C 2,6 °C 0,0 km/h (0 Bft)
22.12.2017 10:48 2,7 °C 2,7 °C 95 % 1034,2 hPa 0,0 mm 0,0 km/h (0 Bft) S 175 ° 0 min 0,000 mm 0,6 UV-I 83 W/m² 2,0 °C 2,7 °C 0,0 km/h (0 Bft)
22.12.2017 10:49 2,7 °C 2,7 °C 95 % 1034,3 hPa 0,0 mm 0,0 km/h (0 Bft) S 175 ° 0 min 0,000 mm 0,6 UV-I 81 W/m² 2,0 °C 2,7 °C 0,0 km/h (0 Bft)
22.12.2017 10:50 2,7 °C 2,7 °C 95 % 1034,2 hPa 0,0 mm 0,0 km/h (0 Bft) S 175 ° 0 min 0,000 mm 0,6 UV-I 74 W/m² 2,0 °C 2,7 °C 0,0 km/h (0 Bft)
22.12.2017 10:51 2,7 °C 2,7 °C 95 % 1034,3 hPa 0,0 mm 0,0 km/h (0 Bft) S 175 ° 0 min 0,000 mm 0,6 UV-I 70 W/m² 2,0 °C 2,7 °C 0,0 km/h (0 Bft)
22.12.2017 10:52 2,7 °C 2,7 °C 95 % 1034,2 hPa 0,0 mm 0,0 km/h (0 Bft) S 175 ° 0 min 0,000 mm 0,6 UV-I 69 W/m² 2,0 °C 2,7 °C 0,0 km/h (0 Bft)
22.12.2017 10:53 2,7 °C 2,7 °C 95 % 1034,2 hPa 0,0 mm 1,4 km/h (1 Bft) S 175 ° 0 min 0,000 mm 0,6 UV-I 69 W/m² 2,0 °C 2,7 °C 3,2 km/h (1 Bft)
22.12.2017 10:54 2,7 °C 2,8 °C 95 % 1034,2 hPa 0,0 mm 0,0 km/h (0 Bft) S 175 ° 0 min 0,000 mm 0,6 UV-I 69 W/m² 2,0 °C 2,7 °C 0,0 km/h (0 Bft)
22.12.2017 10:55 2,7 °C 2,7 °C 95 % 1034,2 hPa 0,0 mm 0,0 km/h (0 Bft) S 175 ° 0 min 0,000 mm 0,6 UV-I 69 W/m² 2,0 °C 2,7 °C 0,0 km/h (0 Bft)
22.12.2017 10:56 2,7 °C 2,7 °C 95 % 1034,2 hPa 0,0 mm 0,0 km/h (0 Bft) S 175 ° 0 min 0,000 mm 0,6 UV-I 72 W/m² 2,0 °C 2,7 °C 0,0 km/h (0 Bft)
22.12.2017 10:57 2,8 °C 2,8 °C 95 % 1034,2 hPa 0,0 mm 0,0 km/h (0 Bft) S 175 ° 0 min 0,000 mm 0,6 UV-I 72 W/m² 2,1 °C 2,8 °C 0,0 km/h (0 Bft)
22.12.2017 10:58 2,8 °C 2,8 °C 95 % 1034,2 hPa 0,0 mm 0,0 km/h (0 Bft) S 175 ° 0 min 0,000 mm 0,6 UV-I 76 W/m² 2,1 °C 2,8 °C 0,0 km/h (0 Bft)
22.12.2017 10:59 2,8 °C 2,8 °C 94 % 1034,2 hPa 0,0 mm 0,0 km/h (0 Bft) S 175 ° 0 min 0,000 mm 0,6 UV-I 77 W/m² 1,9 °C 2,8 °C 0,0 km/h (0 Bft)
22.12.2017 11:00 2,7 °C 2,8 °C 94 % 1034,1 hPa 0,0 mm 0,0 km/h (0 Bft) S 175 ° 0 min 0,026 mm 0,6 UV-I 79 W/m² 1,8 °C 2,7 °C 0,0 km/h (0 Bft)
22.12.2017 11:01 2,7 °C 2,7 °C 94 % 1034,2 hPa 0,0 mm 0,0 km/h (0 Bft) S 175 ° 0 min 0,000 mm 0,6 UV-I 84 W/m² 1,8 °C 2,7 °C 0,0 km/h (0 Bft)
22.12.2017 11:02 2,7 °C 2,7 °C 94 % 1034,2 hPa 0,0 mm 0,0 km/h (0 Bft) S 175 ° 0 min 0,000 mm 0,6 UV-I 90 W/m² 1,8 °C 2,7 °C 0,0 km/h (0 Bft)
22.12.2017 11:03 2,7 °C 2,7 °C 94 % 1034,2 hPa 0,0 mm 0,0 km/h (0 Bft) S 175 ° 0 min 0,000 mm 0,6 UV-I 91 W/m² 1,8 °C 2,7 °C 0,0 km/h (0 Bft)
22.12.2017 11:04 2,7 °C 2,7 °C 94 % 1034,2 hPa 0,0 mm 0,0 km/h (0 Bft) S 175 ° 0 min 0,000 mm 0,6 UV-I 95 W/m² 1,8 °C 2,7 °C 0,0 km/h (0 Bft)
22.12.2017 11:05 2,7 °C 2,7 °C 94 % 1034,1 hPa 0,0 mm 0,0 km/h (0 Bft) S 175 ° 0 min 0,000 mm 0,6 UV-I 95 W/m² 1,8 °C 2,7 °C 0,0 km/h (0 Bft)
22.12.2017 11:06 2,8 °C 2,8 °C 95 % 1034,1 hPa 0,0 mm 0,0 km/h (0 Bft) S 175 ° 0 min 0,000 mm 0,6 UV-I 95 W/m² 2,1 °C 2,8 °C 0,0 km/h (0 Bft)
22.12.2017 11:07 2,8 °C 2,8 °C 95 % 1034,1 hPa 0,0 mm 0,0 km/h (0 Bft) S 175 ° 0 min 0,000 mm 0,6 UV-I 91 W/m² 2,1 °C 2,8 °C 0,0 km/h (0 Bft)
22.12.2017 11:08 2,9 °C 2,9 °C 95 % 1034,1 hPa 0,0 mm 0,0 km/h (0 Bft) S 175 ° 0 min 0,000 mm 0,6 UV-I 90 W/m² 2,2 °C 2,9 °C 0,0 km/h (0 Bft)
22.12.2017 11:09 2,9 °C 2,9 °C 95 % 1034,1 hPa 0,0 mm 0,0 km/h (0 Bft) S 175 ° 0 min 0,000 mm 0,6 UV-I 88 W/m² 2,2 °C 2,9 °C 0,0 km/h (0 Bft)
22.12.2017 11:10 2,9 °C 2,9 °C 95 % 1034,1 hPa 0,0 mm 0,0 km/h (0 Bft) S 175 ° 0 min 0,000 mm 0,6 UV-I 84 W/m² 2,2 °C 2,9 °C 0,0 km/h (0 Bft)
22.12.2017 11:11 2,9 °C 2,9 °C 95 % 1034,1 hPa 0,0 mm 0,0 km/h (0 Bft) S 175 ° 0 min 0,000 mm 0,6 UV-I 83 W/m² 2,2 °C 2,9 °C 0,0 km/h (0 Bft)
22.12.2017 11:12 2,9 °C 2,9 °C 94 % 1034,1 hPa 0,0 mm 0,0 km/h (0 Bft) S 175 ° 0 min 0,000 mm 0,6 UV-I 77 W/m² 2,0 °C 2,9 °C 0,0 km/h (0 Bft)
22.12.2017 11:13 2,7 °C 2,9 °C 94 % 1034,0 hPa 0,0 mm 0,0 km/h (0 Bft) S 175 ° 0 min 0,000 mm 0,6 UV-I 72 W/m² 1,8 °C 2,7 °C 0,0 km/h (0 Bft)
22.12.2017 11:14 2,7 °C 2,7 °C 94 % 1034,0 hPa 0,0 mm 0,0 km/h (0 Bft) S 175 ° 0 min 0,000 mm 0,5 UV-I 70 W/m² 1,8 °C 2,7 °C 0,0 km/h (0 Bft)
22.12.2017 11:15 2,7 °C 2,7 °C 94 % 1034,0 hPa 0,2 mm 0,0 km/h (0 Bft) S 175 ° 0 min 0,000 mm 0,5 UV-I 69 W/m² 1,8 °C 2,7 °C 0,0 km/h (0 Bft)
22.12.2017 11:16 2,7 °C 2,7 °C 94 % 1034,0 hPa 0,0 mm 0,0 km/h (0 Bft) S 175 ° 0 min 0,000 mm 0,5 UV-I 67 W/m² 1,8 °C 2,7 °C 0,0 km/h (0 Bft)
22.12.2017 11:17 2,7 °C 2,7 °C 94 % 1034,0 hPa 0,0 mm 0,0 km/h (0 Bft) S 175 ° 0 min 0,000 mm 0,5 UV-I 65 W/m² 1,8 °C 2,7 °C 0,0 km/h (0 Bft)
22.12.2017 11:18 2,7 °C 2,7 °C 94 % 1034,1 hPa 0,0 mm 0,0 km/h (0 Bft) S 175 ° 0 min 0,000 mm 0,5 UV-I 62 W/m² 1,8 °C 2,7 °C 0,0 km/h (0 Bft)
22.12.2017 11:19 2,8 °C 2,8 °C 94 % 1034,0 hPa 0,0 mm 0,0 km/h (0 Bft) S 175 ° 0 min 0,000 mm 0,5 UV-I 62 W/m² 1,9 °C 2,8 °C 0,0 km/h (0 Bft)
22.12.2017 11:20 2,8 °C 2,8 °C 94 % 1034,0 hPa 0,0 mm 0,0 km/h (0 Bft) S 175 ° 0 min 0,000 mm 0,5 UV-I 60 W/m² 1,9 °C 2,8 °C 0,0 km/h (0 Bft)
22.12.2017 11:21 2,8 °C 2,8 °C 94 % 1034,0 hPa 0,0 mm 0,0 km/h (0 Bft) S 175 ° 0 min 0,000 mm 0,5 UV-I 58 W/m² 1,9 °C 2,8 °C 0,0 km/h (0 Bft)
22.12.2017 11:22 2,8 °C 2,9 °C 95 % 1034,0 hPa 0,0 mm 0,0 km/h (0 Bft) S 175 ° 0 min 0,000 mm 0,5 UV-I 58 W/m² 2,1 °C 2,8 °C 0,0 km/h (0 Bft)
22.12.2017 11:23 2,8 °C 2,9 °C 94 % 1034,0 hPa 0,0 mm 0,0 km/h (0 Bft) S 175 ° 0 min 0,000 mm 0,5 UV-I 56 W/m² 1,9 °C 2,8 °C 0,0 km/h (0 Bft)
22.12.2017 11:24 2,9 °C 2,9 °C 94 % 1034,0 hPa 0,0 mm 0,0 km/h (0 Bft) S 175 ° 0 min 0,000 mm 0,5 UV-I 56 W/m² 2,0 °C 2,9 °C 0,0 km/h (0 Bft)
22.12.2017 11:25 2,8 °C 2,9 °C 94 % 1034,0 hPa 0,0 mm 0,0 km/h (0 Bft) S 175 ° 0 min 0,000 mm 0,5 UV-I 56 W/m² 1,9 °C 2,8 °C 0,0 km/h (0 Bft)
22.12.2017 11:26 2,8 °C 2,9 °C 94 % 1034,0 hPa 0,0 mm 0,0 km/h (0 Bft) S 175 ° 0 min 0,000 mm 0,5 UV-I 58 W/m² 1,9 °C 2,8 °C 0,0 km/h (0 Bft)
22.12.2017 11:27 2,8 °C 2,8 °C 94 % 1034,1 hPa 0,0 mm 0,0 km/h (0 Bft) S 175 ° 0 min 0,000 mm 0,5 UV-I 60 W/m² 1,9 °C 2,8 °C 0,0 km/h (0 Bft)
22.12.2017 11:28 2,8 °C 2,9 °C 94 % 1034,0 hPa 0,0 mm 0,0 km/h (0 Bft) S 175 ° 0 min 0,000 mm 0,5 UV-I 60 W/m² 1,9 °C 2,8 °C 0,0 km/h (0 Bft)
22.12.2017 11:29 2,9 °C 2,9 °C 95 % 1034,0 hPa 0,0 mm 0,0 km/h (0 Bft) S 175 ° 0 min 0,000 mm 0,5 UV-I 62 W/m² 2,2 °C 2,9 °C 0,0 km/h (0 Bft)
22.12.2017 11:30 2,9 °C 2,9 °C 95 % 1034,0 hPa 0,0 mm 0,0 km/h (0 Bft) S 175 ° 0 min 0,000 mm 0,5 UV-I 62 W/m² 2,2 °C 2,9 °C 0,0 km/h (0 Bft)
22.12.2017 11:31 2,9 °C 2,9 °C 95 % 1034,0 hPa 0,0 mm 0,0 km/h (0 Bft) S 175 ° 0 min 0,000 mm 0,6 UV-I 63 W/m² 2,2 °C 2,9 °C 0,0 km/h (0 Bft)
22.12.2017 11:32 2,9 °C 2,9 °C 94 % 1034,0 hPa 0,0 mm 0,0 km/h (0 Bft) S 175 ° 0 min 0,000 mm 0,6 UV-I 65 W/m² 2,0 °C 2,9 °C 0,0 km/h (0 Bft)
22.12.2017 11:33 2,9 °C 2,9 °C 95 % 1033,9 hPa 0,0 mm 0,0 km/h (0 Bft) S 175 ° 0 min 0,000 mm 0,6 UV-I 69 W/m² 2,2 °C 2,9 °C 0,0 km/h (0 Bft)
22.12.2017 11:34 2,9 °C 2,9 °C 95 % 1033,9 hPa 0,0 mm 0,0 km/h (0 Bft) S 175 ° 0 min 0,000 mm 0,6 UV-I 72 W/m² 2,2 °C 2,9 °C 0,0 km/h (0 Bft)
22.12.2017 11:35 2,9 °C 2,9 °C 95 % 1033,8 hPa 0,0 mm 0,0 km/h (0 Bft) S 175 ° 0 min 0,000 mm 0,7 UV-I 76 W/m² 2,2 °C 2,9 °C 0,0 km/h (0 Bft)
22.12.2017 11:36 2,9 °C 2,9 °C 95 % 1033,8 hPa 0,0 mm 0,0 km/h (0 Bft) S 175 ° 0 min 0,000 mm 0,7 UV-I 86 W/m² 2,2 °C 2,9 °C 0,0 km/h (0 Bft)
22.12.2017 11:37 2,9 °C 2,9 °C 95 % 1033,9 hPa 0,0 mm 0,0 km/h (0 Bft) S 175 ° 0 min 0,000 mm 0,7 UV-I 91 W/m² 2,2 °C 2,9 °C 0,0 km/h (0 Bft)
22.12.2017 11:38 2,9 °C 2,9 °C 95 % 1033,8 hPa 0,0 mm 0,0 km/h (0 Bft) S 175 ° 0 min 0,000 mm 0,8 UV-I 97 W/m² 2,2 °C 2,9 °C 0,0 km/h (0 Bft)
22.12.2017 11:39 2,9 °C 3,0 °C 95 % 1033,8 hPa 0,0 mm 0,0 km/h (0 Bft) S 175 ° 0 min 0,000 mm 0,8 UV-I 100 W/m² 2,2 °C 2,9 °C 0,0 km/h (0 Bft)
22.12.2017 11:40 3,0 °C 3,0 °C 94 % 1033,8 hPa 0,0 mm 0,5 km/h (0 Bft) S 175 ° 0 min 0,000 mm 0,8 UV-I 104 W/m² 2,1 °C 3,0 °C 1,6 km/h (1 Bft)
22.12.2017 11:41 3,1 °C 3,1 °C 94 % 1033,9 hPa 0,0 mm 1,9 km/h (1 Bft) S 175 ° 0 min 0,000 mm 0,8 UV-I 104 W/m² 2,2 °C 3,1 °C 3,2 km/h (1 Bft)
22.12.2017 11:42 3,1 °C 3,1 °C 95 % 1033,8 hPa 0,0 mm 3,8 km/h (1 Bft) S-SW 211 ° 0 min 0,000 mm 0,8 UV-I 100 W/m² 2,4 °C 3,1 °C 6,4 km/h (2 Bft)
22.12.2017 11:43 3,2 °C 3,2 °C 95 % 1033,8 hPa 0,2 mm 4,3 km/h (1 Bft) S-SW 198 ° 0 min 0,000 mm 0,8 UV-I 98 W/m² 2,5 °C 3,2 °C 4,8 km/h (1 Bft)
22.12.2017 11:44 3,3 °C 3,3 °C 95 % 1033,8 hPa 0,0 mm 1,9 km/h (1 Bft) S-SW 200 ° 0 min 0,000 mm 0,8 UV-I 97 W/m² 2,6 °C 3,3 °C 3,2 km/h (1 Bft)
22.12.2017 11:45 3,3 °C 3,3 °C 95 % 1033,8 hPa 0,0 mm 1,9 km/h (1 Bft) S-SW 200 ° 0 min 0,000 mm 0,7 UV-I 95 W/m² 2,6 °C 3,3 °C 3,2 km/h (1 Bft)
22.12.2017 11:46 3,3 °C 3,4 °C 94 % 1033,8 hPa 0,0 mm 3,0 km/h (1 Bft) S-SW 200 ° 0 min 0,000 mm 0,7 UV-I 93 W/m² 2,4 °C 3,3 °C 4,8 km/h (1 Bft)
22.12.2017 11:47 3,4 °C 3,4 °C 94 % 1033,8 hPa 0,0 mm 2,0 km/h (1 Bft) S-SW 211 ° 0 min 0,000 mm 0,7 UV-I 91 W/m² 2,5 °C 3,4 °C 3,2 km/h (1 Bft)
22.12.2017 11:48 3,4 °C 3,4 °C 94 % 1033,8 hPa 0,0 mm 2,0 km/h (1 Bft) S-SW 211 ° 0 min 0,000 mm 0,7 UV-I 91 W/m² 2,5 °C 3,4 °C 3,2 km/h (1 Bft)
22.12.2017 11:49 3,4 °C 3,4 °C 94 % 1033,8 hPa 0,0 mm 2,1 km/h (1 Bft) S-SW 211 ° 0 min 0,000 mm 0,7 UV-I 93 W/m² 2,5 °C 3,4 °C 3,2 km/h (1 Bft)
22.12.2017 11:50 3,5 °C 3,5 °C 94 % 1033,8 hPa 0,0 mm 1,1 km/h (1 Bft) S-SW 211 ° 0 min 0,000 mm 0,8 UV-I 97 W/m² 2,6 °C 3,5 °C 3,2 km/h (1 Bft)
22.12.2017 11:51 3,5 °C 3,5 °C 94 % 1033,8 hPa 0,0 mm 1,5 km/h (1 Bft) S-SW 211 ° 0 min 0,000 mm 0,8 UV-I 100 W/m² 2,6 °C 3,5 °C 3,2 km/h (1 Bft)
22.12.2017 11:52 3,5 °C 3,5 °C 94 % 1033,8 hPa 0,0 mm 1,0 km/h (0 Bft) S-SW 211 ° 0 min 0,000 mm 0,8 UV-I 104 W/m² 2,6 °C 3,5 °C 3,2 km/h (1 Bft)
22.12.2017 11:53 3,5 °C 3,5 °C 94 % 1033,7 hPa 0,0 mm 0,6 km/h (0 Bft) S-SW 211 ° 0 min 0,000 mm 0,8 UV-I 105 W/m² 2,6 °C 3,5 °C 1,6 km/h (1 Bft)
22.12.2017 11:54 3,5 °C 3,6 °C 94 % 1033,7 hPa 0,0 mm 1,1 km/h (1 Bft) S-SW 211 ° 0 min 0,000 mm 0,8 UV-I 107 W/m² 2,6 °C 3,5 °C 3,2 km/h (1 Bft)
22.12.2017 11:55 3,5 °C 3,6 °C 94 % 1033,7 hPa 0,0 mm 0,8 km/h (0 Bft) S-SW 211 ° 0 min 0,000 mm 0,8 UV-I 107 W/m² 2,6 °C 3,5 °C 1,6 km/h (1 Bft)
22.12.2017 11:56 3,6 °C 3,6 °C 94 % 1033,7 hPa 0,0 mm 0,3 km/h (0 Bft) S-SW 211 ° 0 min 0,000 mm 0,8 UV-I 107 W/m² 2,7 °C 3,6 °C 1,6 km/h (1 Bft)
22.12.2017 11:57 3,6 °C 3,6 °C 94 % 1033,7 hPa 0,0 mm 0,7 km/h (0 Bft) S-SW 211 ° 0 min 0,000 mm 0,8 UV-I 109 W/m² 2,7 °C 3,6 °C 1,6 km/h (1 Bft)
22.12.2017 11:58 3,6 °C 3,6 °C 94 % 1033,7 hPa 0,0 mm 0,5 km/h (0 Bft) S-SW 211 ° 0 min 0,000 mm 0,8 UV-I 111 W/m² 2,7 °C 3,6 °C 1,6 km/h (1 Bft)
22.12.2017 11:59 3,6 °C 3,6 °C 94 % 1033,7 hPa 0,2 mm 2,1 km/h (1 Bft) S-SW 211 ° 0 min 0,000 mm 0,9 UV-I 118 W/m² 2,7 °C 3,6 °C 3,2 km/h (1 Bft)
22.12.2017 12:00 3,6 °C 3,6 °C 94 % 1033,7 hPa 0,0 mm 1,7 km/h (1 Bft) S-SW 211 ° 0 min 0,025 mm 0,9 UV-I 130 W/m² 2,7 °C 3,6 °C 3,2 km/h (1 Bft)
22.12.2017 12:01 3,6 °C 3,6 °C 94 % 1033,6 hPa 0,0 mm 3,3 km/h (1 Bft) S-SW 211 ° 0 min 0,000 mm 0,9 UV-I 135 W/m² 2,7 °C 3,6 °C 4,8 km/h (1 Bft)
22.12.2017 12:02 3,6 °C 3,6 °C 94 % 1033,6 hPa 0,0 mm 3,4 km/h (1 Bft) S-SW 196 ° 0 min 0,000 mm 0,9 UV-I 137 W/m² 2,7 °C 3,6 °C 6,4 km/h (2 Bft)
22.12.2017 12:03 3,7 °C 3,7 °C 94 % 1033,5 hPa 0,0 mm 5,7 km/h (1 Bft) S-SW 196 ° 0 min 0,000 mm 0,9 UV-I 135 W/m² 2,8 °C 2,3 °C 8,0 km/h (2 Bft)
22.12.2017 12:04 3,7 °C 3,7 °C 94 % 1033,5 hPa 0,0 mm 4,2 km/h (1 Bft) S-SW 213 ° 0 min 0,000 mm 0,9 UV-I 130 W/m² 2,8 °C 3,7 °C 4,8 km/h (1 Bft)
22.12.2017 12:05 3,7 °C 3,7 °C 94 % 1033,5 hPa 0,0 mm 3,7 km/h (1 Bft) S-SW 197 ° 0 min 0,000 mm 0,9 UV-I 125 W/m² 2,8 °C 3,7 °C 4,8 km/h (1 Bft)
22.12.2017 12:06 3,7 °C 3,7 °C 93 % 1033,5 hPa 0,0 mm 3,6 km/h (1 Bft) S-SW 197 ° 0 min 0,000 mm 0,9 UV-I 116 W/m² 2,7 °C 3,7 °C 6,4 km/h (2 Bft)
22.12.2017 12:07 3,7 °C 3,7 °C 93 % 1033,5 hPa 0,0 mm 2,8 km/h (1 Bft) S-SW 197 ° 0 min 0,000 mm 0,9 UV-I 113 W/m² 2,7 °C 3,7 °C 4,8 km/h (1 Bft)
22.12.2017 12:08 3,7 °C 3,7 °C 93 % 1033,5 hPa 0,0 mm 3,4 km/h (1 Bft) S-SW 197 ° 0 min 0,000 mm 0,9 UV-I 111 W/m² 2,7 °C 3,7 °C 4,8 km/h (1 Bft)
22.12.2017 12:09 3,7 °C 3,7 °C 93 % 1033,5 hPa 0,0 mm 2,6 km/h (1 Bft) S-SW 197 ° 0 min 0,000 mm 0,8 UV-I 109 W/m² 2,7 °C 3,7 °C 3,2 km/h (1 Bft)
22.12.2017 12:10 3,7 °C 3,8 °C 93 % 1033,5 hPa 0,0 mm 2,5 km/h (1 Bft) SW 235 ° 0 min 0,000 mm 0,8 UV-I 105 W/m² 2,7 °C 3,7 °C 4,8 km/h (1 Bft)
22.12.2017 12:11 3,8 °C 3,8 °C 93 % 1033,5 hPa 0,0 mm 0,0 km/h (0 Bft) SW 235 ° 0 min 0,000 mm 0,8 UV-I 102 W/m² 2,8 °C 3,8 °C 0,0 km/h (0 Bft)
22.12.2017 12:12 3,8 °C 3,8 °C 93 % 1033,5 hPa 0,0 mm 1,4 km/h (1 Bft) SW 235 ° 0 min 0,000 mm 0,8 UV-I 98 W/m² 2,8 °C 3,8 °C 3,2 km/h (1 Bft)
22.12.2017 12:13 3,8 °C 3,8 °C 93 % 1033,4 hPa 0,0 mm 1,3 km/h (1 Bft) SW 235 ° 0 min 0,000 mm 0,8 UV-I 91 W/m² 2,8 °C 3,8 °C 3,2 km/h (1 Bft)
22.12.2017 12:14 3,8 °C 3,8 °C 93 % 1033,4 hPa 0,0 mm 0,2 km/h (0 Bft) SW 235 ° 0 min 0,000 mm 0,8 UV-I 90 W/m² 2,8 °C 3,8 °C 1,6 km/h (1 Bft)
22.12.2017 12:15 3,8 °C 3,8 °C 93 % 1033,4 hPa 0,0 mm 0,9 km/h (0 Bft) SW 235 ° 0 min 0,000 mm 0,8 UV-I 91 W/m² 2,8 °C 3,8 °C 3,2 km/h (1 Bft)
22.12.2017 12:16 3,8 °C 3,8 °C 93 % 1033,4 hPa 0,0 mm 0,4 km/h (0 Bft) SW 235 ° 0 min 0,000 mm 0,8 UV-I 93 W/m² 2,8 °C 3,8 °C 1,6 km/h (1 Bft)
22.12.2017 12:17 3,8 °C 3,8 °C 93 % 1033,4 hPa 0,0 mm 1,2 km/h (1 Bft) SW 235 ° 0 min 0,000 mm 0,8 UV-I 98 W/m² 2,8 °C 3,8 °C 3,2 km/h (1 Bft)
22.12.2017 12:18 3,7 °C 3,8 °C 93 % 1033,5 hPa 0,0 mm 1,6 km/h (1 Bft) SW 235 ° 0 min 0,000 mm 0,8 UV-I 111 W/m² 2,7 °C 3,7 °C 3,2 km/h (1 Bft)
22.12.2017 12:19 3,7 °C 3,7 °C 93 % 1033,4 hPa 0,0 mm 0,7 km/h (0 Bft) SW 235 ° 0 min 0,000 mm 0,9 UV-I 116 W/m² 2,7 °C 3,7 °C 1,6 km/h (1 Bft)
22.12.2017 12:20 3,7 °C 3,7 °C 93 % 1033,3 hPa 0,0 mm 0,7 km/h (0 Bft) SW 235 ° 0 min 0,000 mm 0,9 UV-I 118 W/m² 2,7 °C 3,7 °C 3,2 km/h (1 Bft)
22.12.2017 12:21 3,7 °C 3,7 °C 93 % 1033,4 hPa 0,0 mm 0,4 km/h (0 Bft) SW 235 ° 0 min 0,000 mm 0,9 UV-I 120 W/m² 2,7 °C 3,7 °C 1,6 km/h (1 Bft)
22.12.2017 12:22 3,7 °C 3,7 °C 93 % 1033,3 hPa 0,0 mm 0,0 km/h (0 Bft) SW 235 ° 0 min 0,000 mm 0,9 UV-I 120 W/m² 2,7 °C 3,7 °C 0,0 km/h (0 Bft)
22.12.2017 12:23 3,7 °C 3,7 °C 93 % 1033,3 hPa 0,0 mm 0,0 km/h (0 Bft) SW 235 ° 0 min 0,000 mm 0,9 UV-I 118 W/m² 2,7 °C 3,7 °C 0,0 km/h (0 Bft)
22.12.2017 12:24 3,8 °C 3,8 °C 93 % 1033,3 hPa 0,0 mm 0,0 km/h (0 Bft) SW 235 ° 0 min 0,000 mm 0,9 UV-I 116 W/m² 2,8 °C 3,8 °C 0,0 km/h (0 Bft)
22.12.2017 12:25 3,8 °C 3,8 °C 93 % 1033,3 hPa 0,0 mm 0,0 km/h (0 Bft) SW 235 ° 0 min 0,000 mm 0,9 UV-I 114 W/m² 2,8 °C 3,8 °C 0,0 km/h (0 Bft)
22.12.2017 12:26 3,7 °C 3,8 °C 93 % 1033,3 hPa 0,0 mm 0,1 km/h (0 Bft) SW 235 ° 0 min 0,000 mm 0,9 UV-I 114 W/m² 2,7 °C 3,7 °C 1,6 km/h (1 Bft)
22.12.2017 12:27 3,7 °C 3,7 °C 93 % 1033,2 hPa 0,0 mm 0,8 km/h (0 Bft) SW 235 ° 0 min 0,000 mm 0,9 UV-I 113 W/m² 2,7 °C 3,7 °C 1,6 km/h (1 Bft)
22.12.2017 12:28 3,7 °C 3,7 °C 93 % 1033,2 hPa 0,0 mm 0,2 km/h (0 Bft) SW 235 ° 0 min 0,000 mm 0,9 UV-I 113 W/m² 2,7 °C 3,7 °C 1,6 km/h (1 Bft)
22.12.2017 12:29 3,7 °C 3,7 °C 93 % 1033,2 hPa 0,0 mm 0,1 km/h (0 Bft) SW 235 ° 0 min 0,000 mm 0,9 UV-I 116 W/m² 2,7 °C 3,7 °C 1,6 km/h (1 Bft)
22.12.2017 12:30 3,7 °C 3,7 °C 94 % 1033,2 hPa 0,0 mm 1,9 km/h (1 Bft) SW 235 ° 0 min 0,000 mm 0,9 UV-I 120 W/m² 2,8 °C 3,7 °C 3,2 km/h (1 Bft)
22.12.2017 12:31 3,8 °C 3,8 °C 94 % 1033,2 hPa 0,0 mm 0,1 km/h (0 Bft) SW 235 ° 0 min 0,000 mm 0,9 UV-I 125 W/m² 2,9 °C 3,8 °C 1,6 km/h (1 Bft)
22.12.2017 12:32 3,8 °C 3,8 °C 94 % 1033,2 hPa 0,0 mm 0,6 km/h (0 Bft) SW 235 ° 0 min 0,000 mm 0,9 UV-I 128 W/m² 2,9 °C 3,8 °C 1,6 km/h (1 Bft)
22.12.2017 12:33 3,8 °C 3,8 °C 94 % 1033,2 hPa 0,0 mm 1,6 km/h (1 Bft) SW 235 ° 0 min 0,000 mm 0,9 UV-I 130 W/m² 2,9 °C 3,8 °C 3,2 km/h (1 Bft)
22.12.2017 12:34 3,9 °C 3,9 °C 94 % 1033,2 hPa 0,0 mm 2,9 km/h (1 Bft) SW 235 ° 0 min 0,000 mm 0,9 UV-I 130 W/m² 3,0 °C 3,9 °C 4,8 km/h (1 Bft)
22.12.2017 12:35 3,9 °C 3,9 °C 94 % 1033,2 hPa 0,0 mm 3,2 km/h (1 Bft) SW 233 ° 0 min 0,000 mm 0,9 UV-I 125 W/m² 3,0 °C 3,9 °C 4,8 km/h (1 Bft)
22.12.2017 12:36 4,0 °C 4,0 °C 94 % 1033,2 hPa 0,0 mm 2,2 km/h (1 Bft) SW 233 ° 0 min 0,000 mm 0,8 UV-I 121 W/m² 3,1 °C 4,0 °C 3,2 km/h (1 Bft)
22.12.2017 12:37 4,1 °C 4,1 °C 94 % 1033,2 hPa 0,0 mm 0,7 km/h (0 Bft) SW 233 ° 0 min 0,000 mm 0,8 UV-I 118 W/m² 3,2 °C 4,1 °C 3,2 km/h (1 Bft)
22.12.2017 12:38 4,1 °C 4,1 °C 93 % 1033,1 hPa 0,0 mm 1,5 km/h (1 Bft) SW 233 ° 0 min 0,000 mm 0,8 UV-I 114 W/m² 3,1 °C 4,1 °C 3,2 km/h (1 Bft)
22.12.2017 12:39 4,1 °C 4,1 °C 93 % 1033,2 hPa 0,0 mm 1,1 km/h (1 Bft) SW 233 ° 0 min 0,000 mm 0,8 UV-I 111 W/m² 3,1 °C 4,1 °C 3,2 km/h (1 Bft)
22.12.2017 12:40 4,1 °C 4,2 °C 93 % 1033,1 hPa 0,0 mm 0,0 km/h (0 Bft) SW 233 ° 0 min 0,000 mm 0,8 UV-I 109 W/m² 3,1 °C 4,1 °C 0,0 km/h (0 Bft)
22.12.2017 12:41 4,2 °C 4,2 °C 93 % 1033,1 hPa 0,0 mm 0,9 km/h (0 Bft) SW 233 ° 0 min 0,000 mm 0,8 UV-I 109 W/m² 3,2 °C 4,2 °C 1,6 km/h (1 Bft)
22.12.2017 12:42 4,2 °C 4,2 °C 93 % 1033,1 hPa 0,0 mm 0,0 km/h (0 Bft) SW 233 ° 0 min 0,000 mm 0,8 UV-I 111 W/m² 3,2 °C 4,2 °C 0,0 km/h (0 Bft)
22.12.2017 12:43 4,2 °C 4,2 °C 93 % 1033,1 hPa 0,0 mm 0,0 km/h (0 Bft) SW 233 ° 0 min 0,000 mm 0,8 UV-I 113 W/m² 3,2 °C 4,2 °C 0,0 km/h (0 Bft)
22.12.2017 12:44 4,2 °C 4,2 °C 93 % 1033,1 hPa 0,0 mm 0,0 km/h (0 Bft) SW 233 ° 0 min 0,000 mm 0,8 UV-I 113 W/m² 3,2 °C 4,2 °C 0,0 km/h (0 Bft)
22.12.2017 12:45 4,2 °C 4,2 °C 93 % 1033,0 hPa 0,0 mm 0,0 km/h (0 Bft) SW 233 ° 0 min 0,000 mm 0,8 UV-I 113 W/m² 3,2 °C 4,2 °C 0,0 km/h (0 Bft)
22.12.2017 12:46 4,1 °C 4,2 °C 93 % 1033,0 hPa 0,0 mm 0,0 km/h (0 Bft) SW 233 ° 0 min 0,000 mm 0,8 UV-I 113 W/m² 3,1 °C 4,1 °C 0,0 km/h (0 Bft)
22.12.2017 12:47 4,2 °C 4,2 °C 93 % 1033,0 hPa 0,2 mm 0,0 km/h (0 Bft) SW 233 ° 0 min 0,000 mm 0,8 UV-I 111 W/m² 3,2 °C 4,2 °C 0,0 km/h (0 Bft)
22.12.2017 12:48 4,1 °C 4,2 °C 93 % 1033,0 hPa 0,0 mm 0,0 km/h (0 Bft) SW 233 ° 0 min 0,000 mm 0,8 UV-I 109 W/m² 3,1 °C 4,1 °C 0,0 km/h (0 Bft)
22.12.2017 12:49 4,1 °C 4,1 °C 93 % 1033,0 hPa 0,0 mm 0,0 km/h (0 Bft) SW 233 ° 0 min 0,000 mm 0,8 UV-I 107 W/m² 3,1 °C 4,1 °C 0,0 km/h (0 Bft)
22.12.2017 12:50 4,0 °C 4,1 °C 93 % 1033,0 hPa 0,0 mm 0,0 km/h (0 Bft) SW 233 ° 0 min 0,000 mm 0,8 UV-I 104 W/m² 3,0 °C 4,0 °C 0,0 km/h (0 Bft)
22.12.2017 12:51 4,0 °C 4,1 °C 93 % 1032,9 hPa 0,0 mm 0,0 km/h (0 Bft) SW 233 ° 0 min 0,000 mm 0,8 UV-I 100 W/m² 3,0 °C 4,0 °C 0,0 km/h (0 Bft)
22.12.2017 12:52 4,0 °C 4,0 °C 93 % 1032,9 hPa 0,0 mm 0,0 km/h (0 Bft) SW 233 ° 0 min 0,000 mm 0,7 UV-I 97 W/m² 3,0 °C 4,0 °C 0,0 km/h (0 Bft)
22.12.2017 12:53 4,0 °C 4,1 °C 93 % 1032,9 hPa 0,0 mm 0,0 km/h (0 Bft) SW 233 ° 0 min 0,000 mm 0,7 UV-I 97 W/m² 3,0 °C 4,0 °C 0,0 km/h (0 Bft)
22.12.2017 12:54 4,1 °C 4,1 °C 93 % 1032,9 hPa 0,0 mm 0,0 km/h (0 Bft) SW 233 ° 0 min 0,000 mm 0,7 UV-I 97 W/m² 3,1 °C 4,1 °C 0,0 km/h (0 Bft)
22.12.2017 12:55 4,1 °C 4,1 °C 93 % 1032,9 hPa 0,0 mm 0,0 km/h (0 Bft) SW 233 ° 0 min 0,000 mm 0,7 UV-I 98 W/m² 3,1 °C 4,1 °C 0,0 km/h (0 Bft)
22.12.2017 12:56 4,1 °C 4,1 °C 93 % 1032,9 hPa 0,0 mm 0,0 km/h (0 Bft) SW 233 ° 0 min 0,000 mm 0,7 UV-I 98 W/m² 3,1 °C 4,1 °C 0,0 km/h (0 Bft)
22.12.2017 12:57 4,1 °C 4,1 °C 93 % 1032,9 hPa 0,0 mm 0,0 km/h (0 Bft) SW 233 ° 0 min 0,000 mm 0,7 UV-I 97 W/m² 3,1 °C 4,1 °C 0,0 km/h (0 Bft)
22.12.2017 12:58 4,2 °C 4,2 °C 93 % 1032,9 hPa 0,0 mm 0,0 km/h (0 Bft) SW 233 ° 0 min 0,000 mm 0,7 UV-I 97 W/m² 3,2 °C 4,2 °C 0,0 km/h (0 Bft)
22.12.2017 12:59 4,2 °C 4,2 °C 94 % 1032,9 hPa 0,0 mm 0,0 km/h (0 Bft) SW 233 ° 0 min 0,000 mm 0,7 UV-I 97 W/m² 3,3 °C 4,2 °C 0,0 km/h (0 Bft)
22.12.2017 13:00 4,2 °C 4,2 °C 93 % 1032,9 hPa 0,0 mm 0,0 km/h (0 Bft) SW 233 ° 0 min 0,000 mm 0,7 UV-I 97 W/m² 3,2 °C 4,2 °C 0,0 km/h (0 Bft)
22.12.2017 13:01 4,2 °C 4,2 °C 93 % 1032,9 hPa 0,0 mm 0,0 km/h (0 Bft) SW 233 ° 0 min 0,051 mm 0,7 UV-I 97 W/m² 3,2 °C 4,2 °C 0,0 km/h (0 Bft)
22.12.2017 13:02 4,2 °C 4,2 °C 93 % 1032,9 hPa 0,0 mm 0,0 km/h (0 Bft) SW 233 ° 0 min 0,000 mm 0,7 UV-I 97 W/m² 3,2 °C 4,2 °C 0,0 km/h (0 Bft)
22.12.2017 13:03 4,2 °C 4,2 °C 93 % 1032,8 hPa 0,0 mm 0,0 km/h (0 Bft) SW 233 ° 0 min 0,000 mm 0,7 UV-I 98 W/m² 3,2 °C 4,2 °C 0,0 km/h (0 Bft)
22.12.2017 13:04 4,1 °C 4,2 °C 93 % 1032,8 hPa 0,0 mm 0,0 km/h (0 Bft) SW 233 ° 0 min 0,000 mm 0,7 UV-I 100 W/m² 3,1 °C 4,1 °C 0,0 km/h (0 Bft)
22.12.2017 13:05 4,1 °C 4,1 °C 93 % 1032,9 hPa 0,0 mm 0,0 km/h (0 Bft) SW 233 ° 0 min 0,000 mm 0,8 UV-I 100 W/m² 3,1 °C 4,1 °C 0,0 km/h (0 Bft)
22.12.2017 13:06 4,0 °C 4,1 °C 93 % 1032,9 hPa 0,0 mm 0,0 km/h (0 Bft) SW 233 ° 0 min 0,000 mm 0,8 UV-I 100 W/m² 3,0 °C 4,0 °C 0,0 km/h (0 Bft)
22.12.2017 13:07 4,0 °C 4,0 °C 93 % 1032,9 hPa 0,0 mm 0,0 km/h (0 Bft) SW 233 ° 0 min 0,000 mm 0,8 UV-I 100 W/m² 3,0 °C 4,0 °C 0,0 km/h (0 Bft)
22.12.2017 13:08 3,9 °C 4,0 °C 93 % 1032,8 hPa 0,0 mm 0,0 km/h (0 Bft) SW 233 ° 0 min 0,000 mm 0,8 UV-I 100 W/m² 2,9 °C 3,9 °C 0,0 km/h (0 Bft)
22.12.2017 13:09 3,9 °C 3,9 °C 93 % 1032,8 hPa 0,0 mm 0,0 km/h (0 Bft) SW 233 ° 0 min 0,000 mm 0,8 UV-I 100 W/m² 2,9 °C 3,9 °C 0,0 km/h (0 Bft)
22.12.2017 13:10 3,9 °C 3,9 °C 93 % 1032,8 hPa 0,0 mm 0,0 km/h (0 Bft) SW 233 ° 0 min 0,000 mm 0,8 UV-I 98 W/m² 2,9 °C 3,9 °C 0,0 km/h (0 Bft)
22.12.2017 13:11 3,9 °C 4,0 °C 93 % 1032,7 hPa 0,0 mm 0,0 km/h (0 Bft) SW 233 ° 0 min 0,000 mm 0,8 UV-I 100 W/m² 2,9 °C 3,9 °C 0,0 km/h (0 Bft)
22.12.2017 13:12 4,0 °C 4,0 °C 93 % 1032,8 hPa 0,0 mm 0,0 km/h (0 Bft) SW 233 ° 0 min 0,000 mm 0,8 UV-I 102 W/m² 3,0 °C 4,0 °C 0,0 km/h (0 Bft)
22.12.2017 13:13 4,0 °C 4,0 °C 93 % 1032,8 hPa 0,0 mm 0,0 km/h (0 Bft) SW 233 ° 0 min 0,000 mm 0,8 UV-I 104 W/m² 3,0 °C 4,0 °C 0,0 km/h (0 Bft)
22.12.2017 13:14 3,9 °C 4,0 °C 93 % 1032,8 hPa 0,0 mm 0,0 km/h (0 Bft) SW 233 ° 0 min 0,000 mm 0,8 UV-I 107 W/m² 2,9 °C 3,9 °C 0,0 km/h (0 Bft)
22.12.2017 13:15 3,9 °C 3,9 °C 93 % 1032,9 hPa 0,0 mm 0,0 km/h (0 Bft) SW 233 ° 0 min 0,000 mm 0,8 UV-I 113 W/m² 2,9 °C 3,9 °C 0,0 km/h (0 Bft)
22.12.2017 13:16 4,0 °C 4,0 °C 94 % 1032,8 hPa 0,0 mm 0,0 km/h (0 Bft) SW 233 ° 0 min 0,000 mm 0,9 UV-I 123 W/m² 3,1 °C 4,0 °C 0,0 km/h (0 Bft)
22.12.2017 13:17 4,0 °C 4,0 °C 94 % 1032,8 hPa 0,0 mm 0,0 km/h (0 Bft) SW 233 ° 0 min 0,000 mm 0,9 UV-I 127 W/m² 3,1 °C 4,0 °C 0,0 km/h (0 Bft)
22.12.2017 13:18 4,0 °C 4,0 °C 93 % 1032,8 hPa 0,0 mm 0,0 km/h (0 Bft) SW 233 ° 0 min 0,000 mm 0,9 UV-I 128 W/m² 3,0 °C 4,0 °C 0,0 km/h (0 Bft)
22.12.2017 13:19 4,0 °C 4,1 °C 94 % 1032,8 hPa 0,0 mm 0,0 km/h (0 Bft) SW 233 ° 0 min 0,000 mm 0,9 UV-I 128 W/m² 3,1 °C 4,0 °C 0,0 km/h (0 Bft)
22.12.2017 13:20 4,0 °C 4,1 °C 93 % 1032,8 hPa 0,0 mm 0,0 km/h (0 Bft) SW 233 ° 0 min 0,000 mm 0,9 UV-I 127 W/m² 3,0 °C 4,0 °C 0,0 km/h (0 Bft)
22.12.2017 13:21 3,9 °C 4,0 °C 93 % 1032,7 hPa 0,0 mm 0,0 km/h (0 Bft) SW 233 ° 0 min 0,000 mm 0,9 UV-I 128 W/m² 2,9 °C 3,9 °C 0,0 km/h (0 Bft)
22.12.2017 13:22 3,9 °C 3,9 °C 94 % 1032,8 hPa 0,0 mm 0,0 km/h (0 Bft) SW 233 ° 0 min 0,000 mm 0,9 UV-I 132 W/m² 3,0 °C 3,9 °C 0,0 km/h (0 Bft)
22.12.2017 13:23 3,9 °C 4,0 °C 94 % 1032,8 hPa 0,0 mm 0,0 km/h (0 Bft) SW 233 ° 0 min 0,000 mm 0,8 UV-I 130 W/m² 3,0 °C 3,9 °C 0,0 km/h (0 Bft)
22.12.2017 13:24 3,9 °C 4,0 °C 94 % 1032,8 hPa 0,0 mm 0,0 km/h (0 Bft) SW 233 ° 0 min 0,000 mm 0,8 UV-I 128 W/m² 3,0 °C 3,9 °C 0,0 km/h (0 Bft)
22.12.2017 13:25 3,9 °C 4,0 °C 94 % 1032,8 hPa 0,0 mm 0,0 km/h (0 Bft) SW 233 ° 0 min 0,000 mm 0,8 UV-I 127 W/m² 3,0 °C 3,9 °C 0,0 km/h (0 Bft)
22.12.2017 13:26 3,9 °C 3,9 °C 94 % 1032,8 hPa 0,0 mm 0,0 km/h (0 Bft) SW 233 ° 0 min 0,000 mm 0,8 UV-I 125 W/m² 3,0 °C 3,9 °C 0,0 km/h (0 Bft)
22.12.2017 13:27 4,0 °C 4,0 °C 94 % 1032,8 hPa 0,0 mm 0,0 km/h (0 Bft) SW 233 ° 0 min 0,000 mm 0,8 UV-I 125 W/m² 3,1 °C 4,0 °C 0,0 km/h (0 Bft)
22.12.2017 13:28 3,9 °C 4,0 °C 94 % 1032,8 hPa 0,0 mm 0,0 km/h (0 Bft) SW 233 ° 0 min 0,000 mm 0,8 UV-I 120 W/m² 3,0 °C 3,9 °C 0,0 km/h (0 Bft)
22.12.2017 13:29 3,8 °C 3,9 °C 94 % 1032,7 hPa 0,0 mm 0,0 km/h (0 Bft) SW 233 ° 0 min 0,000 mm 0,8 UV-I 116 W/m² 2,9 °C 3,8 °C 0,0 km/h (0 Bft)
22.12.2017 13:30 3,8 °C 3,8 °C 94 % 1032,7 hPa 0,0 mm 0,0 km/h (0 Bft) SW 233 ° 0 min 0,000 mm 0,8 UV-I 114 W/m² 2,9 °C 3,8 °C 0,0 km/h (0 Bft)
22.12.2017 13:31 3,9 °C 3,9 °C 94 % 1032,8 hPa 0,0 mm 1,0 km/h (0 Bft) SW 233 ° 0 min 0,000 mm 0,8 UV-I 113 W/m² 3,0 °C 3,9 °C 3,2 km/h (1 Bft)
22.12.2017 13:32 3,9 °C 3,9 °C 94 % 1032,8 hPa 0,0 mm 0,4 km/h (0 Bft) W-SW 240 ° 0 min 0,000 mm 0,8 UV-I 111 W/m² 3,0 °C 3,9 °C 1,6 km/h (1 Bft)
22.12.2017 13:33 3,9 °C 3,9 °C 94 % 1032,8 hPa 0,0 mm 0,1 km/h (0 Bft) W-SW 240 ° 0 min 0,000 mm 0,8 UV-I 111 W/m² 3,0 °C 3,9 °C 1,6 km/h (1 Bft)
22.12.2017 13:34 3,9 °C 3,9 °C 94 % 1032,8 hPa 0,0 mm 0,0 km/h (0 Bft) W-SW 240 ° 0 min 0,000 mm 0,8 UV-I 111 W/m² 3,0 °C 3,9 °C 0,0 km/h (0 Bft)
22.12.2017 13:35 3,9 °C 3,9 °C 94 % 1032,8 hPa 0,0 mm 0,0 km/h (0 Bft) W-SW 240 ° 0 min 0,000 mm 0,7 UV-I 111 W/m² 3,0 °C 3,9 °C 0,0 km/h (0 Bft)
22.12.2017 13:36 4,0 °C 4,0 °C 94 % 1032,7 hPa 0,0 mm 0,0 km/h (0 Bft) W-SW 240 ° 0 min 0,000 mm 0,7 UV-I 109 W/m² 3,1 °C 4,0 °C 0,0 km/h (0 Bft)
22.12.2017 13:37 4,0 °C 4,1 °C 94 % 1032,8 hPa 0,0 mm 0,0 km/h (0 Bft) W-SW 240 ° 0 min 0,000 mm 0,7 UV-I 109 W/m² 3,1 °C 4,0 °C 0,0 km/h (0 Bft)
22.12.2017 13:38 4,0 °C 4,1 °C 94 % 1032,7 hPa 0,0 mm 0,0 km/h (0 Bft) W-SW 240 ° 0 min 0,000 mm 0,7 UV-I 107 W/m² 3,1 °C 4,0 °C 0,0 km/h (0 Bft)
22.12.2017 13:39 4,1 °C 4,1 °C 94 % 1032,7 hPa 0,0 mm 0,0 km/h (0 Bft) W-SW 240 ° 0 min 0,000 mm 0,7 UV-I 104 W/m² 3,2 °C 4,1 °C 0,0 km/h (0 Bft)
22.12.2017 13:40 4,1 °C 4,1 °C 94 % 1032,7 hPa 0,0 mm 0,0 km/h (0 Bft) W-SW 240 ° 0 min 0,000 mm 0,7 UV-I 100 W/m² 3,2 °C 4,1 °C 0,0 km/h (0 Bft)
22.12.2017 13:41 4,1 °C 4,1 °C 94 % 1032,7 hPa 0,0 mm 1,1 km/h (1 Bft) W-SW 240 ° 0 min 0,000 mm 0,7 UV-I 97 W/m² 3,2 °C 4,1 °C 3,2 km/h (1 Bft)
22.12.2017 13:42 4,1 °C 4,1 °C 94 % 1032,7 hPa 0,0 mm 0,0 km/h (0 Bft) W-SW 240 ° 0 min 0,000 mm 0,7 UV-I 93 W/m² 3,2 °C 4,1 °C 0,0 km/h (0 Bft)
22.12.2017 13:43 4,0 °C 4,1 °C 94 % 1032,7 hPa 0,0 mm 0,0 km/h (0 Bft) W-SW 240 ° 0 min 0,000 mm 0,6 UV-I 91 W/m² 3,1 °C 4,0 °C 0,0 km/h (0 Bft)
22.12.2017 13:44 3,9 °C 4,0 °C 94 % 1032,7 hPa 0,0 mm 0,0 km/h (0 Bft) W-SW 240 ° 0 min 0,000 mm 0,6 UV-I 90 W/m² 3,0 °C 3,9 °C 0,0 km/h (0 Bft)
22.12.2017 13:45 3,9 °C 3,9 °C 94 % 1032,7 hPa 0,0 mm 0,0 km/h (0 Bft) W-SW 240 ° 0 min 0,000 mm 0,6 UV-I 88 W/m² 3,0 °C 3,9 °C 0,0 km/h (0 Bft)
22.12.2017 13:46 3,9 °C 4,0 °C 94 % 1032,7 hPa 0,0 mm 0,0 km/h (0 Bft) W-SW 240 ° 0 min 0,000 mm 0,6 UV-I 84 W/m² 3,0 °C 3,9 °C 0,0 km/h (0 Bft)
22.12.2017 13:47 4,1 °C 4,1 °C 94 % 1032,7 hPa 0,0 mm 0,0 km/h (0 Bft) W-SW 240 ° 0 min 0,000 mm 0,6 UV-I 81 W/m² 3,2 °C 4,1 °C 0,0 km/h (0 Bft)
22.12.2017 13:48 4,1 °C 4,1 °C 94 % 1032,7 hPa 0,0 mm 0,0 km/h (0 Bft) W-SW 240 ° 0 min 0,000 mm 0,6 UV-I 77 W/m² 3,2 °C 4,1 °C 0,0 km/h (0 Bft)
22.12.2017 13:49 4,1 °C 4,1 °C 94 % 1032,7 hPa 0,0 mm 0,1 km/h (0 Bft) W-SW 240 ° 0 min 0,000 mm 0,6 UV-I 76 W/m² 3,2 °C 4,1 °C 1,6 km/h (1 Bft)
22.12.2017 13:50 4,1 °C 4,1 °C 94 % 1032,7 hPa 0,0 mm 0,7 km/h (0 Bft) W-SW 240 ° 0 min 0,000 mm 0,5 UV-I 74 W/m² 3,2 °C 4,1 °C 1,6 km/h (1 Bft)
22.12.2017 13:51 4,2 °C 4,2 °C 95 % 1032,7 hPa 0,0 mm 1,0 km/h (0 Bft) SW 232 ° 0 min 0,000 mm 0,5 UV-I 67 W/m² 3,5 °C 4,2 °C 3,2 km/h (1 Bft)
22.12.2017 13:52 4,2 °C 4,2 °C 95 % 1032,7 hPa 0,0 mm 0,0 km/h (0 Bft) SW 232 ° 0 min 0,000 mm 0,5 UV-I 63 W/m² 3,5 °C 4,2 °C 0,0 km/h (0 Bft)
22.12.2017 13:53 4,2 °C 4,2 °C 94 % 1032,7 hPa 0,0 mm 0,0 km/h (0 Bft) SW 232 ° 0 min 0,000 mm 0,5 UV-I 62 W/m² 3,3 °C 4,2 °C 0,0 km/h (0 Bft)
22.12.2017 13:54 4,1 °C 4,2 °C 94 % 1032,7 hPa 0,0 mm 0,0 km/h (0 Bft) SW 232 ° 0 min 0,000 mm 0,5 UV-I 62 W/m² 3,2 °C 4,1 °C 0,0 km/h (0 Bft)
22.12.2017 13:55 4,1 °C 4,1 °C 94 % 1032,7 hPa 0,0 mm 0,0 km/h (0 Bft) SW 232 ° 0 min 0,000 mm 0,5 UV-I 63 W/m² 3,2 °C 4,1 °C 0,0 km/h (0 Bft)
22.12.2017 13:56 4,1 °C 4,1 °C 94 % 1032,7 hPa 0,0 mm 0,0 km/h (0 Bft) SW 232 ° 0 min 0,000 mm 0,5 UV-I 63 W/m² 3,2 °C 4,1 °C 0,0 km/h (0 Bft)
22.12.2017 13:57 4,2 °C 4,2 °C 94 % 1032,7 hPa 0,0 mm 0,0 km/h (0 Bft) SW 232 ° 0 min 0,000 mm 0,5 UV-I 60 W/m² 3,3 °C 4,2 °C 0,0 km/h (0 Bft)
22.12.2017 13:58 4,1 °C 4,2 °C 94 % 1032,7 hPa 0,0 mm 0,2 km/h (0 Bft) SW 232 ° 0 min 0,000 mm 0,5 UV-I 60 W/m² 3,2 °C 4,1 °C 1,6 km/h (1 Bft)
22.12.2017 13:59 4,1 °C 4,2 °C 94 % 1032,7 hPa 0,0 mm 1,3 km/h (1 Bft) W 261 ° 0 min 0,000 mm 0,5 UV-I 60 W/m² 3,2 °C 4,1 °C 3,2 km/h (1 Bft)
22.12.2017 14:00 4,1 °C 4,1 °C 94 % 1032,7 hPa 0,0 mm 2,7 km/h (1 Bft) W 261 ° 0 min 0,051 mm 0,5 UV-I 62 W/m² 3,2 °C 4,1 °C 4,8 km/h (1 Bft)
22.12.2017 14:01 4,0 °C 4,1 °C 94 % 1032,7 hPa 0,0 mm 1,2 km/h (1 Bft) W 261 ° 0 min 0,000 mm 0,5 UV-I 63 W/m² 3,1 °C 4,0 °C 3,2 km/h (1 Bft)
22.12.2017 14:02 4,0 °C 4,1 °C 94 % 1032,7 hPa 0,0 mm 4,0 km/h (1 Bft) W 264 ° 0 min 0,000 mm 0,5 UV-I 67 W/m² 3,1 °C 4,0 °C 4,8 km/h (1 Bft)
22.12.2017 14:03 4,0 °C 4,0 °C 94 % 1032,7 hPa 0,0 mm 3,7 km/h (1 Bft) W 262 ° 0 min 0,000 mm 0,5 UV-I 72 W/m² 3,1 °C 4,0 °C 6,4 km/h (2 Bft)
22.12.2017 14:04 4,0 °C 4,0 °C 94 % 1032,7 hPa 0,2 mm 5,0 km/h (1 Bft) W-SW 250 ° 0 min 0,000 mm 0,5 UV-I 74 W/m² 3,1 °C 2,9 °C 12,9 km/h (3 Bft)
22.12.2017 14:05 4,0 °C 4,0 °C 94 % 1032,8 hPa 0,0 mm 7,8 km/h (2 Bft) W-NW 290 ° 0 min 0,000 mm 0,5 UV-I 76 W/m² 3,1 °C 2,0 °C 12,9 km/h (3 Bft)
22.12.2017 14:06 4,1 °C 4,1 °C 94 % 1032,7 hPa 0,0 mm 3,4 km/h (1 Bft) W-NW 283 ° 0 min 0,000 mm 0,5 UV-I 74 W/m² 3,2 °C 4,1 °C 4,8 km/h (1 Bft)
22.12.2017 14:07 4,1 °C 4,1 °C 94 % 1032,7 hPa 0,0 mm 2,1 km/h (1 Bft) W-NW 283 ° 0 min 0,000 mm 0,5 UV-I 74 W/m² 3,2 °C 4,1 °C 3,2 km/h (1 Bft)
22.12.2017 14:08 4,1 °C 4,1 °C 94 % 1032,7 hPa 0,0 mm 5,0 km/h (1 Bft) W-SW 257 ° 0 min 0,000 mm 0,5 UV-I 72 W/m² 3,2 °C 3,1 °C 9,7 km/h (2 Bft)
22.12.2017 14:09 4,0 °C 4,1 °C 94 % 1032,7 hPa 0,0 mm 12,1 km/h (2 Bft) SW 218 ° 0 min 0,000 mm 0,5 UV-I 70 W/m² 3,1 °C 1,0 °C 17,7 km/h (3 Bft)
22.12.2017 14:10 4,1 °C 4,1 °C 94 % 1032,7 hPa 0,0 mm 5,9 km/h (2 Bft) W 259 ° 0 min 0,000 mm 0,5 UV-I 69 W/m² 3,2 °C 2,7 °C 9,7 km/h (2 Bft)
22.12.2017 14:11 4,1 °C 4,1 °C 94 % 1032,7 hPa 0,0 mm 4,5 km/h (1 Bft) W 278 ° 0 min 0,000 mm 0,0 UV-I 67 W/m² 3,2 °C 4,1 °C 6,4 km/h (2 Bft)
22.12.2017 14:12 4,1 °C 4,1 °C 94 % 1032,7 hPa 0,2 mm 4,3 km/h (1 Bft) W-SW 256 ° 0 min 0,000 mm 0,0 UV-I 65 W/m² 3,2 °C 4,1 °C 6,4 km/h (2 Bft)
22.12.2017 14:13 4,1 °C 4,1 °C 94 % 1032,7 hPa 0,0 mm 4,4 km/h (1 Bft) W 276 ° 0 min 0,000 mm 0,0 UV-I 62 W/m² 3,2 °C 4,1 °C 6,4 km/h (2 Bft)
22.12.2017 14:14 4,1 °C 4,1 °C 94 % 1032,7 hPa 0,0 mm 3,1 km/h (1 Bft) W 273 ° 0 min 0,000 mm 0,0 UV-I 60 W/m² 3,2 °C 4,1 °C 4,8 km/h (1 Bft)
22.12.2017 14:15 4,0 °C 4,1 °C 94 % 1032,7 hPa 0,0 mm 4,8 km/h (1 Bft) W-SW 244 ° 0 min 0,000 mm 0,0 UV-I 60 W/m² 3,1 °C 3,0 °C 8,0 km/h (2 Bft)
22.12.2017 14:16 4,0 °C 4,1 °C 94 % 1032,7 hPa 0,0 mm 4,5 km/h (1 Bft) W 279 ° 0 min 0,000 mm 0,0 UV-I 60 W/m² 3,1 °C 4,0 °C 6,4 km/h (2 Bft)
22.12.2017 14:17 3,9 °C 4,0 °C 94 % 1032,7 hPa 0,0 mm 6,4 km/h (2 Bft) W 268 ° 0 min 0,000 mm 0,0 UV-I 58 W/m² 3,0 °C 2,3 °C 11,3 km/h (2 Bft)
22.12.2017 14:18 3,9 °C 4,0 °C 94 % 1032,7 hPa 0,0 mm 4,9 km/h (1 Bft) W-SW 255 ° 0 min 0,000 mm 0,0 UV-I 58 W/m² 3,0 °C 2,9 °C 9,7 km/h (2 Bft)
22.12.2017 14:19 3,9 °C 4,0 °C 94 % 1032,7 hPa 0,0 mm 4,9 km/h (1 Bft) W-SW 248 ° 0 min 0,000 mm 0,0 UV-I 58 W/m² 3,0 °C 2,9 °C 6,4 km/h (2 Bft)
22.12.2017 14:20 3,9 °C 3,9 °C 94 % 1032,6 hPa 0,0 mm 2,9 km/h (1 Bft) W-NW 287 ° 0 min 0,000 mm 0,0 UV-I 60 W/m² 3,0 °C 3,9 °C 8,0 km/h (2 Bft)
22.12.2017 14:21 3,9 °C 3,9 °C 94 % 1032,6 hPa 0,0 mm 7,1 km/h (2 Bft) W 261 ° 0 min 0,000 mm 0,0 UV-I 58 W/m² 3,0 °C 2,1 °C 11,3 km/h (2 Bft)
22.12.2017 14:22 3,9 °C 3,9 °C 94 % 1032,7 hPa 0,0 mm 9,0 km/h (2 Bft) W-SW 251 ° 0 min 0,000 mm 0,0 UV-I 58 W/m² 3,0 °C 1,6 °C 11,3 km/h (2 Bft)
22.12.2017 14:23 3,8 °C 3,9 °C 94 % 1032,6 hPa 0,0 mm 4,0 km/h (1 Bft) W 264 ° 0 min 0,000 mm 0,0 UV-I 58 W/m² 2,9 °C 3,8 °C 6,4 km/h (2 Bft)
22.12.2017 14:24 3,8 °C 3,8 °C 94 % 1032,6 hPa 0,0 mm 2,8 km/h (1 Bft) W 267 ° 0 min 0,000 mm 0,0 UV-I 58 W/m² 2,9 °C 3,8 °C 6,4 km/h (2 Bft)
22.12.2017 14:25 3,9 °C 3,9 °C 94 % 1032,6 hPa 0,0 mm 8,8 km/h (2 Bft) W-SW 249 ° 0 min 0,000 mm 0,0 UV-I 60 W/m² 3,0 °C 1,6 °C 12,9 km/h (3 Bft)
22.12.2017 14:26 3,9 °C 3,9 °C 94 % 1032,6 hPa 0,0 mm 5,7 km/h (1 Bft) W 279 ° 0 min 0,000 mm 0,0 UV-I 62 W/m² 3,0 °C 2,6 °C 9,7 km/h (2 Bft)
22.12.2017 14:27 3,8 °C 3,9 °C 94 % 1032,6 hPa 0,0 mm 2,7 km/h (1 Bft) W-SW 255 ° 0 min 0,000 mm 0,0 UV-I 63 W/m² 2,9 °C 3,8 °C 4,8 km/h (1 Bft)
22.12.2017 14:28 3,9 °C 3,9 °C 94 % 1032,6 hPa 0,0 mm 2,8 km/h (1 Bft) W 274 ° 0 min 0,000 mm 0,0 UV-I 65 W/m² 3,0 °C 3,9 °C 4,8 km/h (1 Bft)
22.12.2017 14:29 3,8 °C 3,9 °C 94 % 1032,6 hPa 0,0 mm 3,2 km/h (1 Bft) W 274 ° 0 min 0,000 mm 0,0 UV-I 67 W/m² 2,9 °C 3,8 °C 4,8 km/h (1 Bft)
22.12.2017 14:30 3,8 °C 3,9 °C 94 % 1032,6 hPa 0,0 mm 6,4 km/h (2 Bft) W 265 ° 0 min 0,000 mm 0,0 UV-I 67 W/m² 2,9 °C 2,2 °C 9,7 km/h (2 Bft)
22.12.2017 14:31 3,8 °C 3,9 °C 94 % 1032,6 hPa 0,0 mm 4,9 km/h (1 Bft) W 267 ° 0 min 0,000 mm 0,0 UV-I 67 W/m² 2,9 °C 2,8 °C 6,4 km/h (2 Bft)
22.12.2017 14:32 3,8 °C 3,9 °C 94 % 1032,6 hPa 0,0 mm 5,9 km/h (2 Bft) W-SW 256 ° 0 min 0,000 mm 0,0 UV-I 62 W/m² 2,9 °C 2,4 °C 9,7 km/h (2 Bft)
22.12.2017 14:33 3,9 °C 3,9 °C 94 % 1032,7 hPa 0,0 mm 6,9 km/h (2 Bft) W-NW 291 ° 0 min 0,000 mm 0,0 UV-I 58 W/m² 3,0 °C 2,2 °C 11,3 km/h (2 Bft)
22.12.2017 14:34 3,8 °C 3,9 °C 94 % 1032,6 hPa 0,0 mm 5,3 km/h (1 Bft) W 259 ° 0 min 0,000 mm 0,0 UV-I 56 W/m² 2,9 °C 2,6 °C 9,7 km/h (2 Bft)
22.12.2017 14:35 3,8 °C 3,9 °C 94 % 1032,7 hPa 0,0 mm 5,1 km/h (1 Bft) W-SW 249 ° 0 min 0,000 mm 0,0 UV-I 54 W/m² 2,9 °C 2,7 °C 8,0 km/h (2 Bft)
22.12.2017 14:36 3,8 °C 3,8 °C 94 % 1032,6 hPa 0,0 mm 7,4 km/h (2 Bft) W-SW 252 ° 0 min 0,000 mm 0,0 UV-I 53 W/m² 2,9 °C 1,9 °C 11,3 km/h (2 Bft)
22.12.2017 14:37 3,8 °C 3,8 °C 94 % 1032,7 hPa 0,0 mm 3,7 km/h (1 Bft) W-NW 282 ° 0 min 0,000 mm 0,0 UV-I 53 W/m² 2,9 °C 3,8 °C 6,4 km/h (2 Bft)
22.12.2017 14:38 3,8 °C 3,8 °C 94 % 1032,6 hPa 0,0 mm 3,8 km/h (1 Bft) W 279 ° 0 min 0,000 mm 0,0 UV-I 49 W/m² 2,9 °C 3,8 °C 4,8 km/h (1 Bft)
22.12.2017 14:39 3,7 °C 3,8 °C 94 % 1032,6 hPa 0,0 mm 6,8 km/h (2 Bft) W 274 ° 0 min 0,000 mm 0,0 UV-I 47 W/m² 2,8 °C 2,0 °C 9,7 km/h (2 Bft)
22.12.2017 14:40 3,7 °C 3,7 °C 94 % 1032,6 hPa 0,0 mm 5,8 km/h (2 Bft) W-SW 258 ° 0 min 0,000 mm 0,0 UV-I 46 W/m² 2,8 °C 2,3 °C 9,7 km/h (2 Bft)
22.12.2017 14:41 3,7 °C 3,7 °C 94 % 1032,6 hPa 0,0 mm 6,6 km/h (2 Bft) W 271 ° 0 min 0,000 mm 0,0 UV-I 44 W/m² 2,8 °C 2,0 °C 9,7 km/h (2 Bft)
22.12.2017 14:42 3,7 °C 3,7 °C 94 % 1032,6 hPa 0,0 mm 2,5 km/h (1 Bft) W-SW 258 ° 0 min 0,000 mm 0,0 UV-I 42 W/m² 2,8 °C 3,7 °C 4,8 km/h (1 Bft)
22.12.2017 14:43 3,7 °C 3,7 °C 94 % 1032,7 hPa 0,2 mm 5,6 km/h (1 Bft) W 267 ° 0 min 0,000 mm 0,0 UV-I 42 W/m² 2,8 °C 2,4 °C 9,7 km/h (2 Bft)
22.12.2017 14:44 3,6 °C 3,7 °C 94 % 1032,7 hPa 0,0 mm 7,2 km/h (2 Bft) W 273 ° 0 min 0,000 mm 0,0 UV-I 39 W/m² 2,7 °C 1,7 °C 11,3 km/h (2 Bft)
22.12.2017 14:45 3,7 °C 3,7 °C 94 % 1032,6 hPa 0,0 mm 6,0 km/h (2 Bft) W-SW 240 ° 0 min 0,000 mm 0,0 UV-I 40 W/m² 2,8 °C 2,2 °C 9,7 km/h (2 Bft)
22.12.2017 14:46 3,7 °C 3,7 °C 94 % 1032,6 hPa 0,0 mm 5,4 km/h (1 Bft) W 261 ° 0 min 0,000 mm 0,0 UV-I 39 W/m² 2,8 °C 2,4 °C 11,3 km/h (2 Bft)
22.12.2017 14:47 3,7 °C 3,7 °C 94 % 1032,6 hPa 0,0 mm 8,0 km/h (2 Bft) W 280 ° 0 min 0,000 mm 0,0 UV-I 39 W/m² 2,8 °C 1,6 °C 11,3 km/h (2 Bft)
22.12.2017 14:48 3,7 °C 3,7 °C 94 % 1032,7 hPa 0,0 mm 7,2 km/h (2 Bft) W 265 ° 0 min 0,000 mm 0,0 UV-I 37 W/m² 2,8 °C 1,8 °C 9,7 km/h (2 Bft)
22.12.2017 14:49 3,7 °C 3,7 °C 94 % 1032,7 hPa 0,0 mm 4,8 km/h (1 Bft) W 268 ° 0 min 0,000 mm 0,0 UV-I 37 W/m² 2,8 °C 2,7 °C 6,4 km/h (2 Bft)
22.12.2017 14:50 3,7 °C 3,7 °C 94 % 1032,7 hPa 0,0 mm 6,6 km/h (2 Bft) W-SW 257 ° 0 min 0,000 mm 0,0 UV-I 35 W/m² 2,8 °C 2,0 °C 11,3 km/h (2 Bft)
22.12.2017 14:51 3,6 °C 3,7 °C 94 % 1032,7 hPa 0,0 mm 6,4 km/h (2 Bft) W 263 ° 0 min 0,000 mm 0,0 UV-I 35 W/m² 2,7 °C 2,0 °C 9,7 km/h (2 Bft)
22.12.2017 14:52 3,6 °C 3,7 °C 94 % 1032,7 hPa 0,0 mm 10,3 km/h (2 Bft) W 277 ° 0 min 0,000 mm 0,0 UV-I 33 W/m² 2,7 °C 0,9 °C 12,9 km/h (3 Bft)
22.12.2017 14:53 3,7 °C 3,7 °C 94 % 1032,7 hPa 0,0 mm 7,9 km/h (2 Bft) W 270 ° 0 min 0,000 mm 0,0 UV-I 33 W/m² 2,8 °C 1,6 °C 12,9 km/h (3 Bft)
22.12.2017 14:54 3,7 °C 3,7 °C 94 % 1032,7 hPa 0,0 mm 7,8 km/h (2 Bft) W 259 ° 0 min 0,000 mm 0,0 UV-I 32 W/m² 2,8 °C 1,7 °C 9,7 km/h (2 Bft)
22.12.2017 14:55 3,7 °C 3,7 °C 94 % 1032,7 hPa 0,0 mm 5,2 km/h (1 Bft) W 262 ° 0 min 0,000 mm 0,0 UV-I 30 W/m² 2,8 °C 2,5 °C 9,7 km/h (2 Bft)
22.12.2017 14:56 3,6 °C 3,7 °C 94 % 1032,7 hPa 0,2 mm 8,4 km/h (2 Bft) W 266 ° 0 min 0,000 mm 0,0 UV-I 26 W/m² 2,7 °C 1,4 °C 11,3 km/h (2 Bft)
22.12.2017 14:57 3,6 °C 3,7 °C 94 % 1032,8 hPa 0,0 mm 9,2 km/h (2 Bft) W 269 ° 0 min 0,000 mm 0,0 UV-I 26 W/m² 2,7 °C 1,2 °C 11,3 km/h (2 Bft)
22.12.2017 14:58 3,6 °C 3,7 °C 94 % 1032,8 hPa 0,0 mm 8,2 km/h (2 Bft) W 274 ° 0 min 0,000 mm 0,0 UV-I 26 W/m² 2,7 °C 1,4 °C 12,9 km/h (3 Bft)
22.12.2017 14:59 3,6 °C 3,6 °C 94 % 1032,8 hPa 0,0 mm 6,0 km/h (2 Bft) W-SW 255 ° 0 min 0,000 mm 0,0 UV-I 26 W/m² 2,7 °C 2,1 °C 11,3 km/h (2 Bft)
22.12.2017 15:00 3,6 °C 3,6 °C 94 % 1032,8 hPa 0,0 mm 4,8 km/h (1 Bft) W 277 ° 0 min 0,025 mm 0,0 UV-I 26 W/m² 2,7 °C 2,6 °C 6,4 km/h (2 Bft)
22.12.2017 15:01 3,6 °C 3,6 °C 94 % 1032,8 hPa 0,0 mm 5,4 km/h (1 Bft) W 259 ° 0 min 0,000 mm 0,0 UV-I 26 W/m² 2,7 °C 2,3 °C 9,7 km/h (2 Bft)
22.12.2017 15:02 3,6 °C 3,6 °C 94 % 1032,8 hPa 0,0 mm 4,4 km/h (1 Bft) W-NW 288 ° 0 min 0,000 mm 0,0 UV-I 26 W/m² 2,7 °C 3,6 °C 6,4 km/h (2 Bft)
22.12.2017 15:03 3,7 °C 3,7 °C 94 % 1032,8 hPa 0,0 mm 9,9 km/h (2 Bft) W 278 ° 0 min 0,000 mm 0,0 UV-I 26 W/m² 2,8 °C 1,1 °C 12,9 km/h (3 Bft)
22.12.2017 15:04 3,7 °C 3,7 °C 94 % 1032,8 hPa 0,0 mm 11,1 km/h (2 Bft) W 268 ° 0 min 0,000 mm 0,0 UV-I 25 W/m² 2,8 °C 0,9 °C 19,3 km/h (3 Bft)
22.12.2017 15:05 3,7 °C 3,7 °C 94 % 1032,8 hPa 0,0 mm 7,6 km/h (2 Bft) W 276 ° 0 min 0,000 mm 0,0 UV-I 25 W/m² 2,8 °C 1,7 °C 11,3 km/h (2 Bft)
22.12.2017 15:06 3,7 °C 3,7 °C 94 % 1032,8 hPa 0,0 mm 6,0 km/h (2 Bft) W-SW 250 ° 0 min 0,000 mm 0,0 UV-I 26 W/m² 2,8 °C 2,2 °C 9,7 km/h (2 Bft)
22.12.2017 15:07 3,7 °C 3,7 °C 94 % 1032,8 hPa 0,0 mm 6,9 km/h (2 Bft) W-SW 255 ° 0 min 0,000 mm 0,0 UV-I 26 W/m² 2,8 °C 1,9 °C 12,9 km/h (3 Bft)
22.12.2017 15:08 3,7 °C 3,7 °C 94 % 1032,8 hPa 0,0 mm 6,2 km/h (2 Bft) W-SW 239 ° 0 min 0,000 mm 0,0 UV-I 26 W/m² 2,8 °C 2,2 °C 11,3 km/h (2 Bft)
22.12.2017 15:09 3,7 °C 3,7 °C 94 % 1032,8 hPa 0,0 mm 11,7 km/h (2 Bft) W 280 ° 0 min 0,000 mm 0,0 UV-I 26 W/m² 2,8 °C 0,7 °C 17,7 km/h (3 Bft)
22.12.2017 15:10 3,7 °C 3,7 °C 94 % 1032,8 hPa 0,0 mm 9,0 km/h (2 Bft) W 265 ° 0 min 0,000 mm 0,0 UV-I 28 W/m² 2,8 °C 1,3 °C 12,9 km/h (3 Bft)
22.12.2017 15:11 3,7 °C 3,7 °C 94 % 1032,8 hPa 0,0 mm 10,2 km/h (2 Bft) W 274 ° 0 min 0,000 mm 0,0 UV-I 28 W/m² 2,8 °C 1,1 °C 14,5 km/h (3 Bft)
22.12.2017 15:12 3,7 °C 3,7 °C 94 % 1032,7 hPa 0,2 mm 4,2 km/h (1 Bft) W 270 ° 0 min 0,000 mm 0,0 UV-I 28 W/m² 2,8 °C 3,7 °C 6,4 km/h (2 Bft)
22.12.2017 15:13 3,7 °C 3,7 °C 94 % 1032,8 hPa 0,0 mm 8,6 km/h (2 Bft) W 270 ° 0 min 0,000 mm 0,0 UV-I 26 W/m² 2,8 °C 1,4 °C 12,9 km/h (3 Bft)
22.12.2017 15:14 3,7 °C 3,7 °C 94 % 1032,8 hPa 0,0 mm 6,2 km/h (2 Bft) W 265 ° 0 min 0,000 mm 0,0 UV-I 25 W/m² 2,8 °C 2,2 °C 9,7 km/h (2 Bft)
22.12.2017 15:15 3,7 °C 3,7 °C 94 % 1032,9 hPa 0,0 mm 6,8 km/h (2 Bft) W 272 ° 0 min 0,000 mm 0,0 UV-I 23 W/m² 2,8 °C 2,0 °C 11,3 km/h (2 Bft)
22.12.2017 15:16 3,7 °C 3,7 °C 94 % 1032,9 hPa 0,0 mm 5,8 km/h (2 Bft) W-NW 291 ° 0 min 0,000 mm 0,0 UV-I 21 W/m² 2,8 °C 2,3 °C 9,7 km/h (2 Bft)
22.12.2017 15:17 3,7 °C 3,7 °C 94 % 1033,0 hPa 0,0 mm 7,9 km/h (2 Bft) W 264 ° 0 min 0,000 mm 0,0 UV-I 21 W/m² 2,8 °C 1,6 °C 12,9 km/h (3 Bft)
22.12.2017 15:18 3,7 °C 3,7 °C 94 % 1032,9 hPa 0,0 mm 6,0 km/h (2 Bft) W 270 ° 0 min 0,000 mm 0,0 UV-I 19 W/m² 2,8 °C 2,2 °C 9,7 km/h (2 Bft)
22.12.2017 15:19 3,7 °C 3,7 °C 94 % 1033,1 hPa 0,0 mm 4,2 km/h (1 Bft) W 271 ° 0 min 0,000 mm 0,0 UV-I 19 W/m² 2,8 °C 3,7 °C 6,4 km/h (2 Bft)
22.12.2017 15:20 3,7 °C 3,7 °C 94 % 1032,9 hPa 0,0 mm 3,0 km/h (1 Bft) W-NW 290 ° 0 min 0,000 mm 0,0 UV-I 19 W/m² 2,8 °C 3,7 °C 4,8 km/h (1 Bft)
22.12.2017 15:21 3,7 °C 3,7 °C 94 % 1032,9 hPa 0,0 mm 4,1 km/h (1 Bft) W 264 ° 0 min 0,000 mm 0,0 UV-I 19 W/m² 2,8 °C 3,7 °C 9,7 km/h (2 Bft)
22.12.2017 15:22 3,7 °C 3,7 °C 94 % 1032,9 hPa 0,0 mm 7,6 km/h (2 Bft) W-NW 287 ° 0 min 0,000 mm 0,0 UV-I 19 W/m² 2,8 °C 1,7 °C 9,7 km/h (2 Bft)
22.12.2017 15:23 3,7 °C 3,7 °C 94 % 1032,9 hPa 0,0 mm 4,3 km/h (1 Bft) W 259 ° 0 min 0,000 mm 0,0 UV-I 18 W/m² 2,8 °C 3,7 °C 6,4 km/h (2 Bft)
22.12.2017 15:24 3,7 °C 3,7 °C 94 % 1033,0 hPa 0,0 mm 5,5 km/h (1 Bft) W-SW 248 ° 0 min 0,000 mm 0,0 UV-I 18 W/m² 2,8 °C 2,4 °C 9,7 km/h (2 Bft)
22.12.2017 15:25 3,7 °C 3,7 °C 94 % 1033,0 hPa 0,0 mm 11,0 km/h (2 Bft) W 265 ° 0 min 0,000 mm 0,0 UV-I 16 W/m² 2,8 °C 0,9 °C 12,9 km/h (3 Bft)
22.12.2017 15:26 3,7 °C 3,7 °C 94 % 1032,9 hPa 0,0 mm 6,1 km/h (2 Bft) W 274 ° 0 min 0,000 mm 0,0 UV-I 16 W/m² 2,8 °C 2,2 °C 12,9 km/h (3 Bft)
22.12.2017 15:27 3,7 °C 3,7 °C 94 % 1032,9 hPa 0,0 mm 5,3 km/h (1 Bft) W 277 ° 0 min 0,000 mm 0,0 UV-I 16 W/m² 2,8 °C 2,5 °C 8,0 km/h (2 Bft)
22.12.2017 15:28 3,7 °C 3,7 °C 94 % 1032,9 hPa 0,0 mm 6,0 km/h (2 Bft) W 259 ° 0 min 0,000 mm 0,0 UV-I 16 W/m² 2,8 °C 2,2 °C 6,4 km/h (2 Bft)
22.12.2017 15:29 3,7 °C 3,7 °C 94 % 1032,9 hPa 0,0 mm 5,4 km/h (1 Bft) W 267 ° 0 min 0,000 mm 0,0 UV-I 16 W/m² 2,8 °C 2,4 °C 9,7 km/h (2 Bft)
22.12.2017 15:30 3,7 °C 3,7 °C 94 % 1032,9 hPa 0,0 mm 4,6 km/h (1 Bft) W 275 ° 0 min 0,000 mm 0,0 UV-I 16 W/m² 2,8 °C 2,8 °C 6,4 km/h (2 Bft)
22.12.2017 15:31 3,7 °C 3,7 °C 94 % 1032,9 hPa 0,0 mm 8,8 km/h (2 Bft) W 278 ° 0 min 0,000 mm 0,0 UV-I 16 W/m² 2,8 °C 1,4 °C 14,5 km/h (3 Bft)
22.12.2017 15:32 3,7 °C 3,7 °C 94 % 1032,9 hPa 0,0 mm 7,4 km/h (2 Bft) NW 305 ° 0 min 0,000 mm 0,0 UV-I 16 W/m² 2,8 °C 1,8 °C 12,9 km/h (3 Bft)
22.12.2017 15:33 3,7 °C 3,7 °C 94 % 1033,0 hPa 0,0 mm 5,9 km/h (2 Bft) W-NW 285 ° 0 min 0,000 mm 0,0 UV-I 16 W/m² 2,8 °C 2,3 °C 9,7 km/h (2 Bft)
22.12.2017 15:34 3,7 °C 3,7 °C 94 % 1032,9 hPa 0,0 mm 3,7 km/h (1 Bft) W 277 ° 0 min 0,000 mm 0,0 UV-I 16 W/m² 2,8 °C 3,7 °C 6,4 km/h (2 Bft)
22.12.2017 15:35 3,7 °C 3,7 °C 94 % 1033,0 hPa 0,0 mm 5,1 km/h (1 Bft) NW 306 ° 0 min 0,000 mm 0,0 UV-I 16 W/m² 2,8 °C 2,6 °C 6,4 km/h (2 Bft)
22.12.2017 15:36 3,7 °C 3,7 °C 94 % 1033,0 hPa 0,2 mm 5,1 km/h (1 Bft) W 271 ° 0 min 0,000 mm 0,0 UV-I 16 W/m² 2,8 °C 2,6 °C 8,0 km/h (2 Bft)
22.12.2017 15:37 3,7 °C 3,7 °C 94 % 1033,0 hPa 0,0 mm 4,7 km/h (1 Bft) W 261 ° 0 min 0,000 mm 0,0 UV-I 16 W/m² 2,8 °C 2,7 °C 6,4 km/h (2 Bft)
22.12.2017 15:38 3,6 °C 3,7 °C 94 % 1033,1 hPa 0,0 mm 5,5 km/h (1 Bft) W 262 ° 0 min 0,000 mm 0,0 UV-I 16 W/m² 2,7 °C 2,3 °C 9,7 km/h (2 Bft)
22.12.2017 15:39 3,7 °C 3,7 °C 94 % 1033,1 hPa 0,0 mm 5,6 km/h (1 Bft) W 279 ° 0 min 0,000 mm 0,0 UV-I 16 W/m² 2,8 °C 2,4 °C 8,0 km/h (2 Bft)
22.12.2017 15:40 3,6 °C 3,7 °C 94 % 1033,1 hPa 0,0 mm 4,2 km/h (1 Bft) W 275 ° 0 min 0,000 mm 0,0 UV-I 14 W/m² 2,7 °C 3,6 °C 6,4 km/h (2 Bft)
22.12.2017 15:41 3,6 °C 3,6 °C 94 % 1033,1 hPa 0,0 mm 2,8 km/h (1 Bft) W 281 ° 0 min 0,000 mm 0,0 UV-I 14 W/m² 2,7 °C 3,6 °C 4,8 km/h (1 Bft)
22.12.2017 15:42 3,6 °C 3,6 °C 94 % 1033,1 hPa 0,0 mm 3,9 km/h (1 Bft) W 281 ° 0 min 0,000 mm 0,0 UV-I 14 W/m² 2,7 °C 3,6 °C 6,4 km/h (2 Bft)
22.12.2017 15:43 3,6 °C 3,6 °C 94 % 1033,1 hPa 0,0 mm 5,3 km/h (1 Bft) W-NW 294 ° 0 min 0,000 mm 0,0 UV-I 12 W/m² 2,7 °C 2,4 °C 9,7 km/h (2 Bft)
22.12.2017 15:44 3,6 °C 3,6 °C 94 % 1033,2 hPa 0,0 mm 4,6 km/h (1 Bft) W-NW 288 ° 0 min 0,000 mm 0,0 UV-I 12 W/m² 2,7 °C 2,7 °C 9,7 km/h (2 Bft)
22.12.2017 15:45 3,6 °C 3,6 °C 94 % 1033,2 hPa 0,0 mm 5,5 km/h (1 Bft) W 264 ° 0 min 0,000 mm 0,0 UV-I 12 W/m² 2,7 °C 2,3 °C 8,0 km/h (2 Bft)
22.12.2017 15:46 3,6 °C 3,6 °C 94 % 1033,2 hPa 0,0 mm 5,7 km/h (1 Bft) W 277 ° 0 min 0,000 mm 0,0 UV-I 12 W/m² 2,7 °C 2,2 °C 6,4 km/h (2 Bft)
22.12.2017 15:47 3,6 °C 3,6 °C 94 % 1033,2 hPa 0,0 mm 4,7 km/h (1 Bft) W-SW 258 ° 0 min 0,000 mm 0,0 UV-I 12 W/m² 2,7 °C 2,6 °C 8,0 km/h (2 Bft)
22.12.2017 15:48 3,6 °C 3,6 °C 94 % 1033,2 hPa 0,2 mm 5,4 km/h (1 Bft) W-NW 286 ° 0 min 0,000 mm 0,0 UV-I 12 W/m² 2,7 °C 2,3 °C 9,7 km/h (2 Bft)
22.12.2017 15:49 3,6 °C 3,6 °C 94 % 1033,2 hPa 0,0 mm 7,6 km/h (2 Bft) W 260 ° 0 min 0,000 mm 0,0 UV-I 12 W/m² 2,7 °C 1,6 °C 11,3 km/h (2 Bft)
22.12.2017 15:50 3,5 °C 3,6 °C 94 % 1033,2 hPa 0,0 mm 7,9 km/h (2 Bft) W 263 ° 0 min 0,000 mm 0,0 UV-I 14 W/m² 2,6 °C 1,4 °C 11,3 km/h (2 Bft)
22.12.2017 15:51 3,6 °C 3,6 °C 94 % 1033,1 hPa 0,0 mm 6,9 km/h (2 Bft) W 265 ° 0 min 0,000 mm 0,0 UV-I 14 W/m² 2,7 °C 1,8 °C 11,3 km/h (2 Bft)
22.12.2017 15:52 3,6 °C 3,6 °C 94 % 1033,2 hPa 0,0 mm 5,8 km/h (2 Bft) W 269 ° 0 min 0,000 mm 0,0 UV-I 14 W/m² 2,7 °C 2,2 °C 11,3 km/h (2 Bft)
22.12.2017 15:53 3,5 °C 3,6 °C 94 % 1033,2 hPa 0,0 mm 7,6 km/h (2 Bft) W 259 ° 0 min 0,000 mm 0,0 UV-I 12 W/m² 2,6 °C 1,5 °C 11,3 km/h (2 Bft)
22.12.2017 15:54 3,5 °C 3,5 °C 94 % 1033,2 hPa 0,0 mm 11,4 km/h (2 Bft) W 263 ° 0 min 0,000 mm 0,0 UV-I 12 W/m² 2,6 °C 0,6 °C 16,1 km/h (3 Bft)
22.12.2017 15:55 3,5 °C 3,5 °C 94 % 1033,2 hPa 0,0 mm 5,4 km/h (1 Bft) W-SW 258 ° 0 min 0,000 mm 0,0 UV-I 12 W/m² 2,6 °C 2,2 °C 9,7 km/h (2 Bft)
22.12.2017 15:56 3,5 °C 3,5 °C 94 % 1033,2 hPa 0,0 mm 4,3 km/h (1 Bft) SW 231 ° 0 min 0,000 mm 0,0 UV-I 11 W/m² 2,6 °C 3,5 °C 6,4 km/h (2 Bft)
22.12.2017 15:57 3,5 °C 3,5 °C 94 % 1033,2 hPa 0,0 mm 5,0 km/h (1 Bft) W-SW 257 ° 0 min 0,000 mm 0,0 UV-I 11 W/m² 2,6 °C 2,4 °C 8,0 km/h (2 Bft)
22.12.2017 15:58 3,5 °C 3,5 °C 94 % 1033,2 hPa 0,0 mm 6,8 km/h (2 Bft) W 271 ° 0 min 0,000 mm 0,0 UV-I 11 W/m² 2,6 °C 1,7 °C 9,7 km/h (2 Bft)
22.12.2017 15:59 3,4 °C 3,5 °C 94 % 1033,3 hPa 0,0 mm 10,3 km/h (2 Bft) W-SW 247 ° 0 min 0,000 mm 0,0 UV-I 9 W/m² 2,5 °C 0,7 °C 14,5 km/h (3 Bft)
22.12.2017 16:00 3,5 °C 3,5 °C 94 % 1033,2 hPa 0,0 mm 6,6 km/h (2 Bft) W-NW 285 ° 0 min 0,000 mm 0,0 UV-I 7 W/m² 2,6 °C 1,8 °C 11,3 km/h (2 Bft)
22.12.2017 16:01 3,5 °C 3,5 °C 94 % 1033,3 hPa 0,0 mm 4,8 km/h (1 Bft) W 281 ° 0 min 0,000 mm 0,0 UV-I 7 W/m² 2,6 °C 2,5 °C 6,4 km/h (2 Bft)
22.12.2017 16:02 3,4 °C 3,5 °C 94 % 1033,3 hPa 0,0 mm 3,4 km/h (1 Bft) W 281 ° 0 min 0,000 mm 0,0 UV-I 7 W/m² 2,5 °C 3,4 °C 4,8 km/h (1 Bft)
22.12.2017 16:03 3,4 °C 3,5 °C 94 % 1033,3 hPa 0,2 mm 4,0 km/h (1 Bft) W 265 ° 0 min 0,000 mm 0,0 UV-I 7 W/m² 2,5 °C 3,4 °C 4,8 km/h (1 Bft)
22.12.2017 16:04 3,4 °C 3,5 °C 94 % 1033,3 hPa 0,0 mm 5,0 km/h (1 Bft) W 274 ° 0 min 0,000 mm 0,0 UV-I 7 W/m² 2,5 °C 2,3 °C 9,7 km/h (2 Bft)
22.12.2017 16:05 3,4 °C 3,5 °C 94 % 1033,3 hPa 0,0 mm 5,0 km/h (1 Bft) W 267 ° 0 min 0,000 mm 0,0 UV-I 5 W/m² 2,5 °C 2,3 °C 9,7 km/h (2 Bft)
22.12.2017 16:06 3,4 °C 3,4 °C 94 % 1033,3 hPa 0,0 mm 5,9 km/h (2 Bft) W-SW 258 ° 0 min 0,000 mm 0,0 UV-I 5 W/m² 2,5 °C 1,9 °C 11,3 km/h (2 Bft)
22.12.2017 16:07 3,4 °C 3,4 °C 94 % 1033,4 hPa 0,0 mm 7,9 km/h (2 Bft) W 263 ° 0 min 0,000 mm 0,0 UV-I 5 W/m² 2,5 °C 1,3 °C 11,3 km/h (2 Bft)
22.12.2017 16:08 3,4 °C 3,4 °C 94 % 1033,4 hPa 0,0 mm 5,8 km/h (2 Bft) SW 224 ° 0 min 0,000 mm 0,0 UV-I 5 W/m² 2,5 °C 2,0 °C 11,3 km/h (2 Bft)
22.12.2017 16:09 3,4 °C 3,4 °C 94 % 1033,4 hPa 0,0 mm 6,7 km/h (2 Bft) W-SW 256 ° 0 min 0,000 mm 0,0 UV-I 5 W/m² 2,5 °C 1,6 °C 11,3 km/h (2 Bft)
22.12.2017 16:10 3,4 °C 3,4 °C 94 % 1033,3 hPa 0,0 mm 6,6 km/h (2 Bft) W 259 ° 0 min 0,000 mm 0,0 UV-I 5 W/m² 2,5 °C 1,7 °C 11,3 km/h (2 Bft)
22.12.2017 16:11 3,4 °C 3,4 °C 94 % 1033,4 hPa 0,0 mm 6,1 km/h (2 Bft) W-SW 242 ° 0 min 0,000 mm 0,0 UV-I 5 W/m² 2,5 °C 1,8 °C 9,7 km/h (2 Bft)
22.12.2017 16:12 3,4 °C 3,4 °C 94 % 1033,4 hPa 0,0 mm 6,7 km/h (2 Bft) W 263 ° 0 min 0,000 mm 0,0 UV-I 5 W/m² 2,5 °C 1,6 °C 11,3 km/h (2 Bft)
22.12.2017 16:13 3,4 °C 3,4 °C 94 % 1033,4 hPa 0,0 mm 9,6 km/h (2 Bft) W-SW 254 ° 0 min 0,000 mm 0,0 UV-I 5 W/m² 2,5 °C 0,8 °C 14,5 km/h (3 Bft)
22.12.2017 16:14 3,4 °C 3,4 °C 94 % 1033,4 hPa 0,0 mm 6,9 km/h (2 Bft) W-SW 251 ° 0 min 0,000 mm 0,0 UV-I 0 W/m² 2,5 °C 1,6 °C 11,3 km/h (2 Bft)
22.12.2017 16:15 3,4 °C 3,4 °C 94 % 1033,5 hPa 0,0 mm 6,6 km/h (2 Bft) W-SW 242 ° 0 min 0,000 mm 0,0 UV-I 0 W/m² 2,5 °C 1,7 °C 11,3 km/h (2 Bft)
22.12.2017 16:16 3,4 °C 3,4 °C 94 % 1033,5 hPa 0,0 mm 6,2 km/h (2 Bft) W 265 ° 0 min 0,000 mm 0,0 UV-I 0 W/m² 2,5 °C 1,8 °C 11,3 km/h (2 Bft)
22.12.2017 16:17 3,4 °C 3,5 °C 94 % 1033,5 hPa 0,0 mm 7,0 km/h (2 Bft) W-SW 250 ° 0 min 0,000 mm 0,0 UV-I 0 W/m² 2,5 °C 1,6 °C 11,3 km/h (2 Bft)
22.12.2017 16:18 3,4 °C 3,4 °C 94 % 1033,5 hPa 0,0 mm 4,5 km/h (1 Bft) SW 234 ° 0 min 0,000 mm 0,0 UV-I 0 W/m² 2,5 °C 3,4 °C 6,4 km/h (2 Bft)
22.12.2017 16:19 3,4 °C 3,5 °C 94 % 1033,5 hPa 0,0 mm 5,4 km/h (1 Bft) W-SW 248 ° 0 min 0,000 mm 0,0 UV-I 0 W/m² 2,5 °C 2,1 °C 9,7 km/h (2 Bft)
22.12.2017 16:20 3,4 °C 3,5 °C 94 % 1033,5 hPa 0,2 mm 4,9 km/h (1 Bft) W 261 ° 0 min 0,000 mm 0,0 UV-I 0 W/m² 2,5 °C 2,3 °C 9,7 km/h (2 Bft)
22.12.2017 16:21 3,4 °C 3,4 °C 94 % 1033,5 hPa 0,0 mm 6,6 km/h (2 Bft) W-SW 240 ° 0 min 0,000 mm 0,0 UV-I 0 W/m² 2,5 °C 1,7 °C 11,3 km/h (2 Bft)
22.12.2017 16:22 3,4 °C 3,5 °C 94 % 1033,5 hPa 0,0 mm 4,3 km/h (1 Bft) W 265 ° 0 min 0,000 mm 0,0 UV-I 0 W/m² 2,5 °C 3,4 °C 6,4 km/h (2 Bft)
22.12.2017 16:23 3,4 °C 3,5 °C 94 % 1033,5 hPa 0,0 mm 6,9 km/h (2 Bft) W-SW 255 ° 0 min 0,000 mm 0,0 UV-I 0 W/m² 2,5 °C 1,6 °C 9,7 km/h (2 Bft)
22.12.2017 16:24 3,4 °C 3,5 °C 94 % 1033,6 hPa 0,0 mm 5,8 km/h (2 Bft) W 265 ° 0 min 0,000 mm 0,0 UV-I 0 W/m² 2,5 °C 2,0 °C 11,3 km/h (2 Bft)
22.12.2017 16:25 3,4 °C 3,5 °C 94 % 1033,5 hPa 0,0 mm 7,7 km/h (2 Bft) W-NW 290 ° 0 min 0,000 mm 0,0 UV-I 0 W/m² 2,5 °C 1,3 °C 12,9 km/h (3 Bft)
22.12.2017 16:26 3,4 °C 3,5 °C 94 % 1033,5 hPa 0,0 mm 9,0 km/h (2 Bft) W-SW 251 ° 0 min 0,000 mm 0,0 UV-I 0 W/m² 2,5 °C 1,0 °C 14,5 km/h (3 Bft)
22.12.2017 16:27 3,4 °C 3,4 °C 94 % 1033,5 hPa 0,0 mm 8,5 km/h (2 Bft) W 271 ° 0 min 0,000 mm 0,0 UV-I 0 W/m² 2,5 °C 1,1 °C 12,9 km/h (3 Bft)
22.12.2017 16:28 3,4 °C 3,5 °C 94 % 1033,5 hPa 0,0 mm 8,9 km/h (2 Bft) W-SW 246 ° 0 min 0,000 mm 0,0 UV-I 0 W/m² 2,5 °C 1,0 °C 17,7 km/h (3 Bft)
22.12.2017 16:29 3,4 °C 3,5 °C 95 % 1033,5 hPa 0,0 mm 9,6 km/h (2 Bft) W 261 ° 0 min 0,000 mm 0,0 UV-I 0 W/m² 2,7 °C 0,8 °C 17,7 km/h (3 Bft)
22.12.2017 16:30 3,4 °C 3,5 °C 94 % 1033,5 hPa 0,0 mm 10,5 km/h (2 Bft) W 271 ° 0 min 0,000 mm 0,0 UV-I 0 W/m² 2,5 °C 0,6 °C 12,9 km/h (3 Bft)
22.12.2017 16:31 3,4 °C 3,5 °C 94 % 1033,5 hPa 0,2 mm 9,4 km/h (2 Bft) W-SW 239 ° 0 min 0,000 mm 0,0 UV-I 0 W/m² 2,5 °C 0,9 °C 14,5 km/h (3 Bft)
22.12.2017 16:32 3,4 °C 3,5 °C 95 % 1033,5 hPa 0,0 mm 9,8 km/h (2 Bft) W-NW 290 ° 0 min 0,000 mm 0,0 UV-I 0 W/m² 2,7 °C 0,8 °C 14,5 km/h (3 Bft)
22.12.2017 16:33 3,4 °C 3,5 °C 95 % 1033,6 hPa 0,0 mm 10,9 km/h (2 Bft) W-NW 285 ° 0 min 0,000 mm 0,0 UV-I 0 W/m² 2,7 °C 0,5 °C 14,5 km/h (3 Bft)
22.12.2017 16:34 3,5 °C 3,5 °C 94 % 1033,5 hPa 0,0 mm 8,2 km/h (2 Bft) W-SW 248 ° 0 min 0,000 mm 0,0 UV-I 0 W/m² 2,6 °C 1,3 °C 16,1 km/h (3 Bft)
22.12.2017 16:35 3,5 °C 3,5 °C 95 % 1033,6 hPa 0,0 mm 8,5 km/h (2 Bft) W-SW 252 ° 0 min 0,000 mm 0,0 UV-I 0 W/m² 2,8 °C 1,2 °C 12,9 km/h (3 Bft)
22.12.2017 16:36 3,5 °C 3,5 °C 95 % 1033,6 hPa 0,0 mm 7,4 km/h (2 Bft) W-SW 256 ° 0 min 0,000 mm 0,0 UV-I 0 W/m² 2,8 °C 1,5 °C 11,3 km/h (2 Bft)
22.12.2017 16:37 3,5 °C 3,5 °C 95 % 1033,6 hPa 0,2 mm 9,5 km/h (2 Bft) W-SW 255 ° 0 min 0,000 mm 0,0 UV-I 0 W/m² 2,8 °C 1,0 °C 17,7 km/h (3 Bft)
22.12.2017 16:38 3,5 °C 3,5 °C 95 % 1033,6 hPa 0,0 mm 7,3 km/h (2 Bft) W-NW 282 ° 0 min 0,000 mm 0,0 UV-I 0 W/m² 2,8 °C 1,6 °C 11,3 km/h (2 Bft)
22.12.2017 16:39 3,5 °C 3,5 °C 95 % 1033,6 hPa 0,0 mm 9,1 km/h (2 Bft) W-SW 255 ° 0 min 0,000 mm 0,0 UV-I 0 W/m² 2,8 °C 1,1 °C 14,5 km/h (3 Bft)
22.12.2017 16:40 3,5 °C 3,5 °C 95 % 1033,6 hPa 0,0 mm 8,7 km/h (2 Bft) W-SW 254 ° 0 min 0,000 mm 0,0 UV-I 0 W/m² 2,8 °C 1,2 °C 12,9 km/h (3 Bft)
22.12.2017 16:41 3,5 °C 3,5 °C 95 % 1033,6 hPa 0,0 mm 8,5 km/h (2 Bft) SW 236 ° 0 min 0,000 mm 0,0 UV-I 0 W/m² 2,8 °C 1,2 °C 9,7 km/h (2 Bft)
22.12.2017 16:42 3,5 °C 3,5 °C 95 % 1033,7 hPa 0,0 mm 7,9 km/h (2 Bft) W 268 ° 0 min 0,000 mm 0,0 UV-I 0 W/m² 2,8 °C 1,4 °C 11,3 km/h (2 Bft)
22.12.2017 16:43 3,4 °C 3,5 °C 95 % 1033,7 hPa 0,0 mm 6,0 km/h (2 Bft) W-NW 286 ° 0 min 0,000 mm 0,0 UV-I 0 W/m² 2,7 °C 1,9 °C 9,7 km/h (2 Bft)
22.12.2017 16:44 3,4 °C 3,5 °C 94 % 1033,6 hPa 0,0 mm 6,1 km/h (2 Bft) W 279 ° 0 min 0,000 mm 0,0 UV-I 0 W/m² 2,5 °C 1,8 °C 9,7 km/h (2 Bft)
22.12.2017 16:45 3,5 °C 3,5 °C 94 % 1033,7 hPa 0,0 mm 7,0 km/h (2 Bft) W-SW 257 ° 0 min 0,000 mm 0,0 UV-I 0 W/m² 2,6 °C 1,7 °C 11,3 km/h (2 Bft)
22.12.2017 16:46 3,5 °C 3,5 °C 94 % 1033,8 hPa 0,0 mm 7,9 km/h (2 Bft) W-SW 257 ° 0 min 0,000 mm 0,0 UV-I 0 W/m² 2,6 °C 1,4 °C 12,9 km/h (3 Bft)
22.12.2017 16:47 3,4 °C 3,5 °C 94 % 1033,7 hPa 0,0 mm 6,5 km/h (2 Bft) W-SW 255 ° 0 min 0,000 mm 0,0 UV-I 0 W/m² 2,5 °C 1,7 °C 9,7 km/h (2 Bft)
22.12.2017 16:48 3,4 °C 3,5 °C 94 % 1033,7 hPa 0,0 mm 9,7 km/h (2 Bft) W 281 ° 0 min 0,000 mm 0,0 UV-I 0 W/m² 2,5 °C 0,8 °C 14,5 km/h (3 Bft)
22.12.2017 16:49 3,4 °C 3,5 °C 94 % 1033,7 hPa 0,0 mm 6,8 km/h (2 Bft) W-SW 253 ° 0 min 0,000 mm 0,0 UV-I 0 W/m² 2,5 °C 1,6 °C 11,3 km/h (2 Bft)
22.12.2017 16:50 3,5 °C 3,5 °C 95 % 1033,7 hPa 0,0 mm 8,7 km/h (2 Bft) W-SW 240 ° 0 min 0,000 mm 0,0 UV-I 0 W/m² 2,8 °C 1,2 °C 12,9 km/h (3 Bft)
22.12.2017 16:51 3,5 °C 3,5 °C 95 % 1033,7 hPa 0,2 mm 7,6 km/h (2 Bft) W-SW 242 ° 0 min 0,000 mm 0,0 UV-I 0 W/m² 2,8 °C 1,5 °C 14,5 km/h (3 Bft)
22.12.2017 16:52 3,5 °C 3,5 °C 94 % 1033,7 hPa 0,0 mm 3,1 km/h (1 Bft) W-SW 242 ° 0 min 0,000 mm 0,0 UV-I 0 W/m² 2,6 °C 3,5 °C 4,8 km/h (1 Bft)
22.12.2017 16:53 3,5 °C 3,5 °C 95 % 1033,7 hPa 0,0 mm 7,6 km/h (2 Bft) W 267 ° 0 min 0,000 mm 0,0 UV-I 0 W/m² 2,8 °C 1,5 °C 12,9 km/h (3 Bft)
22.12.2017 16:54 3,5 °C 3,5 °C 95 % 1033,7 hPa 0,0 mm 6,6 km/h (2 Bft) SW 233 ° 0 min 0,000 mm 0,0 UV-I 0 W/m² 2,8 °C 1,8 °C 12,9 km/h (3 Bft)
22.12.2017 16:55 3,5 °C 3,5 °C 95 % 1033,7 hPa 0,0 mm 4,8 km/h (1 Bft) W 268 ° 0 min 0,000 mm 0,0 UV-I 0 W/m² 2,8 °C 2,5 °C 8,0 km/h (2 Bft)
22.12.2017 16:56 3,5 °C 3,5 °C 95 % 1033,6 hPa 0,0 mm 6,3 km/h (2 Bft) SW 230 ° 0 min 0,000 mm 0,0 UV-I 0 W/m² 2,8 °C 1,9 °C 11,3 km/h (2 Bft)
22.12.2017 16:57 3,6 °C 3,6 °C 95 % 1033,7 hPa 0,0 mm 5,0 km/h (1 Bft) W-SW 240 ° 0 min 0,000 mm 0,0 UV-I 0 W/m² 2,9 °C 2,5 °C 9,7 km/h (2 Bft)
22.12.2017 16:58 3,6 °C 3,6 °C 95 % 1033,6 hPa 0,0 mm 5,9 km/h (2 Bft) W-SW 243 ° 0 min 0,000 mm 0,0 UV-I 0 W/m² 2,9 °C 2,1 °C 9,7 km/h (2 Bft)
22.12.2017 16:59 3,6 °C 3,6 °C 95 % 1033,6 hPa 0,0 mm 6,5 km/h (2 Bft) W 269 ° 0 min 0,000 mm 0,0 UV-I 0 W/m² 2,9 °C 1,9 °C 11,3 km/h (2 Bft)
22.12.2017 17:00 3,6 °C 3,6 °C 95 % 1033,6 hPa 0,2 mm 5,8 km/h (2 Bft) W 275 ° 0 min 0,000 mm 0,0 UV-I 0 W/m² 2,9 °C 2,2 °C 12,9 km/h (3 Bft)
22.12.2017 17:01 3,6 °C 3,6 °C 95 % 1033,6 hPa 0,0 mm 7,7 km/h (2 Bft) SW 231 ° 0 min 0,000 mm 0,0 UV-I 0 W/m² 2,9 °C 1,6 °C 12,9 km/h (3 Bft)
22.12.2017 17:02 3,6 °C 3,6 °C 95 % 1033,6 hPa 0,0 mm 4,8 km/h (1 Bft) W-SW 250 ° 0 min 0,000 mm 0,0 UV-I 0 W/m² 2,9 °C 2,6 °C 8,0 km/h (2 Bft)
22.12.2017 17:03 3,6 °C 3,6 °C 95 % 1033,6 hPa 0,0 mm 8,5 km/h (2 Bft) W-SW 251 ° 0 min 0,000 mm 0,0 UV-I 0 W/m² 2,9 °C 1,4 °C 14,5 km/h (3 Bft)
22.12.2017 17:04 3,6 °C 3,6 °C 95 % 1033,6 hPa 0,0 mm 4,3 km/h (1 Bft) W 265 ° 0 min 0,000 mm 0,0 UV-I 0 W/m² 2,9 °C 3,6 °C 9,7 km/h (2 Bft)
22.12.2017 17:05 3,6 °C 3,6 °C 95 % 1033,6 hPa 0,0 mm 5,8 km/h (2 Bft) SW 236 ° 0 min 0,000 mm 0,0 UV-I 0 W/m² 2,9 °C 2,2 °C 9,7 km/h (2 Bft)
22.12.2017 17:06 3,6 °C 3,6 °C 95 % 1033,6 hPa 0,0 mm 5,3 km/h (1 Bft) W-SW 238 ° 0 min 0,000 mm 0,0 UV-I 0 W/m² 2,9 °C 2,4 °C 8,0 km/h (2 Bft)
22.12.2017 17:07 3,7 °C 3,7 °C 95 % 1033,5 hPa 0,0 mm 4,9 km/h (1 Bft) W-SW 254 ° 0 min 0,000 mm 0,0 UV-I 0 W/m² 3,0 °C 2,6 °C 8,0 km/h (2 Bft)
22.12.2017 17:08 3,7 °C 3,7 °C 95 % 1033,5 hPa 0,0 mm 5,6 km/h (1 Bft) W-SW 240 ° 0 min 0,000 mm 0,0 UV-I 0 W/m² 3,0 °C 2,4 °C 8,0 km/h (2 Bft)
22.12.2017 17:09 3,6 °C 3,7 °C 95 % 1033,5 hPa 0,0 mm 5,9 km/h (2 Bft) SW 221 ° 0 min 0,000 mm 0,0 UV-I 0 W/m² 2,9 °C 2,1 °C 11,3 km/h (2 Bft)
22.12.2017 17:10 3,7 °C 3,7 °C 95 % 1033,5 hPa 0,0 mm 5,6 km/h (1 Bft) W 260 ° 0 min 0,000 mm 0,0 UV-I 0 W/m² 3,0 °C 2,4 °C 11,3 km/h (2 Bft)
22.12.2017 17:11 3,7 °C 3,7 °C 95 % 1033,5 hPa 0,0 mm 6,0 km/h (2 Bft) SW 231 ° 0 min 0,000 mm 0,0 UV-I 0 W/m² 3,0 °C 2,2 °C 8,0 km/h (2 Bft)
22.12.2017 17:12 3,7 °C 3,7 °C 95 % 1033,4 hPa 0,0 mm 6,2 km/h (2 Bft) W-SW 256 ° 0 min 0,000 mm 0,0 UV-I 0 W/m² 3,0 °C 2,2 °C 12,9 km/h (3 Bft)
22.12.2017 17:13 3,7 °C 3,7 °C 95 % 1033,4 hPa 0,0 mm 8,9 km/h (2 Bft) SW 219 ° 0 min 0,000 mm 0,0 UV-I 0 W/m² 3,0 °C 1,4 °C 14,5 km/h (3 Bft)
22.12.2017 17:14 3,7 °C 3,7 °C 95 % 1033,5 hPa 0,0 mm 7,3 km/h (2 Bft) W 276 ° 0 min 0,000 mm 0,0 UV-I 0 W/m² 3,0 °C 1,8 °C 12,9 km/h (3 Bft)
22.12.2017 17:15 3,7 °C 3,7 °C 95 % 1033,4 hPa 0,0 mm 6,3 km/h (2 Bft) W 272 ° 0 min 0,000 mm 0,0 UV-I 0 W/m² 3,0 °C 2,1 °C 11,3 km/h (2 Bft)
22.12.2017 17:16 3,7 °C 3,7 °C 95 % 1033,5 hPa 0,0 mm 6,4 km/h (2 Bft) W 274 ° 0 min 0,000 mm 0,0 UV-I 0 W/m² 3,0 °C 2,1 °C 9,7 km/h (2 Bft)
22.12.2017 17:17 3,7 °C 3,7 °C 95 % 1033,6 hPa 0,0 mm 7,2 km/h (2 Bft) W 261 ° 0 min 0,000 mm 0,0 UV-I 0 W/m² 3,0 °C 1,8 °C 11,3 km/h (2 Bft)
22.12.2017 17:18 3,7 °C 3,7 °C 95 % 1033,6 hPa 0,0 mm 8,2 km/h (2 Bft) W-SW 254 ° 0 min 0,000 mm 0,0 UV-I 0 W/m² 3,0 °C 1,6 °C 11,3 km/h (2 Bft)
22.12.2017 17:19 3,7 °C 3,8 °C 95 % 1033,6 hPa 0,0 mm 7,0 km/h (2 Bft) W-SW 258 ° 0 min 0,000 mm 0,0 UV-I 0 W/m² 3,0 °C 1,9 °C 14,5 km/h (3 Bft)
22.12.2017 17:20 3,7 °C 3,7 °C 95 % 1033,7 hPa 0,0 mm 6,0 km/h (2 Bft) W-SW 250 ° 0 min 0,000 mm 0,0 UV-I 0 W/m² 3,0 °C 2,2 °C 12,9 km/h (3 Bft)
22.12.2017 17:21 3,7 °C 3,7 °C 95 % 1033,5 hPa 0,0 mm 8,3 km/h (2 Bft) W 259 ° 0 min 0,000 mm 0,0 UV-I 0 W/m² 3,0 °C 1,5 °C 12,9 km/h (3 Bft)
22.12.2017 17:22 3,7 °C 3,7 °C 95 % 1033,5 hPa 0,0 mm 8,4 km/h (2 Bft) W-SW 248 ° 0 min 0,000 mm 0,0 UV-I 0 W/m² 3,0 °C 1,5 °C 14,5 km/h (3 Bft)
22.12.2017 17:23 3,7 °C 3,7 °C 95 % 1033,5 hPa 0,0 mm 5,8 km/h (2 Bft) W 278 ° 0 min 0,000 mm 0,0 UV-I 0 W/m² 3,0 °C 2,3 °C 11,3 km/h (2 Bft)
22.12.2017 17:24 3,7 °C 3,7 °C 95 % 1033,5 hPa 0,0 mm 6,8 km/h (2 Bft) W-SW 250 ° 0 min 0,000 mm 0,0 UV-I 0 W/m² 3,0 °C 2,0 °C 11,3 km/h (2 Bft)
22.12.2017 17:25 3,7 °C 3,7 °C 95 % 1033,5 hPa 0,2 mm 5,2 km/h (1 Bft) W-SW 256 ° 0 min 0,000 mm 0,0 UV-I 0 W/m² 3,0 °C 2,5 °C 12,9 km/h (3 Bft)
22.12.2017 17:26 3,7 °C 3,7 °C 95 % 1033,6 hPa 0,0 mm 5,0 km/h (1 Bft) W-SW 242 ° 0 min 0,000 mm 0,0 UV-I 0 W/m² 3,0 °C 2,6 °C 9,7 km/h (2 Bft)
22.12.2017 17:27 3,7 °C 3,7 °C 95 % 1033,6 hPa 0,0 mm 2,9 km/h (1 Bft) W-SW 254 ° 0 min 0,000 mm 0,0 UV-I 0 W/m² 3,0 °C 3,7 °C 4,8 km/h (1 Bft)
22.12.2017 17:28 3,7 °C 3,7 °C 95 % 1033,5 hPa 0,0 mm 6,4 km/h (2 Bft) W 265 ° 0 min 0,000 mm 0,0 UV-I 0 W/m² 3,0 °C 2,1 °C 12,9 km/h (3 Bft)
22.12.2017 17:29 3,7 °C 3,7 °C 95 % 1033,5 hPa 0,0 mm 11,9 km/h (2 Bft) W 264 ° 0 min 0,000 mm 0,0 UV-I 0 W/m² 3,0 °C 0,7 °C 14,5 km/h (3 Bft)
22.12.2017 17:30 3,7 °C 3,7 °C 95 % 1033,6 hPa 0,0 mm 6,0 km/h (2 Bft) W 262 ° 0 min 0,000 mm 0,0 UV-I 0 W/m² 3,0 °C 2,2 °C 9,7 km/h (2 Bft)
22.12.2017 17:31 3,7 °C 3,7 °C 95 % 1033,6 hPa 0,0 mm 4,4 km/h (1 Bft) W-SW 253 ° 0 min 0,000 mm 0,0 UV-I 0 W/m² 3,0 °C 3,7 °C 6,4 km/h (2 Bft)
22.12.2017 17:32 3,7 °C 3,7 °C 95 % 1033,6 hPa 0,0 mm 6,2 km/h (2 Bft) W-SW 254 ° 0 min 0,000 mm 0,0 UV-I 0 W/m² 3,0 °C 2,2 °C 9,7 km/h (2 Bft)
22.12.2017 17:33 3,7 °C 3,7 °C 95 % 1033,6 hPa 0,0 mm 5,9 km/h (2 Bft) W 265 ° 0 min 0,000 mm 0,0 UV-I 0 W/m² 3,0 °C 2,3 °C 11,3 km/h (2 Bft)
22.12.2017 17:34 3,7 °C 3,7 °C 95 % 1033,7 hPa 0,0 mm 7,3 km/h (2 Bft) W 263 ° 0 min 0,000 mm 0,0 UV-I 0 W/m² 3,0 °C 1,8 °C 11,3 km/h (2 Bft)
22.12.2017 17:35 3,7 °C 3,7 °C 95 % 1033,6 hPa 0,0 mm 2,5 km/h (1 Bft) W 263 ° 0 min 0,000 mm 0,0 UV-I 0 W/m² 3,0 °C 3,7 °C 3,2 km/h (1 Bft)
22.12.2017 17:36 3,6 °C 3,7 °C 95 % 1033,7 hPa 0,0 mm 5,7 km/h (1 Bft) W 259 ° 0 min 0,000 mm 0,0 UV-I 0 W/m² 2,9 °C 2,2 °C 6,4 km/h (2 Bft)
22.12.2017 17:37 3,6 °C 3,6 °C 95 % 1033,7 hPa 0,0 mm 7,2 km/h (2 Bft) W 264 ° 0 min 0,000 mm 0,0 UV-I 0 W/m² 2,9 °C 1,7 °C 11,3 km/h (2 Bft)
22.12.2017 17:38 3,6 °C 3,6 °C 95 % 1033,7 hPa 0,0 mm 5,8 km/h (2 Bft) W 267 ° 0 min 0,000 mm 0,0 UV-I 0 W/m² 2,9 °C 2,2 °C 9,7 km/h (2 Bft)
22.12.2017 17:39 3,6 °C 3,6 °C 95 % 1033,8 hPa 0,0 mm 3,8 km/h (1 Bft) W 269 ° 0 min 0,000 mm 0,0 UV-I 0 W/m² 2,9 °C 3,6 °C 6,4 km/h (2 Bft)
22.12.2017 17:40 3,6 °C 3,6 °C 95 % 1033,8 hPa 0,0 mm 6,6 km/h (2 Bft) W 266 ° 0 min 0,000 mm 0,0 UV-I 0 W/m² 2,9 °C 1,9 °C 9,7 km/h (2 Bft)
22.12.2017 17:41 3,6 °C 3,6 °C 95 % 1033,9 hPa 0,0 mm 6,2 km/h (2 Bft) W 280 ° 0 min 0,000 mm 0,0 UV-I 0 W/m² 2,9 °C 2,0 °C 9,7 km/h (2 Bft)
22.12.2017 17:42 3,6 °C 3,6 °C 95 % 1033,9 hPa 0,0 mm 4,8 km/h (1 Bft) W-SW 257 ° 0 min 0,000 mm 0,0 UV-I 0 W/m² 2,9 °C 2,6 °C 6,4 km/h (2 Bft)
22.12.2017 17:43 3,6 °C 3,6 °C 95 % 1033,9 hPa 0,0 mm 4,5 km/h (1 Bft) W-SW 253 ° 0 min 0,000 mm 0,0 UV-I 0 W/m² 2,9 °C 3,6 °C 6,4 km/h (2 Bft)
22.12.2017 17:44 3,6 °C 3,6 °C 95 % 1033,9 hPa 0,0 mm 5,0 km/h (1 Bft) W-SW 252 ° 0 min 0,000 mm 0,0 UV-I 0 W/m² 2,9 °C 2,5 °C 6,4 km/h (2 Bft)
22.12.2017 17:45 3,6 °C 3,6 °C 95 % 1034,0 hPa 0,0 mm 8,6 km/h (2 Bft) W-NW 284 ° 0 min 0,000 mm 0,0 UV-I 0 W/m² 2,9 °C 1,3 °C 11,3 km/h (2 Bft)
22.12.2017 17:46 3,6 °C 3,6 °C 95 % 1034,0 hPa 0,0 mm 4,4 km/h (1 Bft) W 264 ° 0 min 0,000 mm 0,0 UV-I 0 W/m² 2,9 °C 3,6 °C 9,7 km/h (2 Bft)
22.12.2017 17:47 3,6 °C 3,6 °C 95 % 1033,9 hPa 0,0 mm 4,9 km/h (1 Bft) W 262 ° 0 min 0,000 mm 0,0 UV-I 0 W/m² 2,9 °C 2,5 °C 6,4 km/h (2 Bft)
22.12.2017 17:48 3,6 °C 3,6 °C 95 % 1034,0 hPa 0,0 mm 5,8 km/h (2 Bft) W-SW 253 ° 0 min 0,000 mm 0,0 UV-I 0 W/m² 2,9 °C 2,2 °C 11,3 km/h (2 Bft)
22.12.2017 17:49 3,6 °C 3,6 °C 95 % 1034,1 hPa 0,0 mm 9,1 km/h (2 Bft) W-NW 301 ° 0 min 0,000 mm 0,0 UV-I 0 W/m² 2,9 °C 1,2 °C 14,5 km/h (3 Bft)
22.12.2017 17:50 3,6 °C 3,6 °C 95 % 1034,1 hPa 0,0 mm 5,1 km/h (1 Bft) W 265 ° 0 min 0,000 mm 0,0 UV-I 0 W/m² 2,9 °C 2,5 °C 9,7 km/h (2 Bft)
22.12.2017 17:51 3,6 °C 3,6 °C 95 % 1034,1 hPa 0,0 mm 5,6 km/h (1 Bft) W 273 ° 0 min 0,000 mm 0,0 UV-I 0 W/m² 2,9 °C 2,3 °C 9,7 km/h (2 Bft)
22.12.2017 17:52 3,6 °C 3,6 °C 95 % 1034,1 hPa 0,0 mm 6,5 km/h (2 Bft) W 259 ° 0 min 0,000 mm 0,0 UV-I 0 W/m² 2,9 °C 1,9 °C 11,3 km/h (2 Bft)
22.12.2017 17:53 3,6 °C 3,6 °C 95 % 1034,1 hPa 0,0 mm 10,5 km/h (2 Bft) W 261 ° 0 min 0,000 mm 0,0 UV-I 0 W/m² 2,9 °C 0,9 °C 14,5 km/h (3 Bft)
22.12.2017 17:54 3,6 °C 3,6 °C 95 % 1034,1 hPa 0,0 mm 7,7 km/h (2 Bft) W-NW 284 ° 0 min 0,000 mm 0,0 UV-I 0 W/m² 2,9 °C 1,6 °C 12,9 km/h (3 Bft)
22.12.2017 17:55 3,6 °C 3,6 °C 95 % 1034,1 hPa 0,0 mm 7,0 km/h (2 Bft) W 261 ° 0 min 0,000 mm 0,0 UV-I 0 W/m² 2,9 °C 1,8 °C 11,3 km/h (2 Bft)
22.12.2017 17:56 3,6 °C 3,6 °C 95 % 1034,1 hPa 0,0 mm 6,0 km/h (2 Bft) W-SW 258 ° 0 min 0,000 mm 0,0 UV-I 0 W/m² 2,9 °C 2,1 °C 9,7 km/h (2 Bft)
22.12.2017 17:57 3,6 °C 3,6 °C 95 % 1034,0 hPa 0,0 mm 7,4 km/h (2 Bft) W 264 ° 0 min 0,000 mm 0,0 UV-I 0 W/m² 2,9 °C 1,7 °C 9,7 km/h (2 Bft)
22.12.2017 17:58 3,6 °C 3,6 °C 95 % 1034,1 hPa 0,0 mm 9,7 km/h (2 Bft) W-SW 257 ° 0 min 0,000 mm 0,0 UV-I 0 W/m² 2,9 °C 1,1 °C 12,9 km/h (3 Bft)
22.12.2017 17:59 3,6 °C 3,6 °C 95 % 1034,0 hPa 0,0 mm 8,9 km/h (2 Bft) W 267 ° 0 min 0,000 mm 0,0 UV-I 0 W/m² 2,9 °C 1,3 °C 12,9 km/h (3 Bft)
22.12.2017 18:00 3,6 °C 3,6 °C 95 % 1034,0 hPa 0,2 mm 5,2 km/h (1 Bft) W-SW 258 ° 0 min 0,000 mm 0,0 UV-I 0 W/m² 2,9 °C 2,4 °C 9,7 km/h (2 Bft)
22.12.2017 18:01 3,6 °C 3,6 °C 95 % 1034,0 hPa 0,0 mm 10,3 km/h (2 Bft) W 263 ° 0 min 0,000 mm 0,0 UV-I 0 W/m² 2,9 °C 0,9 °C 14,5 km/h (3 Bft)
22.12.2017 18:02 3,6 °C 3,6 °C 95 % 1034,0 hPa 0,0 mm 8,2 km/h (2 Bft) W 267 ° 0 min 0,000 mm 0,0 UV-I 0 W/m² 2,9 °C 1,4 °C 11,3 km/h (2 Bft)
22.12.2017 18:03 3,6 °C 3,6 °C 95 % 1034,0 hPa 0,0 mm 5,5 km/h (1 Bft) W 263 ° 0 min 0,000 mm 0,0 UV-I 0 W/m² 2,9 °C 2,3 °C 8,0 km/h (2 Bft)
22.12.2017 18:04 3,6 °C 3,6 °C 95 % 1034,0 hPa 0,0 mm 5,9 km/h (2 Bft) W 260 ° 0 min 0,000 mm 0,0 UV-I 0 W/m² 2,9 °C 2,1 °C 9,7 km/h (2 Bft)
22.12.2017 18:05 3,6 °C 3,6 °C 95 % 1034,1 hPa 0,0 mm 11,5 km/h (2 Bft) W 267 ° 0 min 0,000 mm 0,0 UV-I 0 W/m² 2,9 °C 0,7 °C 16,1 km/h (3 Bft)
22.12.2017 18:06 3,6 °C 3,6 °C 95 % 1034,0 hPa 0,0 mm 5,7 km/h (1 Bft) SW 229 ° 0 min 0,000 mm 0,0 UV-I 0 W/m² 2,9 °C 2,2 °C 8,0 km/h (2 Bft)
22.12.2017 18:07 3,6 °C 3,6 °C 95 % 1034,0 hPa 0,0 mm 7,7 km/h (2 Bft) W-SW 248 ° 0 min 0,000 mm 0,0 UV-I 0 W/m² 2,9 °C 1,6 °C 12,9 km/h (3 Bft)
22.12.2017 18:08 3,6 °C 3,6 °C 95 % 1034,0 hPa 0,0 mm 8,0 km/h (2 Bft) W-SW 255 ° 0 min 0,000 mm 0,0 UV-I 0 W/m² 2,9 °C 1,5 °C 12,9 km/h (3 Bft)
22.12.2017 18:09 3,6 °C 3,6 °C 95 % 1034,0 hPa 0,0 mm 5,4 km/h (1 Bft) W-SW 254 ° 0 min 0,000 mm 0,0 UV-I 0 W/m² 2,9 °C 2,3 °C 11,3 km/h (2 Bft)
22.12.2017 18:10 3,5 °C 3,6 °C 95 % 1034,0 hPa 0,0 mm 6,4 km/h (2 Bft) W-NW 290 ° 0 min 0,000 mm 0,0 UV-I 0 W/m² 2,8 °C 1,9 °C 11,3 km/h (2 Bft)
22.12.2017 18:11 3,6 °C 3,6 °C 95 % 1034,0 hPa 0,0 mm 6,6 km/h (2 Bft) W 275 ° 0 min 0,000 mm 0,0 UV-I 0 W/m² 2,9 °C 1,9 °C 14,5 km/h (3 Bft)
22.12.2017 18:12 3,6 °C 3,6 °C 95 % 1034,0 hPa 0,0 mm 7,3 km/h (2 Bft) W 275 ° 0 min 0,000 mm 0,0 UV-I 0 W/m² 2,9 °C 1,7 °C 12,9 km/h (3 Bft)
22.12.2017 18:13 3,6 °C 3,6 °C 95 % 1034,1 hPa 0,0 mm 8,0 km/h (2 Bft) W-SW 253 ° 0 min 0,000 mm 0,0 UV-I 0 W/m² 2,9 °C 1,5 °C 11,3 km/h (2 Bft)
22.12.2017 18:14 3,6 °C 3,6 °C 95 % 1034,0 hPa 0,2 mm 5,4 km/h (1 Bft) W 263 ° 0 min 0,000 mm 0,0 UV-I 0 W/m² 2,9 °C 2,3 °C 11,3 km/h (2 Bft)
22.12.2017 18:15 3,5 °C 3,6 °C 95 % 1034,0 hPa 0,0 mm 10,2 km/h (2 Bft) W 260 ° 0 min 0,000 mm 0,0 UV-I 0 W/m² 2,8 °C 0,8 °C 12,9 km/h (3 Bft)
22.12.2017 18:16 3,6 °C 3,6 °C 95 % 1034,1 hPa 0,0 mm 4,6 km/h (1 Bft) W-SW 242 ° 0 min 0,000 mm 0,0 UV-I 0 W/m² 2,9 °C 2,7 °C 9,7 km/h (2 Bft)
22.12.2017 18:17 3,6 °C 3,6 °C 95 % 1034,1 hPa 0,0 mm 6,1 km/h (2 Bft) W 263 ° 0 min 0,000 mm 0,0 UV-I 0 W/m² 2,9 °C 2,1 °C 11,3 km/h (2 Bft)
22.12.2017 18:18 3,5 °C 3,6 °C 95 % 1034,0 hPa 0,0 mm 7,8 km/h (2 Bft) W 268 ° 0 min 0,000 mm 0,0 UV-I 0 W/m² 2,8 °C 1,4 °C 11,3 km/h (2 Bft)
22.12.2017 18:19 3,6 °C 3,6 °C 95 % 1034,0 hPa 0,0 mm 9,9 km/h (2 Bft) W-NW 302 ° 0 min 0,000 mm 0,0 UV-I 0 W/m² 2,9 °C 1,0 °C 14,5 km/h (3 Bft)
22.12.2017 18:20 3,6 °C 3,6 °C 95 % 1034,0 hPa 0,0 mm 3,7 km/h (1 Bft) W-SW 246 ° 0 min 0,000 mm 0,0 UV-I 0 W/m² 2,9 °C 3,6 °C 4,8 km/h (1 Bft)
22.12.2017 18:21 3,6 °C 3,6 °C 95 % 1034,0 hPa 0,0 mm 5,2 km/h (1 Bft) W-SW 257 ° 0 min 0,000 mm 0,0 UV-I 0 W/m² 2,9 °C 2,4 °C 9,7 km/h (2 Bft)
22.12.2017 18:22 3,6 °C 3,6 °C 95 % 1034,0 hPa 0,0 mm 4,0 km/h (1 Bft) W-SW 254 ° 0 min 0,000 mm 0,0 UV-I 0 W/m² 2,9 °C 3,6 °C 8,0 km/h (2 Bft)
22.12.2017 18:23 3,6 °C 3,6 °C 95 % 1034,0 hPa 0,0 mm 4,5 km/h (1 Bft) W 263 ° 0 min 0,000 mm 0,0 UV-I 0 W/m² 2,9 °C 3,6 °C 6,4 km/h (2 Bft)
22.12.2017 18:24 3,6 °C 3,6 °C 95 % 1034,0 hPa 0,0 mm 4,9 km/h (1 Bft) W 265 ° 0 min 0,000 mm 0,0 UV-I 0 W/m² 2,9 °C 2,5 °C 9,7 km/h (2 Bft)
22.12.2017 18:25 3,6 °C 3,6 °C 95 % 1034,0 hPa 0,0 mm 5,1 km/h (1 Bft) SW 230 ° 0 min 0,000 mm 0,0 UV-I 0 W/m² 2,9 °C 2,5 °C 6,4 km/h (2 Bft)
22.12.2017 18:26 3,6 °C 3,6 °C 95 % 1034,0 hPa 0,0 mm 4,4 km/h (1 Bft) W-SW 246 ° 0 min 0,000 mm 0,0 UV-I 0 W/m² 2,9 °C 3,6 °C 6,4 km/h (2 Bft)
22.12.2017 18:27 3,6 °C 3,6 °C 95 % 1034,0 hPa 0,0 mm 5,0 km/h (1 Bft) W-SW 250 ° 0 min 0,000 mm 0,0 UV-I 0 W/m² 2,9 °C 2,5 °C 8,0 km/h (2 Bft)
22.12.2017 18:28 3,6 °C 3,6 °C 95 % 1034,0 hPa 0,0 mm 6,5 km/h (2 Bft) W 264 ° 0 min 0,000 mm 0,0 UV-I 0 W/m² 2,9 °C 1,9 °C 11,3 km/h (2 Bft)
22.12.2017 18:29 3,6 °C 3,6 °C 95 % 1034,0 hPa 0,0 mm 5,7 km/h (1 Bft) W 265 ° 0 min 0,000 mm 0,0 UV-I 0 W/m² 2,9 °C 2,2 °C 17,7 km/h (3 Bft)
22.12.2017 18:30 3,6 °C 3,6 °C 95 % 1034,0 hPa 0,0 mm 9,9 km/h (2 Bft) W-SW 242 ° 0 min 0,000 mm 0,0 UV-I 0 W/m² 2,9 °C 1,0 °C 20,9 km/h (4 Bft)
22.12.2017 18:31 3,6 °C 3,6 °C 95 % 1034,0 hPa 0,0 mm 5,6 km/h (1 Bft) W 261 ° 0 min 0,000 mm 0,0 UV-I 0 W/m² 2,9 °C 2,3 °C 12,9 km/h (3 Bft)
22.12.2017 18:32 3,6 °C 3,6 °C 95 % 1034,0 hPa 0,0 mm 11,7 km/h (2 Bft) W-SW 241 ° 0 min 0,000 mm 0,0 UV-I 0 W/m² 2,9 °C 0,6 °C 19,3 km/h (3 Bft)
22.12.2017 18:33 3,6 °C 3,6 °C 95 % 1034,1 hPa 0,0 mm 4,3 km/h (1 Bft) W-SW 248 ° 0 min 0,000 mm 0,0 UV-I 0 W/m² 2,9 °C 3,6 °C 8,0 km/h (2 Bft)
22.12.2017 18:34 3,6 °C 3,6 °C 95 % 1034,1 hPa 0,0 mm 4,6 km/h (1 Bft) W 275 ° 0 min 0,000 mm 0,0 UV-I 0 W/m² 2,9 °C 2,7 °C 9,7 km/h (2 Bft)
22.12.2017 18:35 3,6 °C 3,6 °C 95 % 1034,1 hPa 0,2 mm 6,2 km/h (2 Bft) W-SW 243 ° 0 min 0,000 mm 0,0 UV-I 0 W/m² 2,9 °C 2,0 °C 9,7 km/h (2 Bft)
22.12.2017 18:36 3,6 °C 3,6 °C 95 % 1034,0 hPa 0,0 mm 9,6 km/h (2 Bft) W-SW 258 ° 0 min 0,000 mm 0,0 UV-I 0 W/m² 2,9 °C 1,1 °C 12,9 km/h (3 Bft)
22.12.2017 18:37 3,6 °C 3,6 °C 95 % 1034,0 hPa 0,0 mm 8,5 km/h (2 Bft) W-SW 252 ° 0 min 0,000 mm 0,0 UV-I 0 W/m² 2,9 °C 1,4 °C 11,3 km/h (2 Bft)
22.12.2017 18:38 3,6 °C 3,6 °C 95 % 1034,0 hPa 0,0 mm 10,3 km/h (2 Bft) W 262 ° 0 min 0,000 mm 0,0 UV-I 0 W/m² 2,9 °C 0,9 °C 12,9 km/h (3 Bft)
22.12.2017 18:39 3,6 °C 3,6 °C 95 % 1034,0 hPa 0,0 mm 6,4 km/h (2 Bft) SW 229 ° 0 min 0,000 mm 0,0 UV-I 0 W/m² 2,9 °C 2,0 °C 12,9 km/h (3 Bft)
22.12.2017 18:40 3,6 °C 3,6 °C 95 % 1034,0 hPa 0,0 mm 4,1 km/h (1 Bft) W 265 ° 0 min 0,000 mm 0,0 UV-I 0 W/m² 2,9 °C 3,6 °C 6,4 km/h (2 Bft)
22.12.2017 18:41 3,6 °C 3,6 °C 95 % 1034,0 hPa 0,0 mm 3,1 km/h (1 Bft) W-SW 254 ° 0 min 0,000 mm 0,0 UV-I 0 W/m² 2,9 °C 3,6 °C 4,8 km/h (1 Bft)
22.12.2017 18:42 3,6 °C 3,6 °C 95 % 1034,0 hPa 0,0 mm 6,1 km/h (2 Bft) W-SW 238 ° 0 min 0,000 mm 0,0 UV-I 0 W/m² 2,9 °C 2,1 °C 11,3 km/h (2 Bft)
22.12.2017 18:43 3,6 °C 3,6 °C 95 % 1034,1 hPa 0,0 mm 3,9 km/h (1 Bft) SW 229 ° 0 min 0,000 mm 0,0 UV-I 0 W/m² 2,9 °C 3,6 °C 4,8 km/h (1 Bft)
22.12.2017 18:44 3,6 °C 3,6 °C 95 % 1034,1 hPa 0,0 mm 3,6 km/h (1 Bft) SW 229 ° 0 min 0,000 mm 0,0 UV-I 0 W/m² 2,9 °C 3,6 °C 4,8 km/h (1 Bft)
22.12.2017 18:45 3,6 °C 3,6 °C 95 % 1034,1 hPa 0,0 mm 10,2 km/h (2 Bft) W 275 ° 0 min 0,000 mm 0,0 UV-I 0 W/m² 2,9 °C 0,9 °C 14,5 km/h (3 Bft)
22.12.2017 18:46 3,6 °C 3,6 °C 95 % 1034,1 hPa 0,0 mm 9,3 km/h (2 Bft) W-NW 292 ° 0 min 0,000 mm 0,0 UV-I 0 W/m² 2,9 °C 1,2 °C 16,1 km/h (3 Bft)
22.12.2017 18:47 3,6 °C 3,6 °C 95 % 1034,0 hPa 0,0 mm 8,6 km/h (2 Bft) W 261 ° 0 min 0,000 mm 0,0 UV-I 0 W/m² 2,9 °C 1,3 °C 14,5 km/h (3 Bft)
22.12.2017 18:48 3,6 °C 3,6 °C 95 % 1034,1 hPa 0,0 mm 6,5 km/h (2 Bft) W-SW 252 ° 0 min 0,000 mm 0,0 UV-I 0 W/m² 2,9 °C 1,9 °C 11,3 km/h (2 Bft)
22.12.2017 18:49 3,6 °C 3,6 °C 95 % 1034,1 hPa 0,0 mm 6,2 km/h (2 Bft) W 262 ° 0 min 0,000 mm 0,0 UV-I 0 W/m² 2,9 °C 2,0 °C 9,7 km/h (2 Bft)
22.12.2017 18:50 3,6 °C 3,6 °C 95 % 1034,1 hPa 0,0 mm 4,8 km/h (1 Bft) SW 234 ° 0 min 0,000 mm 0,0 UV-I 0 W/m² 2,9 °C 2,6 °C 9,7 km/h (2 Bft)
22.12.2017 18:51 3,6 °C 3,6 °C 95 % 1034,1 hPa 0,0 mm 4,6 km/h (1 Bft) SW 234 ° 0 min 0,000 mm 0,0 UV-I 0 W/m² 2,9 °C 2,7 °C 6,4 km/h (2 Bft)
22.12.2017 18:52 3,6 °C 3,6 °C 95 % 1034,1 hPa 0,0 mm 7,0 km/h (2 Bft) W 263 ° 0 min 0,000 mm 0,0 UV-I 0 W/m² 2,9 °C 1,8 °C 12,9 km/h (3 Bft)
22.12.2017 18:53 3,6 °C 3,6 °C 95 % 1034,1 hPa 0,0 mm 4,9 km/h (1 Bft) W-SW 244 ° 0 min 0,000 mm 0,0 UV-I 0 W/m² 2,9 °C 2,5 °C 6,4 km/h (2 Bft)
22.12.2017 18:54 3,6 °C 3,6 °C 95 % 1034,1 hPa 0,0 mm 3,2 km/h (1 Bft) W-SW 253 ° 0 min 0,000 mm 0,0 UV-I 0 W/m² 2,9 °C 3,6 °C 6,4 km/h (2 Bft)
22.12.2017 18:55 3,6 °C 3,6 °C 95 % 1034,1 hPa 0,0 mm 3,7 km/h (1 Bft) W-SW 252 ° 0 min 0,000 mm 0,0 UV-I 0 W/m² 2,9 °C 3,6 °C 4,8 km/h (1 Bft)
22.12.2017 18:56 3,6 °C 3,6 °C 95 % 1034,1 hPa 0,0 mm 4,3 km/h (1 Bft) W 259 ° 0 min 0,000 mm 0,0 UV-I 0 W/m² 2,9 °C 3,6 °C 9,7 km/h (2 Bft)
22.12.2017 18:57 3,6 °C 3,6 °C 95 % 1034,1 hPa 0,0 mm 5,0 km/h (1 Bft) W-SW 253 ° 0 min 0,000 mm 0,0 UV-I 0 W/m² 2,9 °C 2,5 °C 11,3 km/h (2 Bft)
22.12.2017 18:58 3,6 °C 3,6 °C 95 % 1034,1 hPa 0,0 mm 8,0 km/h (2 Bft) W-SW 248 ° 0 min 0,000 mm 0,0 UV-I 0 W/m² 2,9 °C 1,5 °C 11,3 km/h (2 Bft)
22.12.2017 18:59 3,6 °C 3,6 °C 95 % 1034,2 hPa 0,0 mm 3,1 km/h (1 Bft) W-SW 248 ° 0 min 0,000 mm 0,0 UV-I 0 W/m² 2,9 °C 3,6 °C 4,8 km/h (1 Bft)
22.12.2017 19:00 3,6 °C 3,6 °C 95 % 1034,2 hPa 0,0 mm 6,7 km/h (2 Bft) W 265 ° 0 min 0,000 mm 0,0 UV-I 0 W/m² 2,9 °C 1,9 °C 9,7 km/h (2 Bft)
22.12.2017 19:01 3,6 °C 3,6 °C 95 % 1034,2 hPa 0,0 mm 6,7 km/h (2 Bft) W 261 ° 0 min 0,000 mm 0,0 UV-I 0 W/m² 2,9 °C 1,9 °C 9,7 km/h (2 Bft)
22.12.2017 19:02 3,6 °C 3,6 °C 95 % 1034,2 hPa 0,0 mm 6,5 km/h (2 Bft) W-SW 239 ° 0 min 0,000 mm 0,0 UV-I 0 W/m² 2,9 °C 1,9 °C 9,7 km/h (2 Bft)
22.12.2017 19:03 3,6 °C 3,6 °C 95 % 1034,2 hPa 0,0 mm 5,5 km/h (1 Bft) W-SW 256 ° 0 min 0,000 mm 0,0 UV-I 0 W/m² 2,9 °C 2,3 °C 9,7 km/h (2 Bft)
22.12.2017 19:04 3,6 °C 3,6 °C 95 % 1034,2 hPa 0,0 mm 8,1 km/h (2 Bft) W 271 ° 0 min 0,000 mm 0,0 UV-I 0 W/m² 2,9 °C 1,5 °C 12,9 km/h (3 Bft)
22.12.2017 19:05 3,6 °C 3,6 °C 95 % 1034,2 hPa 0,0 mm 4,6 km/h (1 Bft) W 280 ° 0 min 0,000 mm 0,0 UV-I 0 W/m² 2,9 °C 2,7 °C 6,4 km/h (2 Bft)
22.12.2017 19:06 3,6 °C 3,6 °C 95 % 1034,2 hPa 0,0 mm 4,9 km/h (1 Bft) W 265 ° 0 min 0,000 mm 0,0 UV-I 0 W/m² 2,9 °C 2,5 °C 9,7 km/h (2 Bft)
22.12.2017 19:07 3,6 °C 3,6 °C 95 % 1034,2 hPa 0,0 mm 5,8 km/h (2 Bft) SW 232 ° 0 min 0,000 mm 0,0 UV-I 0 W/m² 2,9 °C 2,2 °C 11,3 km/h (2 Bft)
22.12.2017 19:08 3,6 °C 3,6 °C 95 % 1034,3 hPa 0,0 mm 6,2 km/h (2 Bft) W 271 ° 0 min 0,000 mm 0,0 UV-I 0 W/m² 2,9 °C 2,0 °C 12,9 km/h (3 Bft)
22.12.2017 19:09 3,7 °C 3,7 °C 95 % 1034,3 hPa 0,0 mm 6,2 km/h (2 Bft) W-NW 284 ° 0 min 0,000 mm 0,0 UV-I 0 W/m² 3,0 °C 2,2 °C 9,7 km/h (2 Bft)
22.12.2017 19:10 3,6 °C 3,7 °C 95 % 1034,3 hPa 0,0 mm 4,9 km/h (1 Bft) W 271 ° 0 min 0,000 mm 0,0 UV-I 0 W/m² 2,9 °C 2,5 °C 8,0 km/h (2 Bft)
22.12.2017 19:11 3,7 °C 3,7 °C 95 % 1034,3 hPa 0,0 mm 6,4 km/h (2 Bft) W-SW 250 ° 0 min 0,000 mm 0,0 UV-I 0 W/m² 3,0 °C 2,1 °C 11,3 km/h (2 Bft)
22.12.2017 19:12 3,6 °C 3,7 °C 95 % 1034,3 hPa 0,0 mm 9,5 km/h (2 Bft) W-SW 258 ° 0 min 0,000 mm 0,0 UV-I 0 W/m² 2,9 °C 1,1 °C 12,9 km/h (3 Bft)
22.12.2017 19:13 3,7 °C 3,7 °C 95 % 1034,3 hPa 0,0 mm 5,3 km/h (1 Bft) W-SW 257 ° 0 min 0,000 mm 0,0 UV-I 0 W/m² 3,0 °C 2,5 °C 8,0 km/h (2 Bft)
22.12.2017 19:14 3,7 °C 3,7 °C 95 % 1034,3 hPa 0,0 mm 5,4 km/h (1 Bft) W 263 ° 0 min 0,000 mm 0,0 UV-I 0 W/m² 3,0 °C 2,4 °C 9,7 km/h (2 Bft)
22.12.2017 19:15 3,7 °C 3,7 °C 95 % 1034,3 hPa 0,2 mm 4,4 km/h (1 Bft) W 262 ° 0 min 0,000 mm 0,0 UV-I 0 W/m² 3,0 °C 3,7 °C 9,7 km/h (2 Bft)
22.12.2017 19:16 3,7 °C 3,7 °C 95 % 1034,4 hPa 0,0 mm 5,1 km/h (1 Bft) W 259 ° 0 min 0,000 mm 0,0 UV-I 0 W/m² 3,0 °C 2,6 °C 8,0 km/h (2 Bft)
22.12.2017 19:17 3,7 °C 3,7 °C 95 % 1034,3 hPa 0,0 mm 8,5 km/h (2 Bft) W-SW 238 ° 0 min 0,000 mm 0,0 UV-I 0 W/m² 3,0 °C 1,5 °C 12,9 km/h (3 Bft)
22.12.2017 19:18 3,7 °C 3,7 °C 95 % 1034,3 hPa 0,0 mm 8,1 km/h (2 Bft) W 259 ° 0 min 0,000 mm 0,0 UV-I 0 W/m² 3,0 °C 1,6 °C 12,9 km/h (3 Bft)
22.12.2017 19:19 3,7 °C 3,7 °C 95 % 1034,3 hPa 0,0 mm 11,3 km/h (2 Bft) W-SW 254 ° 0 min 0,000 mm 0,0 UV-I 0 W/m² 3,0 °C 0,8 °C 14,5 km/h (3 Bft)
22.12.2017 19:20 3,7 °C 3,7 °C 95 % 1034,3 hPa 0,0 mm 7,6 km/h (2 Bft) W-SW 248 ° 0 min 0,000 mm 0,0 UV-I 0 W/m² 3,0 °C 1,7 °C 11,3 km/h (2 Bft)
22.12.2017 19:21 3,7 °C 3,7 °C 95 % 1034,3 hPa 0,0 mm 7,1 km/h (2 Bft) W-SW 254 ° 0 min 0,000 mm 0,0 UV-I 0 W/m² 3,0 °C 1,9 °C 12,9 km/h (3 Bft)
22.12.2017 19:22 3,7 °C 3,7 °C 95 % 1034,4 hPa 0,0 mm 2,3 km/h (1 Bft) W-SW 256 ° 0 min 0,000 mm 0,0 UV-I 0 W/m² 3,0 °C 3,7 °C 4,8 km/h (1 Bft)
22.12.2017 19:23 3,7 °C 3,7 °C 95 % 1034,4 hPa 0,0 mm 7,0 km/h (2 Bft) W 271 ° 0 min 0,000 mm 0,0 UV-I 0 W/m² 3,0 °C 1,9 °C 14,5 km/h (3 Bft)
22.12.2017 19:24 3,7 °C 3,7 °C 95 % 1034,4 hPa 0,0 mm 8,5 km/h (2 Bft) W 263 ° 0 min 0,000 mm 0,0 UV-I 0 W/m² 3,0 °C 1,5 °C 12,9 km/h (3 Bft)
22.12.2017 19:25 3,7 °C 3,7 °C 95 % 1034,5 hPa 0,0 mm 5,8 km/h (2 Bft) W 260 ° 0 min 0,000 mm 0,0 UV-I 0 W/m² 3,0 °C 2,3 °C 6,4 km/h (2 Bft)
22.12.2017 19:26 3,7 °C 3,7 °C 95 % 1034,5 hPa 0,0 mm 5,0 km/h (1 Bft) W 267 ° 0 min 0,000 mm 0,0 UV-I 0 W/m² 3,0 °C 2,6 °C 6,4 km/h (2 Bft)
22.12.2017 19:27 3,7 °C 3,7 °C 95 % 1034,5 hPa 0,0 mm 6,0 km/h (2 Bft) W-SW 244 ° 0 min 0,000 mm 0,0 UV-I 0 W/m² 3,0 °C 2,2 °C 9,7 km/h (2 Bft)
22.12.2017 19:28 3,7 °C 3,7 °C 95 % 1034,5 hPa 0,0 mm 9,5 km/h (2 Bft) W 267 ° 0 min 0,000 mm 0,0 UV-I 0 W/m² 3,0 °C 1,2 °C 14,5 km/h (3 Bft)
22.12.2017 19:29 3,7 °C 3,7 °C 95 % 1034,5 hPa 0,0 mm 5,0 km/h (1 Bft) W 262 ° 0 min 0,000 mm 0,0 UV-I 0 W/m² 3,0 °C 2,6 °C 12,9 km/h (3 Bft)
22.12.2017 19:30 3,6 °C 3,7 °C 95 % 1034,5 hPa 0,0 mm 8,6 km/h (2 Bft) W 262 ° 0 min 0,000 mm 0,0 UV-I 0 W/m² 2,9 °C 1,3 °C 11,3 km/h (2 Bft)
22.12.2017 19:31 3,7 °C 3,7 °C 95 % 1034,5 hPa 0,0 mm 8,5 km/h (2 Bft) W-SW 257 ° 0 min 0,000 mm 0,0 UV-I 0 W/m² 3,0 °C 1,5 °C 14,5 km/h (3 Bft)
22.12.2017 19:32 3,7 °C 3,7 °C 95 % 1034,5 hPa 0,0 mm 10,3 km/h (2 Bft) W 264 ° 0 min 0,000 mm 0,0 UV-I 0 W/m² 3,0 °C 1,0 °C 12,9 km/h (3 Bft)
22.12.2017 19:33 3,6 °C 3,7 °C 95 % 1034,5 hPa 0,0 mm 7,6 km/h (2 Bft) W-NW 288 ° 0 min 0,000 mm 0,0 UV-I 0 W/m² 2,9 °C 1,6 °C 14,5 km/h (3 Bft)
22.12.2017 19:34 3,6 °C 3,6 °C 95 % 1034,5 hPa 0,0 mm 5,9 km/h (2 Bft) W-SW 249 ° 0 min 0,000 mm 0,0 UV-I 0 W/m² 2,9 °C 2,1 °C 12,9 km/h (3 Bft)
22.12.2017 19:35 3,6 °C 3,6 °C 95 % 1034,6 hPa 0,0 mm 6,8 km/h (2 Bft) SW 229 ° 0 min 0,000 mm 0,0 UV-I 0 W/m² 2,9 °C 1,8 °C 11,3 km/h (2 Bft)
22.12.2017 19:36 3,6 °C 3,6 °C 95 % 1034,6 hPa 0,0 mm 6,6 km/h (2 Bft) W-SW 247 ° 0 min 0,000 mm 0,0 UV-I 0 W/m² 2,9 °C 1,9 °C 11,3 km/h (2 Bft)
22.12.2017 19:37 3,6 °C 3,6 °C 95 % 1034,5 hPa 0,0 mm 4,6 km/h (1 Bft) W-SW 250 ° 0 min 0,000 mm 0,0 UV-I 0 W/m² 2,9 °C 2,7 °C 6,4 km/h (2 Bft)
22.12.2017 19:38 3,6 °C 3,6 °C 95 % 1034,6 hPa 0,0 mm 3,6 km/h (1 Bft) W 264 ° 0 min 0,000 mm 0,0 UV-I 0 W/m² 2,9 °C 3,6 °C 4,8 km/h (1 Bft)
22.12.2017 19:39 3,6 °C 3,6 °C 95 % 1034,6 hPa 0,0 mm 5,3 km/h (1 Bft) W 261 ° 0 min 0,000 mm 0,0 UV-I 0 W/m² 2,9 °C 2,4 °C 9,7 km/h (2 Bft)
22.12.2017 19:40 3,6 °C 3,7 °C 95 % 1034,6 hPa 0,0 mm 3,9 km/h (1 Bft) W-SW 250 ° 0 min 0,000 mm 0,0 UV-I 0 W/m² 2,9 °C 3,6 °C 6,4 km/h (2 Bft)
22.12.2017 19:41 3,6 °C 3,6 °C 95 % 1034,6 hPa 0,0 mm 4,1 km/h (1 Bft) W 263 ° 0 min 0,000 mm 0,0 UV-I 0 W/m² 2,9 °C 3,6 °C 6,4 km/h (2 Bft)
22.12.2017 19:42 3,6 °C 3,6 °C 95 % 1034,6 hPa 0,2 mm 5,0 km/h (1 Bft) W 274 ° 0 min 0,000 mm 0,0 UV-I 0 W/m² 2,9 °C 2,5 °C 6,4 km/h (2 Bft)
22.12.2017 19:43 3,6 °C 3,6 °C 95 % 1034,6 hPa 0,0 mm 7,2 km/h (2 Bft) W 269 ° 0 min 0,000 mm 0,0 UV-I 0 W/m² 2,9 °C 1,7 °C 11,3 km/h (2 Bft)
22.12.2017 19:44 3,6 °C 3,6 °C 95 % 1034,6 hPa 0,0 mm 9,5 km/h (2 Bft) W 263 ° 0 min 0,000 mm 0,0 UV-I 0 W/m² 2,9 °C 1,1 °C 12,9 km/h (3 Bft)
22.12.2017 19:45 3,6 °C 3,6 °C 95 % 1034,7 hPa 0,0 mm 5,6 km/h (1 Bft) W-SW 258 ° 0 min 0,000 mm 0,0 UV-I 0 W/m² 2,9 °C 2,3 °C 9,7 km/h (2 Bft)
22.12.2017 19:46 3,6 °C 3,6 °C 95 % 1034,6 hPa 0,0 mm 5,2 km/h (1 Bft) W-SW 253 ° 0 min 0,000 mm 0,0 UV-I 0 W/m² 2,9 °C 2,4 °C 11,3 km/h (2 Bft)
22.12.2017 19:47 3,6 °C 3,6 °C 95 % 1034,7 hPa 0,0 mm 8,6 km/h (2 Bft) W 269 ° 0 min 0,000 mm 0,0 UV-I 0 W/m² 2,9 °C 1,3 °C 11,3 km/h (2 Bft)
22.12.2017 19:48 3,6 °C 3,6 °C 95 % 1034,7 hPa 0,0 mm 6,2 km/h (2 Bft) W 269 ° 0 min 0,000 mm 0,0 UV-I 0 W/m² 2,9 °C 2,0 °C 9,7 km/h (2 Bft)
22.12.2017 19:49 3,6 °C 3,6 °C 95 % 1034,7 hPa 0,0 mm 9,0 km/h (2 Bft) W-SW 255 ° 0 min 0,000 mm 0,0 UV-I 0 W/m² 2,9 °C 1,2 °C 11,3 km/h (2 Bft)
22.12.2017 19:50 3,6 °C 3,6 °C 95 % 1034,7 hPa 0,0 mm 7,1 km/h (2 Bft) W-SW 254 ° 0 min 0,000 mm 0,0 UV-I 0 W/m² 2,9 °C 1,8 °C 12,9 km/h (3 Bft)
22.12.2017 19:51 3,6 °C 3,6 °C 95 % 1034,7 hPa 0,0 mm 5,3 km/h (1 Bft) W-SW 258 ° 0 min 0,000 mm 0,0 UV-I 0 W/m² 2,9 °C 2,4 °C 8,0 km/h (2 Bft)
22.12.2017 19:52 3,6 °C 3,6 °C 95 % 1034,8 hPa 0,0 mm 6,1 km/h (2 Bft) W 265 ° 0 min 0,000 mm 0,0 UV-I 0 W/m² 2,9 °C 2,1 °C 9,7 km/h (2 Bft)
22.12.2017 19:53 3,6 °C 3,6 °C 95 % 1034,8 hPa 0,0 mm 10,3 km/h (2 Bft) W 260 ° 0 min 0,000 mm 0,0 UV-I 0 W/m² 2,9 °C 0,9 °C 12,9 km/h (3 Bft)
22.12.2017 19:54 3,6 °C 3,6 °C 95 % 1034,8 hPa 0,0 mm 6,1 km/h (2 Bft) W-SW 252 ° 0 min 0,000 mm 0,0 UV-I 0 W/m² 2,9 °C 2,1 °C 9,7 km/h (2 Bft)
22.12.2017 19:55 3,6 °C 3,6 °C 95 % 1034,8 hPa 0,0 mm 6,0 km/h (2 Bft) SW 232 ° 0 min 0,000 mm 0,0 UV-I 0 W/m² 2,9 °C 2,1 °C 11,3 km/h (2 Bft)
22.12.2017 19:56 3,6 °C 3,6 °C 95 % 1034,8 hPa 0,0 mm 7,8 km/h (2 Bft) W 263 ° 0 min 0,000 mm 0,0 UV-I 0 W/m² 2,9 °C 1,5 °C 11,3 km/h (2 Bft)
22.12.2017 19:57 3,6 °C 3,6 °C 95 % 1034,8 hPa 0,0 mm 6,4 km/h (2 Bft) W-SW 248 ° 0 min 0,000 mm 0,0 UV-I 0 W/m² 2,9 °C 2,0 °C 11,3 km/h (2 Bft)
22.12.2017 19:58 3,6 °C 3,6 °C 95 % 1034,8 hPa 0,0 mm 9,3 km/h (2 Bft) W 265 ° 0 min 0,000 mm 0,0 UV-I 0 W/m² 2,9 °C 1,2 °C 12,9 km/h (3 Bft)
22.12.2017 19:59 3,6 °C 3,6 °C 95 % 1034,8 hPa 0,0 mm 7,3 km/h (2 Bft) W 272 ° 0 min 0,000 mm 0,0 UV-I 0 W/m² 2,9 °C 1,7 °C 12,9 km/h (3 Bft)
22.12.2017 20:00 3,6 °C 3,6 °C 95 % 1034,8 hPa 0,0 mm 8,6 km/h (2 Bft) W 264 ° 0 min 0,000 mm 0,0 UV-I 0 W/m² 2,9 °C 1,3 °C 12,9 km/h (3 Bft)
22.12.2017 20:01 3,6 °C 3,6 °C 95 % 1034,8 hPa 0,0 mm 10,3 km/h (2 Bft) W-SW 240 ° 0 min 0,000 mm 0,0 UV-I 0 W/m² 2,9 °C 0,9 °C 16,1 km/h (3 Bft)
22.12.2017 20:02 3,5 °C 3,6 °C 95 % 1034,8 hPa 0,0 mm 9,6 km/h (2 Bft) SW 235 ° 0 min 0,000 mm 0,0 UV-I 0 W/m² 2,8 °C 1,0 °C 12,9 km/h (3 Bft)
22.12.2017 20:03 3,6 °C 3,6 °C 95 % 1034,8 hPa 0,0 mm 9,4 km/h (2 Bft) SW 231 ° 0 min 0,000 mm 0,0 UV-I 0 W/m² 2,9 °C 1,1 °C 17,7 km/h (3 Bft)
22.12.2017 20:04 3,6 °C 3,6 °C 95 % 1034,8 hPa 0,0 mm 8,6 km/h (2 Bft) W 265 ° 0 min 0,000 mm 0,0 UV-I 0 W/m² 2,9 °C 1,3 °C 14,5 km/h (3 Bft)
22.12.2017 20:05 3,6 °C 3,6 °C 95 % 1034,8 hPa 0,0 mm 10,8 km/h (2 Bft) W 267 ° 0 min 0,000 mm 0,0 UV-I 0 W/m² 2,9 °C 0,8 °C 17,7 km/h (3 Bft)
22.12.2017 20:06 3,6 °C 3,6 °C 95 % 1034,8 hPa 0,0 mm 9,2 km/h (2 Bft) W 261 ° 0 min 0,000 mm 0,0 UV-I 0 W/m² 2,9 °C 1,2 °C 12,9 km/h (3 Bft)
22.12.2017 20:07 3,6 °C 3,6 °C 95 % 1034,8 hPa 0,0 mm 6,4 km/h (2 Bft) W-SW 238 ° 0 min 0,000 mm 0,0 UV-I 0 W/m² 2,9 °C 2,0 °C 9,7 km/h (2 Bft)
22.12.2017 20:08 3,6 °C 3,6 °C 95 % 1034,8 hPa 0,0 mm 4,2 km/h (1 Bft) W-SW 244 ° 0 min 0,000 mm 0,0 UV-I 0 W/m² 2,9 °C 3,6 °C 6,4 km/h (2 Bft)
22.12.2017 20:09 3,6 °C 3,6 °C 95 % 1034,8 hPa 0,0 mm 3,8 km/h (1 Bft) W 269 ° 0 min 0,000 mm 0,0 UV-I 0 W/m² 2,9 °C 3,6 °C 9,7 km/h (2 Bft)
22.12.2017 20:10 3,6 °C 3,6 °C 95 % 1034,8 hPa 0,0 mm 5,8 km/h (2 Bft) W 279 ° 0 min 0,000 mm 0,0 UV-I 0 W/m² 2,9 °C 2,2 °C 9,7 km/h (2 Bft)
22.12.2017 20:11 3,6 °C 3,6 °C 95 % 1034,9 hPa 0,0 mm 8,6 km/h (2 Bft) W-SW 255 ° 0 min 0,000 mm 0,0 UV-I 0 W/m² 2,9 °C 1,3 °C 14,5 km/h (3 Bft)
22.12.2017 20:12 3,6 °C 3,6 °C 95 % 1034,9 hPa 0,0 mm 8,1 km/h (2 Bft) W 260 ° 0 min 0,000 mm 0,0 UV-I 0 W/m² 2,9 °C 1,5 °C 14,5 km/h (3 Bft)
22.12.2017 20:13 3,6 °C 3,6 °C 95 % 1034,8 hPa 0,0 mm 9,9 km/h (2 Bft) W-SW 239 ° 0 min 0,000 mm 0,0 UV-I 0 W/m² 2,9 °C 1,0 °C 14,5 km/h (3 Bft)
22.12.2017 20:14 3,6 °C 3,6 °C 95 % 1034,8 hPa 0,0 mm 6,8 km/h (2 Bft) W-SW 250 ° 0 min 0,000 mm 0,0 UV-I 0 W/m² 2,9 °C 1,8 °C 9,7 km/h (2 Bft)
22.12.2017 20:15 3,6 °C 3,6 °C 95 % 1035,0 hPa 0,0 mm 5,7 km/h (1 Bft) W 264 ° 0 min 0,000 mm 0,0 UV-I 0 W/m² 2,9 °C 2,2 °C 6,4 km/h (2 Bft)
22.12.2017 20:16 3,6 °C 3,6 °C 95 % 1034,9 hPa 0,0 mm 5,7 km/h (1 Bft) W-SW 255 ° 0 min 0,000 mm 0,0 UV-I 0 W/m² 2,9 °C 2,2 °C 11,3 km/h (2 Bft)
22.12.2017 20:17 3,6 °C 3,6 °C 95 % 1035,0 hPa 0,2 mm 6,3 km/h (2 Bft) W-SW 250 ° 0 min 0,000 mm 0,0 UV-I 0 W/m² 2,9 °C 2,0 °C 9,7 km/h (2 Bft)
22.12.2017 20:18 3,6 °C 3,6 °C 95 % 1034,9 hPa 0,0 mm 5,6 km/h (1 Bft) W-SW 237 ° 0 min 0,000 mm 0,0 UV-I 0 W/m² 2,9 °C 2,3 °C 9,7 km/h (2 Bft)
22.12.2017 20:19 3,6 °C 3,6 °C 95 % 1034,9 hPa 0,0 mm 7,6 km/h (2 Bft) SW 235 ° 0 min 0,000 mm 0,0 UV-I 0 W/m² 2,9 °C 1,6 °C 12,9 km/h (3 Bft)
22.12.2017 20:20 3,6 °C 3,6 °C 95 % 1034,9 hPa 0,0 mm 8,9 km/h (2 Bft) W-SW 248 ° 0 min 0,000 mm 0,0 UV-I 0 W/m² 2,9 °C 1,3 °C 12,9 km/h (3 Bft)
22.12.2017 20:21 3,6 °C 3,6 °C 95 % 1034,9 hPa 0,0 mm 4,3 km/h (1 Bft) W 266 ° 0 min 0,000 mm 0,0 UV-I 0 W/m² 2,9 °C 3,6 °C 9,7 km/h (2 Bft)
22.12.2017 20:22 3,6 °C 3,6 °C 95 % 1034,9 hPa 0,0 mm 7,6 km/h (2 Bft) W-SW 245 ° 0 min 0,000 mm 0,0 UV-I 0 W/m² 2,9 °C 1,6 °C 11,3 km/h (2 Bft)
22.12.2017 20:23 3,6 °C 3,6 °C 95 % 1034,8 hPa 0,0 mm 5,3 km/h (1 Bft) W-SW 243 ° 0 min 0,000 mm 0,0 UV-I 0 W/m² 2,9 °C 2,4 °C 9,7 km/h (2 Bft)
22.12.2017 20:24 3,6 °C 3,6 °C 95 % 1034,8 hPa 0,0 mm 5,5 km/h (1 Bft) SW 225 ° 0 min 0,000 mm 0,0 UV-I 0 W/m² 2,9 °C 2,3 °C 12,9 km/h (3 Bft)
22.12.2017 20:25 3,6 °C 3,6 °C 95 % 1034,8 hPa 0,0 mm 4,1 km/h (1 Bft) S-SW 211 ° 0 min 0,000 mm 0,0 UV-I 0 W/m² 2,9 °C 3,6 °C 6,4 km/h (2 Bft)
22.12.2017 20:26 3,6 °C 3,6 °C 95 % 1034,8 hPa 0,0 mm 4,5 km/h (1 Bft) W-SW 238 ° 0 min 0,000 mm 0,0 UV-I 0 W/m² 2,9 °C 3,6 °C 8,0 km/h (2 Bft)
22.12.2017 20:27 3,6 °C 3,6 °C 95 % 1034,8 hPa 0,0 mm 4,9 km/h (1 Bft) W-SW 244 ° 0 min 0,000 mm 0,0 UV-I 0 W/m² 2,9 °C 2,5 °C 6,4 km/h (2 Bft)
22.12.2017 20:28 3,6 °C 3,6 °C 95 % 1034,9 hPa 0,0 mm 6,1 km/h (2 Bft) W-SW 241 ° 0 min 0,000 mm 0,0 UV-I 0 W/m² 2,9 °C 2,1 °C 8,0 km/h (2 Bft)
22.12.2017 20:29 3,6 °C 3,6 °C 95 % 1034,9 hPa 0,0 mm 4,7 km/h (1 Bft) W 279 ° 0 min 0,000 mm 0,0 UV-I 0 W/m² 2,9 °C 2,6 °C 8,0 km/h (2 Bft)
22.12.2017 20:30 3,6 °C 3,6 °C 95 % 1034,9 hPa 0,0 mm 5,2 km/h (1 Bft) SW 233 ° 0 min 0,000 mm 0,0 UV-I 0 W/m² 2,9 °C 2,4 °C 6,4 km/h (2 Bft)
22.12.2017 20:31 3,7 °C 3,7 °C 95 % 1034,9 hPa 0,0 mm 6,0 km/h (2 Bft) W 273 ° 0 min 0,000 mm 0,0 UV-I 0 W/m² 3,0 °C 2,2 °C 11,3 km/h (2 Bft)
22.12.2017 20:32 3,7 °C 3,7 °C 95 % 1034,9 hPa 0,0 mm 7,1 km/h (2 Bft) W-SW 238 ° 0 min 0,000 mm 0,0 UV-I 0 W/m² 3,0 °C 1,9 °C 12,9 km/h (3 Bft)
22.12.2017 20:33 3,6 °C 3,7 °C 95 % 1035,0 hPa 0,0 mm 3,8 km/h (1 Bft) W-NW 294 ° 0 min 0,000 mm 0,0 UV-I 0 W/m² 2,9 °C 3,6 °C 4,8 km/h (1 Bft)
22.12.2017 20:34 3,6 °C 3,6 °C 95 % 1035,0 hPa 0,0 mm 5,9 km/h (2 Bft) W-SW 257 ° 0 min 0,000 mm 0,0 UV-I 0 W/m² 2,9 °C 2,1 °C 9,7 km/h (2 Bft)
22.12.2017 20:35 3,6 °C 3,6 °C 95 % 1035,0 hPa 0,0 mm 2,5 km/h (1 Bft) W 263 ° 0 min 0,000 mm 0,0 UV-I 0 W/m² 2,9 °C 3,6 °C 3,2 km/h (1 Bft)
22.12.2017 20:36 3,6 °C 3,6 °C 95 % 1035,0 hPa 0,0 mm 5,2 km/h (1 Bft) W 269 ° 0 min 0,000 mm 0,0 UV-I 0 W/m² 2,9 °C 2,4 °C 9,7 km/h (2 Bft)
22.12.2017 20:37 3,6 °C 3,6 °C 95 % 1035,0 hPa 0,0 mm 5,1 km/h (1 Bft) W 267 ° 0 min 0,000 mm 0,0 UV-I 0 W/m² 2,9 °C 2,5 °C 6,4 km/h (2 Bft)
22.12.2017 20:38 3,6 °C 3,6 °C 95 % 1035,0 hPa 0,0 mm 4,9 km/h (1 Bft) W-SW 254 ° 0 min 0,000 mm 0,0 UV-I 0 W/m² 2,9 °C 2,5 °C 9,7 km/h (2 Bft)
22.12.2017 20:39 3,6 °C 3,6 °C 95 % 1035,0 hPa 0,0 mm 6,5 km/h (2 Bft) W 268 ° 0 min 0,000 mm 0,0 UV-I 0 W/m² 2,9 °C 1,9 °C 9,7 km/h (2 Bft)
22.12.2017 20:40 3,6 °C 3,6 °C 95 % 1035,0 hPa 0,0 mm 5,8 km/h (2 Bft) W 266 ° 0 min 0,000 mm 0,0 UV-I 0 W/m² 2,9 °C 2,2 °C 9,7 km/h (2 Bft)
22.12.2017 20:41 3,6 °C 3,6 °C 95 % 1035,0 hPa 0,0 mm 5,8 km/h (2 Bft) W-SW 255 ° 0 min 0,000 mm 0,0 UV-I 0 W/m² 2,9 °C 2,2 °C 11,3 km/h (2 Bft)
22.12.2017 20:42 3,6 °C 3,6 °C 95 % 1035,0 hPa 0,0 mm 7,3 km/h (2 Bft) W-NW 283 ° 0 min 0,000 mm 0,0 UV-I 0 W/m² 2,9 °C 1,7 °C 11,3 km/h (2 Bft)
22.12.2017 20:43 3,6 °C 3,6 °C 95 % 1035,0 hPa 0,0 mm 4,2 km/h (1 Bft) W-SW 256 ° 0 min 0,000 mm 0,0 UV-I 0 W/m² 2,9 °C 3,6 °C 6,4 km/h (2 Bft)
22.12.2017 20:44 3,6 °C 3,6 °C 95 % 1035,1 hPa 0,0 mm 4,8 km/h (1 Bft) W-SW 244 ° 0 min 0,000 mm 0,0 UV-I 0 W/m² 2,9 °C 2,6 °C 6,4 km/h (2 Bft)
22.12.2017 20:45 3,6 °C 3,6 °C 95 % 1035,1 hPa 0,0 mm 7,0 km/h (2 Bft) W 266 ° 0 min 0,000 mm 0,0 UV-I 0 W/m² 2,9 °C 1,8 °C 11,3 km/h (2 Bft)
22.12.2017 20:46 3,6 °C 3,6 °C 95 % 1035,1 hPa 0,0 mm 7,5 km/h (2 Bft) W 264 ° 0 min 0,000 mm 0,0 UV-I 0 W/m² 2,9 °C 1,6 °C 11,3 km/h (2 Bft)
22.12.2017 20:47 3,6 °C 3,6 °C 95 % 1035,2 hPa 0,0 mm 7,4 km/h (2 Bft) W-SW 250 ° 0 min 0,000 mm 0,0 UV-I 0 W/m² 2,9 °C 1,7 °C 11,3 km/h (2 Bft)
22.12.2017 20:48 3,6 °C 3,6 °C 95 % 1035,2 hPa 0,0 mm 4,2 km/h (1 Bft) W 261 ° 0 min 0,000 mm 0,0 UV-I 0 W/m² 2,9 °C 3,6 °C 4,8 km/h (1 Bft)
22.12.2017 20:49 3,5 °C 3,6 °C 95 % 1035,2 hPa 0,0 mm 6,2 km/h (2 Bft) W-SW 255 ° 0 min 0,000 mm 0,0 UV-I 0 W/m² 2,8 °C 1,9 °C 9,7 km/h (2 Bft)
22.12.2017 20:50 3,6 °C 3,6 °C 95 % 1035,2 hPa 0,0 mm 3,2 km/h (1 Bft) W 267 ° 0 min 0,000 mm 0,0 UV-I 0 W/m² 2,9 °C 3,6 °C 4,8 km/h (1 Bft)
22.12.2017 20:51 3,6 °C 3,6 °C 95 % 1035,2 hPa 0,0 mm 4,0 km/h (1 Bft) W-SW 257 ° 0 min 0,000 mm 0,0 UV-I 0 W/m² 2,9 °C 3,6 °C 4,8 km/h (1 Bft)
22.12.2017 20:52 3,5 °C 3,6 °C 95 % 1035,2 hPa 0,0 mm 3,1 km/h (1 Bft) W-SW 257 ° 0 min 0,000 mm 0,0 UV-I 0 W/m² 2,8 °C 3,5 °C 4,8 km/h (1 Bft)
22.12.2017 20:53 3,5 °C 3,6 °C 95 % 1035,2 hPa 0,0 mm 2,0 km/h (1 Bft) W-SW 257 ° 0 min 0,000 mm 0,0 UV-I 0 W/m² 2,8 °C 3,5 °C 3,2 km/h (1 Bft)
22.12.2017 20:54 3,5 °C 3,5 °C 95 % 1035,2 hPa 0,0 mm 4,5 km/h (1 Bft) W-SW 249 ° 0 min 0,000 mm 0,0 UV-I 0 W/m² 2,8 °C 3,5 °C 4,8 km/h (1 Bft)
22.12.2017 20:55 3,5 °C 3,6 °C 95 % 1035,2 hPa 0,0 mm 5,0 km/h (1 Bft) W 276 ° 0 min 0,000 mm 0,0 UV-I 0 W/m² 2,8 °C 2,4 °C 6,4 km/h (2 Bft)
22.12.2017 20:56 3,5 °C 3,5 °C 95 % 1035,3 hPa 0,0 mm 3,6 km/h (1 Bft) W 265 ° 0 min 0,000 mm 0,0 UV-I 0 W/m² 2,8 °C 3,5 °C 4,8 km/h (1 Bft)
22.12.2017 20:57 3,5 °C 3,5 °C 95 % 1035,3 hPa 0,0 mm 3,1 km/h (1 Bft) W-SW 240 ° 0 min 0,000 mm 0,0 UV-I 0 W/m² 2,8 °C 3,5 °C 6,4 km/h (2 Bft)
22.12.2017 20:58 3,5 °C 3,6 °C 95 % 1035,2 hPa 0,0 mm 3,5 km/h (1 Bft) W 272 ° 0 min 0,000 mm 0,0 UV-I 0 W/m² 2,8 °C 3,5 °C 6,4 km/h (2 Bft)
22.12.2017 20:59 3,5 °C 3,6 °C 95 % 1035,2 hPa 0,2 mm 3,3 km/h (1 Bft) W-SW 254 ° 0 min 0,000 mm 0,0 UV-I 0 W/m² 2,8 °C 3,5 °C 4,8 km/h (1 Bft)
22.12.2017 21:00 3,5 °C 3,6 °C 95 % 1035,2 hPa 0,0 mm 3,7 km/h (1 Bft) W-SW 244 ° 0 min 0,000 mm 0,0 UV-I 0 W/m² 2,8 °C 3,5 °C 6,4 km/h (2 Bft)
22.12.2017 21:01 3,5 °C 3,6 °C 95 % 1035,2 hPa 0,0 mm 1,8 km/h (1 Bft) W-SW 244 ° 0 min 0,000 mm 0,0 UV-I 0 W/m² 2,8 °C 3,5 °C 4,8 km/h (1 Bft)
22.12.2017 21:02 3,5 °C 3,6 °C 95 % 1035,2 hPa 0,0 mm 3,6 km/h (1 Bft) W-SW 249 ° 0 min 0,000 mm 0,0 UV-I 0 W/m² 2,8 °C 3,5 °C 6,4 km/h (2 Bft)
22.12.2017 21:03 3,6 °C 3,6 °C 95 % 1035,3 hPa 0,0 mm 5,3 km/h (1 Bft) W 263 ° 0 min 0,000 mm 0,0 UV-I 0 W/m² 2,9 °C 2,4 °C 6,4 km/h (2 Bft)
22.12.2017 21:04 3,6 °C 3,6 °C 95 % 1035,2 hPa 0,0 mm 2,8 km/h (1 Bft) W 263 ° 0 min 0,000 mm 0,0 UV-I 0 W/m² 2,9 °C 3,6 °C 6,4 km/h (2 Bft)
22.12.2017 21:05 3,6 °C 3,6 °C 95 % 1035,2 hPa 0,0 mm 2,2 km/h (1 Bft) W-SW 245 ° 0 min 0,000 mm 0,0 UV-I 0 W/m² 2,9 °C 3,6 °C 4,8 km/h (1 Bft)
22.12.2017 21:06 3,6 °C 3,6 °C 95 % 1035,2 hPa 0,0 mm 4,1 km/h (1 Bft) SW 228 ° 0 min 0,000 mm 0,0 UV-I 0 W/m² 2,9 °C 3,6 °C 6,4 km/h (2 Bft)
22.12.2017 21:07 3,6 °C 3,6 °C 95 % 1035,2 hPa 0,0 mm 6,6 km/h (2 Bft) W 266 ° 0 min 0,000 mm 0,0 UV-I 0 W/m² 2,9 °C 1,9 °C 12,9 km/h (3 Bft)
22.12.2017 21:08 3,6 °C 3,6 °C 95 % 1035,2 hPa 0,0 mm 5,8 km/h (2 Bft) W-SW 257 ° 0 min 0,000 mm 0,0 UV-I 0 W/m² 2,9 °C 2,2 °C 11,3 km/h (2 Bft)
22.12.2017 21:09 3,6 °C 3,6 °C 95 % 1035,2 hPa 0,0 mm 5,0 km/h (1 Bft) W 261 ° 0 min 0,000 mm 0,0 UV-I 0 W/m² 2,9 °C 2,5 °C 6,4 km/h (2 Bft)
22.12.2017 21:10 3,6 °C 3,6 °C 95 % 1035,2 hPa 0,0 mm 4,3 km/h (1 Bft) W 269 ° 0 min 0,000 mm 0,0 UV-I 0 W/m² 2,9 °C 3,6 °C 6,4 km/h (2 Bft)
22.12.2017 21:11 3,6 °C 3,6 °C 95 % 1035,1 hPa 0,0 mm 4,2 km/h (1 Bft) SW 221 ° 0 min 0,000 mm 0,0 UV-I 0 W/m² 2,9 °C 3,6 °C 6,4 km/h (2 Bft)
22.12.2017 21:12 3,6 °C 3,6 °C 95 % 1035,1 hPa 0,0 mm 3,0 km/h (1 Bft) SW 216 ° 0 min 0,000 mm 0,0 UV-I 0 W/m² 2,9 °C 3,6 °C 4,8 km/h (1 Bft)
22.12.2017 21:13 3,6 °C 3,6 °C 95 % 1035,1 hPa 0,0 mm 4,9 km/h (1 Bft) W-SW 238 ° 0 min 0,000 mm 0,0 UV-I 0 W/m² 2,9 °C 2,5 °C 6,4 km/h (2 Bft)
22.12.2017 21:14 3,6 °C 3,6 °C 95 % 1035,1 hPa 0,0 mm 5,0 km/h (1 Bft) W 267 ° 0 min 0,000 mm 0,0 UV-I 0 W/m² 2,9 °C 2,5 °C 9,7 km/h (2 Bft)
22.12.2017 21:15 3,6 °C 3,6 °C 95 % 1035,1 hPa 0,2 mm 3,8 km/h (1 Bft) W 260 ° 0 min 0,000 mm 0,0 UV-I 0 W/m² 2,9 °C 3,6 °C 6,4 km/h (2 Bft)
22.12.2017 21:16 3,6 °C 3,6 °C 95 % 1035,1 hPa 0,0 mm 3,7 km/h (1 Bft) W 263 ° 0 min 0,000 mm 0,0 UV-I 0 W/m² 2,9 °C 3,6 °C 6,4 km/h (2 Bft)
22.12.2017 21:17 3,6 °C 3,6 °C 95 % 1035,2 hPa 0,0 mm 3,1 km/h (1 Bft) W-SW 256 ° 0 min 0,000 mm 0,0 UV-I 0 W/m² 2,9 °C 3,6 °C 4,8 km/h (1 Bft)
22.12.2017 21:18 3,6 °C 3,6 °C 95 % 1035,2 hPa 0,0 mm 3,7 km/h (1 Bft) W-SW 248 ° 0 min 0,000 mm 0,0 UV-I 0 W/m² 2,9 °C 3,6 °C 6,4 km/h (2 Bft)
22.12.2017 21:19 3,6 °C 3,6 °C 95 % 1035,2 hPa 0,0 mm 6,7 km/h (2 Bft) W-SW 254 ° 0 min 0,000 mm 0,0 UV-I 0 W/m² 2,9 °C 1,9 °C 11,3 km/h (2 Bft)
22.12.2017 21:20 3,6 °C 3,6 °C 95 % 1035,2 hPa 0,0 mm 4,0 km/h (1 Bft) W-SW 254 ° 0 min 0,000 mm 0,0 UV-I 0 W/m² 2,9 °C 3,6 °C 6,4 km/h (2 Bft)
22.12.2017 21:21 3,6 °C 3,6 °C 95 % 1035,2 hPa 0,0 mm 4,7 km/h (1 Bft) W-SW 255 ° 0 min 0,000 mm 0,0 UV-I 0 W/m² 2,9 °C 2,6 °C 6,4 km/h (2 Bft)
22.12.2017 21:22 3,6 °C 3,6 °C 95 % 1035,2 hPa 0,0 mm 2,7 km/h (1 Bft) W-SW 239 ° 0 min 0,000 mm 0,0 UV-I 0 W/m² 2,9 °C 3,6 °C 4,8 km/h (1 Bft)
22.12.2017 21:23 3,6 °C 3,6 °C 95 % 1035,2 hPa 0,0 mm 3,8 km/h (1 Bft) W 265 ° 0 min 0,000 mm 0,0 UV-I 0 W/m² 2,9 °C 3,6 °C 4,8 km/h (1 Bft)
22.12.2017 21:24 3,6 °C 3,6 °C 95 % 1035,2 hPa 0,0 mm 5,1 km/h (1 Bft) W-SW 250 ° 0 min 0,000 mm 0,0 UV-I 0 W/m² 2,9 °C 2,5 °C 9,7 km/h (2 Bft)
22.12.2017 21:25 3,6 °C 3,6 °C 95 % 1035,3 hPa 0,0 mm 4,6 km/h (1 Bft) W 269 ° 0 min 0,000 mm 0,0 UV-I 0 W/m² 2,9 °C 2,7 °C 9,7 km/h (2 Bft)
22.12.2017 21:26 3,6 °C 3,6 °C 95 % 1035,3 hPa 0,0 mm 3,2 km/h (1 Bft) W 269 ° 0 min 0,000 mm 0,0 UV-I 0 W/m² 2,9 °C 3,6 °C 4,8 km/h (1 Bft)
22.12.2017 21:27 3,6 °C 3,6 °C 95 % 1035,3 hPa 0,0 mm 2,2 km/h (1 Bft) W 263 ° 0 min 0,000 mm 0,0 UV-I 0 W/m² 2,9 °C 3,6 °C 6,4 km/h (2 Bft)
22.12.2017 21:28 3,6 °C 3,6 °C 95 % 1035,2 hPa 0,2 mm 4,3 km/h (1 Bft) W-SW 245 ° 0 min 0,000 mm 0,0 UV-I 0 W/m² 2,9 °C 3,6 °C 9,7 km/h (2 Bft)
22.12.2017 21:29 3,6 °C 3,6 °C 95 % 1035,3 hPa 0,0 mm 2,3 km/h (1 Bft) W-SW 245 ° 0 min 0,000 mm 0,0 UV-I 0 W/m² 2,9 °C 3,6 °C 3,2 km/h (1 Bft)
22.12.2017 21:30 3,6 °C 3,6 °C 95 % 1035,3 hPa 0,0 mm 3,0 km/h (1 Bft) W 272 ° 0 min 0,000 mm 0,0 UV-I 0 W/m² 2,9 °C 3,6 °C 4,8 km/h (1 Bft)
22.12.2017 21:31 3,6 °C 3,6 °C 95 % 1035,3 hPa 0,0 mm 5,6 km/h (1 Bft) W 260 ° 0 min 0,000 mm 0,0 UV-I 0 W/m² 2,9 °C 2,3 °C 11,3 km/h (2 Bft)
22.12.2017 21:32 3,6 °C 3,6 °C 95 % 1035,4 hPa 0,0 mm 6,5 km/h (2 Bft) W-SW 237 ° 0 min 0,000 mm 0,0 UV-I 0 W/m² 2,9 °C 1,9 °C 11,3 km/h (2 Bft)
22.12.2017 21:33 3,6 °C 3,6 °C 95 % 1035,3 hPa 0,0 mm 7,0 km/h (2 Bft) W-SW 258 ° 0 min 0,000 mm 0,0 UV-I 0 W/m² 2,9 °C 1,8 °C 11,3 km/h (2 Bft)
22.12.2017 21:34 3,6 °C 3,6 °C 95 % 1035,4 hPa 0,0 mm 10,7 km/h (2 Bft) W-SW 248 ° 0 min 0,000 mm 0,0 UV-I 0 W/m² 2,9 °C 0,8 °C 14,5 km/h (3 Bft)
22.12.2017 21:35 3,6 °C 3,6 °C 95 % 1035,3 hPa 0,0 mm 4,9 km/h (1 Bft) W 270 ° 0 min 0,000 mm 0,0 UV-I 0 W/m² 2,9 °C 2,5 °C 11,3 km/h (2 Bft)
22.12.2017 21:36 3,6 °C 3,6 °C 95 % 1035,3 hPa 0,0 mm 4,2 km/h (1 Bft) W 259 ° 0 min 0,000 mm 0,0 UV-I 0 W/m² 2,9 °C 3,6 °C 6,4 km/h (2 Bft)
22.12.2017 21:37 3,6 °C 3,6 °C 95 % 1035,3 hPa 0,0 mm 4,0 km/h (1 Bft) W 259 ° 0 min 0,000 mm 0,0 UV-I 0 W/m² 2,9 °C 3,6 °C 4,8 km/h (1 Bft)
22.12.2017 21:38 3,6 °C 3,6 °C 95 % 1035,3 hPa 0,0 mm 4,2 km/h (1 Bft) SW 232 ° 0 min 0,000 mm 0,0 UV-I 0 W/m² 2,9 °C 3,6 °C 6,4 km/h (2 Bft)
22.12.2017 21:39 3,6 °C 3,6 °C 95 % 1035,3 hPa 0,0 mm 3,3 km/h (1 Bft) W-SW 254 ° 0 min 0,000 mm 0,0 UV-I 0 W/m² 2,9 °C 3,6 °C 6,4 km/h (2 Bft)
22.12.2017 21:40 3,6 °C 3,6 °C 95 % 1035,3 hPa 0,0 mm 6,5 km/h (2 Bft) W-SW 246 ° 0 min 0,000 mm 0,0 UV-I 0 W/m² 2,9 °C 1,9 °C 11,3 km/h (2 Bft)
22.12.2017 21:41 3,6 °C 3,6 °C 95 % 1035,3 hPa 0,0 mm 4,6 km/h (1 Bft) W-SW 241 ° 0 min 0,000 mm 0,0 UV-I 0 W/m² 2,9 °C 2,7 °C 9,7 km/h (2 Bft)
22.12.2017 21:42 3,6 °C 3,6 °C 95 % 1035,3 hPa 0,0 mm 2,6 km/h (1 Bft) W-SW 252 ° 0 min 0,000 mm 0,0 UV-I 0 W/m² 2,9 °C 3,6 °C 4,8 km/h (1 Bft)
22.12.2017 21:43 3,6 °C 3,6 °C 95 % 1035,3 hPa 0,0 mm 4,2 km/h (1 Bft) W-SW 242 ° 0 min 0,000 mm 0,0 UV-I 0 W/m² 2,9 °C 3,6 °C 4,8 km/h (1 Bft)
22.12.2017 21:44 3,6 °C 3,6 °C 95 % 1035,3 hPa 0,0 mm 3,1 km/h (1 Bft) W 269 ° 0 min 0,000 mm 0,0 UV-I 0 W/m² 2,9 °C 3,6 °C 4,8 km/h (1 Bft)
22.12.2017 21:45 3,6 °C 3,6 °C 95 % 1035,3 hPa 0,0 mm 2,7 km/h (1 Bft) W 269 ° 0 min 0,000 mm 0,0 UV-I 0 W/m² 2,9 °C 3,6 °C 4,8 km/h (1 Bft)
22.12.2017 21:46 3,6 °C 3,6 °C 95 % 1035,3 hPa 0,0 mm 5,0 km/h (1 Bft) W-SW 242 ° 0 min 0,000 mm 0,0 UV-I 0 W/m² 2,9 °C 2,5 °C 9,7 km/h (2 Bft)
22.12.2017 21:47 3,6 °C 3,6 °C 95 % 1035,3 hPa 0,0 mm 3,7 km/h (1 Bft) W-SW 252 ° 0 min 0,000 mm 0,0 UV-I 0 W/m² 2,9 °C 3,6 °C 6,4 km/h (2 Bft)
22.12.2017 21:48 3,6 °C 3,6 °C 95 % 1035,3 hPa 0,0 mm 5,4 km/h (1 Bft) W 265 ° 0 min 0,000 mm 0,0 UV-I 0 W/m² 2,9 °C 2,3 °C 9,7 km/h (2 Bft)
22.12.2017 21:49 3,6 °C 3,6 °C 95 % 1035,3 hPa 0,0 mm 5,2 km/h (1 Bft) W-SW 256 ° 0 min 0,000 mm 0,0 UV-I 0 W/m² 2,9 °C 2,4 °C 6,4 km/h (2 Bft)
22.12.2017 21:50 3,6 °C 3,6 °C 95 % 1035,3 hPa 0,0 mm 4,1 km/h (1 Bft) SW 215 ° 0 min 0,000 mm 0,0 UV-I 0 W/m² 2,9 °C 3,6 °C 4,8 km/h (1 Bft)
22.12.2017 21:51 3,6 °C 3,6 °C 95 % 1035,3 hPa 0,2 mm 6,0 km/h (2 Bft) SW 233 ° 0 min 0,000 mm 0,0 UV-I 0 W/m² 2,9 °C 2,1 °C 11,3 km/h (2 Bft)
22.12.2017 21:52 3,6 °C 3,6 °C 95 % 1035,3 hPa 0,0 mm 3,4 km/h (1 Bft) W-SW 250 ° 0 min 0,000 mm 0,0 UV-I 0 W/m² 2,9 °C 3,6 °C 4,8 km/h (1 Bft)
22.12.2017 21:53 3,6 °C 3,6 °C 95 % 1035,3 hPa 0,0 mm 7,2 km/h (2 Bft) W 264 ° 0 min 0,000 mm 0,0 UV-I 0 W/m² 2,9 °C 1,7 °C 12,9 km/h (3 Bft)
22.12.2017 21:54 3,6 °C 3,6 °C 95 % 1035,3 hPa 0,0 mm 9,2 km/h (2 Bft) W-SW 253 ° 0 min 0,000 mm 0,0 UV-I 0 W/m² 2,9 °C 1,2 °C 11,3 km/h (2 Bft)
22.12.2017 21:55 3,6 °C 3,6 °C 95 % 1035,3 hPa 0,0 mm 7,9 km/h (2 Bft) W 261 ° 0 min 0,000 mm 0,0 UV-I 0 W/m² 2,9 °C 1,5 °C 11,3 km/h (2 Bft)
22.12.2017 21:56 3,6 °C 3,6 °C 95 % 1035,3 hPa 0,0 mm 6,3 km/h (2 Bft) W 281 ° 0 min 0,000 mm 0,0 UV-I 0 W/m² 2,9 °C 2,0 °C 9,7 km/h (2 Bft)
22.12.2017 21:57 3,6 °C 3,6 °C 95 % 1035,3 hPa 0,0 mm 6,2 km/h (2 Bft) W-SW 253 ° 0 min 0,000 mm 0,0 UV-I 0 W/m² 2,9 °C 2,0 °C 9,7 km/h (2 Bft)
22.12.2017 21:58 3,6 °C 3,6 °C 95 % 1035,4 hPa 0,0 mm 5,2 km/h (1 Bft) W 277 ° 0 min 0,000 mm 0,0 UV-I 0 W/m² 2,9 °C 2,4 °C 11,3 km/h (2 Bft)
22.12.2017 21:59 3,6 °C 3,6 °C 95 % 1035,3 hPa 0,0 mm 4,2 km/h (1 Bft) SW 234 ° 0 min 0,000 mm 0,0 UV-I 0 W/m² 2,9 °C 3,6 °C 6,4 km/h (2 Bft)
22.12.2017 22:00 3,6 °C 3,6 °C 95 % 1035,3 hPa 0,0 mm 5,1 km/h (1 Bft) W-SW 257 ° 0 min 0,000 mm 0,0 UV-I 0 W/m² 2,9 °C 2,5 °C 9,7 km/h (2 Bft)
22.12.2017 22:01 3,6 °C 3,6 °C 95 % 1035,3 hPa 0,0 mm 5,2 km/h (1 Bft) W 275 ° 0 min 0,000 mm 0,0 UV-I 0 W/m² 2,9 °C 2,4 °C 6,4 km/h (2 Bft)
22.12.2017 22:02 3,6 °C 3,6 °C 95 % 1035,3 hPa 0,0 mm 3,3 km/h (1 Bft) W 274 ° 0 min 0,000 mm 0,0 UV-I 0 W/m² 2,9 °C 3,6 °C 4,8 km/h (1 Bft)
22.12.2017 22:03 3,6 °C 3,6 °C 95 % 1035,3 hPa 0,0 mm 2,9 km/h (1 Bft) SW 229 ° 0 min 0,000 mm 0,0 UV-I 0 W/m² 2,9 °C 3,6 °C 4,8 km/h (1 Bft)
22.12.2017 22:04 3,6 °C 3,6 °C 95 % 1035,3 hPa 0,0 mm 5,3 km/h (1 Bft) W-SW 238 ° 0 min 0,000 mm 0,0 UV-I 0 W/m² 2,9 °C 2,4 °C 8,0 km/h (2 Bft)
22.12.2017 22:05 3,6 °C 3,6 °C 95 % 1035,2 hPa 0,0 mm 3,2 km/h (1 Bft) W-SW 238 ° 0 min 0,000 mm 0,0 UV-I 0 W/m² 2,9 °C 3,6 °C 4,8 km/h (1 Bft)
22.12.2017 22:06 3,6 °C 3,6 °C 95 % 1035,2 hPa 0,0 mm 2,9 km/h (1 Bft) W-SW 238 ° 0 min 0,000 mm 0,0 UV-I 0 W/m² 2,9 °C 3,6 °C 4,8 km/h (1 Bft)
22.12.2017 22:07 3,6 °C 3,6 °C 95 % 1035,2 hPa 0,0 mm 3,2 km/h (1 Bft) W-SW 237 ° 0 min 0,000 mm 0,0 UV-I 0 W/m² 2,9 °C 3,6 °C 4,8 km/h (1 Bft)
22.12.2017 22:08 3,6 °C 3,6 °C 95 % 1035,2 hPa 0,0 mm 4,8 km/h (1 Bft) W-SW 239 ° 0 min 0,000 mm 0,0 UV-I 0 W/m² 2,9 °C 2,6 °C 6,4 km/h (2 Bft)
22.12.2017 22:09 3,6 °C 3,6 °C 95 % 1035,2 hPa 0,2 mm 6,6 km/h (2 Bft) W-SW 253 ° 0 min 0,000 mm 0,0 UV-I 0 W/m² 2,9 °C 1,9 °C 9,7 km/h (2 Bft)
22.12.2017 22:10 3,6 °C 3,6 °C 95 % 1035,2 hPa 0,0 mm 6,0 km/h (2 Bft) W-NW 286 ° 0 min 0,000 mm 0,0 UV-I 0 W/m² 2,9 °C 2,1 °C 8,0 km/h (2 Bft)
22.12.2017 22:11 3,6 °C 3,6 °C 95 % 1035,3 hPa 0,0 mm 4,1 km/h (1 Bft) SW 225 ° 0 min 0,000 mm 0,0 UV-I 0 W/m² 2,9 °C 3,6 °C 6,4 km/h (2 Bft)
22.12.2017 22:12 3,6 °C 3,6 °C 95 % 1035,2 hPa 0,0 mm 3,0 km/h (1 Bft) W-SW 245 ° 0 min 0,000 mm 0,0 UV-I 0 W/m² 2,9 °C 3,6 °C 4,8 km/h (1 Bft)
22.12.2017 22:13 3,6 °C 3,6 °C 95 % 1035,3 hPa 0,0 mm 3,2 km/h (1 Bft) W-SW 238 ° 0 min 0,000 mm 0,0 UV-I 0 W/m² 2,9 °C 3,6 °C 4,8 km/h (1 Bft)
22.12.2017 22:14 3,6 °C 3,6 °C 95 % 1035,3 hPa 0,0 mm 3,2 km/h (1 Bft) W-SW 254 ° 0 min 0,000 mm 0,0 UV-I 0 W/m² 2,9 °C 3,6 °C 4,8 km/h (1 Bft)
22.12.2017 22:15 3,6 °C 3,6 °C 95 % 1035,3 hPa 0,0 mm 2,5 km/h (1 Bft) W-SW 254 ° 0 min 0,000 mm 0,0 UV-I 0 W/m² 2,9 °C 3,6 °C 4,8 km/h (1 Bft)
22.12.2017 22:16 3,6 °C 3,6 °C 95 % 1035,3 hPa 0,0 mm 2,7 km/h (1 Bft) W 273 ° 0 min 0,000 mm 0,0 UV-I 0 W/m² 2,9 °C 3,6 °C 4,8 km/h (1 Bft)
22.12.2017 22:17 3,6 °C 3,6 °C 95 % 1035,3 hPa 0,0 mm 2,3 km/h (1 Bft) W-SW 256 ° 0 min 0,000 mm 0,0 UV-I 0 W/m² 2,9 °C 3,6 °C 4,8 km/h (1 Bft)
22.12.2017 22:18 3,6 °C 3,6 °C 95 % 1035,3 hPa 0,0 mm 2,7 km/h (1 Bft) W-SW 248 ° 0 min 0,000 mm 0,0 UV-I 0 W/m² 2,9 °C 3,6 °C 4,8 km/h (1 Bft)
22.12.2017 22:19 3,6 °C 3,6 °C 95 % 1035,3 hPa 0,0 mm 2,5 km/h (1 Bft) W-SW 242 ° 0 min 0,000 mm 0,0 UV-I 0 W/m² 2,9 °C 3,6 °C 4,8 km/h (1 Bft)
22.12.2017 22:20 3,6 °C 3,6 °C 95 % 1035,3 hPa 0,0 mm 2,5 km/h (1 Bft) W-SW 255 ° 0 min 0,000 mm 0,0 UV-I 0 W/m² 2,9 °C 3,6 °C 4,8 km/h (1 Bft)
22.12.2017 22:21 3,6 °C 3,6 °C 95 % 1035,4 hPa 0,0 mm 1,7 km/h (1 Bft) W-SW 255 ° 0 min 0,000 mm 0,0 UV-I 0 W/m² 2,9 °C 3,6 °C 3,2 km/h (1 Bft)
22.12.2017 22:22 3,6 °C 3,6 °C 95 % 1035,4 hPa 0,0 mm 3,0 km/h (1 Bft) SW 235 ° 0 min 0,000 mm 0,0 UV-I 0 W/m² 2,9 °C 3,6 °C 4,8 km/h (1 Bft)
22.12.2017 22:23 3,6 °C 3,6 °C 95 % 1035,3 hPa 0,0 mm 2,6 km/h (1 Bft) SW 236 ° 0 min 0,000 mm 0,0 UV-I 0 W/m² 2,9 °C 3,6 °C 4,8 km/h (1 Bft)
22.12.2017 22:24 3,6 °C 3,7 °C 95 % 1035,4 hPa 0,0 mm 3,8 km/h (1 Bft) W-SW 242 ° 0 min 0,000 mm 0,0 UV-I 0 W/m² 2,9 °C 3,6 °C 4,8 km/h (1 Bft)
22.12.2017 22:25 3,6 °C 3,6 °C 95 % 1035,3 hPa 0,0 mm 3,3 km/h (1 Bft) W 262 ° 0 min 0,000 mm 0,0 UV-I 0 W/m² 2,9 °C 3,6 °C 4,8 km/h (1 Bft)
22.12.2017 22:26 3,6 °C 3,6 °C 95 % 1035,4 hPa 0,0 mm 3,5 km/h (1 Bft) SW 230 ° 0 min 0,000 mm 0,0 UV-I 0 W/m² 2,9 °C 3,6 °C 6,4 km/h (2 Bft)
22.12.2017 22:27 3,6 °C 3,6 °C 95 % 1035,4 hPa 0,0 mm 2,7 km/h (1 Bft) W 260 ° 0 min 0,000 mm 0,0 UV-I 0 W/m² 2,9 °C 3,6 °C 4,8 km/h (1 Bft)
22.12.2017 22:28 3,6 °C 3,6 °C 95 % 1035,4 hPa 0,0 mm 2,8 km/h (1 Bft) W-SW 239 ° 0 min 0,000 mm 0,0 UV-I 0 W/m² 2,9 °C 3,6 °C 4,8 km/h (1 Bft)
22.12.2017 22:29 3,6 °C 3,6 °C 95 % 1035,4 hPa 0,0 mm 5,2 km/h (1 Bft) W-SW 252 ° 0 min 0,000 mm 0,0 UV-I 0 W/m² 2,9 °C 2,4 °C 9,7 km/h (2 Bft)
22.12.2017 22:30 3,6 °C 3,6 °C 95 % 1035,4 hPa 0,0 mm 3,6 km/h (1 Bft) W-SW 252 ° 0 min 0,000 mm 0,0 UV-I 0 W/m² 2,9 °C 3,6 °C 4,8 km/h (1 Bft)
22.12.2017 22:31 3,6 °C 3,6 °C 95 % 1035,4 hPa 0,0 mm 3,6 km/h (1 Bft) W 259 ° 0 min 0,000 mm 0,0 UV-I 0 W/m² 2,9 °C 3,6 °C 9,7 km/h (2 Bft)
22.12.2017 22:32 3,6 °C 3,6 °C 95 % 1035,4 hPa 0,0 mm 6,8 km/h (2 Bft) W 261 ° 0 min 0,000 mm 0,0 UV-I 0 W/m² 2,9 °C 1,8 °C 9,7 km/h (2 Bft)
22.12.2017 22:33 3,6 °C 3,6 °C 95 % 1035,4 hPa 0,0 mm 4,6 km/h (1 Bft) W-SW 254 ° 0 min 0,000 mm 0,0 UV-I 0 W/m² 2,9 °C 2,7 °C 6,4 km/h (2 Bft)
22.12.2017 22:34 3,6 °C 3,6 °C 95 % 1035,4 hPa 0,0 mm 5,2 km/h (1 Bft) W 260 ° 0 min 0,000 mm 0,0 UV-I 0 W/m² 2,9 °C 2,4 °C 9,7 km/h (2 Bft)
22.12.2017 22:35 3,6 °C 3,6 °C 95 % 1035,4 hPa 0,0 mm 5,0 km/h (1 Bft) W-SW 258 ° 0 min 0,000 mm 0,0 UV-I 0 W/m² 2,9 °C 2,5 °C 8,0 km/h (2 Bft)
22.12.2017 22:36 3,6 °C 3,6 °C 95 % 1035,4 hPa 0,0 mm 4,6 km/h (1 Bft) W 275 ° 0 min 0,000 mm 0,0 UV-I 0 W/m² 2,9 °C 2,7 °C 6,4 km/h (2 Bft)
22.12.2017 22:37 3,6 °C 3,6 °C 95 % 1035,5 hPa 0,0 mm 5,6 km/h (1 Bft) W 263 ° 0 min 0,000 mm 0,0 UV-I 0 W/m² 2,9 °C 2,3 °C 11,3 km/h (2 Bft)
22.12.2017 22:38 3,6 °C 3,6 °C 95 % 1035,5 hPa 0,0 mm 4,9 km/h (1 Bft) W 271 ° 0 min 0,000 mm 0,0 UV-I 0 W/m² 2,9 °C 2,5 °C 9,7 km/h (2 Bft)
22.12.2017 22:39 3,6 °C 3,6 °C 95 % 1035,4 hPa 0,0 mm 5,4 km/h (1 Bft) W 263 ° 0 min 0,000 mm 0,0 UV-I 0 W/m² 2,9 °C 2,3 °C 6,4 km/h (2 Bft)
22.12.2017 22:40 3,6 °C 3,6 °C 95 % 1035,5 hPa 0,0 mm 4,2 km/h (1 Bft) W 263 ° 0 min 0,000 mm 0,0 UV-I 0 W/m² 2,9 °C 3,6 °C 6,4 km/h (2 Bft)
22.12.2017 22:41 3,6 °C 3,6 °C 95 % 1035,5 hPa 0,0 mm 4,2 km/h (1 Bft) W 273 ° 0 min 0,000 mm 0,0 UV-I 0 W/m² 2,9 °C 3,6 °C 9,7 km/h (2 Bft)
22.12.2017 22:42 3,6 °C 3,6 °C 95 % 1035,5 hPa 0,0 mm 5,5 km/h (1 Bft) W 259 ° 0 min 0,000 mm 0,0 UV-I 0 W/m² 2,9 °C 2,3 °C 9,7 km/h (2 Bft)
22.12.2017 22:43 3,6 °C 3,6 °C 95 % 1035,5 hPa 0,0 mm 5,3 km/h (1 Bft) W-SW 251 ° 0 min 0,000 mm 0,0 UV-I 0 W/m² 2,9 °C 2,4 °C 11,3 km/h (2 Bft)
22.12.2017 22:44 3,5 °C 3,6 °C 95 % 1035,5 hPa 0,0 mm 4,7 km/h (1 Bft) W-SW 248 ° 0 min 0,000 mm 0,0 UV-I 0 W/m² 2,8 °C 2,5 °C 9,7 km/h (2 Bft)
22.12.2017 22:45 3,5 °C 3,5 °C 95 % 1035,5 hPa 0,0 mm 4,3 km/h (1 Bft) W 264 ° 0 min 0,000 mm 0,0 UV-I 0 W/m² 2,8 °C 3,5 °C 8,0 km/h (2 Bft)
22.12.2017 22:46 3,5 °C 3,5 °C 95 % 1035,6 hPa 0,0 mm 3,1 km/h (1 Bft) W-SW 256 ° 0 min 0,000 mm 0,0 UV-I 0 W/m² 2,8 °C 3,5 °C 6,4 km/h (2 Bft)
22.12.2017 22:47 3,5 °C 3,5 °C 95 % 1035,6 hPa 0,0 mm 6,2 km/h (2 Bft) W 279 ° 0 min 0,000 mm 0,0 UV-I 0 W/m² 2,8 °C 1,9 °C 11,3 km/h (2 Bft)
22.12.2017 22:48 3,5 °C 3,5 °C 95 % 1035,6 hPa 0,0 mm 4,0 km/h (1 Bft) W 265 ° 0 min 0,000 mm 0,0 UV-I 0 W/m² 2,8 °C 3,5 °C 4,8 km/h (1 Bft)
22.12.2017 22:49 3,5 °C 3,5 °C 95 % 1035,6 hPa 0,0 mm 2,6 km/h (1 Bft) W 265 ° 0 min 0,000 mm 0,0 UV-I 0 W/m² 2,8 °C 3,5 °C 4,8 km/h (1 Bft)
22.12.2017 22:50 3,5 °C 3,5 °C 95 % 1035,6 hPa 0,0 mm 2,7 km/h (1 Bft) W-SW 251 ° 0 min 0,000 mm 0,0 UV-I 0 W/m² 2,8 °C 3,5 °C 4,8 km/h (1 Bft)
22.12.2017 22:51 3,5 °C 3,5 °C 95 % 1035,5 hPa 0,0 mm 3,7 km/h (1 Bft) SW 230 ° 0 min 0,000 mm 0,0 UV-I 0 W/m² 2,8 °C 3,5 °C 6,4 km/h (2 Bft)
22.12.2017 22:52 3,5 °C 3,5 °C 95 % 1035,5 hPa 0,0 mm 4,2 km/h (1 Bft) W-SW 243 ° 0 min 0,000 mm 0,0 UV-I 0 W/m² 2,8 °C 3,5 °C 6,4 km/h (2 Bft)
22.12.2017 22:53 3,5 °C 3,5 °C 95 % 1035,5 hPa 0,0 mm 3,9 km/h (1 Bft) W-SW 240 ° 0 min 0,000 mm 0,0 UV-I 0 W/m² 2,8 °C 3,5 °C 4,8 km/h (1 Bft)
22.12.2017 22:54 3,5 °C 3,5 °C 95 % 1035,5 hPa 0,0 mm 2,9 km/h (1 Bft) W-SW 239 ° 0 min 0,000 mm 0,0 UV-I 0 W/m² 2,8 °C 3,5 °C 4,8 km/h (1 Bft)
22.12.2017 22:55 3,5 °C 3,6 °C 95 % 1035,5 hPa 0,0 mm 1,1 km/h (1 Bft) W-SW 239 ° 0 min 0,000 mm 0,0 UV-I 0 W/m² 2,8 °C 3,5 °C 3,2 km/h (1 Bft)
22.12.2017 22:56 3,6 °C 3,6 °C 95 % 1035,5 hPa 0,0 mm 2,3 km/h (1 Bft) W-SW 239 ° 0 min 0,000 mm 0,0 UV-I 0 W/m² 2,9 °C 3,6 °C 4,8 km/h (1 Bft)
22.12.2017 22:57 3,6 °C 3,6 °C 95 % 1035,5 hPa 0,0 mm 3,5 km/h (1 Bft) SW 226 ° 0 min 0,000 mm 0,0 UV-I 0 W/m² 2,9 °C 3,6 °C 6,4 km/h (2 Bft)
22.12.2017 22:58 3,6 °C 3,6 °C 95 % 1035,5 hPa 0,0 mm 2,5 km/h (1 Bft) SW 214 ° 0 min 0,000 mm 0,0 UV-I 0 W/m² 2,9 °C 3,6 °C 6,4 km/h (2 Bft)
22.12.2017 22:59 3,6 °C 3,6 °C 95 % 1035,5 hPa 0,0 mm 3,5 km/h (1 Bft) W-SW 257 ° 0 min 0,000 mm 0,0 UV-I 0 W/m² 2,9 °C 3,6 °C 6,4 km/h (2 Bft)
22.12.2017 23:00 3,6 °C 3,6 °C 95 % 1035,5 hPa 0,0 mm 3,7 km/h (1 Bft) W-SW 248 ° 0 min 0,000 mm 0,0 UV-I 0 W/m² 2,9 °C 3,6 °C 9,7 km/h (2 Bft)
22.12.2017 23:01 3,6 °C 3,6 °C 95 % 1035,4 hPa 0,0 mm 3,0 km/h (1 Bft) SW 230 ° 0 min 0,000 mm 0,0 UV-I 0 W/m² 2,9 °C 3,6 °C 4,8 km/h (1 Bft)
22.12.2017 23:02 3,6 °C 3,6 °C 95 % 1035,5 hPa 0,0 mm 2,5 km/h (1 Bft) SW 231 ° 0 min 0,000 mm 0,0 UV-I 0 W/m² 2,9 °C 3,6 °C 3,2 km/h (1 Bft)
22.12.2017 23:03 3,6 °C 3,6 °C 95 % 1035,5 hPa 0,0 mm 5,0 km/h (1 Bft) SW 219 ° 0 min 0,000 mm 0,0 UV-I 0 W/m² 2,9 °C 2,5 °C 6,4 km/h (2 Bft)
22.12.2017 23:04 3,6 °C 3,6 °C 95 % 1035,4 hPa 0,0 mm 4,7 km/h (1 Bft) W-SW 240 ° 0 min 0,000 mm 0,0 UV-I 0 W/m² 2,9 °C 2,6 °C 9,7 km/h (2 Bft)
22.12.2017 23:05 3,6 °C 3,6 °C 95 % 1035,5 hPa 0,0 mm 4,2 km/h (1 Bft) W-SW 238 ° 0 min 0,000 mm 0,0 UV-I 0 W/m² 2,9 °C 3,6 °C 8,0 km/h (2 Bft)
22.12.2017 23:06 3,6 °C 3,6 °C 95 % 1035,5 hPa 0,0 mm 3,9 km/h (1 Bft) W-SW 247 ° 0 min 0,000 mm 0,0 UV-I 0 W/m² 2,9 °C 3,6 °C 9,7 km/h (2 Bft)
22.12.2017 23:07 3,6 °C 3,6 °C 95 % 1035,5 hPa 0,0 mm 3,0 km/h (1 Bft) SW 224 ° 0 min 0,000 mm 0,0 UV-I 0 W/m² 2,9 °C 3,6 °C 4,8 km/h (1 Bft)
22.12.2017 23:08 3,6 °C 3,7 °C 95 % 1035,5 hPa 0,0 mm 4,0 km/h (1 Bft) W-SW 248 ° 0 min 0,000 mm 0,0 UV-I 0 W/m² 2,9 °C 3,6 °C 6,4 km/h (2 Bft)
22.12.2017 23:09 3,6 °C 3,6 °C 95 % 1035,5 hPa 0,0 mm 3,1 km/h (1 Bft) W-SW 245 ° 0 min 0,000 mm 0,0 UV-I 0 W/m² 2,9 °C 3,6 °C 6,4 km/h (2 Bft)
22.12.2017 23:10 3,6 °C 3,6 °C 95 % 1035,5 hPa 0,0 mm 3,1 km/h (1 Bft) W-SW 240 ° 0 min 0,000 mm 0,0 UV-I 0 W/m² 2,9 °C 3,6 °C 4,8 km/h (1 Bft)
22.12.2017 23:11 3,6 °C 3,7 °C 95 % 1035,6 hPa 0,0 mm 6,4 km/h (2 Bft) W 271 ° 0 min 0,000 mm 0,0 UV-I 0 W/m² 2,9 °C 2,0 °C 11,3 km/h (2 Bft)
22.12.2017 23:12 3,6 °C 3,7 °C 95 % 1035,6 hPa 0,0 mm 2,4 km/h (1 Bft) W-SW 254 ° 0 min 0,000 mm 0,0 UV-I 0 W/m² 2,9 °C 3,6 °C 4,8 km/h (1 Bft)
22.12.2017 23:13 3,6 °C 3,7 °C 95 % 1035,6 hPa 0,0 mm 1,6 km/h (1 Bft) W-SW 254 ° 0 min 0,000 mm 0,0 UV-I 0 W/m² 2,9 °C 3,6 °C 3,2 km/h (1 Bft)
22.12.2017 23:14 3,6 °C 3,7 °C 95 % 1035,6 hPa 0,0 mm 4,1 km/h (1 Bft) W-SW 254 ° 0 min 0,000 mm 0,0 UV-I 0 W/m² 2,9 °C 3,6 °C 6,4 km/h (2 Bft)
22.12.2017 23:15 3,6 °C 3,6 °C 95 % 1035,6 hPa 0,0 mm 2,3 km/h (1 Bft) W-SW 254 ° 0 min 0,000 mm 0,0 UV-I 0 W/m² 2,9 °C 3,6 °C 4,8 km/h (1 Bft)
22.12.2017 23:16 3,6 °C 3,6 °C 95 % 1035,6 hPa 0,0 mm 3,4 km/h (1 Bft) W-SW 254 ° 0 min 0,000 mm 0,0 UV-I 0 W/m² 2,9 °C 3,6 °C 4,8 km/h (1 Bft)
22.12.2017 23:17 3,6 °C 3,6 °C 95 % 1035,6 hPa 0,0 mm 3,6 km/h (1 Bft) W 264 ° 0 min 0,000 mm 0,0 UV-I 0 W/m² 2,9 °C 3,6 °C 6,4 km/h (2 Bft)
22.12.2017 23:18 3,6 °C 3,6 °C 95 % 1035,6 hPa 0,0 mm 3,8 km/h (1 Bft) W 268 ° 0 min 0,000 mm 0,0 UV-I 0 W/m² 2,9 °C 3,6 °C 4,8 km/h (1 Bft)
22.12.2017 23:19 3,6 °C 3,6 °C 95 % 1035,7 hPa 0,0 mm 4,0 km/h (1 Bft) W 265 ° 0 min 0,000 mm 0,0 UV-I 0 W/m² 2,9 °C 3,6 °C 6,4 km/h (2 Bft)
22.12.2017 23:20 3,6 °C 3,6 °C 95 % 1035,7 hPa 0,0 mm 1,4 km/h (1 Bft) W 265 ° 0 min 0,000 mm 0,0 UV-I 0 W/m² 2,9 °C 3,6 °C 3,2 km/h (1 Bft)
22.12.2017 23:21 3,6 °C 3,6 °C 95 % 1035,7 hPa 0,0 mm 1,0 km/h (0 Bft) W 265 ° 0 min 0,000 mm 0,0 UV-I 0 W/m² 2,9 °C 3,6 °C 1,6 km/h (1 Bft)
22.12.2017 23:22 3,6 °C 3,6 °C 95 % 1035,8 hPa 0,0 mm 1,9 km/h (1 Bft) W 265 ° 0 min 0,000 mm 0,0 UV-I 0 W/m² 2,9 °C 3,6 °C 3,2 km/h (1 Bft)
22.12.2017 23:23 3,6 °C 3,6 °C 95 % 1035,8 hPa 0,0 mm 1,9 km/h (1 Bft) W 265 ° 0 min 0,000 mm 0,0 UV-I 0 W/m² 2,9 °C 3,6 °C 3,2 km/h (1 Bft)
22.12.2017 23:24 3,6 °C 3,6 °C 95 % 1035,8 hPa 0,0 mm 1,0 km/h (0 Bft) W 265 ° 0 min 0,000 mm 0,0 UV-I 0 W/m² 2,9 °C 3,6 °C 1,6 km/h (1 Bft)
22.12.2017 23:25 3,6 °C 3,6 °C 95 % 1035,8 hPa 0,0 mm 1,1 km/h (1 Bft) W 265 ° 0 min 0,000 mm 0,0 UV-I 0 W/m² 2,9 °C 3,6 °C 4,8 km/h (1 Bft)
22.12.2017 23:26 3,6 °C 3,6 °C 95 % 1035,8 hPa 0,0 mm 3,8 km/h (1 Bft) W 263 ° 0 min 0,000 mm 0,0 UV-I 0 W/m² 2,9 °C 3,6 °C 6,4 km/h (2 Bft)
22.12.2017 23:27 3,6 °C 3,6 °C 95 % 1035,8 hPa 0,0 mm 1,5 km/h (1 Bft) W 262 ° 0 min 0,000 mm 0,0 UV-I 0 W/m² 2,9 °C 3,6 °C 4,8 km/h (1 Bft)
22.12.2017 23:28 3,6 °C 3,6 °C 95 % 1035,9 hPa 0,0 mm 0,7 km/h (0 Bft) W 262 ° 0 min 0,000 mm 0,0 UV-I 0 W/m² 2,9 °C 3,6 °C 1,6 km/h (1 Bft)
22.12.2017 23:29 3,6 °C 3,6 °C 95 % 1035,9 hPa 0,0 mm 2,7 km/h (1 Bft) W 277 ° 0 min 0,000 mm 0,0 UV-I 0 W/m² 2,9 °C 3,6 °C 4,8 km/h (1 Bft)
22.12.2017 23:30 3,6 °C 3,6 °C 95 % 1036,0 hPa 0,0 mm 3,6 km/h (1 Bft) W-SW 250 ° 0 min 0,000 mm 0,0 UV-I 0 W/m² 2,9 °C 3,6 °C 6,4 km/h (2 Bft)
22.12.2017 23:31 3,6 °C 3,6 °C 95 % 1036,0 hPa 0,0 mm 2,9 km/h (1 Bft) W-SW 254 ° 0 min 0,000 mm 0,0 UV-I 0 W/m² 2,9 °C 3,6 °C 4,8 km/h (1 Bft)
22.12.2017 23:32 3,6 °C 3,6 °C 95 % 1035,9 hPa 0,2 mm 1,3 km/h (1 Bft) W-SW 254 ° 0 min 0,000 mm 0,0 UV-I 0 W/m² 2,9 °C 3,6 °C 3,2 km/h (1 Bft)
22.12.2017 23:33 3,6 °C 3,6 °C 95 % 1035,9 hPa 0,0 mm 1,5 km/h (1 Bft) W-SW 254 ° 0 min 0,000 mm 0,0 UV-I 0 W/m² 2,9 °C 3,6 °C 4,8 km/h (1 Bft)
22.12.2017 23:34 3,6 °C 3,6 °C 95 % 1035,9 hPa 0,0 mm 2,0 km/h (1 Bft) W-SW 254 ° 0 min 0,000 mm 0,0 UV-I 0 W/m² 2,9 °C 3,6 °C 4,8 km/h (1 Bft)
22.12.2017 23:35 3,6 °C 3,6 °C 95 % 1035,9 hPa 0,0 mm 2,7 km/h (1 Bft) W-SW 256 ° 0 min 0,000 mm 0,0 UV-I 0 W/m² 2,9 °C 3,6 °C 6,4 km/h (2 Bft)
22.12.2017 23:36 3,6 °C 3,6 °C 95 % 1035,9 hPa 0,0 mm 3,5 km/h (1 Bft) W 265 ° 0 min 0,000 mm 0,0 UV-I 0 W/m² 2,9 °C 3,6 °C 4,8 km/h (1 Bft)
22.12.2017 23:37 3,6 °C 3,6 °C 95 % 1035,9 hPa 0,0 mm 3,4 km/h (1 Bft) W-SW 253 ° 0 min 0,000 mm 0,0 UV-I 0 W/m² 2,9 °C 3,6 °C 4,8 km/h (1 Bft)
22.12.2017 23:38 3,6 °C 3,6 °C 95 % 1035,9 hPa 0,0 mm 2,9 km/h (1 Bft) W-SW 256 ° 0 min 0,000 mm 0,0 UV-I 0 W/m² 2,9 °C 3,6 °C 4,8 km/h (1 Bft)
22.12.2017 23:39 3,6 °C 3,6 °C 95 % 1035,9 hPa 0,0 mm 2,1 km/h (1 Bft) W-SW 256 ° 0 min 0,000 mm 0,0 UV-I 0 W/m² 2,9 °C 3,6 °C 4,8 km/h (1 Bft)
22.12.2017 23:40 3,6 °C 3,6 °C 95 % 1035,9 hPa 0,0 mm 2,7 km/h (1 Bft) W-SW 258 ° 0 min 0,000 mm 0,0 UV-I 0 W/m² 2,9 °C 3,6 °C 4,8 km/h (1 Bft)
22.12.2017 23:41 3,5 °C 3,6 °C 95 % 1035,9 hPa 0,0 mm 2,4 km/h (1 Bft) W-SW 258 ° 0 min 0,000 mm 0,0 UV-I 0 W/m² 2,8 °C 3,5 °C 3,2 km/h (1 Bft)
22.12.2017 23:42 3,5 °C 3,6 °C 95 % 1035,9 hPa 0,0 mm 1,8 km/h (1 Bft) W-SW 258 ° 0 min 0,000 mm 0,0 UV-I 0 W/m² 2,8 °C 3,5 °C 3,2 km/h (1 Bft)
22.12.2017 23:43 3,6 °C 3,6 °C 95 % 1035,9 hPa 0,0 mm 1,3 km/h (1 Bft) W-SW 258 ° 0 min 0,000 mm 0,0 UV-I 0 W/m² 2,9 °C 3,6 °C 3,2 km/h (1 Bft)
22.12.2017 23:44 3,6 °C 3,6 °C 95 % 1035,9 hPa 0,0 mm 1,6 km/h (1 Bft) W-SW 258 ° 0 min 0,000 mm 0,0 UV-I 0 W/m² 2,9 °C 3,6 °C 3,2 km/h (1 Bft)
22.12.2017 23:45 3,6 °C 3,6 °C 95 % 1035,9 hPa 0,0 mm 2,3 km/h (1 Bft) W-SW 258 ° 0 min 0,000 mm 0,0 UV-I 0 W/m² 2,9 °C 3,6 °C 3,2 km/h (1 Bft)
22.12.2017 23:46 3,6 °C 3,6 °C 95 % 1035,9 hPa 0,0 mm 3,6 km/h (1 Bft) W-SW 238 ° 0 min 0,000 mm 0,0 UV-I 0 W/m² 2,9 °C 3,6 °C 6,4 km/h (2 Bft)
22.12.2017 23:47 3,6 °C 3,6 °C 95 % 1035,9 hPa 0,0 mm 3,2 km/h (1 Bft) W 259 ° 0 min 0,000 mm 0,0 UV-I 0 W/m² 2,9 °C 3,6 °C 4,8 km/h (1 Bft)
22.12.2017 23:48 3,6 °C 3,6 °C 95 % 1035,9 hPa 0,0 mm 3,3 km/h (1 Bft) W-SW 258 ° 0 min 0,000 mm 0,0 UV-I 0 W/m² 2,9 °C 3,6 °C 4,8 km/h (1 Bft)
22.12.2017 23:49 3,6 °C 3,6 °C 95 % 1035,9 hPa 0,0 mm 2,3 km/h (1 Bft) W-SW 258 ° 0 min 0,000 mm 0,0 UV-I 0 W/m² 2,9 °C 3,6 °C 3,2 km/h (1 Bft)
22.12.2017 23:50 3,6 °C 3,6 °C 95 % 1035,9 hPa 0,0 mm 1,5 km/h (1 Bft) W-SW 258 ° 0 min 0,000 mm 0,0 UV-I 0 W/m² 2,9 °C 3,6 °C 3,2 km/h (1 Bft)
22.12.2017 23:51 3,6 °C 3,6 °C 95 % 1035,9 hPa 0,0 mm 1,2 km/h (1 Bft) W-SW 258 ° 0 min 0,000 mm 0,0 UV-I 0 W/m² 2,9 °C 3,6 °C 3,2 km/h (1 Bft)
22.12.2017 23:52 3,6 °C 3,6 °C 95 % 1035,9 hPa 0,0 mm 2,0 km/h (1 Bft) W-SW 257 ° 0 min 0,000 mm 0,0 UV-I 0 W/m² 2,9 °C 3,6 °C 3,2 km/h (1 Bft)
22.12.2017 23:53 3,6 °C 3,6 °C 95 % 1035,9 hPa 0,0 mm 0,4 km/h (0 Bft) W-SW 257 ° 0 min 0,000 mm 0,0 UV-I 0 W/m² 2,9 °C 3,6 °C 1,6 km/h (1 Bft)
22.12.2017 23:54 3,6 °C 3,6 °C 95 % 1035,9 hPa 0,0 mm 2,2 km/h (1 Bft) W-SW 257 ° 0 min 0,000 mm 0,0 UV-I 0 W/m² 2,9 °C 3,6 °C 3,2 km/h (1 Bft)
22.12.2017 23:55 3,6 °C 3,6 °C 95 % 1035,9 hPa 0,0 mm 0,9 km/h (0 Bft) W-SW 257 ° 0 min 0,000 mm 0,0 UV-I 0 W/m² 2,9 °C 3,6 °C 3,2 km/h (1 Bft)
22.12.2017 23:56 3,6 °C 3,6 °C 95 % 1035,9 hPa 0,0 mm 1,6 km/h (1 Bft) W-SW 257 ° 0 min 0,000 mm 0,0 UV-I 0 W/m² 2,9 °C 3,6 °C 3,2 km/h (1 Bft)
22.12.2017 23:57 3,6 °C 3,6 °C 95 % 1035,9 hPa 0,0 mm 1,0 km/h (0 Bft) W-SW 257 ° 0 min 0,000 mm 0,0 UV-I 0 W/m² 2,9 °C 3,6 °C 1,6 km/h (1 Bft)
22.12.2017 23:58 3,6 °C 3,6 °C 95 % 1036,0 hPa 0,0 mm 0,0 km/h (0 Bft) W-SW 257 ° 0 min 0,000 mm 0,0 UV-I 0 W/m² 2,9 °C 3,6 °C 0,0 km/h (0 Bft)
22.12.2017 23:59 3,6 °C 3,6 °C 95 % 1036,0 hPa 0,0 mm 0,8 km/h (0 Bft) W-SW 257 ° 0 min 0,000 mm 0,0 UV-I 0 W/m² 2,9 °C 3,6 °C 3,2 km/h (1 Bft)
_ Min-Zeit 08:11 08:08 13:21 14:47 - 23:58 - - - - - - 08:11 02:28 23:58
Minimum _ 1,3 °C 1,3 °C 93 % 1032,6 hPa - 0,0 km/h (0 Bft) - - - - - - 0,4 °C -0,9 °C 0,0 km/h (0 Bft)
_ Max-Zeit 13:57 13:59 23:59 00:16 23:32 14:09 - - 23:59 14:00 13:22 12:02 13:52 13:57 18:30
Maximum _ 4,2 °C 4,2 °C 95 % 1037,2 hPa 0,2 mm 12,1 km/h
SW (2 Bft)
- - 0 min 0,051 mm 0,9 UV-I 137 W/m² 3,5 °C 4,2 °C 20,9 km/h
W (4 Bft)
Durchschnitt _ 2,9 °C 2,9 °C 94 % 1034,7 hPa #10,4 mm 3,4 km/h (1 Bft) W-SW - #0 min. #0,203 mm 0,7 UV-I 22 W/m² 2,0 °C 2,2 °C 5,6 km/h (1 Bft)